# Wetter Temperatur Luftdruck Luftfeuchtigkeit Sichtweite Windgeschwindigkeit Windrichtung Zeit
1 Clouds 14 1009 29 0 2.73 288.037 19:57 17.10.2019
2 Clouds 14 1009 29 0 2.73 288.037 19:38 17.10.2019
3 Clouds 14 1009 29 0 2.73 288.037 19:19 17.10.2019
4 Clouds 14 1009 29 0 2.73 288.037 18:43 17.10.2019
5 Clouds 12 1014 27 0 3 310.317 18:21 17.10.2019
6 Clouds 12 1014 27 0 3 310.317 17:58 17.10.2019
7 Clouds 12 1014 27 0 2.997 310 17:40 17.10.2019
8 Clouds 12 1014 27 0 2.997 310 17:22 17.10.2019
9 Clouds 12 1014 27 0 2.997 310 16:56 17.10.2019
10 Clouds 12 1014 27 0 2.997 310 16:37 17.10.2019
11 Clouds 12 1014 27 0 2.997 310 16:37 17.10.2019
12 Clouds 12 1014 27 0 2.997 310 16:18 17.10.2019
13 Clouds 12 1014 27 0 2.997 310 15:55 17.10.2019
14 Clouds 12 1014 27 0 2.997 310 15:37 17.10.2019
15 Clouds 8 1018 34 0 2.723 293 15:19 17.10.2019
16 Clouds 8 1018 33 0 2.839 286 14:42 17.10.2019
17 Clouds 8 1018 33 0 2.839 286 14:23 17.10.2019
18 Clouds 8 1018 33 0 2.839 286 13:56 17.10.2019
19 Clouds 8 1018 33 0 2.839 286 13:38 17.10.2019
20 Clouds 8 1018 33 0 2.839 286 13:18 17.10.2019
21 Clouds 8 1018 33 0 2.839 286 13:18 17.10.2019
22 Clouds 8 1018 33 0 2.839 286 12:41 17.10.2019
23 Clouds 6 1016 36 0 2.257 267 12:21 17.10.2019
24 Clouds 6 1016 36 0 2.257 267 11:59 17.10.2019
25 Clouds 6 1016 36 0 2.257 267 11:59 17.10.2019
26 Clouds 6 1016 36 0 2.257 267 11:40 17.10.2019
27 Clouds 6 1016 36 0 2.257 267 11:19 17.10.2019
28 Clouds 6 1016 36 0 2.257 267 10:55 17.10.2019
29 Clouds 6 1016 36 0 2.257 267 10:37 17.10.2019
30 Clouds 6 1016 36 0 2.257 267 10:18 17.10.2019
31 Clouds 6 1016 36 0 2.257 267 09:42 17.10.2019
32 Snow 8 1016 36 0 1.498 317 09:22 17.10.2019
33 Snow 8 1016 36 0 1.498 317 08:59 17.10.2019
34 Snow 8 1016 36 0 1.498 317 08:41 17.10.2019
35 Snow 8 1016 36 0 1.498 317 08:21 17.10.2019
36 Snow 8 1016 36 0 1.498 317 07:56 17.10.2019
37 Snow 8 1016 36 0 1.498 317 07:37 17.10.2019
38 Snow 8 1016 36 0 1.498 317 07:18 17.10.2019
39 Snow 8 1016 36 0 1.498 317 06:40 17.10.2019
40 Clouds 9 1016 47 0 2.406 311 06:21 17.10.2019
41 Clouds 9 1016 47 0 2.406 311 05:54 17.10.2019
42 Clouds 9 1016 47 0 2.406 311 05:32 17.10.2019
43 Clouds 9 1016 47 0 2.406 311 04:55 17.10.2019
44 Clouds 9 1016 47 0 2.406 311 03:55 17.10.2019
45 Rain 10 1012 57 0 2.647 18 02:37 17.10.2019
46 Rain 10 1012 57 0 2.647 18 01:31 17.10.2019
47 Rain 10 1012 57 0 2.647 18 00:40 17.10.2019
48 Rain 13 1007 41 0 5.795 41 00:19 17.10.2019
49 Rain 13 1007 41 0 5.795 41 23:42 16.10.2019
50 Rain 13 1007 41 0 5.795 41 23:21 16.10.2019
51 Rain 13 1007 41 0 5.795 41 22:56 16.10.2019
52 Rain 13 1007 41 0 5.795 41 22:56 16.10.2019
53 Rain 13 1007 41 0 5.795 41 22:37 16.10.2019
54 Rain 13 1007 41 0 5.795 41 22:37 16.10.2019
55 Rain 13 1007 41 0 5.795 41 22:19 16.10.2019
56 Rain 13 1007 41 0 5.795 41 22:19 16.10.2019
57 Rain 13 1007 41 0 5.795 41 22:19 16.10.2019
58 Rain 13 1007 41 0 5.795 41 21:57 16.10.2019
59 Rain 14 1006 33 0 4.864 16 21:38 16.10.2019
60 Clouds 15 1009 26 0 3.979 358 21:19 16.10.2019
61 Clouds 15 1009 26 0 3.979 358 20:58 16.10.2019
62 Clouds 15 1009 26 0 3.979 358 20:58 16.10.2019
63 Clouds 15 1009 26 0 3.979 358 20:39 16.10.2019
64 Clouds 15 1009 26 0 3.979 358 20:21 16.10.2019
65 Clouds 15 1009 26 0 3.979 358 19:59 16.10.2019
66 Clouds 15 1009 26 0 3.979 358 19:39 16.10.2019
67 Clouds 15 1009 26 0 3.979 358 19:21 16.10.2019
68 Clouds 15 1009 26 0 3.979 358 18:55 16.10.2019
69 Clouds 15 1009 26 0 3.979 358 18:36 16.10.2019
70 Clouds 12 1014 26 0 3.045 14 18:18 16.10.2019
71 Clouds 12 1014 26 0 3.045 14 17:54 16.10.2019
72 Clouds 12 1014 26 0 3.045 14 17:54 16.10.2019
73 Clouds 12 1014 26 0 3.045 14 17:36 16.10.2019
74 Clouds 12 1014 26 0 3.045 14 17:36 16.10.2019
75 Clouds 12 1014 26 0 3.045 14 17:18 16.10.2019
76 Clouds 12 1014 26 0 3.045 14 16:42 16.10.2019
77 Clouds 12 1014 26 0 3.045 14 16:21 16.10.2019
78 Clouds 12 1014 26 0 3.045 14 15:58 16.10.2019
79 Clouds 12 1014 26 0 3.045 14 15:39 16.10.2019
80 Clouds 12 1014 26 0 3.045 14 15:39 16.10.2019
81 Clouds 12 1014 26 0 3.045 14 15:39 16.10.2019
82 Clouds 8 1018 44 0 1.558 332 15:19 16.10.2019
83 Clouds 8 1018 44 0 1.558 332 14:58 16.10.2019
84 Clouds 8 1019 42 0 1.442 345 14:39 16.10.2019
85 Clouds 8 1019 42 0 1.442 345 14:19 16.10.2019
86 Clouds 8 1019 42 0 1.442 345 13:57 16.10.2019
87 Clouds 8 1019 42 0 1.442 345 13:38 16.10.2019
88 Clouds 8 1019 42 0 1.442 345 13:38 16.10.2019
89 Clouds 8 1019 42 0 1.442 345 13:20 16.10.2019
90 Clouds 8 1019 42 0 1.442 345 12:42 16.10.2019
91 Clouds 6 1017 67 0 1.173 328 12:20 16.10.2019
92 Clouds 6 1017 67 0 1.173 328 11:45 16.10.2019
93 Clouds 6 1017 67 0 1.173 328 11:45 16.10.2019
94 Clouds 6 1017 67 0 1.173 328 11:19 16.10.2019
95 Clouds 6 1017 67 0 1.173 328 10:56 16.10.2019
96 Clouds 6 1017 67 0 1.173 328 10:36 16.10.2019
97 Clouds 6 1017 67 0 1.173 328 10:18 16.10.2019
98 Clouds 6 1017 68 0 1.464 354 09:40 16.10.2019
99 Clouds 7 1017 66 0 0.421 300 09:22 16.10.2019
100 Clouds 7 1017 66 0 0.421 300 08:56 16.10.2019
101 Clouds 7 1017 66 0 0.421 300 08:37 16.10.2019
102 Clouds 7 1017 66 0 0.421 300 08:19 16.10.2019
103 Clouds 7 1017 66 0 0.421 300 07:41 16.10.2019
104 Clouds 7 1017 66 0 0.421 300 07:23 16.10.2019
105 Clouds 7 1017 66 0 0.421 300 06:47 16.10.2019
106 Clouds 7 1017 66 0 0.421 300 06:28 16.10.2019
107 Clouds 8 1016 62 0 1.723 0 04:31 16.10.2019
108 Rain 8 1014 66 0 2.53 56 02:51 16.10.2019
109 Rain 9 1014 60 0 3.034 63 01:20 16.10.2019
110 Rain 9 1014 60 0 3.034 63 00:59 16.10.2019
111 Rain 9 1014 60 0 3.034 63 00:40 16.10.2019
112 Rain 11 1009 49 0 4.86 64 23:59 15.10.2019
113 Rain 11 1009 49 0 4.86 64 23:38 15.10.2019
114 Rain 11 1009 49 0 4.86 64 23:20 15.10.2019
115 Rain 11 1009 49 0 4.86 64 22:55 15.10.2019
116 Rain 11 1009 49 0 4.86 64 22:37 15.10.2019
117 Rain 11 1009 49 0 4.86 64 22:18 15.10.2019
118 Rain 11 1009 49 0 4.86 64 22:18 15.10.2019
119 Rain 11 1009 49 0 4.86 64 21:55 15.10.2019
120 Rain 11 1009 53 0 3.959 46 21:36 15.10.2019
121 Rain 11 1009 53 0 3.959 46 21:36 15.10.2019
122 Clouds 14 1011 31 0 2.831 26 21:18 15.10.2019
123 Clouds 14 1011 31 0 2.831 26 20:55 15.10.2019
124 Clouds 14 1011 31 0 2.831 26 20:37 15.10.2019
125 Clouds 14 1011 31 0 2.831 26 20:19 15.10.2019
126 Clouds 14 1011 31 0 2.831 26 19:55 15.10.2019
127 Clouds 14 1011 31 0 2.831 26 19:36 15.10.2019
128 Clouds 14 1011 31 0 2.831 26 19:18 15.10.2019
129 Clouds 14 1011 31 0 2.831 26 18:43 15.10.2019
130 Clouds 14 1011 31 0 2.831 26 18:25 15.10.2019
131 Clear 11 1016 34 0 2.464 17 17:55 15.10.2019
132 Clear 11 1016 34 0 2.464 17 17:37 15.10.2019
133 Clear 11 1016 34 0 2.464 17 17:37 15.10.2019
134 Clear 11 1016 34 0 2.464 17 17:18 15.10.2019
135 Clear 11 1016 34 0 2.464 17 16:43 15.10.2019
136 Clear 11 1016 34 0 2.464 17 16:22 15.10.2019
137 Clear 11 1016 34 0 2.464 17 15:57 15.10.2019
138 Clear 11 1016 34 0 2.464 17 15:57 15.10.2019
139 Clear 11 1016 34 0 2.464 17 15:39 15.10.2019
140 Clear 11 1016 34 0 2.464 17 15:39 15.10.2019
141 Clear 7 1019 41 0 1.707 23 15:19 15.10.2019
142 Clear 7 1019 41 0 1.707 23 14:55 15.10.2019
143 Clear 7 1019 41 0 1.707 23 14:55 15.10.2019
144 Clouds 7 1019 37 0 1.489 22 14:36 15.10.2019
145 Clouds 7 1019 37 0 1.489 22 14:18 15.10.2019
146 Clouds 7 1019 37 0 1.489 22 13:43 15.10.2019
147 Clouds 7 1019 37 0 1.489 22 13:20 15.10.2019
148 Clouds 7 1019 37 0 1.489 22 12:56 15.10.2019
149 Clouds 7 1019 37 0 1.489 22 12:37 15.10.2019
150 Clouds 5 1018 47 0 0.461 250 12:18 15.10.2019
151 Clouds 5 1018 47 0 0.461 250 11:42 15.10.2019
152 Clouds 5 1018 47 0 0.461 250 11:20 15.10.2019
153 Clouds 5 1018 47 0 0.461 250 10:56 15.10.2019
154 Clouds 5 1018 47 0 0.46 250.622 10:37 15.10.2019
155 Clouds 5 1018 47 0 0.46 250.622 10:18 15.10.2019
156 Clouds 5 1018 47 0 0.46 250.622 09:41 15.10.2019
157 Clear 7 1018 58 0 0.41 218.267 09:21 15.10.2019
158 Clear 7 1018 58 0 0.41 218.267 09:21 15.10.2019
159 Clear 6 1018 57 0 0.98 189.501 08:58 15.10.2019
160 Clear 6 1018 57 0 0.98 189.501 08:58 15.10.2019
161 Clear 6 1018 57 0 0.98 189.501 08:58 15.10.2019
162 Clear 6 1018 57 0 0.98 189.501 08:40 15.10.2019
163 Clear 6 1018 57 0 0.98 189.501 08:20 15.10.2019
164 Clear 6 1018 57 0 0.98 189.501 07:48 15.10.2019
165 Clear 6 1018 57 0 0.98 189.501 07:23 15.10.2019
166 Clear 6 1018 57 0 0.98 189.501 06:58 15.10.2019
167 Clear 6 1018 57 0 0.98 189.501 06:40 15.10.2019
168 Rain 7 1017 76 0 1.15 52.038 05:58 15.10.2019
169 Rain 7 1017 76 0 1.15 52.038 05:37 15.10.2019
170 Rain 7 1017 76 0 1.15 52.038 04:53 15.10.2019
171 Rain 7 1017 76 0 1.15 52.038 04:20 15.10.2019
172 Rain 7 1017 76 0 1.15 52.038 03:35 15.10.2019
173 Rain 8 1015 72 0 3.02 40.383 02:19 15.10.2019
174 Rain 8 1015 72 0 3.02 40.383 01:41 15.10.2019
175 Rain 7 1015 74 0 4.09 43.871 01:18 15.10.2019
176 Rain 7 1015 74 0 4.09 43.871 00:26 15.10.2019
177 Rain 10 1009 57 0 4.31 32.972 23:59 14.10.2019
178 Rain 10 1009 57 0 4.31 32.972 23:39 14.10.2019
179 Rain 10 1009 57 0 4.31 32.972 23:19 14.10.2019
180 Rain 10 1009 57 0 4.31 32.972 22:40 14.10.2019
181 Rain 10 1009 57 0 4.31 32.972 22:21 14.10.2019
182 Rain 10 1009 57 0 4.31 32.972 21:59 14.10.2019
183 Rain 10 1009 57 0 4.31 32.972 21:40 14.10.2019
184 Clouds 14 1010 30 0 2.35 339.341 21:21 14.10.2019
185 Clouds 14 1010 30 0 2.35 339.341 21:21 14.10.2019
186 Clouds 13 1010 30 0 2.52 342.241 20:58 14.10.2019
187 Clouds 13 1010 30 0 2.52 342.241 20:38 14.10.2019
188 Clouds 13 1010 30 0 2.52 342.241 20:20 14.10.2019
189 Clouds 13 1010 30 0 2.52 342.241 19:58 14.10.2019
190 Clouds 13 1010 30 0 2.521 342 19:39 14.10.2019
191 Clouds 13 1010 30 0 2.521 342 19:39 14.10.2019
192 Clouds 13 1010 30 0 2.521 342 19:21 14.10.2019
193 Clouds 13 1010 30 0 2.521 342 19:21 14.10.2019
194 Clouds 13 1010 30 0 2.52 342.241 18:57 14.10.2019
195 Clouds 13 1010 30 0 2.52 342.241 18:57 14.10.2019
196 Clouds 13 1010 30 0 2.52 342.241 18:38 14.10.2019
197 Clear 11 1014 31 0 2.41 15.055 18:18 14.10.2019
198 Clear 11 1014 31 0 2.41 15.055 17:44 14.10.2019
199 Clear 11 1014 31 0 2.41 15.055 17:25 14.10.2019
200 Clear 11 1014 31 0 2.41 15.055 16:56 14.10.2019
201 Clear 11 1014 31 0 2.41 15.055 16:38 14.10.2019
202 Clear 11 1014 31 0 2.41 15.055 16:19 14.10.2019
203 Clear 11 1014 31 0 2.41 15.055 15:41 14.10.2019
204 Clouds 6 1018 56 0 1.46 347.135 15:22 14.10.2019
205 Clouds 6 1018 56 0 1.46 347.135 14:44 14.10.2019
206 Clouds 6 1018 56 0 1.46 347.135 14:26 14.10.2019
207 Clouds 6 1018 56 0 1.46 347.135 13:59 14.10.2019
208 Clouds 6 1018 56 0 1.46 347.135 13:41 14.10.2019
209 Clouds 6 1018 56 0 1.8 20.731 13:21 14.10.2019
210 Clouds 6 1018 56 0 1.8 20.731 12:43 14.10.2019
211 Clouds 4 1016 68 0 1.84 8.24 12:21 14.10.2019
212 Clouds 4 1016 68 0 1.84 8.24 12:21 14.10.2019
213 Clouds 4 1016 68 0 1.84 8.24 11:59 14.10.2019
214 Clouds 4 1016 68 0 1.84 8.24 11:41 14.10.2019
215 Clouds 4 1016 68 0 1.84 8.24 11:22 14.10.2019
216 Clouds 4 1016 68 0 1.84 8.24 10:44 14.10.2019
217 Clouds 4 1016 68 0 1.84 8.24 10:23 14.10.2019
218 Clouds 4 1016 68 0 1.84 8.24 09:59 14.10.2019
219 Clouds 4 1016 68 0 1.84 8.24 09:40 14.10.2019
220 Clouds 4 1016 68 0 1.84 8.24 09:40 14.10.2019
221 Rain 7 1015 61 0 1.83 340.525 09:20 14.10.2019
222 Rain 7 1015 61 0 1.83 340.525 08:48 14.10.2019
223 Rain 7 1015 61 0 1.83 340.525 08:23 14.10.2019
224 Rain 7 1015 61 0 1.83 340.525 07:45 14.10.2019
225 Rain 7 1015 61 0 1.83 340.525 07:23 14.10.2019
226 Rain 7 1015 61 0 1.83 340.525 06:56 14.10.2019
227 Rain 7 1015 61 0 1.83 340.525 06:56 14.10.2019
228 Rain 7 1015 61 0 1.83 340.525 06:28 14.10.2019
229 Rain 6 1015 72 0 1.86 38.771 05:53 14.10.2019
230 Rain 6 1015 72 0 1.86 38.771 04:59 14.10.2019
231 Rain 6 1015 72 0 1.86 38.771 03:49 14.10.2019
232 Rain 6 1012 78 0 1.72 55.486 03:22 14.10.2019
233 Rain 6 1012 78 0 1.72 55.486 01:56 14.10.2019
234 Rain 6 1012 78 0 1.89 70.173 01:18 14.10.2019
235 Rain 6 1012 78 0 1.89 70.173 00:41 14.10.2019
236 Rain 9 1007 60 0 6.07 43.069 00:18 14.10.2019
237 Rain 9 1007 60 0 6.07 43.069 23:40 13.10.2019
238 Rain 9 1007 60 0 6.07 43.069 23:19 13.10.2019
239 Rain 9 1007 60 0 6.07 43.069 22:56 13.10.2019
240 Rain 9 1007 60 0 6.07 43.069 22:38 13.10.2019
241 Rain 9 1007 60 0 6.07 43.069 22:19 13.10.2019
242 Rain 9 1007 60 0 6.07 43.069 21:56 13.10.2019
243 Rain 9 1007 60 0 6.07 43.069 21:36 13.10.2019
244 Rain 9 1007 60 0 6.07 43.069 21:36 13.10.2019
245 Clouds 16 1006 19 0 4.7 359.89 21:18 13.10.2019
246 Clouds 16 1006 19 0 4.7 359.89 21:18 13.10.2019
247 Clouds 16 1006 19 0 4.7 359.89 20:55 13.10.2019
248 Clouds 16 1006 19 0 4.67 356.315 20:37 13.10.2019
249 Clouds 16 1006 19 0 4.67 356.315 20:18 13.10.2019
250 Clouds 16 1006 19 0 4.67 356.315 19:54 13.10.2019
251 Clouds 16 1006 19 0 4.67 356.315 19:54 13.10.2019
252 Clouds 16 1006 19 0 4.67 356.315 19:36 13.10.2019
253 Clouds 16 1006 19 0 4.67 356.315 19:36 13.10.2019
254 Clouds 16 1006 19 0 4.67 356.315 19:18 13.10.2019
255 Clouds 16 1006 19 0 4.67 356.315 18:40 13.10.2019
256 Clouds 16 1006 19 0 4.67 356.315 18:40 13.10.2019
257 Clear 14 1009 22 0 2.02 20.799 18:21 13.10.2019
258 Clear 14 1009 22 0 2.02 20.799 17:59 13.10.2019
259 Clear 14 1009 22 0 2.02 20.799 17:41 13.10.2019
260 Clear 14 1009 22 0 2.02 20.799 17:23 13.10.2019
261 Clear 14 1009 22 0 2.02 20.799 16:44 13.10.2019
262 -273 0 0 0 0 0 16:20 13.10.2019
263 Clear 14 1009 22 0 2.02 20.799 15:58 13.10.2019
264 Clear 14 1009 22 0 2.02 20.799 15:39 13.10.2019
265 Clear 10 1013 37 0 1.97 267.56 15:20 13.10.2019
266 Clear 10 1013 37 0 1.97 267.56 14:58 13.10.2019
267 Clear 10 1013 37 0 1.97 267.56 14:39 13.10.2019
268 -273 0 0 0 0 0 14:39 13.10.2019
269 Clear 10 1013 37 0 1.97 267.56 14:21 13.10.2019
270 Clear 10 1013 37 0 1.97 267.56 13:56 13.10.2019
271 Clear 10 1013 37 0 1.97 267.56 13:37 13.10.2019
272 Clear 10 1013 35 0 2.4 266.126 13:19 13.10.2019
273 Clear 10 1013 35 0 2.4 266.126 12:56 13.10.2019
274 Clear 10 1013 35 0 2.4 266.126 12:37 13.10.2019
275 Clear 7 1011 42 0 2.09 252.518 12:18 13.10.2019
276 Clear 7 1011 42 0 2.09 252.518 11:55 13.10.2019
277 Clear 7 1011 42 0 2.09 252.518 11:55 13.10.2019
278 Clear 7 1011 42 0 2.09 252.518 11:37 13.10.2019
279 Clear 7 1011 42 0 2.09 252.518 11:37 13.10.2019
280 Clear 7 1011 42 0 2.09 252.518 11:18 13.10.2019
281 Clear 7 1011 42 0 2.09 252.518 10:41 13.10.2019
282 Clear 7 1011 42 0 2.09 252.518 10:41 13.10.2019
283 Clear 7 1011 42 0 2.09 252.518 10:23 13.10.2019
284 Clear 7 1011 42 0 2.09 252.518 10:23 13.10.2019
285 Clear 7 1011 42 0 2.09 252.518 09:41 13.10.2019
286 Clear 8 1011 52 0 0.69 319.148 09:22 13.10.2019
287 Clear 8 1011 52 0 0.69 319.148 08:59 13.10.2019
288 Clear 8 1011 51 0 0.63 306.888 08:40 13.10.2019
289 Clear 8 1011 51 0 0.63 306.888 08:21 13.10.2019
290 Clear 8 1011 51 0 0.63 306.888 07:46 13.10.2019
291 Clear 8 1011 51 0 0.63 306.888 07:21 13.10.2019
292 Clear 8 1011 51 0 0.63 306.888 06:42 13.10.2019
293 Clouds 10 1011 43 0 1.14 50.343 05:49 13.10.2019
294 Clouds 10 1011 43 0 1.14 50.343 04:52 13.10.2019
295 Clouds 10 1011 43 0 1.14 50.343 04:32 13.10.2019
296 Clouds 11 1008 36 0 3.07 52.898 02:42 13.10.2019
297 Clouds 11 1008 36 0 3.07 52.898 02:42 13.10.2019
298 Clouds 11 1008 36 0 3.07 52.898 01:59 13.10.2019
299 Clouds 11 1008 36 0 3.07 52.898 01:30 13.10.2019
300 Rain 7 1008 66 0 1.37 199.612 00:50 13.10.2019
301 Clouds 14 1003 18 0 4.16 43.509 00:22 13.10.2019
302 Clouds 14 1003 18 0 4.16 43.509 23:57 12.10.2019
303 Clouds 14 1003 18 0 4.16 43.509 23:39 12.10.2019
304 Clouds 14 1003 18 0 4.16 43.509 23:20 12.10.2019
305 Clouds 14 1003 18 0 4.16 43.509 22:57 12.10.2019
306 Clouds 14 1003 18 0 4.16 43.509 22:38 12.10.2019
307 Clouds 14 1003 18 0 4.16 43.509 22:20 12.10.2019
308 Clouds 14 1003 18 0 4.16 43.509 21:55 12.10.2019
309 Clouds 14 1003 18 0 4.16 43.509 21:37 12.10.2019
310 Clear 15 1006 11 0 3.23 53.954 21:19 12.10.2019
311 Clear 15 1006 11 0 3.54 51.267 20:41 12.10.2019
312 Clear 15 1006 11 0 3.54 51.267 20:41 12.10.2019
313 Clear 15 1006 11 0 3.54 51.267 20:23 12.10.2019
314 Clear 15 1006 11 0 3.54 51.267 19:40 12.10.2019
315 Clear 15 1006 11 0 3.54 51.267 19:40 12.10.2019
316 Clear 15 1006 11 0 3.54 51.267 19:22 12.10.2019
317 Clear 15 1006 11 0 3.54 51.267 18:59 12.10.2019
318 Clear 15 1006 11 0 3.54 51.267 18:40 12.10.2019
319 Clear 13 1011 13 0 3.43 62.292 18:22 12.10.2019
320 Clear 13 1011 13 0 3.43 62.292 17:44 12.10.2019
321 Clear 13 1011 13 0 3.43 62.292 17:19 12.10.2019
322 Clear 13 1011 13 0 3.43 62.292 16:55 12.10.2019
323 Clear 13 1011 13 0 3.43 62.292 16:36 12.10.2019
324 Clear 13 1011 13 0 3.43 62.292 16:36 12.10.2019
325 Clear 13 1011 13 0 3.43 62.292 16:18 12.10.2019
326 Clear 13 1011 13 0 3.43 62.292 15:44 12.10.2019
327 Clear 13 1011 13 0 3.43 62.292 15:25 12.10.2019
328 Clear 9 1015 18 0 0.7 261.579 14:55 12.10.2019
329 Clear 9 1015 18 0 0.7 261.579 14:55 12.10.2019
330 Clear 9 1015 18 0 0.7 261.579 14:37 12.10.2019
331 Clear 9 1015 18 0 0.7 261.579 14:18 12.10.2019
332 Clear 9 1015 18 0 0.7 261.579 13:43 12.10.2019
333 Clear 9 1015 18 0 0.7 261.579 13:43 12.10.2019
334 Clear 8 1016 21 0 0.62 37.093 13:25 12.10.2019
335 Clear 8 1016 21 0 0.62 37.093 12:40 12.10.2019
336 Clear 4 1014 35 0 0.16 340.894 12:22 12.10.2019
337 Clear 4 1014 35 0 0.16 340.894 11:59 12.10.2019
338 Clear 4 1014 35 0 0.16 340.894 11:40 12.10.2019
339 Clear 4 1014 35 0 0.16 340.894 11:22 12.10.2019
340 Clear 4 1014 35 0 0.16 340.894 10:56 12.10.2019
341 Clear 4 1014 35 0 0.16 340.894 10:36 12.10.2019
342 Clear 4 1014 35 0 0.16 340.894 10:18 12.10.2019
343 -273 0 0 0 0 0 09:54 12.10.2019
344 Clear 4 1014 35 0 0.16 340.894 09:54 12.10.2019
345 Clear 4 1014 35 0 0.16 340.894 09:36 12.10.2019
346 Clear 5 1014 36 0 0.57 307.673 09:18 12.10.2019
347 Clear 5 1014 36 0 0.57 307.673 09:18 12.10.2019
348 Clear 5 1014 36 0 0.41 349.242 08:41 12.10.2019
349 Clear 5 1014 36 0 0.41 349.242 08:20 12.10.2019
350 Clear 5 1014 36 0 0.41 349.242 08:20 12.10.2019
351 Clear 5 1014 36 0 0.41 349.242 08:20 12.10.2019
352 Clear 5 1014 36 0 0.41 349.242 07:36 12.10.2019
353 Clear 5 1014 36 0 0.41 349.242 07:18 12.10.2019
354 Clear 7 1014 31 0 0.81 321.727 05:53 12.10.2019
355 Clear 7 1014 31 0 0.81 321.727 05:24 12.10.2019
356 Clear 7 1014 31 0 0.81 321.727 04:26 12.10.2019
357 Clear 7 1014 31 0 0.81 321.727 03:42 12.10.2019
358 Clear 10 1011 21 0 3.26 42.252 02:28 12.10.2019
359 Clear 10 1011 22 0 3.18 46.565 01:30 12.10.2019
360 Clear 10 1011 22 0 3.18 46.565 00:43 12.10.2019
361 Clear 10 1011 22 0 3.18 46.565 00:24 12.10.2019
362 Clear 13 1006 15 0 8.34 50.117 23:41 11.10.2019
363 Clear 13 1006 15 0 8.34 50.117 23:21 11.10.2019
364 Clear 13 1006 15 0 8.34 50.117 22:59 11.10.2019
365 Clear 13 1006 15 0 8.34 50.117 22:37 11.10.2019
366 Clear 13 1006 15 0 8.34 50.117 22:37 11.10.2019
367 Clear 13 1006 15 0 8.34 50.117 22:18 11.10.2019
368 Clear 13 1006 15 0 8.34 50.117 21:40 11.10.2019
369 Clear 15 1009 8 0 6.46 49.226 21:21 11.10.2019
370 Clear 15 1009 8 0 6.68 49.115 20:55 11.10.2019
371 Clear 15 1009 8 0 6.68 49.115 20:37 11.10.2019
372 Clear 15 1009 8 0 6.68 49.115 20:18 11.10.2019
373 Clear 15 1009 8 0 6.68 49.115 19:54 11.10.2019
374 Clear 15 1009 8 0 6.68 49.115 19:36 11.10.2019
375 Clear 15 1009 8 0 6.68 49.115 19:18 11.10.2019
376 Clear 15 1009 8 0 6.68 49.115 18:39 11.10.2019
377 Clear 14 1013 6 0 4.43 60.003 18:19 11.10.2019
378 Clear 14 1013 6 0 4.43 60.003 17:59 11.10.2019
379 Clear 14 1013 6 0 4.43 60.003 17:38 11.10.2019
380 Clear 14 1013 6 0 4.43 60.003 17:20 11.10.2019
381 Clear 14 1013 6 0 4.43 60.003 16:59 11.10.2019
382 Clear 14 1013 6 0 4.43 60.003 16:39 11.10.2019
383 Clear 14 1013 6 0 4.43 60.003 16:19 11.10.2019
384 Clear 14 1013 6 0 4.43 60.003 15:57 11.10.2019
385 Clear 14 1013 6 0 4.43 60.003 15:37 11.10.2019
386 Clear 9 1017 9 0 0.4 178.846 15:18 11.10.2019
387 Clear 9 1017 9 0 0.4 178.846 14:44 11.10.2019
388 Clear 9 1017 9 0 0.4 178.846 14:25 11.10.2019
389 Clear 9 1017 9 0 0.4 178.846 13:47 11.10.2019
390 Clear 9 1017 9 0 0.12 118.496 13:27 11.10.2019
391 Clear 9 1017 9 0 0.12 118.496 12:59 11.10.2019
392 Clear 9 1017 9 0 0.12 118.496 12:41 11.10.2019
393 Clear 3 1016 29 0 0.89 268.069 12:22 11.10.2019
394 Clear 3 1016 29 0 0.89 268.069 11:59 11.10.2019
395 Clear 3 1016 29 0 0.89 268.069 11:39 11.10.2019
396 Clear 3 1016 29 0 0.89 268.069 11:21 11.10.2019
397 Clear 3 1016 29 0 0.89 268.069 10:56 11.10.2019
398 Clear 3 1016 29 0 0.89 268.069 10:38 11.10.2019
399 Clear 3 1016 29 0 0.89 268.069 10:19 11.10.2019
400 Clear 3 1016 29 0 0.89 268.069 09:43 11.10.2019
401 Clear 5 1016 44 0 0.76 299.53 09:21 11.10.2019
402 Clear 5 1016 44 0 0.76 299.53 08:59 11.10.2019
403 Clear 5 1016 44 0 0.76 299.53 08:39 11.10.2019
404 Clear 5 1016 44 0 0.76 299.53 08:39 11.10.2019
405 Clear 5 1016 44 0 0.76 299.53 08:20 11.10.2019
406 Clear 5 1016 44 0 0.76 299.53 07:58 11.10.2019
407 Clear 5 1016 44 0 0.76 299.53 07:39 11.10.2019
408 Clear 5 1016 44 0 0.76 299.53 07:20 11.10.2019
409 Clear 5 1016 44 0 0.76 299.53 06:43 11.10.2019
410 Clear 7 1016 38 0 1.06 22.263 06:20 11.10.2019
411 Clear 7 1016 38 0 1.06 22.263 05:32 11.10.2019
412 Clear 7 1016 38 0 1.06 22.263 04:59 11.10.2019
413 Clear 7 1016 38 0 1.06 22.263 03:46 11.10.2019
414 Clear 9 1014 28 0 3.72 44.411 01:57 11.10.2019
415 Clear 9 1014 28 0 3.35 49.768 00:42 11.10.2019
416 Clear 12 1010 19 0 6.36 42.954 00:22 11.10.2019
417 Clear 12 1010 19 0 6.36 42.954 23:42 10.10.2019
418 Clear 12 1010 19 0 6.36 42.954 23:20 10.10.2019
419 Clear 12 1010 19 0 6.36 42.954 22:57 10.10.2019
420 Clear 12 1010 19 0 6.36 42.954 22:37 10.10.2019
421 Clear 12 1010 19 0 6.36 42.954 22:19 10.10.2019
422 Clear 12 1010 19 0 6.36 42.954 21:54 10.10.2019
423 Clear 12 1010 19 0 6.36 42.954 21:36 10.10.2019
424 Clear 14 1011 13 0 6.79 43.651 21:18 10.10.2019
425 Clear 14 1011 13 0 6.89 44.976 20:41 10.10.2019
426 Clear 14 1011 13 0 6.89 44.976 20:21 10.10.2019
427 Clear 14 1011 13 0 6.89 44.976 19:58 10.10.2019
428 Clear 14 1011 13 0 6.89 44.976 19:39 10.10.2019
429 Clear 14 1011 13 0 6.89 44.976 19:20 10.10.2019
430 Clear 14 1011 13 0 6.89 44.976 18:56 10.10.2019
431 Clear 14 1011 13 0 6.89 44.976 18:38 10.10.2019
432 Clear 13 1015 15 0 4.39 67.343 18:19 10.10.2019
433 Clear 13 1015 15 0 4.39 67.343 17:41 10.10.2019
434 Clear 13 1015 15 0 4.39 67.343 17:41 10.10.2019
435 Clear 13 1015 15 0 4.39 67.343 17:20 10.10.2019
436 Clear 13 1015 15 0 4.39 67.343 16:58 10.10.2019
437 Clear 13 1015 15 0 4.39 67.343 16:40 10.10.2019
438 Clear 13 1015 15 0 4.39 67.343 16:21 10.10.2019
439 Clear 13 1015 15 0 4.39 67.343 15:44 10.10.2019
440 Clear 8 1019 35 0 0.49 80.328 15:25 10.10.2019
441 Clear 8 1019 35 0 0.49 80.328 14:59 10.10.2019
442 Clear 8 1019 35 0 0.49 80.328 14:38 10.10.2019
443 Clear 8 1019 35 0 0.49 80.328 14:19 10.10.2019
444 Clear 8 1019 35 0 0.49 80.328 13:59 10.10.2019
445 Clear 8 1019 35 0 0.49 80.328 13:41 10.10.2019
446 Clear 8 1019 35 0 0.63 25.664 13:20 10.10.2019
447 Clear 8 1019 35 0 0.63 25.664 12:56 10.10.2019
448 Clear 8 1019 35 0 0.63 25.664 12:56 10.10.2019
449 Clear 8 1019 35 0 0.63 25.664 12:38 10.10.2019
450 Clear 3 1018 54 0 0.34 133.701 12:19 10.10.2019
451 Clear 3 1018 54 0 0.34 133.701 11:55 10.10.2019
452 Clear 3 1018 54 0 0.34 133.701 11:37 10.10.2019
453 Clear 3 1018 54 0 0.34 133.701 11:18 10.10.2019
454 Clear 3 1018 54 0 0.34 133.701 10:44 10.10.2019
455 Clear 3 1018 54 0 0.34 133.701 10:25 10.10.2019
456 Clear 3 1018 54 0 0.34 133.701 09:56 10.10.2019
457 Clear 3 1018 54 0 0.34 133.701 09:37 10.10.2019
458 Clear 5 1018 53 0 1.04 273.745 09:19 10.10.2019
459 Clear 5 1018 53 0 1.04 273.745 08:41 10.10.2019
460 Clear 5 1018 53 0 1.04 273.745 08:23 10.10.2019
461 Clear 5 1018 53 0 1.04 273.745 07:59 10.10.2019
462 Clear 5 1018 53 0 1.04 273.745 07:40 10.10.2019
463 Clear 5 1018 53 0 1.04 273.745 07:20 10.10.2019
464 Clear 5 1018 53 0 1.04 273.745 06:45 10.10.2019
465 Clear 6 1019 47 0 1.97 10.746 06:24 10.10.2019
466 Clear 6 1019 47 0 1.97 10.746 05:25 10.10.2019
467 Clear 6 1019 47 0 1.97 10.746 04:37 10.10.2019
468 Clear 6 1019 47 0 1.97 10.746 03:42 10.10.2019
469 Rain 7 1017 44 0 4.32 38.498 01:43 10.10.2019
470 Rain 7 1017 44 0 4.32 38.498 01:43 10.10.2019
471 Rain 7 1017 50 0 4.39 45.756 01:24 10.10.2019
472 Rain 7 1017 50 0 4.39 45.756 00:53 10.10.2019
473 Rain 10 1013 42 0 7.7 59.637 00:22 10.10.2019
474 Rain 10 1013 42 0 7.7 59.637 23:40 09.10.2019
475 Rain 10 1013 42 0 7.7 59.637 23:20 09.10.2019
476 Rain 10 1013 42 0 7.7 59.637 22:44 09.10.2019
477 Rain 10 1013 42 0 7.7 59.637 22:24 09.10.2019
478 Rain 10 1013 42 0 7.7 59.637 21:59 09.10.2019
479 Rain 10 1013 42 0 7.7 59.637 21:40 09.10.2019
480 Clear 13 1014 17 0 3.98 58.918 21:20 09.10.2019
481 Clear 13 1014 19 0 4.38 54.368 20:56 09.10.2019
482 Clear 13 1014 19 0 4.38 54.368 20:38 09.10.2019
483 Clear 13 1014 19 0 4.38 54.368 20:38 09.10.2019
484 Clear 13 1014 19 0 4.38 54.368 20:19 09.10.2019
485 Clear 13 1014 19 0 4.38 54.368 19:58 09.10.2019
486 Clear 13 1014 19 0 4.38 54.368 19:39 09.10.2019
487 Clear 13 1014 19 0 4.38 54.368 19:20 09.10.2019
488 Clear 13 1014 19 0 4.38 54.368 18:38 09.10.2019
489 Clear 10 1019 20 0 3.37 57.405 18:19 09.10.2019
490 Clear 10 1019 20 0 3.37 57.405 17:57 09.10.2019
491 Clear 10 1019 20 0 3.37 57.405 17:37 09.10.2019
492 Clear 10 1019 20 0 3.37 57.405 17:19 09.10.2019
493 -273 0 0 0 0 0 16:55 09.10.2019
494 -273 0 0 0 0 0 16:54 09.10.2019
495 Clear 10 1019 20 0 3.37 57.405 16:36 09.10.2019
496 Clear 10 1019 20 0 3.37 57.405 16:18 09.10.2019
497 Clear 10 1019 20 0 3.37 57.405 15:54 09.10.2019
498 Clear 10 1019 20 0 3.37 57.405 15:36 09.10.2019
499 Clear 5 1023 40 0 1.13 356.961 15:18 09.10.2019
500 Clear 5 1023 40 0 1.13 356.961 15:18 09.10.2019
501 Clear 5 1023 40 0 1.13 356.961 14:41 09.10.2019
502 Clear 5 1023 40 0 1.13 356.961 14:18 09.10.2019
503 Clear 5 1023 40 0 1.13 356.961 13:40 09.10.2019
504 Clear 5 1023 43 0 1.52 2.519 13:22 09.10.2019
505 Clear 5 1023 43 0 1.52 2.519 13:22 09.10.2019
506 Clear 5 1023 43 0 1.52 2.519 12:59 09.10.2019
507 Clear 5 1023 43 0 1.52 2.519 12:41 09.10.2019
508 Clear 2 1022 65 0 0.41 7.366 12:22 09.10.2019
509 Clear 2 1022 65 0 0.41 7.366 11:56 09.10.2019
510 Clear 2 1022 65 0 0.41 7.366 11:37 09.10.2019
511 Clear 2 1022 65 0 0.41 7.366 11:37 09.10.2019
512 Clear 2 1022 65 0 0.41 7.366 11:19 09.10.2019
513 Clear 2 1022 65 0 0.41 7.366 10:45 09.10.2019
514 Clear 2 1022 65 0 0.41 7.366 10:22 09.10.2019
515 Clear 2 1022 65 0 0.41 7.366 09:59 09.10.2019
516 Clear 2 1022 65 0 0.41 7.366 09:41 09.10.2019
517 Clear 3 1021 67 0 0.4 335.225 09:19 09.10.2019
518 Clear 3 1021 67 0 0.4 335.225 08:55 09.10.2019
519 Clear 3 1021 69 0 0.4 319.63 08:37 09.10.2019
520 Clear 3 1021 69 0 0.4 319.63 08:18 09.10.2019
521 Clear 3 1021 69 0 0.4 319.63 07:42 09.10.2019
522 Clear 3 1021 69 0 0.4 319.63 07:22 09.10.2019
523 Clear 3 1021 69 0 0.4 319.63 06:52 09.10.2019
524 Clear 4 1021 60 0 2.32 39.571 06:20 09.10.2019
525 Clear 4 1021 60 0 2.32 39.571 06:20 09.10.2019
526 Clear 4 1021 60 0 2.32 39.571 05:46 09.10.2019
527 Clear 4 1021 60 0 2.32 39.571 04:27 09.10.2019
528 Clouds 6 1019 41 0 4.39 31.799 02:54 09.10.2019
529 Clouds 6 1019 41 0 4.39 31.799 01:44 09.10.2019
530 Clouds 6 1019 49 0 5.01 29.083 01:21 09.10.2019
531 Clouds 6 1019 49 0 5.01 29.083 01:21 09.10.2019
532 Clouds 6 1019 49 0 5.01 29.083 01:21 09.10.2019
533 Clouds 6 1019 49 0 5.01 29.083 00:58 09.10.2019
534 Clouds 6 1019 49 0 5.01 29.083 00:40 09.10.2019
535 Clouds 9 1014 34 0 5.75 61.227 00:21 09.10.2019
536 Clouds 9 1014 34 0 5.75 61.227 23:57 08.10.2019
537 Clouds 9 1014 34 0 5.75 61.227 23:36 08.10.2019
538 Clouds 9 1014 34 0 5.75 61.227 23:18 08.10.2019
539 Clouds 9 1014 34 0 5.75 61.227 22:39 08.10.2019
540 Clouds 9 1014 34 0 5.75 61.227 22:20 08.10.2019
541 Clouds 9 1014 34 0 5.75 61.227 22:20 08.10.2019
542 Clouds 9 1014 34 0 5.75 61.227 22:20 08.10.2019
543 Clouds 9 1014 34 0 5.75 61.227 21:58 08.10.2019
544 Clouds 9 1014 34 0 5.75 61.227 21:39 08.10.2019
545 Clouds 11 1015 16 0 3.48 84.56 21:19 08.10.2019
546 Clouds 11 1015 16 0 3.48 84.56 20:57 08.10.2019
547 Clouds 11 1015 16 0 4 88.597 20:39 08.10.2019
548 Clouds 11 1015 16 0 4 88.597 20:21 08.10.2019
549 Clouds 11 1015 16 0 4 88.597 19:58 08.10.2019
550 Clouds 11 1015 16 0 4 88.597 19:58 08.10.2019
551 Clouds 11 1015 16 0 4 88.597 19:40 08.10.2019
552 Clouds 11 1015 16 0 4 88.597 19:22 08.10.2019
553 Clouds 11 1015 16 0 4 88.597 18:55 08.10.2019
554 Clouds 11 1015 16 0 4 88.597 18:37 08.10.2019
555 Clear 9 1019 20 0 2.31 89.529 18:19 08.10.2019
556 Clear 9 1019 20 0 2.31 89.529 17:55 08.10.2019
557 Clear 9 1019 20 0 2.31 89.529 17:36 08.10.2019
558 Clear 9 1019 20 0 2.31 89.529 17:36 08.10.2019
559 Clouds 9 1040 66 10000 2.31 89.529 17:18 08.10.2019
560 Clouds 9 1040 66 10000 2.31 89.529 17:18 08.10.2019
561 Clouds 9 1040 66 10000 2.31 89.529 16:40 08.10.2019
562 Clouds 9 1040 66 10000 2.31 89.529 16:22 08.10.2019
563 Clouds 9 1040 66 10000 2.31 89.529 15:56 08.10.2019
564 Clear 9 1019 20 0 2.31 89.529 15:37 08.10.2019
565 Clear 4 1022 41 0 0.83 51.394 15:19 08.10.2019
566 Clear 4 1022 41 0 0.83 51.394 14:42 08.10.2019
567 Clear 4 1022 41 0 0.83 51.394 14:21 08.10.2019
568 Clear 4 1022 41 0 0.83 51.394 13:57 08.10.2019
569 Clear 4 1022 41 0 0.83 51.394 13:39 08.10.2019
570 Clear 4 1022 41 0 0.83 51.394 13:20 08.10.2019
571 Clear 4 1022 38 0 0.93 65.994 12:59 08.10.2019
572 Clear 4 1022 38 0 0.93 65.994 12:38 08.10.2019
573 Clear 1 1020 66 0 0.31 297.646 12:19 08.10.2019
574 Clear 1 1020 66 0 0.31 297.646 11:43 08.10.2019
575 -273 0 0 0 0 0 11:24 08.10.2019
576 Clear 1 1020 66 0 0.31 297.646 10:59 08.10.2019
577 Clear 1 1020 66 0 0.31 297.646 10:38 08.10.2019
578 Clear 1 1020 66 0 0.31 297.646 10:20 08.10.2019
579 Clear 1 1020 66 0 0.31 297.646 10:20 08.10.2019
580 Clear 1 1020 66 0 0.31 297.646 09:57 08.10.2019
581 Clear 1 1020 66 0 0.31 297.646 09:39 08.10.2019
582 Clear 2 1020 65 0 0.91 296.678 09:20 08.10.2019
583 Clear 2 1020 62 0 0.66 295.523 08:42 08.10.2019
584 Clear 2 1020 62 0 0.66 295.523 08:42 08.10.2019
585 Clear 2 1020 62 0 0.66 295.523 08:24 08.10.2019
586 Clear 2 1020 62 0 0.66 295.523 07:45 08.10.2019
587 Clear 2 1020 62 0 0.66 295.523 07:22 08.10.2019
588 Clear 2 1020 62 0 0.66 295.523 06:56 08.10.2019
589 Clear 2 1020 62 0 0.66 295.523 06:32 08.10.2019
590 Clear 3 1020 63 0 1.59 33 05:57 08.10.2019
591 Clear 3 1020 63 0 1.59 33 05:36 08.10.2019
592 Clear 3 1020 63 0 1.59 33 05:36 08.10.2019
593 Clear 3 1020 63 0 1.59 33 04:36 08.10.2019
594 Clear 3 1020 63 0 1.59 33 03:29 08.10.2019
595 Clouds 4 1018 60 0 2.34 49.749 02:39 08.10.2019
596 Clouds 4 1018 60 0 2.34 49.749 01:49 08.10.2019
597 Clouds 4 1018 60 0 2.34 49.749 01:31 08.10.2019
598 Clouds 4 1018 57 0 2.94 58.551 00:51 08.10.2019
599 Clouds 7 1013 35 0 5.19 73.753 00:22 08.10.2019
600 Clouds 7 1013 35 0 5.19 73.753 23:42 07.10.2019
601 Clouds 7 1013 35 0 5.19 73.753 23:21 07.10.2019
602 Clouds 7 1013 35 0 5.19 73.753 23:21 07.10.2019
603 Clouds 7 1013 35 0 5.19 73.753 22:58 07.10.2019
604 Clouds 7 1013 35 0 5.19 73.753 22:40 07.10.2019
605 Clouds 7 1013 35 0 5.19 73.753 22:21 07.10.2019
606 Clouds 7 1013 35 0 5.19 73.753 21:58 07.10.2019
607 Clouds 7 1013 35 0 5.19 73.753 21:40 07.10.2019
608 Clouds 9 1015 16 0 2.22 155.678 21:20 07.10.2019
609 Clouds 9 1015 19 0 1.98 124.34 20:58 07.10.2019
610 Clouds 9 1015 19 0 1.98 124.34 20:39 07.10.2019
611 Clouds 9 1015 19 0 1.98 124.34 20:20 07.10.2019
612 Clouds 9 1015 19 0 1.98 124.34 19:58 07.10.2019
613 Clouds 9 1015 19 0 1.98 124.34 19:40 07.10.2019
614 Clouds 9 1015 19 0 1.98 124.34 19:20 07.10.2019
615 Clouds 9 1015 19 0 1.98 124.34 19:20 07.10.2019
616 Clouds 9 1015 19 0 1.98 124.34 18:58 07.10.2019
617 Clouds 9 1015 19 0 1.98 124.34 18:38 07.10.2019
618 Clouds 6 1019 22 0 1.73 120.913 18:18 07.10.2019
619 Clouds 6 1019 22 0 1.73 120.913 17:43 07.10.2019
620 Clouds 6 1019 22 0 1.73 120.913 17:23 07.10.2019
621 Clouds 6 1019 22 0 1.73 120.913 17:23 07.10.2019
622 Clouds 6 1019 22 0 1.73 120.913 16:58 07.10.2019
623 Clouds 6 1019 22 0 1.73 120.913 16:58 07.10.2019
624 Clouds 6 1019 22 0 1.73 120.913 16:39 07.10.2019
625 Clouds 6 1019 22 0 1.73 120.913 16:39 07.10.2019
626 Clouds 6 1019 22 0 1.73 120.913 16:20 07.10.2019
627 Clouds 6 1019 22 0 1.73 120.913 15:46 07.10.2019
628 Clouds 6 1019 22 0 1.73 120.913 15:26 07.10.2019
629 Clouds 2 1022 45 0 0.58 204.093 14:58 07.10.2019
630 Clouds 2 1022 45 0 0.58 204.093 14:40 07.10.2019
631 Clouds 2 1022 45 0 0.58 204.093 14:21 07.10.2019
632 Clouds 2 1022 45 0 0.58 204.093 13:43 07.10.2019
633 Clouds 2 1022 39 0 0.73 203.755 13:21 07.10.2019
634 Clouds 2 1022 39 0 0.73 203.755 12:57 07.10.2019
635 Clouds 2 1022 39 0 0.73 203.755 12:39 07.10.2019
636 Clouds 0 1020 80 0 0.35 178.844 12:19 07.10.2019
637 Clouds 0 1020 80 0 0.35 178.844 11:58 07.10.2019
638 Clouds 0 1020 80 0 0.35 178.844 11:38 07.10.2019
639 Clouds 0 1020 80 0 0.35 178.844 11:20 07.10.2019
640 Clouds 0 1020 80 0 0.35 178.844 10:42 07.10.2019
641 Clouds 0 1020 80 0 0.35 178.844 10:21 07.10.2019
642 Clouds 0 1020 80 0 0.35 178.844 09:56 07.10.2019
643 Clouds 0 1020 80 0 0.35 178.844 09:38 07.10.2019
644 Clouds 1 1020 67 0 2.23 29.923 09:19 07.10.2019
645 Clouds 1 1020 78 0 1.87 28.73 08:42 07.10.2019
646 Clouds 1 1020 78 0 1.87 28.73 08:20 07.10.2019
647 Clouds 1 1020 78 0 1.87 28.73 07:46 07.10.2019
648 Clouds 1 1020 78 0 1.87 28.73 07:27 07.10.2019
649 Clouds 1 1020 78 0 1.87 28.73 06:57 07.10.2019
650 Clouds 1 1020 78 0 1.87 28.73 06:38 07.10.2019
651 Clear 3 1020 57 0 1.81 24.541 06:18 07.10.2019
652 Clear 3 1020 57 0 1.81 24.541 05:26 07.10.2019
653 Clear 3 1020 57 0 1.81 24.541 04:49 07.10.2019
654 Clear 3 1020 57 0 1.81 24.541 03:46 07.10.2019
655 Clear 3 1020 57 0 1.81 24.541 03:46 07.10.2019
656 Clear 3 1020 57 0 1.81 24.541 03:27 07.10.2019
657 Clouds 7 1017 17 0 3.08 227.089 02:37 07.10.2019
658 Clouds 7 1017 17 0 3.08 227.089 02:19 07.10.2019
659 Clear 6 1017 16 0 3.51 228.617 01:23 07.10.2019
660 Clear 6 1017 16 0 3.51 228.617 00:51 07.10.2019
661 Clear 6 1017 16 0 3.51 228.617 00:26 07.10.2019
662 Clear 9 1011 12 0 8.62 277.331 23:59 06.10.2019
663 Clear 9 1011 12 0 8.62 277.331 23:40 06.10.2019
664 Clear 9 1011 12 0 8.62 277.331 23:20 06.10.2019
665 Clear 9 1011 12 0 8.62 277.331 22:56 06.10.2019
666 Clear 9 1011 12 0 8.62 277.331 22:37 06.10.2019
667 Clear 9 1011 12 0 8.62 277.331 22:19 06.10.2019
668 Clear 9 1011 12 0 8.62 277.331 21:55 06.10.2019
669 Clear 9 1011 12 0 8.62 277.331 21:36 06.10.2019
670 Clouds 11 1013 14 0 7.1 266.731 21:18 06.10.2019
671 Clouds 11 1013 14 0 7.1 266.731 20:55 06.10.2019
672 Clouds 11 1013 15 0 7.51 259.286 20:36 06.10.2019
673 Clouds 11 1013 15 0 7.51 259.286 20:18 06.10.2019
674 Clouds 11 1013 15 0 7.51 259.286 19:55 06.10.2019
675 Clouds 11 1013 15 0 7.51 259.286 19:36 06.10.2019
676 Clouds 11 1013 15 0 7.51 259.286 19:36 06.10.2019
677 Clouds 11 1013 15 0 7.51 259.286 19:18 06.10.2019
678 Clouds 11 1013 15 0 7.51 259.286 18:55 06.10.2019
679 Clouds 11 1013 15 0 7.51 259.286 18:37 06.10.2019
680 Clouds 9 1018 15 0 7.37 263.644 18:18 06.10.2019
681 Clouds 9 1018 15 0 7.37 263.644 18:18 06.10.2019
682 Clouds 9 1018 15 0 7.37 263.644 18:18 06.10.2019
683 Clouds 9 1018 15 0 7.37 263.644 18:18 06.10.2019
684 Clouds 9 1018 15 0 7.37 263.644 17:43 06.10.2019
685 Clouds 9 1018 15 0 7.37 263.644 17:20 06.10.2019
686 Clouds 9 1018 15 0 7.37 263.644 16:56 06.10.2019
687 Clouds 9 1018 15 0 7.37 263.644 16:56 06.10.2019
688 Clouds 9 1018 15 0 7.37 263.644 16:37 06.10.2019
689 Clouds 9 1018 15 0 7.37 263.644 16:19 06.10.2019
690 Clouds 9 1018 15 0 7.37 263.644 15:43 06.10.2019
691 Clouds 3 1021 39 0 1.12 307.974 15:22 06.10.2019
692 Clouds 3 1021 39 0 1.12 307.974 14:57 06.10.2019
693 Clouds 3 1021 39 0 1.12 307.974 14:39 06.10.2019
694 Clouds 3 1021 39 0 1.12 307.974 14:20 06.10.2019
695 Clouds 3 1021 39 0 1.12 307.974 13:54 06.10.2019
696 Clouds 3 1021 39 0 1.12 307.974 13:54 06.10.2019
697 Clouds 3 1021 39 0 1.12 307.974 13:54 06.10.2019
698 Clouds 3 1021 39 0 1.12 307.974 13:36 06.10.2019
699 Clouds 3 1021 39 0 1.12 307.974 13:36 06.10.2019
700 Clouds 3 1021 36 0 1.81 296.919 13:18 06.10.2019
701 Clouds 3 1021 36 0 1.81 296.919 13:18 06.10.2019
702 Clouds 3 1021 36 0 1.81 296.919 12:55 06.10.2019
703 Clouds 3 1021 36 0 1.81 296.919 12:55 06.10.2019
704 Clouds 3 1021 36 0 1.81 296.919 12:36 06.10.2019
705 Clouds 3 1019 40 0 1.97 244.189 12:18 06.10.2019
706 Clouds 3 1019 40 0 1.97 244.189 11:42 06.10.2019
707 Clouds 3 1019 40 0 1.97 244.189 11:24 06.10.2019
708 Clouds 3 1019 40 0 1.97 244.189 11:24 06.10.2019
709 Clouds 3 1019 40 0 1.97 244.189 10:56 06.10.2019
710 Clouds 3 1019 40 0 1.97 244.189 10:38 06.10.2019
711 Clouds 3 1019 40 0 1.97 244.189 10:19 06.10.2019
712 Clouds 3 1019 40 0 1.97 244.189 09:41 06.10.2019
713 Clouds 3 1019 40 0 0.91 357.097 09:20 06.10.2019
714 Clouds 3 1019 40 0 0.91 357.097 08:49 06.10.2019
715 Clouds 3 1018 40 0 1.86 322.767 08:30 06.10.2019
716 Clouds 3 1018 40 0 1.86 322.767 07:59 06.10.2019
717 Clouds 3 1018 40 0 1.86 322.767 07:59 06.10.2019
718 Clouds 3 1018 40 0 1.86 322.767 07:40 06.10.2019
719 Clouds 3 1018 40 0 1.86 322.767 06:53 06.10.2019
720 Clouds 4 1018 30 0 4.28 271.902 05:41 06.10.2019
721 Clouds 4 1018 30 0 4.28 271.902 05:41 06.10.2019
722 Clouds 4 1018 30 0 4.28 271.902 04:40 06.10.2019
723 Clouds 4 1015 65 0 6.84 258.539 02:56 06.10.2019
724 Clouds 4 1015 65 0 6.84 258.539 02:34 06.10.2019
725 Clouds 4 1015 65 0 6.84 258.539 01:50 06.10.2019
726 Clouds 5 1015 62 0 2.73 251.897 01:30 06.10.2019
727 Clouds 5 1015 62 0 2.73 251.897 00:59 06.10.2019
728 Clouds 5 1015 62 0 2.73 251.897 00:38 06.10.2019
729 Clouds 6 1009 55 0 9.39 284.165 00:19 06.10.2019
730 Clouds 6 1009 55 0 9.39 284.165 23:42 05.10.2019
731 Clouds 6 1009 55 0 9.39 284.165 23:20 05.10.2019
732 Clouds 6 1009 55 0 9.39 284.165 22:56 05.10.2019
733 Clouds 6 1009 55 0 9.39 284.165 22:37 05.10.2019
734 Clouds 6 1009 55 0 9.39 284.165 22:19 05.10.2019
735 Clouds 6 1009 55 0 9.39 284.165 21:42 05.10.2019
736 Rain 6 1011 75 0 5.56 291.325 21:23 05.10.2019
737 Rain 6 1011 75 0 5.56 291.325 20:58 05.10.2019
738 Rain 6 1011 73 0 5.45 293.099 20:40 05.10.2019
739 Rain 6 1011 73 0 5.45 293.099 20:20 05.10.2019
740 Rain 6 1011 73 0 5.45 293.099 19:56 05.10.2019
741 Rain 6 1011 73 0 5.45 293.099 19:37 05.10.2019
742 Rain 6 1011 73 0 5.45 293.099 19:18 05.10.2019
743 Rain 6 1011 73 0 5.45 293.099 18:55 05.10.2019
744 Rain 6 1011 73 0 5.45 293.099 18:36 05.10.2019
745 Clouds 3 1016 93 0 1.79 336.877 18:18 05.10.2019
746 Clouds 3 1016 93 0 1.79 336.877 17:42 05.10.2019
747 Clouds 3 1016 93 0 1.79 336.877 17:22 05.10.2019
748 Clouds 3 1016 93 0 1.79 336.877 16:56 05.10.2019
749 Clouds 3 1016 93 0 1.79 336.877 16:37 05.10.2019
750 Clouds 3 1016 93 0 1.79 336.877 16:18 05.10.2019
751 Clouds 3 1016 93 0 1.79 336.877 15:56 05.10.2019
752 Clouds 3 1016 93 0 1.79 336.877 15:37 05.10.2019
753 Clouds 2 1018 93 0 1.56 324.184 15:19 05.10.2019
754 Clouds 2 1018 93 0 1.56 324.184 14:42 05.10.2019
755 Clouds 2 1018 93 0 1.56 324.184 14:23 05.10.2019
756 Clouds 2 1018 93 0 1.56 324.184 13:44 05.10.2019
757 Clouds 1 1018 93 0 1.37 303.052 13:26 05.10.2019
758 Clouds 1 1018 93 0 1.37 303.052 12:59 05.10.2019
759 Clouds 1 1018 93 0 1.37 303.052 12:59 05.10.2019
760 Clouds 1 1018 93 0 1.37 303.052 12:41 05.10.2019
761 Clouds 2 1017 79 0 1.16 295.309 12:19 05.10.2019
762 Clouds 2 1017 79 0 1.16 295.309 11:41 05.10.2019
763 Clouds 2 1017 79 0 1.16 295.309 11:41 05.10.2019
764 Clouds 2 1017 79 0 1.16 295.309 11:20 05.10.2019
765 Clouds 2 1017 79 0 1.16 295.309 10:57 05.10.2019
766 Clouds 2 1017 79 0 1.16 295.309 10:57 05.10.2019
767 Clouds 2 1017 79 0 1.16 295.309 10:38 05.10.2019
768 Clouds 2 1017 79 0 1.16 295.309 10:20 05.10.2019
769 Clouds 2 1017 79 0 1.16 295.309 09:42 05.10.2019
770 Clouds 0 1017 87 0 0.64 277.003 09:23 05.10.2019
771 Clouds 0 1017 87 0 0.64 277.003 09:23 05.10.2019
772 Clouds 0 1017 87 0 0.64 277.003 08:56 05.10.2019
773 Clouds 1 1017 82 0 2.29 278.75 08:38 05.10.2019
774 Clouds 1 1017 82 0 2.29 278.75 08:18 05.10.2019
775 Clouds 1 1017 82 0 2.29 278.75 07:46 05.10.2019
776 Clouds 1 1017 82 0 2.29 278.75 07:28 05.10.2019
777 Clouds 1 1017 82 0 2.29 278.75 06:56 05.10.2019
778 Clouds 7 1017 36 0 4.04 297.682 06:23 05.10.2019
779 Clouds 7 1017 36 0 4.04 297.682 05:39 05.10.2019
780 Clouds 7 1017 36 0 4.04 297.682 03:32 05.10.2019
781 Clouds 9 1013 47 0 3.06 22.531 02:38 05.10.2019
782 Clouds 8 1014 57 0 3.32 38.264 01:27 05.10.2019
783 Clouds 8 1014 57 0 3.32 38.264 00:49 05.10.2019
784 Clouds 8 1014 57 0 3.32 38.264 00:28 05.10.2019
785 Clouds 12 1009 28 0 6.23 314.193 23:58 04.10.2019
786 Clouds 12 1009 28 0 6.23 314.193 23:40 04.10.2019
787 Clouds 12 1009 28 0 6.23 314.193 23:22 04.10.2019
788 Clouds 12 1009 28 0 6.23 314.193 22:57 04.10.2019
789 Clouds 12 1009 28 0 6.23 314.193 22:57 04.10.2019
790 Clouds 12 1009 28 0 6.23 314.193 22:38 04.10.2019
791 Clouds 12 1009 28 0 6.23 314.193 22:19 04.10.2019
792 Clouds 12 1009 28 0 6.23 314.193 21:41 04.10.2019
793 Clouds 11 1011 39 0 7.05 313.161 21:23 04.10.2019
794 Clouds 11 1011 39 0 7.05 313.161 21:00 04.10.2019
795 Clouds 11 1011 38 0 6.25 312.946 20:41 04.10.2019
796 Clouds 11 1011 38 0 6.25 312.946 20:23 04.10.2019
797 Clouds 11 1011 38 0 6.25 312.946 19:57 04.10.2019
798 Clouds 11 1011 38 0 6.25 312.946 19:57 04.10.2019
799 Clouds 11 1011 38 0 6.25 312.946 19:39 04.10.2019
800 Clouds 11 1011 38 0 6.25 312.946 19:20 04.10.2019
801 Clouds 11 1011 38 0 6.25 312.946 18:56 04.10.2019
802 Clouds 11 1011 38 0 6.25 312.946 18:37 04.10.2019
803 Clouds 11 1015 30 0 5.45 329.508 18:18 04.10.2019
804 Clouds 11 1015 30 0 5.45 329.508 17:41 04.10.2019
805 Clouds 11 1015 30 0 5.45 329.508 17:22 04.10.2019
806 Clouds 11 1015 30 0 5.45 329.508 16:58 04.10.2019
807 Clouds 11 1015 30 0 5.45 329.508 16:40 04.10.2019
808 Clouds 11 1015 30 0 5.45 329.508 16:40 04.10.2019
809 Clouds 11 1015 30 0 5.45 329.508 16:19 04.10.2019
810 Clouds 11 1015 30 0 5.45 329.508 15:57 04.10.2019
811 Clouds 11 1015 30 0 5.45 329.508 15:39 04.10.2019
812 Clouds 6 1019 31 0 2.94 286.053 15:19 04.10.2019
813 Clouds 6 1019 31 0 2.94 286.053 14:56 04.10.2019
814 Clouds 6 1019 31 0 2.94 286.053 14:38 04.10.2019
815 Clouds 6 1019 31 0 2.94 286.053 14:20 04.10.2019
816 Clouds 6 1019 31 0 2.94 286.053 13:45 04.10.2019
817 Clouds 6 1019 30 0 3.03 283.203 13:22 04.10.2019
818 Clouds 6 1019 30 0 3.03 283.203 12:55 04.10.2019
819 Clouds 6 1019 30 0 3.03 283.203 12:37 04.10.2019
820 Clouds 4 1018 37 0 2.14 265.505 12:18 04.10.2019
821 Clouds 4 1018 37 0 2.14 265.505 11:42 04.10.2019
822 Clouds 4 1018 37 0 2.14 265.505 11:42 04.10.2019
823 Clouds 4 1018 37 0 2.14 265.505 11:42 04.10.2019
824 Clouds 4 1018 37 0 2.14 265.505 11:21 04.10.2019
825 Clouds 4 1018 37 0 2.14 265.505 11:21 04.10.2019
826 Clouds 4 1018 37 0 2.14 265.505 10:42 04.10.2019
827 Clouds 4 1018 37 0 2.14 265.505 10:21 04.10.2019
828 Clouds 4 1018 37 0 2.14 265.505 10:21 04.10.2019
829 Clouds 4 1018 37 0 2.14 265.505 09:58 04.10.2019
830 Clouds 4 1018 37 0 2.14 265.505 09:58 04.10.2019
831 Clouds 4 1018 37 0 2.14 265.505 09:40 04.10.2019
832 Clouds 6 1018 32 0 2 300.885 09:22 04.10.2019
833 Clouds 6 1018 32 0 2 300.885 08:45 04.10.2019
834 Clouds 6 1018 32 0 2 300.885 08:26 04.10.2019
835 Clouds 6 1018 32 0 2 300.885 07:47 04.10.2019
836 Clouds 6 1018 32 0 2 300.885 07:24 04.10.2019
837 Clouds 6 1018 32 0 2 300.885 06:56 04.10.2019
838 Clouds 6 1018 32 0 2 300.885 06:37 04.10.2019
839 Clouds 7 1018 29 0 2.82 248.55 06:18 04.10.2019
840 Clouds 7 1018 29 0 2.82 248.55 05:20 04.10.2019
841 Clouds 7 1018 29 0 2.82 248.55 04:37 04.10.2019
842 Clouds 11 1014 22 0 5.21 262.152 02:56 04.10.2019
843 Clouds 11 1014 22 0 5.21 262.152 02:56 04.10.2019
844 Clouds 11 1014 22 0 5.21 262.152 02:37 04.10.2019
845 Clouds 11 1014 22 0 5.21 262.152 01:53 04.10.2019
846 Clouds 11 1014 29 0 2.36 282.631 01:26 04.10.2019
847 Clouds 11 1014 29 0 2.36 282.631 00:32 04.10.2019
848 Clouds 13 1008 25 0 4.51 254.851 23:39 03.10.2019
849 Clouds 13 1008 25 0 4.51 254.851 23:21 03.10.2019
850 Clouds 13 1008 25 0 4.51 254.851 22:57 03.10.2019
851 Clouds 13 1008 25 0 4.51 254.851 22:39 03.10.2019
852 Clouds 13 1008 25 0 4.51 254.851 22:39 03.10.2019
853 Clouds 13 1008 25 0 4.51 254.851 22:21 03.10.2019
854 Clouds 13 1008 25 0 4.51 254.851 21:57 03.10.2019
855 Clouds 13 1008 25 0 4.51 254.851 21:39 03.10.2019
856 Clouds 15 1009 21 0 4.96 294.67 21:19 03.10.2019
857 Clouds 15 1009 21 0 4.96 294.67 20:58 03.10.2019
858 Clouds 15 1009 21 0 4.96 294.67 20:58 03.10.2019
859 Clouds 14 1009 22 0 4.85 304.279 20:38 03.10.2019
860 Clouds 14 1009 22 0 4.85 304.279 20:20 03.10.2019
861 Clouds 14 1009 22 0 4.85 304.279 19:56 03.10.2019
862 Clouds 14 1009 22 0 4.85 304.279 19:37 03.10.2019
863 Clouds 14 1009 22 0 4.85 304.279 19:19 03.10.2019
864 Clouds 14 1009 22 0 4.85 304.279 18:56 03.10.2019
865 Clouds 14 1009 22 0 4.85 304.279 18:37 03.10.2019
866 Clouds 11 1014 30 0 2.98 331.834 18:18 03.10.2019
867 Clouds 11 1014 30 0 2.98 331.834 17:42 03.10.2019
868 Clouds 11 1014 30 0 2.98 331.834 17:21 03.10.2019
869 Clouds 11 1014 30 0 2.98 331.834 16:57 03.10.2019
870 Clouds 11 1014 30 0 2.98 331.834 16:39 03.10.2019
871 Clouds 11 1014 30 0 2.98 331.834 16:20 03.10.2019
872 Clouds 11 1014 30 0 2.98 331.834 15:44 03.10.2019
873 Clouds 6 1018 36 0 1.56 306.848 15:24 03.10.2019
874 Clouds 6 1018 36 0 1.56 306.848 14:58 03.10.2019
875 Clouds 6 1018 36 0 1.56 306.848 14:37 03.10.2019
876 Clouds 6 1018 36 0 1.56 306.848 14:18 03.10.2019
877 Clouds 6 1018 36 0 1.56 306.848 13:44 03.10.2019
878 Clouds 7 1018 34 0 1.97 320.901 13:25 03.10.2019
879 Clouds 7 1018 34 0 1.97 320.901 13:25 03.10.2019
880 Clouds 7 1018 34 0 1.97 320.901 12:59 03.10.2019
881 Clouds 7 1018 34 0 1.97 320.901 12:40 03.10.2019
882 Clouds 5 1016 43 0 1.91 301.665 12:20 03.10.2019
883 Clouds 5 1016 43 0 1.91 301.665 11:58 03.10.2019
884 Clouds 5 1016 43 0 1.91 301.665 11:58 03.10.2019
885 Clouds 5 1016 43 0 1.91 301.665 11:40 03.10.2019
886 Clouds 5 1016 43 0 1.91 301.665 11:21 03.10.2019
887 Clouds 5 1016 43 0 1.91 301.665 10:58 03.10.2019
888 Clouds 5 1016 43 0 1.91 301.665 10:38 03.10.2019
889 Clouds 5 1016 43 0 1.91 301.665 10:18 03.10.2019
890 Clouds 5 1016 43 0 1.91 301.665 09:56 03.10.2019
891 Clouds 5 1016 43 0 1.91 301.665 09:37 03.10.2019
892 Clouds 7 1016 40 0 1.15 295.715 09:19 03.10.2019
893 Clouds 7 1016 44 0 0.76 327.684 08:43 03.10.2019
894 Clouds 7 1016 44 0 0.76 327.684 08:24 03.10.2019
895 Clouds 7 1016 44 0 0.76 327.684 08:24 03.10.2019
896 Clouds 7 1016 44 0 0.76 327.684 07:45 03.10.2019
897 Clouds 7 1016 44 0 0.76 327.684 07:20 03.10.2019
898 Clouds 7 1016 44 0 0.76 327.684 06:56 03.10.2019
899 Clouds 7 1016 44 0 0.76 327.684 06:27 03.10.2019
900 Rain 8 1016 54 0 0.2 358.831 05:50 03.10.2019
901 Rain 8 1016 54 0 0.2 358.831 05:31 03.10.2019
902 Rain 8 1016 54 0 0.2 358.831 04:47 03.10.2019
903 Rain 8 1016 54 0 0.2 358.831 04:18 03.10.2019
904 Clouds 11 1012 33 0 2.4 275.777 03:19 03.10.2019
905 Clouds 11 1012 33 0 2.4 275.777 02:27 03.10.2019
906 Clouds 11 1012 33 0 2.4 275.777 01:41 03.10.2019
907 Clouds 11 1012 31 0 1.52 249.519 00:53 03.10.2019
908 Clouds 11 1012 31 0 1.52 249.519 00:32 03.10.2019
909 Clouds 11 1012 31 0 1.52 249.519 00:32 03.10.2019
910 Clouds 13 1006 27 0 7.97 290.436 23:58 02.10.2019
911 Clouds 13 1006 27 0 7.97 290.436 23:38 02.10.2019
912 Clouds 13 1006 27 0 7.97 290.436 23:38 02.10.2019
913 Clouds 13 1006 27 0 7.97 290.436 23:19 02.10.2019
914 Clouds 13 1006 27 0 7.97 290.436 22:42 02.10.2019
915 Clouds 13 1006 27 0 7.97 290.436 22:20 02.10.2019
916 Clouds 13 1006 27 0 7.97 290.436 21:55 02.10.2019
917 Clouds 13 1006 27 0 7.97 290.436 21:37 02.10.2019
918 Clouds 13 1008 34 0 5.76 333.293 21:18 02.10.2019
919 Clouds 12 1008 36 0 4.93 320.635 20:55 02.10.2019
920 Clouds 12 1008 36 0 4.93 320.635 20:37 02.10.2019
921 Clouds 12 1008 36 0 4.93 320.635 20:19 02.10.2019
922 Clouds 12 1008 36 0 4.93 320.635 19:45 02.10.2019
923 Clouds 12 1008 36 0 4.93 320.635 19:45 02.10.2019
924 Clouds 12 1008 36 0 4.93 320.635 19:45 02.10.2019
925 Clouds 12 1008 36 0 4.93 320.635 19:23 02.10.2019
926 Clouds 12 1008 36 0 4.93 320.635 18:59 02.10.2019
927 Clouds 12 1008 36 0 4.93 320.635 18:40 02.10.2019
928 Clouds 11 1013 33 0 4.51 322.406 18:21 02.10.2019
929 Clouds 11 1013 33 0 4.51 322.406 17:58 02.10.2019
930 Clouds 11 1013 33 0 4.51 322.406 17:40 02.10.2019
931 Clouds 11 1013 33 0 4.51 322.406 17:21 02.10.2019
932 Clouds 11 1013 33 0 4.51 322.406 16:57 02.10.2019
933 Clouds 11 1013 33 0 4.51 322.406 16:38 02.10.2019
934 Clouds 11 1013 33 0 4.51 322.406 16:20 02.10.2019
935 Clouds 11 1013 33 0 4.51 322.406 15:55 02.10.2019
936 Clouds 11 1013 33 0 4.51 322.406 15:37 02.10.2019
937 Clouds 7 1015 51 0 1.59 309.51 15:18 02.10.2019
938 Clouds 7 1015 51 0 1.59 309.51 14:43 02.10.2019
939 Clouds 7 1015 51 0 1.59 309.51 14:23 02.10.2019
940 Clouds 7 1015 51 0 1.59 309.51 13:57 02.10.2019
941 Clouds 7 1015 51 0 1.59 309.51 13:39 02.10.2019
942 Clouds 7 1015 53 0 2.05 312.185 13:20 02.10.2019
943 Clouds 7 1015 53 0 2.05 312.185 12:40 02.10.2019
944 Clouds 6 1012 58 0 2.17 317.167 12:22 02.10.2019
945 Clouds 6 1012 58 0 2.17 317.167 11:59 02.10.2019
946 Clouds 6 1012 58 0 2.17 317.167 11:41 02.10.2019
947 Clouds 6 1012 58 0 2.17 317.167 11:18 02.10.2019
948 Clouds 6 1012 58 0 2.17 317.167 10:38 02.10.2019
949 Clouds 6 1012 58 0 2.17 317.167 10:19 02.10.2019
950 Clouds 6 1012 58 0 2.17 317.167 09:41 02.10.2019
951 Clouds 7 1012 57 0 3.9 292.734 09:20 02.10.2019
952 Clouds 7 1012 57 0 3.9 292.734 08:56 02.10.2019
953 Clouds 7 1011 57 0 3.93 281.258 08:38 02.10.2019
954 Clouds 7 1011 57 0 3.93 281.258 08:19 02.10.2019
955 Clouds 7 1011 57 0 3.93 281.258 07:41 02.10.2019
956 Clouds 7 1011 57 0 3.93 281.258 07:22 02.10.2019
957 Clouds 7 1011 57 0 3.93 281.258 06:57 02.10.2019
958 Clouds 7 1011 57 0 3.93 281.258 06:27 02.10.2019
959 Clouds 8 1011 50 0 3.68 315.683 05:49 02.10.2019
960 Clouds 8 1011 50 0 3.68 315.683 05:20 02.10.2019
961 Clouds 8 1011 50 0 3.68 315.683 03:53 02.10.2019
962 Clouds 10 1007 44 0 8.6 304.845 03:24 02.10.2019
963 Clouds 10 1007 44 0 8.6 304.845 02:26 02.10.2019
964 Clouds 10 1007 44 0 8.6 304.845 01:56 02.10.2019
965 Clouds 9 1007 49 0 8.48 310.027 00:52 02.10.2019
966 Clouds 14 1001 27 0 4.36 333.594 00:29 02.10.2019
967 Clouds 14 1001 27 0 4.36 333.594 23:55 01.10.2019
968 Clouds 14 1001 27 0 4.36 333.594 23:36 01.10.2019
969 Clouds 14 1001 27 0 4.36 333.594 23:18 01.10.2019
970 Clouds 14 1001 27 0 4.36 333.594 22:57 01.10.2019
971 Clouds 14 1001 27 0 4.36 333.594 22:37 01.10.2019
972 Clouds 14 1001 27 0 4.36 333.594 22:18 01.10.2019
973 Clouds 14 1001 27 0 4.36 333.594 21:42 01.10.2019
974 Clouds 14 1003 27 0 5.1 348.835 21:22 01.10.2019
975 Clouds 14 1003 27 0 5.1 348.835 20:58 01.10.2019
976 Clouds 13 1003 32 0 5.35 355.552 20:39 01.10.2019
977 Clouds 13 1003 32 0 5.35 355.552 20:20 01.10.2019
978 Clouds 13 1003 32 0 5.35 355.552 20:20 01.10.2019
979 Clouds 13 1003 32 0 5.35 355.552 19:57 01.10.2019
980 Clouds 13 1003 32 0 5.35 355.552 19:39 01.10.2019
981 Clouds 13 1003 32 0 5.35 355.552 19:20 01.10.2019
982 Clouds 13 1003 32 0 5.35 355.552 18:56 01.10.2019
983 Clouds 13 1003 32 0 5.35 355.552 18:38 01.10.2019
984 Clouds 12 1008 20 0 2.54 317.286 18:19 01.10.2019
985 Clouds 12 1008 20 0 2.54 317.286 17:43 01.10.2019
986 Clouds 12 1008 20 0 2.54 317.286 17:20 01.10.2019
987 Clouds 12 1008 20 0 2.54 317.286 16:59 01.10.2019
988 Clouds 12 1008 20 0 2.54 317.286 16:40 01.10.2019
989 Clouds 12 1008 20 0 2.54 317.286 16:22 01.10.2019
990 Clouds 12 1008 20 0 2.54 317.286 15:49 01.10.2019
991 Clouds 12 1008 20 0 2.54 317.286 15:25 01.10.2019
992 Clouds 9 1012 20 0 2.99 285.258 14:58 01.10.2019
993 Clouds 9 1012 20 0 2.99 285.258 14:40 01.10.2019
994 Clouds 9 1012 20 0 2.99 285.258 14:19 01.10.2019
995 Clouds 9 1012 20 0 2.99 285.258 13:56 01.10.2019
996 Clouds 9 1012 20 0 2.99 285.258 13:37 01.10.2019
997 Clouds 9 1012 25 0 2.72 298.444 13:18 01.10.2019
998 Clouds 9 1012 25 0 2.72 298.444 12:55 01.10.2019
999 Clouds 9 1012 25 0 2.72 298.444 12:37 01.10.2019
1000 Clear 6 1010 37 0 2.72 283.72 12:18 01.10.2019
1001 Clear 6 1010 37 0 2.72 283.72 11:54 01.10.2019
1002 Clear 6 1010 37 0 2.72 283.72 11:36 01.10.2019
1003 Clear 6 1010 37 0 2.72 283.72 11:36 01.10.2019
1004 Clear 6 1010 37 0 2.72 283.72 11:18 01.10.2019
1005 Clear 6 1010 37 0 2.72 283.72 10:44 01.10.2019
1006 Clear 6 1010 37 0 2.72 283.72 10:25 01.10.2019
1007 Clear 6 1010 37 0 2.72 283.72 09:44 01.10.2019
1008 Clear 6 1010 37 0 2.72 283.72 09:26 01.10.2019
1009 Clouds 7 1010 50 0 2.06 300.449 08:44 01.10.2019
1010 Clouds 7 1010 50 0 2.06 300.449 08:25 01.10.2019
1011 Clouds 7 1010 50 0 2.06 300.449 07:53 01.10.2019
1012 Clouds 7 1010 50 0 2.06 300.449 07:26 01.10.2019
1013 Clouds 7 1010 50 0 2.06 300.449 07:26 01.10.2019
1014 Clouds 7 1010 50 0 2.06 300.449 06:51 01.10.2019
1015 Clouds 7 1010 50 0 2.06 300.449 06:25 01.10.2019
1016 Clouds 9 1009 46 0 1.74 217.074 05:59 01.10.2019
1017 Clouds 9 1009 46 0 1.74 217.074 05:40 01.10.2019
1018 Clouds 9 1009 46 0 1.74 217.074 04:42 01.10.2019
1019 Clouds 9 1009 46 0 1.74 217.074 03:37 01.10.2019
1020 Rain 7 1008 57 0 0.84 218.862 02:20 01.10.2019
1021 Rain 7 1008 57 0 0.84 218.862 01:55 01.10.2019
1022 Rain 7 1008 61 0 2.93 331.555 00:46 01.10.2019
1023 Rain 7 1008 61 0 2.93 331.555 00:25 01.10.2019
1024 Rain 9 1003 48 0 5.93 276.257 23:42 30.09.2019
1025 Rain 9 1003 48 0 5.93 276.257 23:23 30.09.2019
1026 Rain 9 1003 48 0 5.93 276.257 22:58 30.09.2019
1027 Rain 9 1003 48 0 5.93 276.257 22:40 30.09.2019
1028 Rain 9 1003 48 0 5.93 276.257 22:21 30.09.2019
1029 Rain 9 1003 48 0 5.93 276.257 21:55 30.09.2019
1030 Rain 9 1003 48 0 5.93 276.257 21:37 30.09.2019
1031 Clouds 16 1004 13 0 2.67 34.691 21:19 30.09.2019
1032 Clouds 16 1004 13 0 2.67 34.691 20:55 30.09.2019
1033 Clouds 17 1004 11 0 3.64 37.169 20:37 30.09.2019
1034 Clouds 17 1004 11 0 3.64 37.169 20:19 30.09.2019
1035 Clouds 17 1004 11 0 3.64 37.169 20:19 30.09.2019
1036 Clouds 17 1004 11 0 3.64 37.169 19:55 30.09.2019
1037 Clouds 17 1004 11 0 3.64 37.169 19:37 30.09.2019
1038 Clouds 17 1004 11 0 3.64 37.169 19:18 30.09.2019
1039 Clouds 17 1004 11 0 3.64 37.169 19:18 30.09.2019
1040 Clouds 17 1004 11 0 3.64 37.169 18:41 30.09.2019
1041 Clear 14 1009 16 0 1.58 331.023 18:22 30.09.2019
1042 Clear 14 1009 16 0 1.58 331.023 17:58 30.09.2019
1043 Clear 14 1009 16 0 1.58 331.023 17:39 30.09.2019
1044 Clear 14 1009 16 0 1.58 331.023 17:39 30.09.2019
1045 Clear 14 1009 16 0 1.58 331.023 17:21 30.09.2019
1046 Clear 14 1009 16 0 1.58 331.023 16:55 30.09.2019
1047 Clear 14 1009 16 0 1.58 331.023 16:37 30.09.2019
1048 Clear 14 1009 16 0 1.58 331.023 16:18 30.09.2019
1049 Clear 14 1009 16 0 1.58 331.023 15:55 30.09.2019
1050 Clear 14 1009 16 0 1.58 331.023 15:55 30.09.2019
1051 Clear 14 1009 16 0 1.58 331.023 15:36 30.09.2019
1052 Clouds 10 1013 29 0 2.21 292.366 15:18 30.09.2019
1053 Clouds 10 1013 29 0 2.21 292.366 14:55 30.09.2019
1054 Clouds 10 1013 29 0 2.21 292.366 14:36 30.09.2019
1055 Clouds 10 1013 29 0 2.21 292.366 14:18 30.09.2019
1056 Clouds 10 1013 29 0 2.21 292.366 13:44 30.09.2019
1057 Clouds 10 1013 30 0 1.95 294.049 13:22 30.09.2019
1058 Clouds 10 1013 30 0 1.95 294.049 12:58 30.09.2019
1059 Clouds 10 1013 30 0 1.95 294.049 12:58 30.09.2019
1060 Clouds 10 1013 30 0 1.95 294.049 12:40 30.09.2019
1061 Clouds 6 1012 44 0 1.8 261.104 12:20 30.09.2019
1062 Clouds 6 1012 44 0 1.8 261.104 11:43 30.09.2019
1063 Clouds 6 1012 44 0 1.8 261.104 11:22 30.09.2019
1064 Clouds 6 1012 44 0 1.8 261.104 10:59 30.09.2019
1065 Clouds 6 1012 44 0 1.8 261.104 10:39 30.09.2019
1066 Clouds 6 1012 44 0 1.8 261.104 10:19 30.09.2019
1067 Clouds 6 1012 44 0 1.8 261.104 10:19 30.09.2019
1068 Clouds 6 1012 44 0 1.8 261.104 09:58 30.09.2019
1069 Clouds 6 1012 44 0 1.8 261.104 09:39 30.09.2019
1070 Clouds 7 1012 51 0 1.47 291.353 09:20 30.09.2019
1071 Clouds 7 1012 51 0 1.47 291.353 08:46 30.09.2019
1072 Clouds 7 1012 50 0 1.44 279.325 08:28 30.09.2019
1073 Clouds 7 1012 50 0 1.44 279.325 07:44 30.09.2019
1074 Clouds 7 1012 50 0 1.44 279.325 07:44 30.09.2019
1075 Clouds 7 1012 50 0 1.44 279.325 07:26 30.09.2019
1076 Clouds 7 1012 50 0 1.44 279.325 06:56 30.09.2019
1077 Clouds 7 1012 50 0 1.44 279.325 06:33 30.09.2019
1078 Clouds 9 1013 45 0 2.14 354.99 05:47 30.09.2019
1079 Clouds 9 1013 45 0 2.14 354.99 05:47 30.09.2019
1080 Clouds 9 1013 45 0 2.14 354.99 05:47 30.09.2019
1081 Clouds 9 1013 45 0 2.14 354.99 04:32 30.09.2019
1082 Clouds 11 1010 38 0 3.02 61.706 02:48 30.09.2019
1083 Clouds 11 1011 41 0 5.54 41.847 01:37 30.09.2019
1084 Clouds 11 1011 41 0 5.54 41.847 00:42 30.09.2019
1085 Clouds 14 1007 27 0 4.36 30.263 00:22 30.09.2019
1086 Clouds 14 1007 27 0 4.36 30.263 23:47 29.09.2019
1087 Clouds 14 1007 27 0 4.36 30.263 23:27 29.09.2019
1088 Clouds 14 1007 27 0 4.36 30.263 22:59 29.09.2019
1089 Clouds 14 1007 27 0 4.36 30.263 22:41 29.09.2019
1090 Clouds 14 1007 27 0 4.36 30.263 22:23 29.09.2019
1091 Clouds 14 1007 27 0 4.36 30.263 21:58 29.09.2019
1092 Clouds 14 1007 27 0 4.36 30.263 21:37 29.09.2019
1093 Clear 16 1008 12 0 4.53 43.669 21:19 29.09.2019
1094 Clear 16 1008 12 0 4.53 43.669 20:45 29.09.2019
1095 Clear 16 1008 12 0 4.55 45.338 20:20 29.09.2019
1096 Clear 16 1008 12 0 4.55 45.338 19:59 29.09.2019
1097 Clear 16 1008 12 0 4.55 45.338 19:38 29.09.2019
1098 Clear 16 1008 12 0 4.55 45.338 19:19 29.09.2019
1099 Clear 16 1008 12 0 4.55 45.338 18:56 29.09.2019
1100 Clear 16 1008 12 0 4.55 45.338 18:56 29.09.2019
1101 Clear 16 1008 12 0 4.55 45.338 18:38 29.09.2019
1102 Clear 14 1013 15 0 2.99 35.028 18:19 29.09.2019
1103 Clear 14 1013 15 0 2.99 35.028 17:59 29.09.2019
1104 Clear 14 1013 15 0 2.99 35.028 17:41 29.09.2019
1105 Clear 14 1013 15 0 2.99 35.028 17:41 29.09.2019
1106 Clear 14 1013 15 0 2.99 35.028 17:20 29.09.2019
1107 Clear 14 1013 15 0 2.99 35.028 17:20 29.09.2019
1108 Clear 14 1013 15 0 2.99 35.028 16:59 29.09.2019
1109 Clear 14 1013 15 0 2.99 35.028 16:59 29.09.2019
1110 Clear 14 1013 15 0 2.99 35.028 16:40 29.09.2019
1111 Clear 14 1013 15 0 2.99 35.028 16:19 29.09.2019
1112 Clear 14 1013 15 0 2.99 35.028 16:19 29.09.2019
1113 Clear 14 1013 15 0 2.99 35.028 15:57 29.09.2019
1114 Clear 14 1013 15 0 2.99 35.028 15:37 29.09.2019
1115 Clouds 9 1017 30 0 1.09 343.687 15:18 29.09.2019
1116 Clouds 9 1017 30 0 1.09 343.687 14:56 29.09.2019
1117 Clouds 9 1017 30 0 1.09 343.687 14:37 29.09.2019
1118 Clouds 9 1017 30 0 1.09 343.687 14:18 29.09.2019
1119 Clouds 9 1017 30 0 1.09 343.687 13:55 29.09.2019
1120 Clouds 9 1017 30 0 1.09 343.687 13:36 29.09.2019
1121 Clouds 9 1017 29 0 1.19 353.941 13:18 29.09.2019
1122 Clouds 9 1017 29 0 1.19 353.941 12:55 29.09.2019
1123 -273 0 0 0 0 0 12:55 29.09.2019
1124 Clouds 9 1017 29 0 1.19 353.941 12:37 29.09.2019
1125 Clouds 5 1016 51 0 1.02 316.748 12:18 29.09.2019
1126 Clouds 5 1016 51 0 1.02 316.748 11:41 29.09.2019
1127 Clouds 5 1016 51 0 1.02 316.748 11:19 29.09.2019
1128 Clouds 5 1016 51 0 1.02 316.748 10:58 29.09.2019
1129 Clouds 5 1016 51 0 1.02 316.748 10:58 29.09.2019
1130 Clouds 5 1016 51 0 1.02 316.748 10:38 29.09.2019
1131 Clouds 5 1016 51 0 1.02 316.748 10:20 29.09.2019
1132 Clouds 5 1016 51 0 1.02 316.748 09:57 29.09.2019
1133 Clouds 5 1016 51 0 1.02 316.748 09:38 29.09.2019
1134 Clouds 7 1016 51 0 0.61 325.394 09:18 29.09.2019
1135 Clouds 7 1016 51 0 0.61 325.394 08:42 29.09.2019
1136 Clouds 7 1017 50 0 0.53 334.649 08:22 29.09.2019
1137 Clouds 7 1017 50 0 0.53 334.649 07:44 29.09.2019
1138 Clouds 7 1017 50 0 0.53 334.649 07:26 29.09.2019
1139 Clouds 7 1017 50 0 0.53 334.649 06:50 29.09.2019
1140 Clouds 9 1016 37 0 1.74 16.696 05:59 29.09.2019
1141 Clouds 9 1016 37 0 1.74 16.696 04:46 29.09.2019
1142 Clouds 9 1016 37 0 1.74 16.696 04:23 29.09.2019
1143 Clouds 11 1014 30 0 3.67 17.645 02:59 29.09.2019
1144 Clouds 11 1014 30 0 3.67 17.645 02:19 29.09.2019
1145 Clouds 11 1014 30 0 3.67 17.645 01:42 29.09.2019
1146 Clouds 9 1015 44 0 0.88 297.062 00:59 29.09.2019
1147 Clouds 9 1015 44 0 0.88 297.062 00:40 29.09.2019
1148 Clouds 14 1009 26 0 5.46 51.737 00:19 29.09.2019
1149 Clouds 14 1009 26 0 5.46 51.737 23:38 28.09.2019
1150 Clouds 14 1009 26 0 5.46 51.737 23:19 28.09.2019
1151 Clouds 14 1009 26 0 5.46 51.737 22:41 28.09.2019
1152 Clouds 14 1009 26 0 5.46 51.737 22:23 28.09.2019
1153 Clouds 14 1009 26 0 5.46 51.737 22:23 28.09.2019
1154 Clouds 14 1009 26 0 5.46 51.737 21:58 28.09.2019
1155 Clouds 14 1009 26 0 5.46 51.737 21:40 28.09.2019
1156 Clouds 14 1009 26 0 5.46 51.737 21:40 28.09.2019
1157 Clear 16 1010 21 0 6.13 39.263 21:21 28.09.2019
1158 Clear 16 1010 21 0 6.13 39.263 20:58 28.09.2019
1159 Clear 16 1010 21 0 5.89 40.333 20:40 28.09.2019
1160 Clear 16 1010 21 0 5.89 40.333 20:20 28.09.2019
1161 Clear 16 1010 21 0 5.89 40.333 19:57 28.09.2019
1162 Clear 16 1010 21 0 5.89 40.333 19:39 28.09.2019
1163 Clear 16 1010 21 0 5.89 40.333 19:21 28.09.2019
1164 Clear 16 1010 21 0 5.89 40.333 18:57 28.09.2019
1165 Clear 16 1010 21 0 5.89 40.333 18:39 28.09.2019
1166 Clear 14 1013 24 0 3.37 69.139 18:20 28.09.2019
1167 Clear 14 1013 24 0 3.37 69.139 17:56 28.09.2019
1168 Clear 14 1013 24 0 3.37 69.139 17:38 28.09.2019
1169 Clear 14 1013 24 0 3.37 69.139 17:20 28.09.2019
1170 Clear 14 1013 24 0 3.37 69.139 16:44 28.09.2019
1171 Clear 14 1013 24 0 3.37 69.139 16:25 28.09.2019
1172 Clear 14 1013 24 0 3.37 69.139 15:42 28.09.2019
1173 Clouds 10 1017 32 0 0.88 99.195 15:23 28.09.2019
1174 Clouds 10 1017 32 0 0.88 99.195 14:58 28.09.2019
1175 Clouds 10 1017 32 0 0.88 99.195 14:40 28.09.2019
1176 Clouds 10 1017 32 0 0.88 99.195 14:21 28.09.2019
1177 Clouds 10 1017 32 0 0.88 99.195 13:58 28.09.2019
1178 Clouds 10 1017 32 0 0.88 99.195 13:40 28.09.2019
1179 Clouds 10 1016 30 0 0.93 109.179 13:20 28.09.2019
1180 -273 0 0 0 0 0 12:55 28.09.2019
1181 Clouds 10 1016 30 0 0.93 109.179 12:36 28.09.2019
1182 Clouds 6 1014 47 0 0.89 269.808 12:18 28.09.2019
1183 Clouds 6 1014 47 0 0.89 269.808 11:40 28.09.2019
1184 Clouds 6 1014 47 0 0.89 269.808 11:19 28.09.2019
1185 Clouds 6 1014 47 0 0.89 269.808 10:44 28.09.2019
1186 Clouds 6 1014 47 0 0.89 269.808 10:21 28.09.2019
1187 Clouds 6 1014 47 0 0.89 269.808 09:58 28.09.2019
1188 Clouds 6 1014 47 0 0.89 269.808 09:40 28.09.2019
1189 Clouds 7 1015 49 0 1.06 269.515 09:18 28.09.2019
1190 Clouds 7 1015 49 0 1.06 269.515 08:47 28.09.2019
1191 Clouds 7 1015 50 0 0.94 270.305 08:29 28.09.2019
1192 Clouds 7 1015 50 0 0.94 270.305 07:56 28.09.2019
1193 Clouds 7 1015 50 0 0.94 270.305 07:38 28.09.2019
1194 Clouds 7 1015 50 0 0.94 270.305 07:18 28.09.2019
1195 Clouds 7 1015 50 0 0.94 270.305 06:38 28.09.2019
1196 Clear 8 1015 49 0 1.26 341.651 06:20 28.09.2019
1197 Clear 8 1015 49 0 1.26 341.651 05:25 28.09.2019
1198 Clear 8 1015 49 0 1.26 341.651 04:54 28.09.2019
1199 Clear 8 1015 49 0 1.26 341.651 04:29 28.09.2019
1200 Clear 8 1015 49 0 1.26 341.651 03:41 28.09.2019
1201 Clouds 9 1014 37 0 2.19 41.403 02:58 28.09.2019
1202 Clouds 9 1014 37 0 2.19 41.403 02:40 28.09.2019
1203 Clouds 9 1014 37 0 2.19 41.403 02:19 28.09.2019
1204 Clouds 9 1014 37 0 2.19 41.403 01:42 28.09.2019
1205 Clouds 10 1014 36 0 2.32 43.218 01:19 28.09.2019
1206 Clouds 10 1014 36 0 2.32 43.218 00:45 28.09.2019
1207 Clouds 10 1014 36 0 2.32 43.218 00:27 28.09.2019
1208 Clouds 14 1010 18 0 5.03 39.008 23:39 27.09.2019
1209 Clouds 14 1010 18 0 5.03 39.008 23:21 27.09.2019
1210 Clouds 14 1010 18 0 5.03 39.008 22:56 27.09.2019
1211 Clouds 14 1010 18 0 5.03 39.008 22:37 27.09.2019
1212 Clouds 14 1010 18 0 5.03 39.008 22:18 27.09.2019
1213 Clouds 14 1010 18 0 5.03 39.008 21:41 27.09.2019
1214 Clouds 14 1013 14 0 3.43 59.805 21:21 27.09.2019
1215 Clouds 14 1013 14 0 3.43 59.805 20:59 27.09.2019
1216 Clouds 14 1013 13 0 3.52 60.336 20:40 27.09.2019
1217 Clouds 14 1013 13 0 3.52 60.336 20:20 27.09.2019
1218 Clouds 14 1013 13 0 3.52 60.336 19:58 27.09.2019
1219 Clouds 14 1013 13 0 3.52 60.336 19:39 27.09.2019
1220 Clouds 14 1013 13 0 3.52 60.336 19:21 27.09.2019
1221 Clouds 14 1013 13 0 3.52 60.336 18:43 27.09.2019
1222 Clouds 14 1013 13 0 3.52 60.336 18:25 27.09.2019
1223 Clouds 14 1013 13 0 3.52 60.336 18:24 27.09.2019
1224 Clouds 12 1018 18 0 2.5 81.388 17:57 27.09.2019
1225 Clouds 12 1018 18 0 2.5 81.388 17:39 27.09.2019
1226 Clouds 12 1018 18 0 2.5 81.388 17:20 27.09.2019
1227 Clouds 12 1018 18 0 2.5 81.388 16:57 27.09.2019
1228 Clouds 12 1018 18 0 2.5 81.388 16:39 27.09.2019
1229 Clouds 12 1018 18 0 2.5 81.388 16:19 27.09.2019
1230 -273 0 0 0 0 0 15:55 27.09.2019
1231 Clouds 12 1018 18 0 2.5 81.388 15:36 27.09.2019
1232 Clouds 12 1018 18 0 2.5 81.388 15:36 27.09.2019
1233 Clouds 6 1022 30 0 0.31 1.469 15:18 27.09.2019
1234 Clouds 6 1022 30 0 0.31 1.469 14:41 27.09.2019
1235 Clouds 6 1022 30 0 0.31 1.469 14:23 27.09.2019
1236 Clouds 6 1022 30 0 0.31 1.469 13:59 27.09.2019
1237 Clouds 6 1022 30 0 0.31 1.469 13:59 27.09.2019
1238 Clouds 6 1022 30 0 0.31 1.469 13:40 27.09.2019
1239 Clouds 6 1022 29 0 0.36 345.11 13:21 27.09.2019
1240 Clouds 6 1022 29 0 0.36 345.11 12:57 27.09.2019
1241 Clouds 6 1022 29 0 0.36 345.11 12:38 27.09.2019
1242 Clouds 2 1021 61 0 0.54 259.686 12:19 27.09.2019
1243 Clouds 2 1021 61 0 0.54 259.686 11:39 27.09.2019
1244 Clouds 2 1021 61 0 0.54 259.686 11:20 27.09.2019
1245 Clouds 2 1021 61 0 0.54 259.686 10:57 27.09.2019
1246 Clouds 2 1021 61 0 0.54 259.686 10:38 27.09.2019
1247 Clouds 2 1021 61 0 0.54 259.686 10:38 27.09.2019
1248 Clouds 2 1021 61 0 0.54 259.686 10:20 27.09.2019
1249 Clouds 2 1021 61 0 0.54 259.686 09:42 27.09.2019
1250 Clouds 4 1021 64 0 0.4 317.658 09:21 27.09.2019
1251 Clouds 4 1021 64 0 0.4 317.658 08:57 27.09.2019
1252 Clouds 4 1021 63 0 0.5 318.004 08:38 27.09.2019
1253 Clouds 4 1021 63 0 0.5 318.004 08:19 27.09.2019
1254 Clouds 4 1021 63 0 0.5 318.004 07:45 27.09.2019
1255 Clouds 4 1021 63 0 0.5 318.004 07:22 27.09.2019
1256 Clouds 4 1021 63 0 0.5 318.004 06:43 27.09.2019
1257 Clouds 5 1022 57 0 1.08 13.137 06:23 27.09.2019
1258 Clouds 5 1022 57 0 1.08 13.137 05:50 27.09.2019
1259 Clouds 5 1022 57 0 1.08 13.137 05:31 27.09.2019
1260 Clouds 5 1022 57 0 1.08 13.137 03:55 27.09.2019
1261 Clouds 6 1021 52 0 3.44 49.565 02:41 27.09.2019
1262 Clouds 6 1021 52 0 3.44 49.565 01:44 27.09.2019
1263 Clouds 6 1021 57 0 3.56 42.223 00:59 27.09.2019
1264 Clouds 10 1016 36 0 6.39 68.29 00:20 27.09.2019
1265 Clouds 10 1016 36 0 6.39 68.29 23:56 26.09.2019
1266 Clouds 10 1016 36 0 6.39 68.29 23:38 26.09.2019
1267 Clouds 10 1016 36 0 6.39 68.29 23:18 26.09.2019
1268 Clouds 10 1016 36 0 6.39 68.29 23:18 26.09.2019
1269 Clouds 10 1016 36 0 6.39 68.29 22:55 26.09.2019
1270 Clouds 10 1016 36 0 6.39 68.29 22:55 26.09.2019
1271 Clouds 10 1016 36 0 6.39 68.29 22:37 26.09.2019
1272 Clouds 10 1016 36 0 6.39 68.29 22:18 26.09.2019
1273 Clouds 10 1016 36 0 6.39 68.29 21:55 26.09.2019
1274 Clouds 10 1016 36 0 6.39 68.29 21:36 26.09.2019
1275 Clouds 12 1017 31 0 5.31 81.101 21:18 26.09.2019
1276 Clouds 12 1017 31 0 5.31 81.101 21:18 26.09.2019
1277 Clouds 11 1017 35 0 5.14 73.592 20:56 26.09.2019
1278 Clouds 11 1017 35 0 5.14 73.592 20:38 26.09.2019
1279 Clouds 11 1017 35 0 5.14 73.592 20:20 26.09.2019
1280 Clouds 11 1017 35 0 5.14 73.592 19:40 26.09.2019
1281 Clouds 11 1017 35 0 5.14 73.592 19:19 26.09.2019
1282 Clouds 11 1017 35 0 5.14 73.592 18:59 26.09.2019
1283 Clouds 11 1017 35 0 5.14 73.592 18:59 26.09.2019
1284 Clouds 11 1017 35 0 5.14 73.592 18:59 26.09.2019
1285 Clouds 11 1017 35 0 5.14 73.592 18:39 26.09.2019
1286 Rain 9 1021 46 0 2.64 98.029 18:21 26.09.2019
1287 Rain 9 1021 46 0 2.64 98.029 17:57 26.09.2019
1288 Rain 9 1021 46 0 2.64 98.029 17:37 26.09.2019
1289 Rain 9 1021 46 0 2.64 98.029 17:18 26.09.2019
1290 Rain 9 1021 46 0 2.64 98.029 16:40 26.09.2019
1291 Rain 9 1021 46 0 2.64 98.029 16:21 26.09.2019
1292 Rain 9 1021 46 0 2.64 98.029 15:59 26.09.2019
1293 Rain 9 1021 46 0 2.64 98.029 15:39 26.09.2019
1294 Rain 5 1025 74 0 2.14 83.476 15:20 26.09.2019
1295 Rain 5 1025 74 0 2.14 83.476 14:57 26.09.2019
1296 Rain 5 1025 74 0 2.14 83.476 14:38 26.09.2019
1297 Rain 5 1025 74 0 2.14 83.476 14:20 26.09.2019
1298 Rain 5 1025 74 0 2.14 83.476 13:55 26.09.2019
1299 Rain 5 1025 74 0 2.14 83.476 13:36 26.09.2019
1300 Rain 4 1025 75 0 2.21 96.669 13:18 26.09.2019
1301 Rain 4 1025 75 0 2.21 96.669 12:41 26.09.2019
1302 Rain 5 1023 79 0 2.44 73.819 12:21 26.09.2019
1303 Rain 5 1023 79 0 2.44 73.819 11:55 26.09.2019
1304 Rain 5 1023 79 0 2.44 73.819 11:55 26.09.2019
1305 Rain 5 1023 79 0 2.44 73.819 11:36 26.09.2019
1306 Rain 5 1023 79 0 2.44 73.819 11:18 26.09.2019
1307 Rain 5 1023 79 0 2.44 73.819 10:42 26.09.2019
1308 Rain 5 1023 79 0 2.44 73.819 10:23 26.09.2019
1309 Rain 5 1023 79 0 2.44 73.819 09:57 26.09.2019
1310 Rain 5 1023 79 0 2.44 73.819 09:39 26.09.2019
1311 Rain 6 1022 71 0 1.45 53.661 09:18 26.09.2019
1312 Rain 6 1023 75 0 1.46 66.01 08:47 26.09.2019
1313 Rain 6 1023 75 0 1.46 66.01 08:29 26.09.2019
1314 Rain 6 1023 75 0 1.46 66.01 07:45 26.09.2019
1315 Rain 6 1023 75 0 1.46 66.01 07:22 26.09.2019
1316 Rain 6 1023 75 0 1.46 66.01 06:50 26.09.2019
1317 Rain 6 1023 75 0 1.46 66.01 06:28 26.09.2019
1318 Rain 6 1022 79 0 2.33 100.891 05:52 26.09.2019
1319 Rain 6 1022 79 0 2.33 100.891 05:26 26.09.2019
1320 Rain 6 1022 79 0 2.33 100.891 03:27 26.09.2019
1321 Clouds 8 1018 63 0 3.46 75.091 02:19 26.09.2019
1322 Clouds 8 1018 63 0 3.46 75.091 01:40 26.09.2019
1323 Rain 8 1018 68 0 3.4 79.206 01:22 26.09.2019
1324 Rain 8 1018 68 0 3.4 79.206 00:45 26.09.2019
1325 Rain 8 1018 68 0 3.4 79.206 00:25 26.09.2019
1326 Clouds 14 1012 34 0 9.04 279.242 23:43 25.09.2019
1327 Clouds 14 1012 34 0 9.04 279.242 23:19 25.09.2019
1328 Clouds 14 1012 34 0 9.04 279.242 22:54 25.09.2019
1329 Clouds 14 1012 34 0 9.04 279.242 22:36 25.09.2019
1330 Clouds 14 1012 34 0 9.04 279.242 22:18 25.09.2019
1331 Clouds 14 1012 34 0 9.04 279.242 21:55 25.09.2019
1332 Clouds 14 1012 34 0 9.04 279.242 21:36 25.09.2019
1333 Rain 14 1014 31 0 4.51 293.969 21:18 25.09.2019
1334 Rain 14 1014 31 0 4.51 293.969 20:55 25.09.2019
1335 Rain 15 1014 30 0 5.08 300.888 20:37 25.09.2019
1336 Rain 15 1014 30 0 5.08 300.888 20:18 25.09.2019
1337 Rain 15 1014 30 0 5.08 300.888 19:39 25.09.2019
1338 Rain 15 1014 30 0 5.08 300.888 19:20 25.09.2019
1339 Rain 15 1014 30 0 5.08 300.888 18:56 25.09.2019
1340 Rain 15 1014 30 0 5.08 300.888 18:37 25.09.2019
1341 Clouds 9 1019 56 0 3.8 348.04 18:18 25.09.2019
1342 Clouds 9 1019 56 0 3.8 348.04 17:40 25.09.2019
1343 Clouds 9 1019 56 0 3.8 348.04 17:21 25.09.2019
1344 Clouds 9 1019 56 0 3.8 348.04 16:57 25.09.2019
1345 Clouds 9 1019 56 0 3.8 348.04 16:38 25.09.2019
1346 Clouds 9 1019 56 0 3.8 348.04 16:19 25.09.2019
1347 Clouds 9 1019 56 0 3.8 348.04 15:55 25.09.2019
1348 Clouds 9 1019 56 0 3.8 348.04 15:55 25.09.2019
1349 Clouds 9 1019 56 0 3.8 348.04 15:36 25.09.2019
1350 Clouds 6 1023 76 0 3 350.258 15:18 25.09.2019
1351 Clouds 6 1023 76 0 3 350.258 14:41 25.09.2019
1352 Clouds 6 1023 76 0 3 350.258 14:22 25.09.2019
1353 Clouds 6 1023 76 0 3 350.258 13:57 25.09.2019
1354 Clouds 6 1023 76 0 3 350.258 13:57 25.09.2019
1355 Clouds 6 1023 76 0 3 350.258 13:39 25.09.2019
1356 Clouds 6 1023 75 0 2.75 355.62 13:20 25.09.2019
1357 Clouds 6 1023 75 0 2.75 355.62 12:54 25.09.2019
1358 Clouds 6 1023 75 0 2.75 355.62 12:36 25.09.2019
1359 Clouds 4 1021 91 0 2.09 1.207 12:18 25.09.2019
1360 Clouds 4 1021 91 0 2.09 1.207 11:40 25.09.2019
1361 Clouds 4 1021 91 0 2.09 1.207 11:20 25.09.2019
1362 Clouds 4 1021 91 0 2.09 1.207 10:47 25.09.2019
1363 Clouds 4 1021 91 0 2.09 1.207 10:27 25.09.2019
1364 Clouds 4 1021 91 0 2.09 1.207 09:59 25.09.2019
1365 Clouds 4 1021 91 0 2.09 1.207 09:59 25.09.2019
1366 Clouds 4 1021 91 0 2.09 1.207 09:41 25.09.2019
1367 Clouds 5 1021 81 0 2.61 358.925 09:23 25.09.2019
1368 Clouds 5 1021 82 0 2.56 0.919 08:57 25.09.2019
1369 Clouds 5 1021 82 0 2.56 0.919 08:39 25.09.2019
1370 Clouds 5 1021 82 0 2.56 0.919 08:19 25.09.2019
1371 Clouds 5 1021 82 0 2.56 0.919 07:40 25.09.2019
1372 Clouds 5 1021 82 0 2.56 0.919 07:22 25.09.2019
1373 Clouds 5 1021 82 0 2.56 0.919 06:55 25.09.2019
1374 Clouds 5 1021 82 0 2.56 0.919 06:33 25.09.2019
1375 Clouds 6 1021 75 0 3.02 1.993 05:43 25.09.2019
1376 Clouds 6 1021 75 0 3.02 1.993 04:58 25.09.2019
1377 Rain 6 1019 79 0 3.3 40.545 02:50 25.09.2019
1378 Rain 6 1019 81 0 4.01 25.869 01:29 25.09.2019
1379 Rain 6 1019 81 0 4.01 25.869 00:38 25.09.2019
1380 Rain 10 1013 60 0 5.22 359.802 00:20 25.09.2019
1381 Rain 10 1013 60 0 5.22 359.802 23:42 24.09.2019
1382 Rain 10 1013 60 0 5.22 359.802 23:22 24.09.2019
1383 Rain 10 1013 60 0 5.22 359.802 22:57 24.09.2019
1384 Rain 10 1013 60 0 5.22 359.802 22:38 24.09.2019
1385 Rain 10 1013 60 0 5.22 359.802 22:18 24.09.2019
1386 Rain 10 1013 60 0 5.22 359.802 22:18 24.09.2019
1387 Rain 10 1013 63 0 5.53 23.603 21:55 24.09.2019
1388 Rain 10 1013 63 0 5.53 23.603 21:37 24.09.2019
1389 Rain 15 1014 31 0 5.6 25.613 21:18 24.09.2019
1390 Rain 15 1014 31 0 5.6 25.613 20:56 24.09.2019
1391 Rain 15 1014 31 0 5.6 25.613 20:56 24.09.2019
1392 Rain 15 1014 31 0 5.6 25.613 20:37 24.09.2019
1393 Rain 15 1014 31 0 5.6 25.613 20:19 24.09.2019
1394 Rain 15 1014 31 0 5.6 25.613 19:42 24.09.2019
1395 Rain 15 1014 31 0 5.6 25.613 19:20 24.09.2019
1396 Rain 15 1014 31 0 5.6 25.613 19:20 24.09.2019
1397 Rain 15 1014 31 0 5.6 25.613 18:57 24.09.2019
1398 Rain 15 1014 31 0 5.6 25.613 18:39 24.09.2019
1399 Rain 12 1019 45 0 3.57 25.403 18:20 24.09.2019
1400 Rain 12 1019 45 0 3.57 25.403 17:56 24.09.2019
1401 Rain 12 1019 45 0 3.57 25.403 17:37 24.09.2019
1402 Rain 12 1019 45 0 3.57 25.403 17:37 24.09.2019
1403 Rain 12 1019 45 0 3.57 25.403 17:19 24.09.2019
1404 Rain 12 1019 45 0 3.57 25.403 16:42 24.09.2019
1405 Rain 12 1019 45 0 3.57 25.403 16:21 24.09.2019
1406 Rain 12 1019 45 0 3.57 25.403 15:58 24.09.2019
1407 Rain 12 1019 45 0 3.57 25.403 15:40 24.09.2019
1408 Clouds 8 1022 69 0 2.19 8.123 15:21 24.09.2019
1409 Clouds 8 1022 69 0 2.19 8.123 14:40 24.09.2019
1410 Clouds 8 1022 69 0 2.19 8.123 14:19 24.09.2019
1411 Clouds 8 1022 69 0 2.19 8.123 13:45 24.09.2019
1412 Clear 8 1022 68 0 2.13 7.352 13:23 24.09.2019
1413 Clear 8 1022 68 0 2.13 7.352 12:59 24.09.2019
1414 Clear 8 1022 68 0 2.13 7.352 12:39 24.09.2019
1415 Clear 6 1020 78 0 1.38 6.299 12:18 24.09.2019
1416 Clear 6 1020 78 0 1.38 6.299 11:42 24.09.2019
1417 Clear 6 1020 78 0 1.38 6.299 11:21 24.09.2019
1418 Clear 6 1020 78 0 1.38 6.299 10:56 24.09.2019
1419 Clear 6 1020 78 0 1.38 6.299 10:36 24.09.2019
1420 Clear 6 1020 78 0 1.38 6.299 10:18 24.09.2019
1421 Clear 6 1020 78 0 1.38 6.299 09:46 24.09.2019
1422 Clear 6 1020 78 0 1.38 6.299 09:27 24.09.2019
1423 Clouds 8 1020 67 0 1.55 36.442 08:57 24.09.2019
1424 Clouds 8 1020 67 0 1.55 36.442 08:57 24.09.2019
1425 Clouds 8 1020 67 0 1.46 38.55 08:38 24.09.2019
1426 Clouds 8 1020 67 0 1.46 38.55 08:20 24.09.2019
1427 Clouds 8 1020 67 0 1.46 38.55 07:52 24.09.2019
1428 Clouds 8 1020 67 0 1.46 38.55 07:25 24.09.2019
1429 Clouds 8 1020 67 0 1.46 38.55 06:57 24.09.2019
1430 Clouds 8 1020 67 0 1.46 38.55 06:36 24.09.2019
1431 Clouds 8 1020 67 0 1.46 38.55 06:36 24.09.2019
1432 Rain 9 1019 63 0 0.74 330.638 05:51 24.09.2019
1433 Rain 9 1019 63 0 0.74 330.638 05:20 24.09.2019
1434 Rain 9 1019 63 0 0.74 330.638 03:45 24.09.2019
1435 Rain 10 1017 56 0 1.84 108.977 02:57 24.09.2019
1436 Rain 10 1017 56 0 1.84 108.977 02:39 24.09.2019
1437 Rain 10 1017 56 0 1.84 108.977 01:39 24.09.2019
1438 Rain 10 1017 56 0 2.2 115.538 00:38 24.09.2019
1439 Clouds 14 1011 37 0 7.3 45.777 00:20 24.09.2019
1440 Clouds 14 1011 37 0 7.3 45.777 23:40 23.09.2019
1441 Clouds 14 1011 37 0 7.3 45.777 23:21 23.09.2019
1442 Clouds 14 1011 37 0 7.3 45.777 22:40 23.09.2019
1443 Clouds 14 1011 37 0 7.3 45.777 22:21 23.09.2019
1444 Clouds 14 1011 37 0 7.3 45.777 22:21 23.09.2019
1445 Clouds 14 1011 37 0 7.3 45.777 21:58 23.09.2019
1446 Clouds 14 1011 37 0 7.3 45.777 21:40 23.09.2019
1447 Clouds 16 1013 29 0 3.69 38.791 21:20 23.09.2019
1448 Clouds 16 1013 29 0 3.69 38.791 21:20 23.09.2019
1449 Clouds 16 1013 29 0 3.69 38.791 21:20 23.09.2019
1450 Clouds 16 1013 29 0 3.69 38.791 20:56 23.09.2019
1451 Clouds 16 1013 29 0 3.43 37.047 20:37 23.09.2019
1452 Clouds 16 1013 29 0 3.43 37.047 20:18 23.09.2019
1453 Clouds 16 1013 29 0 3.43 37.047 19:40 23.09.2019
1454 Clouds 16 1013 29 0 3.43 37.047 19:22 23.09.2019
1455 Clouds 16 1013 29 0 3.43 37.047 18:59 23.09.2019
1456 Clouds 16 1013 29 0 3.43 37.047 18:40 23.09.2019
1457 Clouds 16 1013 29 0 3.43 37.047 18:40 23.09.2019
1458 Clouds 13 1018 46 0 2.72 29.805 18:18 23.09.2019
1459 Clouds 13 1018 46 0 2.72 29.805 17:56 23.09.2019
1460 Clouds 13 1018 46 0 2.72 29.805 17:38 23.09.2019
1461 Clouds 13 1018 46 0 2.72 29.805 17:19 23.09.2019
1462 Clouds 13 1018 46 0 2.72 29.805 16:54 23.09.2019
1463 Clouds 13 1018 46 0 2.72 29.805 16:36 23.09.2019
1464 Clouds 13 1018 46 0 2.72 29.805 16:18 23.09.2019
1465 Clouds 13 1018 46 0 2.72 29.805 16:18 23.09.2019
1466 Clouds 13 1018 46 0 2.72 29.805 15:55 23.09.2019
1467 Clouds 13 1018 46 0 2.72 29.805 15:37 23.09.2019
1468 Clouds 7 1021 71 0 1.13 311.081 15:18 23.09.2019
1469 Clouds 7 1021 71 0 1.13 311.081 14:40 23.09.2019
1470 Clouds 7 1021 71 0 1.13 311.081 14:20 23.09.2019
1471 Clouds 7 1021 71 0 1.13 311.081 13:58 23.09.2019
1472 Clouds 7 1021 71 0 1.13 311.081 13:38 23.09.2019
1473 Clouds 8 1021 70 0 1 328.987 13:18 23.09.2019
1474 Clouds 8 1021 70 0 1 328.987 12:43 23.09.2019
1475 Clear 5 1021 90 0 1.63 337.957 12:23 23.09.2019
1476 Clear 5 1021 90 0 1.63 337.957 11:58 23.09.2019
1477 Clear 5 1021 90 0 1.63 337.957 11:40 23.09.2019
1478 Clear 5 1021 90 0 1.63 337.957 11:21 23.09.2019
1479 Clear 5 1021 90 0 1.63 337.957 10:49 23.09.2019
1480 Clear 5 1021 90 0 1.63 337.957 10:22 23.09.2019
1481 Clear 5 1021 90 0 1.63 337.957 09:58 23.09.2019
1482 Clear 5 1021 90 0 1.63 337.957 09:37 23.09.2019
1483 Clouds 7 1020 83 0 1.71 354.784 09:19 23.09.2019
1484 Clouds 7 1020 83 0 1.71 354.784 08:45 23.09.2019
1485 Clouds 7 1020 80 0 1.8 2.459 08:26 23.09.2019
1486 Clouds 7 1020 80 0 1.8 2.459 07:56 23.09.2019
1487 Clouds 7 1020 80 0 1.8 2.459 07:28 23.09.2019
1488 Clouds 7 1020 80 0 1.8 2.459 06:31 23.09.2019
1489 Clouds 7 1020 75 0 1.33 341.021 05:48 23.09.2019
1490 Clouds 7 1020 75 0 1.33 341.021 05:20 23.09.2019
1491 Clouds 7 1020 75 0 1.33 341.021 04:54 23.09.2019
1492 Rain 8 1018 68 0 2.03 338.592 02:37 23.09.2019
1493 Rain 8 1018 68 0 2.05 344.826 00:43 23.09.2019
1494 Rain 12 1014 53 0 5.75 46.296 00:22 23.09.2019
1495 Rain 12 1014 53 0 5.75 46.296 23:51 22.09.2019
1496 Rain 12 1014 53 0 5.75 46.296 23:32 22.09.2019
1497 Rain 12 1014 53 0 5.75 46.296 22:58 22.09.2019
1498 Rain 12 1014 53 0 5.75 46.296 22:40 22.09.2019
1499 Rain 12 1014 53 0 5.75 46.296 22:21 22.09.2019
1500 Rain 12 1014 53 0 5.75 46.296 21:43 22.09.2019
1501 Clear 15 1015 30 0 4.45 51.256 21:22 22.09.2019
1502 Clear 15 1015 30 0 4.45 51.256 21:22 22.09.2019
1503 Clear 15 1015 30 0 4.45 51.256 20:58 22.09.2019
1504 Clear 15 1015 30 0 4.45 51.256 20:40 22.09.2019
1505 Rain 15 1015 33 0 4.5 47.251 20:22 22.09.2019
1506 Rain 15 1015 33 0 4.5 47.251 19:41 22.09.2019
1507 Rain 15 1015 33 0 4.5 47.251 19:23 22.09.2019
1508 Rain 15 1015 33 0 4.5 47.251 18:59 22.09.2019
1509 Rain 15 1015 33 0 4.5 47.251 18:39 22.09.2019
1510 Rain 12 1019 46 0 2.55 39.903 18:20 22.09.2019
1511 Rain 12 1019 46 0 2.55 39.903 17:58 22.09.2019
1512 Rain 12 1019 46 0 2.55 39.903 17:40 22.09.2019
1513 Rain 12 1019 46 0 2.55 39.903 17:19 22.09.2019
1514 Rain 12 1019 46 0 2.55 39.903 16:45 22.09.2019
1515 Rain 12 1019 46 0 2.55 39.903 16:26 22.09.2019
1516 Rain 12 1019 46 0 2.55 39.903 15:56 22.09.2019
1517 Rain 12 1019 46 0 2.55 39.903 15:38 22.09.2019
1518 Rain 8 1021 68 0 1.66 38.509 15:19 22.09.2019
1519 Rain 8 1021 68 0 1.66 38.509 14:43 22.09.2019
1520 Rain 8 1021 68 0 1.66 38.509 14:25 22.09.2019
1521 Rain 8 1021 68 0 1.66 38.509 13:58 22.09.2019
1522 Rain 8 1021 68 0 1.66 38.509 13:40 22.09.2019
1523 Rain 8 1021 63 0 1.65 30.749 13:21 22.09.2019
1524 Rain 8 1021 63 0 1.65 30.749 12:44 22.09.2019
1525 Rain 7 1019 65 0 0.87 9.613 12:24 22.09.2019
1526 Rain 7 1019 65 0 0.87 9.613 11:59 22.09.2019
1527 Rain 7 1019 65 0 0.87 9.613 11:40 22.09.2019
1528 Rain 7 1019 65 0 0.87 9.613 11:22 22.09.2019
1529 Rain 7 1019 65 0 0.87 9.613 10:45 22.09.2019
1530 Rain 7 1019 65 0 0.87 9.613 10:20 22.09.2019
1531 Rain 7 1019 65 0 0.87 9.613 09:59 22.09.2019
1532 Rain 7 1019 65 0 0.87 9.613 09:40 22.09.2019
1533 Rain 9 1018 67 0 0.73 286.107 09:20 22.09.2019
1534 Rain 8 1018 69 0 0.85 273.765 08:45 22.09.2019
1535 Rain 8 1018 69 0 0.85 273.765 08:25 22.09.2019
1536 Rain 8 1018 69 0 0.85 273.765 07:56 22.09.2019
1537 Rain 8 1018 69 0 0.85 273.765 07:38 22.09.2019
1538 Rain 8 1018 69 0 0.85 273.765 07:19 22.09.2019
1539 Rain 8 1018 69 0 0.85 273.765 06:55 22.09.2019
1540 Rain 8 1018 76 0 0.82 15.434 05:36 22.09.2019
1541 Rain 8 1018 76 0 0.82 15.434 03:49 22.09.2019
1542 Clouds 11 1015 48 0 1.48 24.648 02:38 22.09.2019
1543 Clouds 11 1015 48 0 1.48 24.648 02:20 22.09.2019
1544 Clouds 11 1015 48 0 1.5 18.726 01:23 22.09.2019
1545 Clouds 11 1015 48 0 1.5 18.726 00:37 22.09.2019
1546 Clouds 15 1010 22 0 4.63 254.359 00:18 22.09.2019
1547 Clouds 15 1010 22 0 4.63 254.359 00:18 22.09.2019
1548 Clouds 15 1010 22 0 4.63 254.359 23:41 21.09.2019
1549 Clouds 15 1010 22 0 4.63 254.359 23:22 21.09.2019
1550 Clouds 15 1010 22 0 4.63 254.359 22:39 21.09.2019
1551 Clouds 15 1010 22 0 4.63 254.359 22:21 21.09.2019
1552 Clouds 15 1010 22 0 4.63 254.359 21:55 21.09.2019
1553 Clouds 15 1010 22 0 4.63 254.359 21:37 21.09.2019
1554 Clouds 16 1011 20 0 4.85 269.882 21:18 21.09.2019
1555 Clouds 16 1011 21 0 5.25 274.717 20:40 21.09.2019
1556 Clouds 16 1011 21 0 5.25 274.717 20:22 21.09.2019
1557 Clouds 16 1011 21 0 5.25 274.717 19:49 21.09.2019
1558 Clouds 16 1011 21 0 5.25 274.717 19:49 21.09.2019
1559 Clouds 16 1011 21 0 5.25 274.717 19:25 21.09.2019
1560 Clouds 16 1011 21 0 5.25 274.717 18:59 21.09.2019
1561 Clouds 16 1011 21 0 5.25 274.717 18:38 21.09.2019
1562 Clear 13 1016 32 0 3.95 324.739 18:20 21.09.2019
1563 Clear 13 1016 32 0 3.95 324.739 17:42 21.09.2019
1564 Clear 13 1016 32 0 3.95 324.739 17:23 21.09.2019
1565 Clear 13 1016 32 0 3.95 324.739 16:56 21.09.2019
1566 Clear 13 1016 32 0 3.95 324.739 16:36 21.09.2019
1567 Clear 13 1016 32 0 3.95 324.739 16:18 21.09.2019
1568 Clear 13 1016 32 0 3.95 324.739 15:42 21.09.2019
1569 Clouds 7 1019 67 0 1.72 321.6 15:20 21.09.2019
1570 Clouds 7 1019 67 0 1.72 321.6 14:47 21.09.2019
1571 Clouds 7 1019 67 0 1.72 321.6 14:28 21.09.2019
1572 Clouds 7 1019 67 0 1.72 321.6 13:45 21.09.2019
1573 Clouds 7 1019 65 0 1.29 313.365 13:25 21.09.2019
1574 Clouds 7 1019 65 0 1.29 313.365 12:58 21.09.2019
1575 Clouds 7 1019 65 0 1.29 313.365 12:39 21.09.2019
1576 Clouds 4 1017 90 0 1.77 307.81 12:20 21.09.2019
1577 Clouds 4 1017 90 0 1.77 307.81 12:20 21.09.2019
1578 Clouds 4 1017 90 0 1.77 307.81 11:58 21.09.2019
1579 Clouds 4 1017 90 0 1.77 307.81 11:39 21.09.2019
1580 Clouds 4 1017 90 0 1.77 307.81 11:18 21.09.2019
1581 Clouds 4 1017 90 0 1.77 307.81 10:40 21.09.2019
1582 Clouds 4 1017 90 0 1.77 307.81 10:21 21.09.2019
1583 Clouds 4 1017 90 0 1.77 307.81 09:57 21.09.2019
1584 Clouds 4 1017 90 0 1.77 307.81 09:38 21.09.2019
1585 Clouds 5 1017 92 0 0.79 1.443 09:19 21.09.2019
1586 Clouds 5 1017 92 0 0.79 1.443 08:50 21.09.2019
1587 Clouds 4 1017 91 0 0.95 345.037 08:25 21.09.2019
1588 Clouds 4 1017 91 0 0.95 345.037 07:40 21.09.2019
1589 Clouds 4 1017 91 0 0.95 345.037 07:21 21.09.2019
1590 Clouds 4 1017 91 0 0.95 345.037 06:47 21.09.2019
1591 Clouds 4 1017 91 0 0.95 345.037 06:26 21.09.2019
1592 Clouds 6 1016 58 0 2.04 19.367 04:49 21.09.2019
1593 Clouds 6 1016 58 0 2.04 19.367 04:31 21.09.2019
1594 Clouds 9 1014 22 0 4.52 277.524 02:27 21.09.2019
1595 Clouds 9 1014 22 0 4.52 277.524 01:52 21.09.2019
1596 Clouds 9 1014 22 0 4.52 277.524 01:33 21.09.2019
1597 Clouds 9 1014 22 0 4.52 277.524 00:38 21.09.2019
1598 Clouds 13 1008 12 0 8.24 288.963 00:18 21.09.2019
1599 Clouds 13 1008 12 0 8.24 288.963 23:41 20.09.2019
1600 Clouds 13 1008 12 0 8.24 288.963 23:21 20.09.2019
1601 Clouds 13 1008 12 0 8.24 288.963 22:41 20.09.2019
1602 Clouds 13 1008 12 0 8.24 288.963 22:22 20.09.2019
1603 Clouds 13 1008 12 0 8.24 288.963 21:56 20.09.2019
1604 Clouds 13 1008 12 0 8.24 288.963 21:56 20.09.2019
1605 Clouds 13 1008 12 0 8.24 288.963 21:37 20.09.2019
1606 Clouds 15 1011 10 0 8.57 297.761 21:18 20.09.2019
1607 Clouds 15 1011 10 0 8.57 297.761 20:54 20.09.2019
1608 Clouds 15 1011 10 0 8.61 298.372 20:36 20.09.2019
1609 Clouds 15 1011 10 0 8.61 298.372 20:36 20.09.2019
1610 Clouds 15 1011 10 0 8.61 298.372 20:18 20.09.2019
1611 Clouds 15 1011 10 0 8.61 298.372 19:41 20.09.2019
1612 Clouds 15 1011 10 0 8.61 298.372 19:21 20.09.2019
1613 Clouds 15 1011 10 0 8.61 298.372 18:56 20.09.2019
1614 Clouds 15 1011 10 0 8.61 298.372 18:36 20.09.2019
1615 Clear 12 1016 9 0 5.44 323.098 18:18 20.09.2019
1616 Clear 12 1016 9 0 5.44 323.098 17:43 20.09.2019
1617 Clear 12 1016 9 0 5.44 323.098 17:25 20.09.2019
1618 Clear 12 1016 9 0 5.44 323.098 16:43 20.09.2019
1619 Clear 12 1016 9 0 5.44 323.098 16:21 20.09.2019
1620 Clear 12 1016 9 0 5.44 323.098 16:21 20.09.2019
1621 Clear 12 1016 9 0 5.44 323.098 15:58 20.09.2019
1622 Clear 12 1016 9 0 5.44 323.098 15:58 20.09.2019
1623 Clear 12 1016 9 0 5.44 323.098 15:40 20.09.2019
1624 Clouds 6 1020 8 0 2.27 296.136 15:22 20.09.2019
1625 Clouds 6 1020 8 0 2.27 296.136 14:43 20.09.2019
1626 Clouds 6 1020 8 0 2.27 296.136 14:19 20.09.2019
1627 Clouds 6 1020 8 0 2.27 296.136 14:19 20.09.2019
1628 Clouds 6 1020 8 0 2.27 296.136 13:55 20.09.2019
1629 Clouds 6 1020 8 0 2.27 296.136 13:36 20.09.2019
1630 Clouds 6 1020 8 0 2.27 297.456 13:18 20.09.2019
1631 Clouds 6 1020 8 0 2.27 297.456 12:37 20.09.2019
1632 Clouds 1 1018 12 0 3.15 263.459 12:19 20.09.2019
1633 Clouds 1 1018 12 0 3.15 263.459 11:50 20.09.2019
1634 Clouds 1 1018 12 0 3.15 263.459 11:22 20.09.2019
1635 Clouds 1 1018 12 0 3.15 263.459 10:58 20.09.2019
1636 Clouds 1 1018 12 0 3.15 263.459 10:39 20.09.2019
1637 Clouds 1 1018 12 0 3.15 263.459 10:19 20.09.2019
1638 Clouds 1 1018 12 0 3.15 263.459 09:38 20.09.2019
1639 Clouds 2 1018 14 0 3.17 256.798 09:18 20.09.2019
1640 Clouds 2 1018 14 0 3.17 256.798 08:46 20.09.2019
1641 Clouds 2 1018 14 0 3.17 256.798 08:26 20.09.2019
1642 Clouds 2 1018 14 0 3.17 256.798 07:49 20.09.2019
1643 Clouds 2 1017 14 0 2.96 255.785 07:29 20.09.2019
1644 Clouds 2 1017 14 0 2.96 255.785 06:48 20.09.2019
1645 Clouds 2 1017 14 0 2.96 255.785 06:30 20.09.2019
1646 Clouds 2 1017 14 0 2.96 255.785 06:30 20.09.2019
1647 Clear 4 1017 16 0 5.27 258.609 05:58 20.09.2019
1648 Clear 4 1017 16 0 5.27 258.609 05:58 20.09.2019
1649 Clear 4 1017 16 0 5.27 258.609 04:28 20.09.2019
1650 Clear 4 1017 16 0 5.27 258.609 03:26 20.09.2019
1651 Clouds 7 1014 17 0 4.35 241.04 01:45 20.09.2019
1652 Clouds 7 1014 17 0 4.35 241.04 01:45 20.09.2019
1653 Clouds 6 1014 16 0 4.51 240.654 01:27 20.09.2019
1654 Clouds 6 1014 16 0 4.51 240.654 00:32 20.09.2019
1655 Clouds 11 1007 11 0 7.21 242.678 23:46 19.09.2019
1656 Clouds 11 1007 11 0 7.21 242.678 23:46 19.09.2019
1657 Clouds 11 1007 11 0 7.21 242.678 23:24 19.09.2019
1658 Clouds 11 1007 11 0 7.21 242.678 22:58 19.09.2019
1659 Clouds 11 1007 11 0 7.21 242.678 22:39 19.09.2019
1660 Clouds 11 1007 11 0 7.21 242.678 22:21 19.09.2019
1661 Clouds 11 1007 11 0 7.21 242.678 21:57 19.09.2019
1662 Clouds 11 1007 11 0 7.21 242.678 21:38 19.09.2019
1663 Clouds 12 1008 14 0 10.86 274.351 21:19 19.09.2019
1664 Clouds 12 1008 14 0 10.86 274.351 20:43 19.09.2019
1665 Clouds 12 1008 14 0 10.53 276.722 20:23 19.09.2019
1666 Clouds 12 1008 14 0 10.53 276.722 19:57 19.09.2019
1667 Clouds 12 1008 14 0 10.53 276.722 19:39 19.09.2019
1668 Clouds 12 1008 14 0 10.53 276.722 19:21 19.09.2019
1669 Clouds 12 1008 14 0 10.53 276.722 18:56 19.09.2019
1670 Clouds 12 1008 14 0 10.53 276.722 18:38 19.09.2019
1671 Clouds 11 1012 12 0 11.52 278.039 18:19 19.09.2019
1672 Clouds 11 1012 12 0 11.52 278.039 17:42 19.09.2019
1673 Clouds 11 1012 12 0 11.52 278.039 17:23 19.09.2019
1674 Clouds 11 1012 12 0 11.52 278.039 16:59 19.09.2019
1675 Clouds 11 1012 12 0 11.52 278.039 16:40 19.09.2019
1676 Clouds 11 1012 12 0 11.52 278.039 16:19 19.09.2019
1677 Clouds 11 1012 12 0 11.52 278.039 15:40 19.09.2019
1678 Clouds 11 1012 12 0 11.52 278.039 15:40 19.09.2019
1679 Clouds 6 1015 15 0 7.09 274.823 15:21 19.09.2019
1680 Clouds 6 1015 15 0 7.09 274.823 14:57 19.09.2019
1681 Clouds 6 1015 15 0 7.09 274.823 14:38 19.09.2019
1682 Clouds 6 1015 15 0 7.09 274.823 14:18 19.09.2019
1683 Clouds 6 1015 15 0 7.09 274.823 13:40 19.09.2019
1684 Clear 6 1015 14 0 7.39 273.608 13:20 19.09.2019
1685 Clear 6 1015 14 0 7.39 273.608 12:58 19.09.2019
1686 Clear 6 1015 14 0 7.39 273.608 12:36 19.09.2019
1687 Clear 2 1013 22 0 3.96 266.643 12:18 19.09.2019
1688 Clear 2 1013 22 0 3.96 266.643 11:41 19.09.2019
1689 Clear 2 1013 22 0 3.96 266.643 11:21 19.09.2019
1690 Clear 2 1013 22 0 3.96 266.643 10:58 19.09.2019
1691 Clear 2 1013 22 0 3.96 266.643 10:37 19.09.2019
1692 Clear 2 1013 22 0 3.96 266.643 10:18 19.09.2019
1693 Clear 2 1013 22 0 3.96 266.643 09:55 19.09.2019
1694 Clear 2 1013 22 0 3.96 266.643 09:55 19.09.2019
1695 Clear 2 1013 22 0 3.96 266.643 09:55 19.09.2019
1696 Clear 2 1013 22 0 3.96 266.643 09:36 19.09.2019
1697 Clear 2 1013 22 0 3.96 266.643 09:36 19.09.2019
1698 Clouds 3 1013 22 0 3.16 267.624 09:18 19.09.2019
1699 Clouds 2 1014 21 0 3.92 257.92 08:41 19.09.2019
1700 Clouds 2 1014 21 0 3.92 257.92 08:22 19.09.2019
1701 Clouds 2 1014 21 0 3.92 257.92 07:43 19.09.2019
1702 Clouds 2 1014 21 0 3.92 257.92 07:43 19.09.2019
1703 Clouds 2 1014 21 0 3.92 257.92 07:22 19.09.2019
1704 Clouds 2 1014 21 0 3.92 257.92 06:49 19.09.2019
1705 Clouds 2 1014 21 0 3.92 257.92 06:29 19.09.2019
1706 Clouds 5 1014 16 0 7.18 253.098 05:53 19.09.2019
1707 Clouds 5 1014 16 0 7.18 253.098 05:33 19.09.2019
1708 Clouds 5 1014 16 0 7.18 253.098 03:54 19.09.2019
1709 Clear 8 1011 16 0 6.13 237.689 03:18 19.09.2019
1710 Clear 8 1011 16 0 6.5 246.007 01:34 19.09.2019
1711 Clear 8 1011 16 0 6.5 246.007 00:53 19.09.2019
1712 Clear 8 1011 16 0 6.5 246.007 00:26 19.09.2019
1713 Clear 13 1005 19 0 8.28 287.734 23:44 18.09.2019
1714 Clear 13 1005 19 0 8.28 287.734 23:23 18.09.2019
1715 Clear 13 1005 19 0 8.28 287.734 22:57 18.09.2019
1716 Clear 13 1005 19 0 8.28 287.734 22:37 18.09.2019
1717 Clear 13 1005 19 0 8.28 287.734 22:19 18.09.2019
1718 Clear 13 1005 19 0 8.28 287.734 21:57 18.09.2019
1719 Clear 13 1005 19 0 8.28 287.734 21:38 18.09.2019
1720 Clouds 14 1007 18 0 8.65 286.477 21:18 18.09.2019
1721 Clouds 14 1007 17 0 8.66 289.297 20:56 18.09.2019
1722 Clouds 14 1007 17 0 8.66 289.297 20:38 18.09.2019
1723 Clouds 14 1007 17 0 8.66 289.297 20:20 18.09.2019
1724 Clouds 14 1007 17 0 8.66 289.297 19:55 18.09.2019
1725 Clouds 14 1007 17 0 8.66 289.297 19:37 18.09.2019
1726 Clouds 14 1007 17 0 8.66 289.297 19:18 18.09.2019
1727 Clouds 14 1007 17 0 8.66 289.297 18:54 18.09.2019
1728 Clouds 14 1007 17 0 8.66 289.297 18:54 18.09.2019
1729 Clouds 14 1007 17 0 8.66 289.297 18:36 18.09.2019
1730 Clouds 12 1012 14 0 6.51 297.927 18:18 18.09.2019
1731 Clouds 12 1012 14 0 6.51 297.927 17:41 18.09.2019
1732 Clouds 12 1012 14 0 6.51 297.927 17:20 18.09.2019
1733 Clouds 12 1012 14 0 6.51 297.927 16:59 18.09.2019
1734 Clouds 12 1012 14 0 6.51 297.927 16:41 18.09.2019
1735 Clouds 12 1012 14 0 6.51 297.927 16:22 18.09.2019
1736 Clouds 12 1012 14 0 6.51 297.927 16:22 18.09.2019
1737 Clouds 12 1012 14 0 6.51 297.927 15:57 18.09.2019
1738 Clouds 12 1012 14 0 6.51 297.927 15:39 18.09.2019
1739 Clouds 6 1015 29 0 3.12 292.419 15:20 18.09.2019
1740 Clouds 6 1015 29 0 3.12 292.419 14:58 18.09.2019
1741 Clouds 6 1015 29 0 3.12 292.419 14:40 18.09.2019
1742 Clouds 6 1015 29 0 3.12 292.419 14:21 18.09.2019
1743 Clouds 6 1015 29 0 3.12 292.419 13:58 18.09.2019
1744 Clouds 6 1015 29 0 3.12 292.419 13:38 18.09.2019
1745 Clouds 6 1015 25 0 3.86 290.575 13:18 18.09.2019
1746 Clouds 6 1015 25 0 3.86 290.575 12:44 18.09.2019
1747 Clouds 6 1015 25 0 3.86 290.575 12:26 18.09.2019
1748 Clouds 3 1014 30 0 3.53 262.317 11:40 18.09.2019
1749 Clouds 3 1014 30 0 3.53 262.317 11:20 18.09.2019
1750 Clouds 3 1014 30 0 3.53 262.317 10:58 18.09.2019
1751 Clouds 3 1014 30 0 3.53 262.317 10:39 18.09.2019
1752 Clouds 3 1014 30 0 3.53 262.317 10:20 18.09.2019
1753 Clouds 3 1014 30 0 3.53 262.317 10:20 18.09.2019
1754 Clouds 3 1014 30 0 3.53 262.317 09:57 18.09.2019
1755 Clouds 3 1014 30 0 3.53 262.317 09:37 18.09.2019
1756 Clouds 5 1014 28 0 4.48 253.488 09:19 18.09.2019
1757 Clouds 5 1014 29 0 4.3 254.814 08:41 18.09.2019
1758 Clouds 5 1014 29 0 4.3 254.814 08:23 18.09.2019
1759 Clouds 5 1014 29 0 4.3 254.814 07:45 18.09.2019
1760 Clouds 5 1014 29 0 4.3 254.814 07:26 18.09.2019
1761 -273 0 0 0 0 0 06:55 18.09.2019
1762 Clouds 5 1014 29 0 4.3 254.814 06:55 18.09.2019
1763 Clouds 5 1014 29 0 4.3 254.814 06:31 18.09.2019
1764 Clouds 7 1015 31 0 5.7 254.223 05:40 18.09.2019
1765 Clouds 7 1015 31 0 5.7 254.223 04:20 18.09.2019
1766 Clouds 9 1013 51 0 7.18 254.543 02:41 18.09.2019
1767 Clouds 9 1013 51 0 7.18 254.543 01:54 18.09.2019
1768 Clouds 9 1013 44 0 5.57 264.317 01:18 18.09.2019
1769 Clouds 9 1013 44 0 5.57 264.317 00:42 18.09.2019
1770 Clouds 13 1008 34 0 8.03 288.552 00:19 18.09.2019
1771 Clouds 13 1008 34 0 8.03 288.552 23:42 17.09.2019
1772 Clouds 13 1008 34 0 8.03 288.552 23:22 17.09.2019
1773 Clouds 13 1008 34 0 8.03 288.552 22:42 17.09.2019
1774 Clouds 13 1008 34 0 8.03 288.552 22:24 17.09.2019
1775 Clouds 13 1008 34 0 8.03 288.552 21:55 17.09.2019
1776 Clouds 13 1008 34 0 8.03 288.552 21:37 17.09.2019
1777 Clouds 15 1010 23 0 8.35 280.43 21:18 17.09.2019
1778 Clouds 15 1010 25 0 8.13 278.754 20:57 17.09.2019
1779 Clouds 15 1010 25 0 8.13 278.754 20:39 17.09.2019
1780 Clouds 15 1010 25 0 8.13 278.754 20:21 17.09.2019
1781 Clouds 15 1010 25 0 8.13 278.754 19:58 17.09.2019
1782 Clouds 15 1010 25 0 8.13 278.754 19:39 17.09.2019
1783 Clouds 15 1010 25 0 8.13 278.754 19:19 17.09.2019
1784 Clouds 15 1010 25 0 8.13 278.754 18:56 17.09.2019
1785 Clouds 15 1010 25 0 8.13 278.754 18:37 17.09.2019
1786 Clouds 11 1015 43 0 3.59 307.444 18:19 17.09.2019
1787 Clouds 11 1015 43 0 3.59 307.444 17:44 17.09.2019
1788 Clouds 11 1015 43 0 3.59 307.444 17:19 17.09.2019
1789 Clouds 11 1015 43 0 3.59 307.444 16:56 17.09.2019
1790 Clouds 11 1015 43 0 3.59 307.444 16:37 17.09.2019
1791 Clouds 11 1015 43 0 3.59 307.444 16:19 17.09.2019
1792 Clouds 11 1015 43 0 3.59 307.444 15:39 17.09.2019
1793 Clouds 6 1019 76 0 2.19 329.081 15:20 17.09.2019
1794 Clouds 6 1019 76 0 2.19 329.081 14:56 17.09.2019
1795 Clouds 6 1019 76 0 2.19 329.081 14:38 17.09.2019
1796 Clouds 6 1019 76 0 2.19 329.081 14:19 17.09.2019
1797 Clouds 6 1019 76 0 2.19 329.081 13:56 17.09.2019
1798 Clouds 6 1019 76 0 2.19 329.081 13:56 17.09.2019
1799 Clouds 6 1019 76 0 2.19 329.081 13:38 17.09.2019
1800 Clouds 6 1019 74 0 1.97 321.941 13:20 17.09.2019
1801 Clouds 6 1019 74 0 1.97 321.941 12:42 17.09.2019
1802 Clouds 5 1017 89 0 1.9 310.483 12:19 17.09.2019
1803 Clouds 5 1017 89 0 1.9 310.483 11:45 17.09.2019
1804 Clouds 5 1017 89 0 1.9 310.483 11:26 17.09.2019
1805 Clouds 5 1017 89 0 1.9 310.483 10:59 17.09.2019
1806 Clouds 5 1017 89 0 1.9 310.483 10:40 17.09.2019
1807 Clouds 5 1017 89 0 1.9 310.483 10:20 17.09.2019
1808 Clouds 5 1017 89 0 1.9 310.483 09:54 17.09.2019
1809 Clouds 5 1017 89 0 1.9 310.483 09:36 17.09.2019
1810 Clouds 6 1018 87 0 2.08 355.003 09:18 17.09.2019
1811 Clouds 6 1018 87 0 2.08 355.003 08:43 17.09.2019
1812 Clouds 6 1018 87 0 2.08 355.003 08:43 17.09.2019
1813 Clouds 6 1018 85 0 2.3 354.517 08:24 17.09.2019
1814 Clouds 6 1018 85 0 2.3 354.517 07:44 17.09.2019
1815 Clouds 6 1018 85 0 2.3 354.517 07:26 17.09.2019
1816 Clouds 6 1018 85 0 2.3 354.517 06:54 17.09.2019
1817 Clouds 6 1018 85 0 2.3 354.517 06:35 17.09.2019
1818 Rain 7 1019 76 0 1.76 10.068 05:53 17.09.2019
1819 Rain 7 1019 76 0 1.76 10.068 04:56 17.09.2019
1820 Rain 7 1019 76 0 1.76 10.068 03:49 17.09.2019
1821 Rain 7 1017 74 0 1.31 343.606 02:40 17.09.2019
1822 Rain 7 1017 74 0 1.31 343.606 01:50 17.09.2019
1823 Rain 6 1017 77 0 3.41 236.991 00:56 17.09.2019
1824 Rain 9 1012 60 0 3.51 232.346 23:42 16.09.2019
1825 Rain 9 1012 60 0 3.51 232.346 23:20 16.09.2019
1826 Rain 9 1012 60 0 3.51 232.346 22:59 16.09.2019
1827 Rain 9 1012 60 0 3.51 232.346 22:41 16.09.2019
1828 Rain 9 1012 60 0 3.51 232.346 22:23 16.09.2019
1829 Rain 9 1012 60 0 3.51 232.346 21:58 16.09.2019
1830 Rain 9 1012 60 0 3.51 232.346 21:38 16.09.2019
1831 Clouds 15 1013 27 0 4.96 44.632 21:20 16.09.2019
1832 Clouds 15 1013 27 0 4.96 44.632 20:55 16.09.2019
1833 Clouds 15 1013 26 0 4.91 43.093 20:37 16.09.2019
1834 Clouds 15 1013 26 0 4.91 43.093 20:18 16.09.2019
1835 Clouds 15 1013 26 0 4.91 43.093 19:42 16.09.2019
1836 Clouds 15 1013 26 0 4.91 43.093 19:21 16.09.2019
1837 Clouds 15 1013 26 0 4.91 43.093 18:59 16.09.2019
1838 Clouds 15 1013 26 0 4.91 43.093 18:41 16.09.2019
1839 Clouds 13 1017 30 0 3.55 41.713 18:21 16.09.2019
1840 Clouds 13 1017 30 0 3.55 41.713 17:43 16.09.2019
1841 Clouds 13 1017 30 0 3.55 41.713 17:24 16.09.2019
1842 Clouds 13 1017 30 0 3.55 41.713 16:58 16.09.2019
1843 Clouds 13 1017 30 0 3.55 41.713 16:39 16.09.2019
1844 Clouds 13 1017 30 0 3.55 41.713 16:21 16.09.2019
1845 Clouds 13 1017 30 0 3.55 41.713 16:21 16.09.2019
1846 Clouds 13 1017 30 0 3.55 41.713 15:56 16.09.2019
1847 Clouds 13 1017 30 0 3.55 41.713 15:38 16.09.2019
1848 Clear 8 1019 36 0 1.61 226.031 15:20 16.09.2019
1849 Clear 8 1019 36 0 1.61 226.031 14:57 16.09.2019
1850 Clear 8 1019 36 0 1.61 226.031 14:38 16.09.2019
1851 Clear 8 1019 36 0 1.61 226.031 14:19 16.09.2019
1852 Clear 8 1019 36 0 1.61 226.031 13:40 16.09.2019
1853 Clear 8 1019 36 0 1.78 224.772 13:22 16.09.2019
1854 Clear 8 1019 36 0 1.78 224.772 12:54 16.09.2019
1855 Clear 8 1019 36 0 1.78 224.772 12:36 16.09.2019
1856 Clear 6 1017 44 0 2.57 220.814 12:18 16.09.2019
1857 Clear 6 1017 44 0 2.57 220.814 11:44 16.09.2019
1858 Clear 6 1017 44 0 2.57 220.814 11:21 16.09.2019
1859 Clear 6 1017 44 0 2.57 220.814 10:40 16.09.2019
1860 Clear 6 1017 44 0 2.57 220.814 10:21 16.09.2019
1861 Clear 6 1017 44 0 2.57 220.814 09:59 16.09.2019
1862 Clear 6 1017 44 0 2.57 220.814 09:41 16.09.2019
1863 Clouds 7 1016 44 0 2.12 244.137 09:20 16.09.2019
1864 Clouds 7 1016 44 0 2.12 244.137 08:52 16.09.2019
1865 Clouds 7 1016 45 0 2.18 239.181 08:31 16.09.2019
1866 Clouds 7 1016 45 0 2.18 239.181 07:58 16.09.2019
1867 Clouds 7 1016 45 0 2.18 239.181 07:40 16.09.2019
1868 Clouds 7 1016 45 0 2.18 239.181 07:20 16.09.2019
1869 Clouds 7 1016 45 0 2.18 239.181 06:49 16.09.2019
1870 Clouds 7 1016 45 0 2.18 239.181 06:31 16.09.2019
1871 Clouds 8 1015 47 0 1.13 287.233 05:57 16.09.2019
1872 Clouds 8 1015 47 0 1.13 287.233 05:39 16.09.2019
1873 Clouds 8 1015 47 0 1.13 287.233 05:18 16.09.2019
1874 Clouds 8 1015 47 0 1.13 287.233 03:35 16.09.2019
1875 Rain 10 1014 43 0 0.54 335.714 00:57 16.09.2019
1876 Rain 10 1014 43 0 0.54 335.714 00:37 16.09.2019
1877 Clouds 12 1009 36 0 4.09 265.725 00:19 16.09.2019
1878 Clouds 12 1009 36 0 4.09 265.725 23:38 15.09.2019
1879 Clouds 12 1009 36 0 4.09 265.725 23:20 15.09.2019
1880 Clouds 12 1009 36 0 4.09 265.725 22:39 15.09.2019
1881 Clouds 12 1009 36 0 4.09 265.725 22:20 15.09.2019
1882 Clouds 12 1009 36 0 4.09 265.725 21:57 15.09.2019
1883 Clouds 12 1009 36 0 4.09 265.725 21:38 15.09.2019
1884 Clear 13 1011 35 0 4.02 273.378 21:20 15.09.2019
1885 Clear 13 1011 34 0 4.36 273.33 20:46 15.09.2019
1886 Clear 13 1011 34 0 4.36 273.33 20:27 15.09.2019
1887 Clear 13 1011 34 0 4.36 273.33 19:59 15.09.2019
1888 Clear 13 1011 34 0 4.36 273.33 19:41 15.09.2019
1889 Clear 13 1011 34 0 4.36 273.33 19:22 15.09.2019
1890 Clear 13 1011 34 0 4.36 273.33 18:42 15.09.2019
1891 Clear 11 1016 36 0 2.14 311.244 18:23 15.09.2019
1892 Clear 11 1016 36 0 2.14 311.244 17:56 15.09.2019
1893 Clear 11 1016 36 0 2.14 311.244 17:36 15.09.2019
1894 Clear 11 1016 36 0 2.14 311.244 17:18 15.09.2019
1895 Clear 11 1016 36 0 2.14 311.244 16:42 15.09.2019
1896 Clear 11 1016 36 0 2.14 311.244 16:23 15.09.2019
1897 Clear 11 1016 36 0 2.14 311.244 15:58 15.09.2019
1898 Clear 11 1016 36 0 2.14 311.244 15:38 15.09.2019
1899 Clear 7 1019 49 0 1.55 247.767 15:19 15.09.2019
1900 Clear 7 1019 49 0 1.55 247.767 14:56 15.09.2019
1901 Clear 7 1019 49 0 1.55 247.767 14:38 15.09.2019
1902 Clear 7 1019 49 0 1.55 247.767 14:19 15.09.2019
1903 Clear 7 1019 49 0 1.55 247.767 13:45 15.09.2019
1904 Clear 7 1018 51 0 1.76 247.835 13:23 15.09.2019
1905 Clear 7 1018 51 0 1.76 247.835 12:43 15.09.2019
1906 Clear 7 1018 51 0 1.76 247.835 12:25 15.09.2019
1907 Clear 5 1017 58 0 2.79 236.846 11:59 15.09.2019
1908 Clear 5 1017 58 0 2.79 236.846 11:41 15.09.2019
1909 Clear 5 1017 58 0 2.79 236.846 11:22 15.09.2019
1910 Clear 5 1017 58 0 2.79 236.846 10:56 15.09.2019
1911 Clear 5 1017 58 0 2.79 236.846 10:38 15.09.2019
1912 Clear 5 1017 58 0 2.79 236.846 10:19 15.09.2019
1913 Clear 5 1017 58 0 2.79 236.846 09:40 15.09.2019
1914 Clouds 6 1016 53 0 2.33 238.796 09:20 15.09.2019
1915 Clouds 6 1016 53 0 2.33 238.796 08:47 15.09.2019
1916 Clouds 6 1016 53 0 2.33 238.796 08:47 15.09.2019
1917 Clear 6 1016 53 0 2.47 236.149 08:28 15.09.2019
1918 Clear 6 1016 53 0 2.47 236.149 08:28 15.09.2019
1919 Clear 6 1016 53 0 2.47 236.149 07:51 15.09.2019
1920 Clear 6 1016 53 0 2.47 236.149 07:32 15.09.2019
1921 Clear 6 1016 53 0 2.47 236.149 06:43 15.09.2019
1922 Clear 7 1017 57 0 2.03 256.196 03:54 15.09.2019
1923 Clouds 9 1015 52 0 2.36 263.832 02:46 15.09.2019
1924 Clouds 9 1015 52 0 2.36 263.832 01:49 15.09.2019
1925 Rain 9 1015 53 0 2.75 275.646 01:28 15.09.2019
1926 Rain 9 1015 53 0 2.75 275.646 00:50 15.09.2019
1927 Rain 11 1011 45 0 2.65 287.997 00:24 15.09.2019
1928 Rain 11 1011 45 0 2.65 287.997 23:59 14.09.2019
1929 Rain 11 1011 45 0 2.65 287.997 23:41 14.09.2019
1930 Rain 11 1011 45 0 2.65 287.997 23:22 14.09.2019
1931 Rain 11 1011 45 0 2.65 287.997 22:59 14.09.2019
1932 Rain 11 1011 45 0 2.65 287.997 22:59 14.09.2019
1933 Rain 11 1011 45 0 2.65 287.997 22:59 14.09.2019
1934 Rain 11 1011 45 0 2.65 287.997 22:41 14.09.2019
1935 Rain 11 1011 45 0 2.65 287.997 22:41 14.09.2019
1936 Rain 11 1011 45 0 2.65 287.997 22:21 14.09.2019
1937 Rain 11 1011 45 0 2.65 287.997 21:59 14.09.2019
1938 Rain 11 1011 45 0 2.65 287.997 21:39 14.09.2019
1939 Clouds 12 1013 36 0 3.16 299.116 21:20 14.09.2019
1940 Clouds 12 1013 36 0 3.16 299.116 20:55 14.09.2019
1941 Clouds 12 1013 35 0 3.34 297.756 20:37 14.09.2019
1942 Clouds 12 1013 35 0 3.34 297.756 20:19 14.09.2019
1943 Clouds 12 1013 35 0 3.34 297.756 19:44 14.09.2019
1944 Clouds 12 1013 35 0 3.34 297.756 19:21 14.09.2019
1945 Clouds 12 1013 35 0 3.34 297.756 18:57 14.09.2019
1946 Clouds 12 1013 35 0 3.34 297.756 18:37 14.09.2019
1947 Clouds 10 1018 37 0 1.87 4.45 18:19 14.09.2019
1948 Clouds 10 1018 37 0 1.87 4.45 17:43 14.09.2019
1949 Clouds 10 1018 37 0 1.87 4.45 17:22 14.09.2019
1950 Clouds 10 1018 37 0 1.87 4.45 16:48 14.09.2019
1951 Clouds 10 1018 37 0 1.87 4.45 16:28 14.09.2019
1952 Clouds 10 1018 37 0 1.87 4.45 15:59 14.09.2019
1953 Clouds 10 1018 37 0 1.87 4.45 15:40 14.09.2019
1954 Clear 6 1021 48 0 1.47 247.446 15:21 14.09.2019
1955 Clear 6 1021 48 0 1.47 247.446 14:44 14.09.2019
1956 Clear 6 1021 48 0 1.47 247.446 14:19 14.09.2019
1957 Clear 6 1021 48 0 1.47 247.446 13:56 14.09.2019
1958 Clear 6 1021 48 0 1.47 247.446 13:37 14.09.2019
1959 Clouds 5 1021 50 0 1.55 266.755 13:19 14.09.2019
1960 Clouds 5 1021 50 0 1.55 266.755 12:43 14.09.2019
1961 Clouds 3 1020 73 0 2.26 250.22 12:20 14.09.2019
1962 Clouds 3 1020 73 0 2.26 250.22 11:41 14.09.2019
1963 Clouds 3 1020 73 0 2.26 250.22 11:20 14.09.2019
1964 Clouds 3 1020 73 0 2.26 250.22 10:40 14.09.2019
1965 Clouds 3 1020 73 0 2.26 250.22 10:21 14.09.2019
1966 Clouds 3 1020 73 0 2.26 250.22 09:58 14.09.2019
1967 Clouds 3 1020 73 0 2.26 250.22 09:39 14.09.2019
1968 Rain 3 1019 85 0 3.68 230.176 09:20 14.09.2019
1969 Rain 4 1020 79 0 1.8 254.876 08:48 14.09.2019
1970 Rain 4 1020 79 0 1.8 254.876 08:26 14.09.2019
1971 Rain 4 1020 79 0 1.8 254.876 07:49 14.09.2019
1972 Rain 4 1020 79 0 1.8 254.876 07:29 14.09.2019
1973 Rain 4 1020 79 0 1.8 254.876 06:53 14.09.2019
1974 Rain 4 1020 79 0 1.8 254.876 06:31 14.09.2019
1975 Rain 5 1020 78 0 1.42 313.2 05:27 14.09.2019
1976 Rain 5 1020 78 0 1.42 313.2 03:53 14.09.2019
1977 Rain 7 1018 66 0 2.74 339.074 02:55 14.09.2019
1978 Rain 7 1018 66 0 2.74 339.074 02:23 14.09.2019
1979 Rain 7 1018 66 0 2.74 339.074 01:42 14.09.2019
1980 Rain 7 1018 67 0 2.41 324.015 01:18 14.09.2019
1981 Rain 7 1018 67 0 2.41 324.015 00:39 14.09.2019
1982 Rain 9 1015 50 0 3.54 322.855 00:21 14.09.2019
1983 Rain 9 1015 50 0 3.54 322.855 23:54 13.09.2019
1984 Rain 9 1015 50 0 3.54 322.855 23:36 13.09.2019
1985 Rain 9 1015 50 0 3.54 322.855 23:36 13.09.2019
1986 Rain 9 1015 50 0 3.54 322.855 23:18 13.09.2019
1987 Rain 9 1015 50 0 3.54 322.855 22:39 13.09.2019
1988 Rain 9 1015 50 0 3.54 322.855 22:21 13.09.2019
1989 Rain 9 1015 50 0 3.54 322.855 21:56 13.09.2019
1990 Rain 9 1015 50 0 3.54 322.855 21:38 13.09.2019
1991 Rain 9 1016 55 0 3.51 327.034 21:19 13.09.2019
1992 Rain 9 1016 55 0 3.51 327.034 20:57 13.09.2019
1993 Rain 9 1016 55 0 3.51 327.034 20:57 13.09.2019
1994 Rain 9 1015 53 0 3.38 320.844 20:37 13.09.2019
1995 Rain 9 1015 53 0 3.38 320.844 20:18 13.09.2019
1996 Rain 9 1015 53 0 3.38 320.844 19:44 13.09.2019
1997 Rain 9 1015 53 0 3.38 320.844 19:22 13.09.2019
1998 Rain 9 1015 53 0 3.38 320.844 18:59 13.09.2019
1999 Rain 9 1015 53 0 3.38 320.844 18:38 13.09.2019
2000 Clouds 7 1020 54 0 2.22 338.491 18:19 13.09.2019
2001 Clouds 7 1020 54 0 2.22 338.491 17:44 13.09.2019
2002 Clouds 7 1020 54 0 2.22 338.491 17:21 13.09.2019
2003 Clouds 7 1020 54 0 2.22 338.491 16:59 13.09.2019
2004 Clouds 7 1020 54 0 2.22 338.491 16:39 13.09.2019
2005 Clouds 7 1020 54 0 2.22 338.491 16:19 13.09.2019
2006 Clouds 7 1020 54 0 2.22 338.491 15:42 13.09.2019
2007 Clouds 3 1023 78 0 1.63 305.125 15:23 13.09.2019
2008 Clouds 3 1023 78 0 1.63 305.125 14:55 13.09.2019
2009 Clouds 3 1023 78 0 1.63 305.125 14:37 13.09.2019
2010 Clouds 3 1023 78 0 1.63 305.125 14:18 13.09.2019
2011 Clouds 3 1023 78 0 1.63 305.125 13:41 13.09.2019
2012 Clouds 2 1023 80 0 1.98 314.959 13:22 13.09.2019
2013 Clouds 2 1023 80 0 1.98 314.959 12:45 13.09.2019
2014 Clouds 2 1023 80 0 1.98 314.959 12:25 13.09.2019
2015 Clouds 1 1021 85 0 0.74 13.418 11:57 13.09.2019
2016 Clouds 1 1021 85 0 0.74 13.418 11:20 13.09.2019
2017 Clouds 1 1021 85 0 0.74 13.418 10:59 13.09.2019
2018 Clouds 1 1021 85 0 0.74 13.418 10:37 13.09.2019
2019 Clouds 1 1021 85 0 0.74 13.418 10:18 13.09.2019
2020 Clouds 1 1021 85 0 0.74 13.418 09:43 13.09.2019
2021 Clouds 1 1020 93 0 1.83 230.861 09:21 13.09.2019
2022 Clouds 1 1020 93 0 1.83 230.861 08:57 13.09.2019
2023 Clouds 1 1020 89 0 1.97 202.233 08:39 13.09.2019
2024 Clouds 1 1020 89 0 1.97 202.233 08:20 13.09.2019
2025 Clouds 1 1020 89 0 1.97 202.233 07:41 13.09.2019
2026 Clouds 1 1020 89 0 1.97 202.233 07:22 13.09.2019
2027 Clouds 1 1020 89 0 1.97 202.233 06:38 13.09.2019
2028 Rain 3 1020 91 0 1.61 127.347 05:36 13.09.2019
2029 Rain 3 1020 91 0 1.61 127.347 03:53 13.09.2019
2030 Rain 3 1020 91 0 1.61 127.347 03:33 13.09.2019
2031 Rain 5 1017 75 0 3.27 36.968 02:20 13.09.2019
2032 Rain 5 1017 75 0 3.27 36.968 01:38 13.09.2019
2033 Rain 5 1017 75 0 3.05 27.959 00:59 13.09.2019
2034 Rain 5 1017 75 0 3.05 27.959 00:36 13.09.2019
2035 Rain 7 1013 65 0 3.24 39.758 23:53 12.09.2019
2036 Rain 7 1013 65 0 3.24 39.758 23:30 12.09.2019
2037 Rain 7 1013 65 0 3.24 39.758 22:58 12.09.2019
2038 Rain 7 1013 65 0 3.24 39.758 22:40 12.09.2019
2039 Rain 7 1013 65 0 3.24 39.758 22:22 12.09.2019
2040 Rain 7 1013 65 0 3.24 39.758 21:56 12.09.2019
2041 Rain 7 1013 65 0 3.24 39.758 21:37 12.09.2019
2042 Rain 10 1015 41 0 4.28 314.45 21:19 12.09.2019
2043 Rain 8 1015 48 0 4.01 345.766 20:54 12.09.2019
2044 Rain 8 1015 48 0 4.01 345.766 20:36 12.09.2019
2045 Rain 8 1015 48 0 4.01 345.766 20:18 12.09.2019
2046 Rain 8 1015 48 0 4.01 345.766 19:41 12.09.2019
2047 Rain 8 1015 48 0 4.01 345.766 19:20 12.09.2019
2048 Rain 8 1015 48 0 4.01 345.766 18:57 12.09.2019
2049 Rain 8 1015 48 0 4.01 345.766 18:36 12.09.2019
2050 Clouds 7 1019 48 0 2.95 358.737 18:18 12.09.2019
2051 Clouds 7 1019 48 0 2.95 358.737 17:41 12.09.2019
2052 Clouds 7 1019 48 0 2.95 358.737 17:21 12.09.2019
2053 Clouds 7 1019 48 0 2.95 358.737 16:58 12.09.2019
2054 Clouds 7 1019 48 0 2.95 358.737 16:40 12.09.2019
2055 Clouds 7 1019 48 0 2.95 358.737 16:19 12.09.2019
2056 Clouds 7 1019 48 0 2.95 358.737 15:41 12.09.2019
2057 Clouds 4 1021 36 0 1.96 333.239 15:23 12.09.2019
2058 Clouds 4 1021 36 0 1.96 333.239 14:47 12.09.2019
2059 Clouds 4 1021 36 0 1.96 333.239 14:23 12.09.2019
2060 Clouds 4 1021 36 0 1.96 333.239 13:59 12.09.2019
2061 Clouds 4 1021 36 0 1.96 333.239 13:38 12.09.2019
2062 Clouds 4 1021 38 0 2.5 348.151 13:20 12.09.2019
2063 Clouds 4 1021 38 0 2.5 348.151 12:47 12.09.2019
2064 Clouds 3 1019 39 0 1.57 293.573 12:19 12.09.2019
2065 Clouds 3 1019 39 0 1.57 293.573 11:57 12.09.2019
2066 Clouds 3 1019 39 0 1.57 293.573 11:39 12.09.2019
2067 Clouds 3 1019 39 0 1.57 293.573 11:21 12.09.2019
2068 Clouds 3 1019 39 0 1.57 293.573 10:48 12.09.2019
2069 Clouds 3 1019 39 0 1.57 293.573 10:26 12.09.2019
2070 Clouds 3 1019 39 0 1.57 293.573 09:56 12.09.2019
2071 Clouds 3 1019 39 0 1.57 293.573 09:38 12.09.2019
2072 Clouds 4 1018 33 0 2.15 270.905 09:18 12.09.2019
2073 Clouds 4 1018 36 0 1.5 293.158 08:43 12.09.2019
2074 Clouds 4 1018 36 0 1.5 293.158 08:23 12.09.2019
2075 Clouds 4 1018 36 0 1.5 293.158 07:46 12.09.2019
2076 Clouds 4 1018 36 0 1.5 293.158 07:20 12.09.2019
2077 Clouds 4 1018 36 0 1.5 293.158 06:52 12.09.2019
2078 Clouds 4 1018 36 0 1.5 293.158 06:32 12.09.2019
2079 Clouds 4 1018 36 0 1.5 293.158 06:32 12.09.2019
2080 Clouds 4 1019 30 0 2.82 265.959 05:53 12.09.2019
2081 Clouds 4 1019 30 0 2.82 265.959 05:35 12.09.2019
2082 Clouds 4 1019 30 0 2.82 265.959 04:44 12.09.2019
2083 Clear 6 1015 28 0 5.59 247.711 03:23 12.09.2019
2084 Clouds 6 1015 34 0 4.62 247.211 01:43 12.09.2019
2085 Clouds 6 1015 34 0 4.62 247.211 01:23 12.09.2019
2086 Clouds 6 1015 34 0 4.62 247.211 00:47 12.09.2019
2087 Clouds 6 1015 34 0 4.62 247.211 00:28 12.09.2019
2088 Clouds 10 1009 35 0 7.19 273.71 23:43 11.09.2019
2089 Clouds 10 1009 35 0 7.19 273.71 23:25 11.09.2019
2090 Clouds 10 1009 35 0 7.19 273.71 22:58 11.09.2019
2091 Clouds 10 1009 35 0 7.19 273.71 22:38 11.09.2019
2092 Clouds 10 1009 35 0 7.19 273.71 22:19 11.09.2019
2093 Clouds 10 1009 35 0 7.19 273.71 21:57 11.09.2019
2094 Clouds 10 1009 35 0 7.19 273.71 21:39 11.09.2019
2095 -273 0 0 0 0 0 21:20 11.09.2019
2096 Clouds 10 1010 41 0 10.97 288.589 20:55 11.09.2019
2097 Clouds 11 1009 38 0 10.94 291.932 20:37 11.09.2019
2098 Clouds 11 1009 38 0 10.94 291.932 20:18 11.09.2019
2099 Clouds 11 1009 38 0 10.94 291.932 19:55 11.09.2019
2100 Clouds 11 1009 38 0 10.94 291.932 19:37 11.09.2019
2101 Clouds 11 1009 38 0 10.94 291.932 19:18 11.09.2019
2102 Clouds 11 1009 38 0 10.94 291.932 18:42 11.09.2019
2103 Clouds 9 1014 38 0 9.17 301.099 18:23 11.09.2019
2104 Clouds 9 1014 38 0 9.17 301.099 17:58 11.09.2019
2105 Clouds 9 1014 38 0 9.17 301.099 17:40 11.09.2019
2106 Clouds 9 1014 38 0 9.17 301.099 17:21 11.09.2019
2107 Clouds 9 1014 38 0 9.17 301.099 16:56 11.09.2019
2108 Clouds 9 1014 38 0 9.17 301.099 16:36 11.09.2019
2109 Clouds 9 1014 38 0 9.17 301.099 16:18 11.09.2019
2110 Clouds 9 1014 38 0 9.17 301.099 15:46 11.09.2019
2111 Clouds 3 1018 45 0 2.41 307.781 15:23 11.09.2019
2112 Clouds 3 1018 45 0 2.41 307.781 14:57 11.09.2019
2113 Clouds 3 1018 45 0 2.41 307.781 14:38 11.09.2019
2114 Clouds 3 1018 45 0 2.41 307.781 14:20 11.09.2019
2115 Clouds 3 1018 45 0 2.41 307.781 13:57 11.09.2019
2116 Clouds 3 1018 45 0 2.41 307.781 13:36 11.09.2019
2117 Clouds 4 1018 50 0 2.55 316.73 13:18 11.09.2019
2118 Clouds 4 1018 50 0 2.55 316.73 12:41 11.09.2019
2119 Clouds 2 1017 49 0 3.22 312.522 12:21 11.09.2019
2120 Clouds 2 1017 49 0 3.22 312.522 11:56 11.09.2019
2121 Clouds 2 1017 49 0 3.22 312.522 11:37 11.09.2019
2122 Clouds 2 1017 49 0 3.22 312.522 11:18 11.09.2019
2123 Clouds 2 1017 49 0 3.22 312.522 11:18 11.09.2019
2124 Clouds 2 1017 49 0 3.22 312.522 10:41 11.09.2019
2125 Clouds 2 1017 49 0 3.22 312.522 10:22 11.09.2019
2126 Clouds 2 1017 49 0 3.22 312.522 09:57 11.09.2019
2127 Clouds 2 1017 49 0 3.22 312.522 09:37 11.09.2019
2128 Clouds 2 1017 38 0 5.67 268.888 09:18 11.09.2019
2129 Clouds 2 1017 38 0 5.67 268.888 09:18 11.09.2019
2130 Clouds 3 1017 37 0 6.62 276.466 08:40 11.09.2019
2131 Clouds 3 1017 37 0 6.62 276.466 08:40 11.09.2019
2132 Clouds 3 1017 37 0 6.62 276.466 08:21 11.09.2019
2133 Clouds 3 1017 37 0 6.62 276.466 07:49 11.09.2019
2134 Clouds 3 1017 37 0 6.62 276.466 07:24 11.09.2019
2135 Clouds 3 1017 37 0 6.62 276.466 06:59 11.09.2019
2136 Clouds 3 1017 37 0 6.62 276.466 06:36 11.09.2019
2137 Clouds 4 1017 27 0 3.77 258.627 05:53 11.09.2019
2138 Clouds 4 1017 27 0 3.77 258.627 05:33 11.09.2019
2139 Clouds 4 1017 27 0 3.77 258.627 04:52 11.09.2019
2140 Clouds 4 1017 27 0 3.77 258.627 03:58 11.09.2019
2141 Clouds 4 1017 27 0 3.77 258.627 03:25 11.09.2019
2142 Clouds 6 1014 29 0 4.12 277.979 02:28 11.09.2019
2143 Clouds 6 1014 31 0 3.75 277.89 01:31 11.09.2019
2144 Clouds 6 1014 31 0 3.75 277.89 00:37 11.09.2019
2145 Clouds 10 1009 29 0 8.92 289.615 00:18 11.09.2019
2146 Clouds 10 1009 29 0 8.92 289.615 23:40 10.09.2019
2147 Clouds 10 1009 29 0 8.92 289.615 23:21 10.09.2019
2148 Clouds 10 1009 29 0 8.92 289.615 22:55 10.09.2019
2149 Clouds 10 1009 29 0 8.92 289.615 22:37 10.09.2019
2150 Clouds 10 1009 29 0 8.92 289.615 22:18 10.09.2019
2151 Clouds 10 1009 29 0 8.92 289.615 22:18 10.09.2019
2152 Clouds 10 1009 29 0 8.92 289.615 21:54 10.09.2019
2153 Clouds 10 1009 29 0 8.92 289.615 21:36 10.09.2019
2154 Clouds 11 1011 24 0 10.46 294.193 21:18 10.09.2019
2155 Clouds 11 1011 24 0 10.46 294.193 20:54 10.09.2019
2156 Clouds 11 1011 25 0 10.57 290.564 20:36 10.09.2019
2157 Clouds 11 1011 25 0 10.57 290.564 20:18 10.09.2019
2158 Clouds 11 1011 25 0 10.57 290.564 19:55 10.09.2019
2159 Clouds 11 1011 25 0 10.57 290.564 19:55 10.09.2019
2160 Clouds 11 1011 25 0 10.57 290.564 19:36 10.09.2019
2161 Clouds 11 1011 25 0 10.57 290.564 19:18 10.09.2019
2162 Clouds 11 1011 25 0 10.57 290.564 18:42 10.09.2019
2163 Clouds 9 1015 20 0 5.81 320.962 18:22 10.09.2019
2164 Clouds 9 1015 20 0 5.81 320.962 17:56 10.09.2019
2165 Clouds 9 1015 20 0 5.81 320.962 17:38 10.09.2019
2166 -273 0 0 0 0 0 17:19 10.09.2019
2167 Clouds 9 1015 20 0 5.81 320.962 16:56 10.09.2019
2168 Clouds 9 1015 20 0 5.81 320.962 16:37 10.09.2019
2169 Clouds 9 1015 20 0 5.81 320.962 16:19 10.09.2019
2170 Clouds 9 1015 20 0 5.81 320.962 15:43 10.09.2019
2171 Clouds 4 1019 16 0 2.68 296.097 15:23 10.09.2019
2172 Clouds 4 1019 16 0 2.68 296.097 14:57 10.09.2019
2173 Clouds 4 1019 16 0 2.68 296.097 14:39 10.09.2019
2174 Clouds 4 1019 16 0 2.68 296.097 14:20 10.09.2019
2175 Clouds 4 1019 16 0 2.68 296.097 13:47 10.09.2019
2176 Clouds 4 1019 16 0 2.57 297.909 13:23 10.09.2019
2177 Clouds 4 1019 16 0 2.57 297.909 12:53 10.09.2019
2178 Clouds 4 1019 16 0 2.57 297.909 12:53 10.09.2019
2179 Clouds 4 1019 16 0 2.57 297.909 12:28 10.09.2019
2180 Clear 0 1018 22 0 2.15 267.488 11:59 10.09.2019
2181 Clear 0 1018 22 0 2.15 267.488 11:40 10.09.2019
2182 Clear 0 1018 22 0 2.15 267.488 11:22 10.09.2019
2183 Clear 0 1018 22 0 2.15 267.488 10:54 10.09.2019
2184 Clear 0 1018 22 0 2.15 267.488 10:36 10.09.2019
2185 Clear 0 1018 22 0 2.15 267.488 10:18 10.09.2019
2186 Clear 0 1018 22 0 2.15 267.488 09:43 10.09.2019
2187 Clouds 1 1018 21 0 3.47 249.044 09:20 10.09.2019
2188 Clouds 1 1018 21 0 3.47 249.044 09:20 10.09.2019
2189 Clouds 2 1018 19 0 3.54 246.434 08:48 10.09.2019
2190 Clouds 2 1018 19 0 3.54 246.434 08:29 10.09.2019
2191 Clouds 2 1018 19 0 3.54 246.434 08:29 10.09.2019
2192 Clouds 2 1018 19 0 3.54 246.434 07:59 10.09.2019
2193 Clouds 2 1018 19 0 3.54 246.434 07:41 10.09.2019
2194 Clouds 2 1018 19 0 3.54 246.434 07:41 10.09.2019
2195 Clouds 2 1018 19 0 3.54 246.434 07:23 10.09.2019
2196 -273 0 0 0 0 0 06:40 10.09.2019
2197 Clouds 3 1018 24 0 4.36 257.322 06:20 10.09.2019
2198 Clouds 3 1018 24 0 4.36 257.322 04:19 10.09.2019
2199 Clouds 4 1015 31 0 4.52 253.546 02:39 10.09.2019
2200 Clouds 4 1015 31 0 4.52 253.546 02:39 10.09.2019
2201 Clouds 4 1015 31 0 4.52 253.546 02:39 10.09.2019
2202 Clouds 4 1015 31 0 4.52 253.546 02:20 10.09.2019
2203 Clouds 4 1015 31 0 4.52 253.546 01:50 10.09.2019
2204 Clouds 4 1015 31 0 4.52 253.546 01:50 10.09.2019
2205 Clouds 5 1015 29 0 4.93 245.083 01:23 10.09.2019
2206 Clouds 5 1015 29 0 4.93 245.083 00:36 10.09.2019
2207 Clear 9 1010 20 0 9.49 293.812 00:00 10.09.2019
2208 Clear 9 1010 20 0 9.49 293.812 23:40 09.09.2019
2209 Clear 9 1010 20 0 9.49 293.812 23:18 09.09.2019
2210 Clear 9 1010 20 0 9.49 293.812 22:55 09.09.2019
2211 -273 0 0 0 0 0 22:55 09.09.2019
2212 Clear 9 1010 20 0 9.49 293.812 22:55 09.09.2019
2213 Clear 9 1010 20 0 9.49 293.812 22:36 09.09.2019
2214 Clear 9 1010 20 0 9.49 293.812 22:18 09.09.2019
2215 Clear 9 1010 20 0 9.49 293.812 21:55 09.09.2019
2216 Clear 9 1010 20 0 9.49 293.812 21:55 09.09.2019
2217 Clear 9 1010 20 0 9.49 293.812 21:37 09.09.2019
2218 Clear 10 1012 20 0 10.87 302.591 21:18 09.09.2019
2219 Clear 10 1012 21 0 11.15 299.413 20:55 09.09.2019
2220 Clear 10 1012 21 0 11.15 299.413 20:36 09.09.2019
2221 Clear 10 1012 21 0 11.15 299.413 20:18 09.09.2019
2222 Clear 10 1012 21 0 11.15 299.413 19:55 09.09.2019
2223 Clear 10 1012 21 0 11.15 299.413 19:37 09.09.2019
2224 Clear 10 1012 21 0 11.15 299.413 19:18 09.09.2019
2225 Clear 10 1012 21 0 11.15 299.413 18:54 09.09.2019
2226 Clear 10 1012 21 0 11.15 299.413 18:36 09.09.2019
2227 Clear 8 1018 21 0 7.39 301.162 18:18 09.09.2019
2228 Clear 8 1018 21 0 7.39 301.162 17:55 09.09.2019
2229 Clear 8 1018 21 0 7.39 301.162 17:37 09.09.2019
2230 Clear 8 1018 21 0 7.39 301.162 17:19 09.09.2019
2231 Clear 8 1018 21 0 7.39 301.162 16:40 09.09.2019
2232 Clear 8 1018 21 0 7.39 301.162 16:21 09.09.2019
2233 Clear 8 1018 21 0 7.39 301.162 15:56 09.09.2019
2234 Clear 8 1018 21 0 7.39 301.162 15:38 09.09.2019
2235 Clear 3 1020 28 0 8.5 290.989 15:19 09.09.2019
2236 Clear 3 1020 28 0 8.5 290.989 14:57 09.09.2019
2237 Clear 3 1020 28 0 8.5 290.989 14:39 09.09.2019
2238 Clear 3 1020 28 0 8.5 290.989 14:20 09.09.2019
2239 Clear 3 1020 28 0 8.5 290.989 13:45 09.09.2019
2240 Clear 3 1020 22 0 9.07 288.743 13:22 09.09.2019
2241 Clear 3 1020 22 0 9.07 288.743 13:22 09.09.2019
2242 Clear 3 1020 22 0 9.07 288.743 12:59 09.09.2019
2243 Clear 3 1020 22 0 9.07 288.743 12:59 09.09.2019
2244 Clear 3 1020 22 0 9.07 288.743 12:41 09.09.2019
2245 Clear 0 1018 42 0 8.63 281.616 12:21 09.09.2019
2246 Clear 0 1018 42 0 8.63 281.616 11:57 09.09.2019
2247 Clear 0 1018 42 0 8.63 281.616 11:39 09.09.2019
2248 Clear 0 1018 42 0 8.63 281.616 11:18 09.09.2019
2249 Clear 0 1018 42 0 8.63 281.616 10:42 09.09.2019
2250 Clear 0 1018 42 0 8.63 281.616 10:23 09.09.2019
2251 Clear 0 1018 42 0 8.63 281.616 09:58 09.09.2019
2252 Clear 0 1018 42 0 8.63 281.616 09:39 09.09.2019
2253 Clouds 2 1018 52 0 15.33 290.246 09:21 09.09.2019
2254 Clouds 2 1018 55 0 17.19 289.887 08:39 09.09.2019
2255 Clouds 2 1018 55 0 17.19 289.887 08:21 09.09.2019
2256 Clouds 2 1018 55 0 17.19 289.887 07:57 09.09.2019
2257 Clouds 2 1018 55 0 17.19 289.887 07:38 09.09.2019
2258 Clouds 2 1018 55 0 17.19 289.887 07:20 09.09.2019
2259 Clouds 2 1018 55 0 17.19 289.887 06:46 09.09.2019
2260 Clouds 3 1019 75 0 10.92 306.745 05:37 09.09.2019
2261 Rain 6 1016 68 0 4.07 314.254 02:59 09.09.2019
2262 Rain 6 1016 68 0 4.07 314.254 02:41 09.09.2019
2263 Rain 6 1017 66 0 6.48 335.591 01:20 09.09.2019
2264 Rain 5 1013 76 0 4.01 314.636 00:23 09.09.2019
2265 Rain 5 1013 76 0 4.01 314.636 23:47 08.09.2019
2266 Rain 5 1013 76 0 4.01 314.636 23:29 08.09.2019
2267 Rain 5 1013 76 0 4.01 314.636 22:59 08.09.2019
2268 Rain 5 1013 76 0 4.01 314.636 22:39 08.09.2019
2269 Rain 5 1013 76 0 4.01 314.636 22:21 08.09.2019
2270 Rain 5 1013 76 0 4.01 314.636 21:57 08.09.2019
2271 Rain 5 1013 76 0 4.01 314.636 21:39 08.09.2019
2272 Rain 10 1015 47 0 8.99 335.191 21:21 08.09.2019
2273 Rain 10 1015 47 0 8.99 335.191 20:41 08.09.2019
2274 Rain 9 1015 50 0 8.14 335.689 20:22 08.09.2019
2275 Rain 9 1015 50 0 8.14 335.689 19:59 08.09.2019
2276 Rain 9 1015 50 0 8.14 335.689 19:39 08.09.2019
2277 Rain 9 1015 50 0 8.14 335.689 19:21 08.09.2019
2278 Rain 9 1015 50 0 8.14 335.689 18:58 08.09.2019
2279 Rain 9 1015 50 0 8.14 335.689 18:39 08.09.2019
2280 Clouds 8 1020 52 0 6.42 335.966 18:19 08.09.2019
2281 Clouds 8 1020 52 0 6.42 335.966 17:58 08.09.2019
2282 Clouds 8 1020 52 0 6.42 335.966 17:58 08.09.2019
2283 Clouds 8 1020 52 0 6.42 335.966 17:37 08.09.2019
2284 Clouds 9 1040 66 10000 6.42 335.966 17:18 08.09.2019
2285 Clouds 9 1040 66 10000 6.42 335.966 16:55 08.09.2019
2286 Clouds 9 1040 66 10000 6.42 335.966 16:37 08.09.2019
2287 Clouds 7 1040 75 10000 1.5 210 16:18 08.09.2019
2288 Clouds 7 1040 75 10000 1.5 210 15:42 08.09.2019
2289 Clouds 7 1040 75 10000 1.5 210 15:22 08.09.2019
2290 Clouds 7 1040 75 10000 1.5 210 15:22 08.09.2019
2291 Clouds 4 1040 86 10000 3.37 328.581 14:59 08.09.2019
2292 Clouds 4 1040 86 10000 3.37 328.581 14:39 08.09.2019
2293 Clouds 4 1040 86 10000 3.37 328.581 14:21 08.09.2019
2294 Clouds 3 1039 86 10000 3.37 328.581 13:57 08.09.2019
2295 Clouds 3 1039 86 10000 3.37 328.581 13:39 08.09.2019
2296 Clouds 3 1039 93 10000 3.21 3.802 13:21 08.09.2019
2297 Clouds 3 1039 93 10000 3.21 3.802 12:55 08.09.2019
2298 Clouds 3 1039 93 10000 3.21 3.802 12:37 08.09.2019
2299 Clouds 3 1020 85 0 2.89 356.902 12:18 08.09.2019
2300 Clouds 3 1020 85 0 2.89 356.902 11:54 08.09.2019
2301 Clouds 3 1020 85 0 2.89 356.902 11:36 08.09.2019
2302 Clouds 3 1020 85 0 2.89 356.902 11:18 08.09.2019
2303 Clouds 3 1020 85 0 2.89 356.902 10:41 08.09.2019
2304 Clouds 3 1020 85 0 2.89 356.902 10:22 08.09.2019
2305 Clouds 3 1020 85 0 2.89 356.902 09:55 08.09.2019
2306 Clouds 3 1020 85 0 2.89 356.902 09:55 08.09.2019
2307 Clouds 3 1020 85 0 2.89 356.902 09:37 08.09.2019
2308 Clouds 3 1020 85 0 2.89 356.902 09:37 08.09.2019
2309 Rain 3 1020 78 0 2.31 297.054 09:19 08.09.2019
2310 Rain 3 1020 78 0 2.31 297.054 09:19 08.09.2019
2311 Clouds 2 1020 82 0 1.93 269.375 08:39 08.09.2019
2312 Clouds 2 1020 82 0 1.93 269.375 08:19 08.09.2019
2313 Clouds 2 1020 82 0 1.93 269.375 07:42 08.09.2019
2314 Clouds 2 1020 82 0 1.93 269.375 07:21 08.09.2019
2315 Clouds 2 1020 82 0 1.93 269.375 06:57 08.09.2019
2316 Clouds 2 1020 82 0 1.93 269.375 06:34 08.09.2019
2317 Rain 3 1019 91 0 2.77 307.234 05:40 08.09.2019
2318 Rain 3 1019 91 0 2.77 307.234 04:59 08.09.2019
2319 Rain 3 1017 94 0 1.15 255.891 03:23 08.09.2019
2320 Rain 3 1017 94 0 1.15 255.891 02:48 08.09.2019
2321 Rain 3 1017 94 0 1.15 255.891 01:54 08.09.2019
2322 Rain 3 1017 89 0 1.49 327.214 01:26 08.09.2019
2323 Rain 3 1017 89 0 1.49 327.214 00:49 08.09.2019
2324 Rain 3 1017 89 0 1.49 327.214 00:30 08.09.2019
2325 Rain 8 1012 58 0 6.54 2.777 23:57 07.09.2019
2326 Rain 8 1012 58 0 6.54 2.777 23:37 07.09.2019
2327 Rain 8 1012 58 0 6.54 2.777 23:18 07.09.2019
2328 Rain 8 1012 58 0 6.54 2.777 22:43 07.09.2019
2329 Rain 8 1012 58 0 6.54 2.777 22:23 07.09.2019
2330 Rain 8 1012 58 0 6.54 2.777 21:56 07.09.2019
2331 Rain 8 1012 58 0 6.54 2.777 21:38 07.09.2019
2332 Rain 10 1013 45 0 5.62 322.987 21:20 07.09.2019
2333 Rain 10 1013 45 0 5.62 322.987 21:20 07.09.2019
2334 Rain 4 1013 86 0 1.82 271.674 20:40 07.09.2019
2335 Rain 4 1013 86 0 1.82 271.674 20:21 07.09.2019
2336 Rain 4 1013 86 0 1.82 271.674 19:57 07.09.2019
2337 Rain 4 1013 86 0 1.82 271.674 19:38 07.09.2019
2338 Rain 4 1013 86 0 1.82 271.674 19:20 07.09.2019
2339 Rain 4 1013 86 0 1.82 271.674 18:59 07.09.2019
2340 Rain 4 1013 86 0 1.82 271.674 18:40 07.09.2019
2341 Rain 7 1017 56 0 2.53 348.597 18:20 07.09.2019
2342 Rain 7 1017 56 0 2.53 348.597 17:59 07.09.2019
2343 Rain 7 1017 56 0 2.53 348.597 17:59 07.09.2019
2344 Rain 7 1017 56 0 2.53 348.597 17:39 07.09.2019
2345 Clouds 9 1040 56 10000 1.5 210 17:18 07.09.2019
2346 Clouds 9 1040 56 10000 1.5 210 16:58 07.09.2019
2347 Clouds 9 1040 56 10000 1.5 210 16:58 07.09.2019
2348 Clouds 9 1040 56 10000 1.5 210 16:40 07.09.2019
2349 Clouds 7 1039 65 10000 2.6 200 16:19 07.09.2019
2350 Clouds 7 1039 65 10000 2.6 200 15:46 07.09.2019
2351 Clouds 7 1039 65 10000 2.6 200 15:26 07.09.2019
2352 Clouds 4 1038 64 10000 2.6 210 14:57 07.09.2019
2353 Clouds 4 1038 64 10000 2.6 210 14:37 07.09.2019
2354 Clouds 2 1038 64 10000 1.5 210 14:19 07.09.2019
2355 Clouds 2 1038 64 10000 1.5 210 13:57 07.09.2019
2356 Clouds 2 1038 64 10000 1.5 210 13:39 07.09.2019
2357 Clouds 2 1038 65 10000 2.23 300.352 13:20 07.09.2019
2358 Clouds 2 1038 65 10000 2.23 300.352 12:44 07.09.2019
2359 Clouds 2 1038 72 10000 3.66 257.96 12:25 07.09.2019
2360 -273 0 0 0 0 0 11:55 07.09.2019
2361 Clouds 3 1018 72 0 3.66 257.96 11:36 07.09.2019
2362 Clouds 3 1018 72 0 3.66 257.96 11:18 07.09.2019
2363 Clouds 3 1018 72 0 3.66 257.96 10:38 07.09.2019
2364 Clouds 3 1018 72 0 3.66 257.96 10:20 07.09.2019
2365 Clouds 3 1018 72 0 3.66 257.96 09:43 07.09.2019
2366 Clouds 4 1018 68 0 4.56 264.732 09:25 07.09.2019
2367 Clouds 4 1018 68 0 4.56 264.732 08:59 07.09.2019
2368 Clouds 4 1018 79 0 1.9 279.834 08:40 07.09.2019
2369 Clouds 4 1018 79 0 1.9 279.834 08:22 07.09.2019
2370 Clouds 4 1018 79 0 1.9 279.834 07:45 07.09.2019
2371 Clouds 4 1018 79 0 1.9 279.834 07:25 07.09.2019
2372 Clouds 4 1018 79 0 1.9 279.834 06:47 07.09.2019
2373 Rain 5 1018 72 0 2.81 335.764 06:19 07.09.2019
2374 Rain 5 1018 72 0 2.81 335.764 04:45 07.09.2019
2375 Rain 5 1018 72 0 2.81 335.764 04:20 07.09.2019
2376 Rain 7 1016 56 0 5.05 267.38 02:45 07.09.2019
2377 Rain 7 1016 56 0 5.05 267.38 01:46 07.09.2019
2378 Rain 8 1016 55 0 2.97 282.071 01:18 07.09.2019
2379 Rain 8 1016 55 0 2.97 282.071 00:39 07.09.2019
2380 Rain 10 1011 42 0 4.28 287.63 00:19 07.09.2019
2381 Rain 10 1011 42 0 4.28 287.63 23:40 06.09.2019
2382 Rain 10 1011 42 0 4.28 287.63 23:21 06.09.2019
2383 Rain 10 1011 42 0 4.28 287.63 23:21 06.09.2019
2384 Rain 10 1011 42 0 4.28 287.63 22:57 06.09.2019
2385 Rain 10 1011 42 0 4.28 287.63 22:38 06.09.2019
2386 Rain 10 1011 42 0 4.28 287.63 22:19 06.09.2019
2387 Rain 10 1011 42 0 4.28 287.63 21:57 06.09.2019
2388 Rain 10 1011 42 0 4.28 287.63 21:38 06.09.2019
2389 Rain 10 1013 44 0 4.05 338.004 21:20 06.09.2019
2390 Rain 10 1013 44 0 4.05 338.004 20:57 06.09.2019
2391 Rain 10 1013 45 0 4.43 321.737 20:38 06.09.2019
2392 Rain 10 1013 45 0 4.43 321.737 20:38 06.09.2019
2393 Clouds 12 1040 54 10000 4.43 321.737 20:18 06.09.2019
2394 Clouds 12 1040 54 10000 4.43 321.737 19:54 06.09.2019
2395 Clouds 12 1040 54 10000 4.43 321.737 19:36 06.09.2019
2396 Clouds 12 1040 54 10000 4.43 321.737 19:18 06.09.2019
2397 Clouds 12 1040 54 10000 4.43 321.737 18:41 06.09.2019
2398 Clouds 9 1041 66 10000 1.5 240 18:23 06.09.2019
2399 Clouds 9 1041 66 10000 1.5 240 17:58 06.09.2019
2400 Clouds 9 1041 66 10000 1.5 240 17:37 06.09.2019
2401 Clouds 7 1041 81 10000 2.1 210 17:19 06.09.2019
2402 Clouds 7 1041 81 10000 2.1 210 16:39 06.09.2019
2403 Clouds 3 1041 93 8000 2.6 210 16:19 06.09.2019
2404 Clouds 3 1041 93 8000 2.6 210 15:42 06.09.2019
2405 Clouds 3 1041 93 8000 2.6 210 15:42 06.09.2019
2406 Clouds 3 1041 93 8000 2.6 210 15:23 06.09.2019
2407 Fog 2 1041 93 50 1.5 240 14:55 06.09.2019
2408 Fog 2 1041 93 50 1.5 240 14:55 06.09.2019
2409 Fog 2 1041 93 50 1.5 240 14:37 06.09.2019
2410 Fog 2 1041 93 50 1.5 240 14:37 06.09.2019
2411 Fog 1 1040 100 50 1.97 341.565 14:18 06.09.2019
2412 Fog 1 1040 100 50 1.97 341.565 13:41 06.09.2019
2413 Fog 1 1040 100 50 2.04 3.799 13:41 06.09.2019
2414 Fog 1 1039 100 50 2.04 3.799 13:20 06.09.2019
2415 Fog 1 1039 100 50 2.04 3.799 12:38 06.09.2019
2416 Rain 3 1020 87 0 2.16 10.599 12:20 06.09.2019
2417 Rain 3 1020 87 0 2.16 10.599 11:54 06.09.2019
2418 Rain 3 1020 87 0 2.16 10.599 11:36 06.09.2019
2419 Rain 3 1020 87 0 2.16 10.599 11:18 06.09.2019
2420 Rain 3 1020 87 0 2.16 10.599 10:40 06.09.2019
2421 Rain 3 1019 84 0 1.66 331.877 10:22 06.09.2019
2422 Rain 3 1019 84 0 1.66 331.877 09:57 06.09.2019
2423 Rain 3 1019 84 0 1.66 331.877 09:36 06.09.2019
2424 Clouds 3 1020 82 0 2.46 331.386 09:18 06.09.2019
2425 Clouds 3 1020 82 0 2.46 331.386 08:43 06.09.2019
2426 Clouds 3 1020 82 0 2.46 331.386 08:25 06.09.2019
2427 Clouds 3 1020 82 0 2.46 331.386 07:49 06.09.2019
2428 Clouds 3 1020 82 0 2.46 331.386 07:28 06.09.2019
2429 Clouds 3 1020 82 0 2.46 331.386 06:58 06.09.2019
2430 Clouds 3 1020 82 0 2.46 331.386 06:28 06.09.2019
2431 Clouds 3 1021 86 0 2.12 303.698 05:43 06.09.2019
2432 Clouds 3 1021 86 0 2.12 303.698 04:53 06.09.2019
2433 Clouds 3 1021 86 0 2.12 303.698 04:19 06.09.2019
2434 Rain 6 1020 63 0 1.23 285.631 02:27 06.09.2019
2435 Rain 6 1020 65 0 4.43 321.793 00:51 06.09.2019
2436 Rain 8 1016 51 0 3.95 286.58 23:58 05.09.2019
2437 Rain 8 1016 51 0 3.95 286.58 23:40 05.09.2019
2438 Rain 8 1016 51 0 3.95 286.58 23:21 05.09.2019
2439 Rain 8 1016 51 0 3.95 286.58 22:45 05.09.2019
2440 Rain 8 1016 51 0 3.95 286.58 22:25 05.09.2019
2441 Rain 8 1016 51 0 3.95 286.58 21:57 05.09.2019
2442 Rain 8 1016 51 0 3.95 286.58 21:38 05.09.2019
2443 Rain 8 1017 56 0 2.62 262.615 21:20 05.09.2019
2444 Rain 8 1017 56 0 2.62 262.615 20:58 05.09.2019
2445 Rain 8 1017 55 0 3.47 283.532 20:38 05.09.2019
2446 Rain 8 1017 55 0 3.47 283.532 20:20 05.09.2019
2447 Rain 8 1017 55 0 3.47 283.532 19:57 05.09.2019
2448 Rain 8 1017 55 0 3.47 283.532 19:38 05.09.2019
2449 Rain 8 1017 55 0 3.47 283.532 19:19 05.09.2019
2450 Rain 8 1017 55 0 3.47 283.532 18:41 05.09.2019
2451 Clouds 5 1022 71 0 1.27 312.666 18:23 05.09.2019
2452 Clouds 5 1022 71 0 1.27 312.666 17:58 05.09.2019
2453 Clouds 5 1022 71 0 1.27 312.666 17:39 05.09.2019
2454 Clouds 5 1022 71 0 1.27 312.666 17:39 05.09.2019
2455 Clouds 5 1022 71 0 1.27 312.666 17:20 05.09.2019
2456 Clouds 5 1022 71 0 1.27 312.666 17:20 05.09.2019
2457 Clouds 5 1022 71 0 1.27 312.666 16:57 05.09.2019
2458 Clouds 5 1022 71 0 1.27 312.666 16:39 05.09.2019
2459 Clouds 5 1022 71 0 1.27 312.666 16:18 05.09.2019
2460 Clouds 5 1022 71 0 1.27 312.666 15:40 05.09.2019
2461 Clouds 5 1022 71 0 1.27 312.666 15:40 05.09.2019
2462 Clouds 1 1024 88 0 1.72 269.031 15:19 05.09.2019
2463 Clouds 1 1024 88 0 1.72 269.031 14:57 05.09.2019
2464 Clouds 1 1024 88 0 1.72 269.031 14:57 05.09.2019
2465 Clouds 1 1024 88 0 1.72 269.031 14:38 05.09.2019
2466 Clouds 1 1024 88 0 1.72 269.031 14:18 05.09.2019
2467 Clouds 1 1024 88 0 1.72 269.031 13:43 05.09.2019
2468 Clouds 1 1024 93 0 1.4 290.979 13:20 05.09.2019
2469 Clouds 1 1024 93 0 1.4 290.979 12:45 05.09.2019
2470 Clouds 1 1024 93 0 1.4 290.979 12:26 05.09.2019
2471 Clouds 1 1024 93 0 1.4 290.979 12:26 05.09.2019
2472 Clouds 0 1022 97 0 0.78 284.358 11:58 05.09.2019
2473 Clouds 0 1022 97 0 0.78 284.358 11:39 05.09.2019
2474 Clouds 0 1022 97 0 0.78 284.358 11:18 05.09.2019
2475 Clouds 0 1022 97 0 0.78 284.358 10:42 05.09.2019
2476 Clouds 0 1022 97 0 0.78 284.358 10:22 05.09.2019
2477 Clouds 0 1022 97 0 0.78 284.358 09:58 05.09.2019
2478 Clouds 0 1022 98 0 1.5 356.514 09:39 05.09.2019
2479 Clouds 1 1022 93 0 1.54 323.578 09:18 05.09.2019
2480 Clouds 1 1022 93 0 1.54 323.578 09:18 05.09.2019
2481 Clouds 1 1022 93 0 1.54 323.578 09:18 05.09.2019
2482 Clouds 1 1022 93 0 1.54 323.578 09:18 05.09.2019
2483 Clouds 1 1022 93 0 1.54 323.578 08:45 05.09.2019
2484 Clouds 1 1022 93 0 1.54 323.578 08:26 05.09.2019
2485 Clouds 1 1022 93 0 1.54 323.578 07:46 05.09.2019
2486 Clouds 1 1022 93 0 1.54 323.578 07:27 05.09.2019
2487 Clouds 1 1022 93 0 1.54 323.578 06:57 05.09.2019
2488 Clouds 1 1022 93 0 1.54 323.578 06:31 05.09.2019
2489 Rain 3 1022 91 0 3.03 281.28 05:50 05.09.2019
2490 Rain 3 1022 91 0 3.03 281.28 05:30 05.09.2019
2491 Rain 3 1022 91 0 3.03 281.28 04:53 05.09.2019
2492 Rain 3 1022 91 0 3.03 281.28 04:28 05.09.2019
2493 Rain 3 1022 91 0 3.03 281.28 03:40 05.09.2019
2494 Rain 6 1020 68 0 2.75 48.115 02:53 05.09.2019
2495 Rain 6 1020 68 0 2.75 48.115 02:27 05.09.2019
2496 Rain 6 1020 68 0 2.75 48.115 01:37 05.09.2019
2497 Rain 6 1020 69 0 2.09 346.363 00:48 05.09.2019
2498 Rain 10 1015 44 0 3.05 3.162 00:22 05.09.2019
2499 Rain 10 1015 44 0 3.05 3.162 23:56 04.09.2019
2500 Rain 10 1015 44 0 3.05 3.162 23:37 04.09.2019
2501 Rain 10 1015 44 0 3.05 3.162 23:18 04.09.2019
2502 Rain 10 1015 44 0 3.05 3.162 22:46 04.09.2019
2503 Rain 10 1015 44 0 3.05 3.162 22:19 04.09.2019
2504 Rain 9 1015 51 0 2.37 328.018 21:41 04.09.2019
2505 Rain 9 1015 50 0 3.12 314.559 21:20 04.09.2019
2506 Rain 9 1015 50 0 3.12 314.559 20:58 04.09.2019
2507 Rain 9 1015 50 0 3.12 314.559 20:40 04.09.2019
2508 Rain 9 1015 50 0 3.12 314.559 20:19 04.09.2019
2509 Rain 9 1015 50 0 3.12 314.559 19:58 04.09.2019
2510 Rain 9 1015 50 0 3.12 314.559 19:39 04.09.2019
2511 Rain 9 1015 50 0 3.12 314.559 19:20 04.09.2019
2512 Rain 9 1015 50 0 3.12 314.559 18:39 04.09.2019
2513 Clouds 9 1019 33 0 3.06 341.855 18:20 04.09.2019
2514 Clouds 9 1019 33 0 3.06 341.855 17:56 04.09.2019
2515 Clouds 9 1019 33 0 3.06 341.855 17:37 04.09.2019
2516 Clouds 9 1019 33 0 3.06 341.855 17:19 04.09.2019
2517 Clouds 9 1019 33 0 3.06 341.855 16:48 04.09.2019
2518 Clouds 9 1019 33 0 3.06 341.855 16:28 04.09.2019
2519 Clouds 9 1019 33 0 3.06 341.855 15:59 04.09.2019
2520 Clouds 9 1019 33 0 3.06 341.855 15:39 04.09.2019
2521 Clouds 9 1019 33 0 3.06 341.855 15:39 04.09.2019
2522 Clouds 5 1022 40 0 1.58 292.994 15:21 04.09.2019
2523 Clouds 5 1022 40 0 1.58 292.994 14:58 04.09.2019
2524 Clouds 5 1022 40 0 1.58 292.994 14:37 04.09.2019
2525 Clouds 5 1022 40 0 1.58 292.994 14:19 04.09.2019
2526 Clouds 5 1022 40 0 1.58 292.994 13:57 04.09.2019
2527 Clouds 5 1022 40 0 1.58 292.994 13:37 04.09.2019
2528 Clouds 5 1022 52 0 1.48 325.892 13:19 04.09.2019
2529 Clouds 5 1022 52 0 1.48 325.892 12:41 04.09.2019
2530 Clouds 4 1020 52 0 1.36 255.39 12:23 04.09.2019
2531 Clouds 4 1020 52 0 1.36 255.39 11:56 04.09.2019
2532 Clouds 4 1020 52 0 1.36 255.39 11:37 04.09.2019
2533 Clouds 4 1020 52 0 1.36 255.39 11:19 04.09.2019
2534 Clouds 4 1020 52 0 1.36 255.39 10:45 04.09.2019
2535 Clouds 4 1020 52 0 1.36 255.39 10:26 04.09.2019
2536 Clouds 3 1020 45 0 1.88 277.318 09:58 04.09.2019
2537 Clouds 3 1020 45 0 1.88 277.318 09:40 04.09.2019
2538 Clouds 5 1019 56 0 1.82 265.546 09:19 04.09.2019
2539 Clouds 5 1019 56 0 1.82 265.546 08:42 04.09.2019
2540 Clouds 5 1019 56 0 1.82 265.546 08:24 04.09.2019
2541 Clouds 5 1019 56 0 1.82 265.546 07:58 04.09.2019
2542 Clouds 5 1019 56 0 1.82 265.546 07:35 04.09.2019
2543 Clouds 5 1019 56 0 1.82 265.546 06:49 04.09.2019
2544 Clouds 5 1019 56 0 1.82 265.546 06:26 04.09.2019
2545 Clouds 5 1019 73 0 1.21 351.333 04:54 04.09.2019
2546 Clouds 5 1019 73 0 1.21 351.333 04:22 04.09.2019
2547 Clear 8 1016 43 0 2.57 4.011 02:36 04.09.2019
2548 Clear 8 1016 43 0 2.57 4.011 02:36 04.09.2019
2549 Clouds 8 1016 44 0 2.52 359.796 00:58 04.09.2019
2550 Clouds 8 1016 44 0 2.52 359.796 00:39 04.09.2019
2551 Clouds 12 1010 18 0 8.68 283.439 00:18 04.09.2019
2552 Clouds 12 1010 18 0 8.68 283.439 23:48 03.09.2019
2553 Clouds 12 1010 18 0 8.68 283.439 23:26 03.09.2019
2554 Clouds 12 1010 18 0 8.68 283.439 22:41 03.09.2019
2555 Clouds 12 1010 18 0 8.68 283.439 22:22 03.09.2019
2556 Clear 12 1010 18 0 8.21 288.839 21:57 03.09.2019
2557 Clear 12 1010 18 0 8.21 288.839 21:57 03.09.2019
2558 Clear 12 1010 18 0 8.21 288.839 21:38 03.09.2019
2559 Clear 14 1010 14 0 8.87 293.846 21:20 03.09.2019
2560 Clear 14 1010 14 0 8.87 293.846 20:56 03.09.2019
2561 Clear 14 1010 14 0 8.87 293.846 20:37 03.09.2019
2562 Clouds 15 1033 26 10000 8.87 293.846 20:19 03.09.2019
2563 Clouds 15 1033 26 10000 8.87 293.846 19:43 03.09.2019
2564 Clouds 15 1033 26 10000 8.87 293.846 19:20 03.09.2019
2565 Clouds 14 1034 28 10000 4.1 250 18:59 03.09.2019
2566 Clouds 14 1034 28 10000 4.1 250 18:40 03.09.2019
2567 Clouds 12 1036 32 10000 5.15 332.445 18:20 03.09.2019
2568 Clouds 12 1036 32 10000 5.15 332.445 17:56 03.09.2019
2569 Clouds 12 1036 32 10000 5.15 332.445 17:38 03.09.2019
2570 Clear 10 1036 39 10000 5.15 332.445 17:18 03.09.2019
2571 Clear 10 1036 39 10000 5.15 332.445 16:43 03.09.2019
2572 Clear 10 1036 39 10000 5.15 332.445 16:22 03.09.2019
2573 Clear 10 1036 39 10000 5.15 332.445 16:22 03.09.2019
2574 Clear 7 1036 45 10000 2.6 210 15:56 03.09.2019
2575 Clear 7 1036 45 10000 2.6 210 15:37 03.09.2019
2576 Clouds 3 1036 59 10000 2.6 220 15:19 03.09.2019
2577 Clouds 3 1036 59 10000 2.6 220 14:56 03.09.2019
2578 Clouds 3 1036 59 10000 2.6 220 14:37 03.09.2019
2579 Clouds 0 1036 22 10000 2.11 291.12 14:18 03.09.2019
2580 Clouds 0 1036 22 10000 2.11 291.12 13:55 03.09.2019
2581 Clouds 0 1036 22 10000 2.11 291.12 13:55 03.09.2019
2582 Clouds 0 1036 22 10000 2.11 291.12 13:37 03.09.2019
2583 Clear -1 1036 68 10000 2.26 286.398 13:18 03.09.2019
2584 Clear -1 1036 68 10000 2.26 286.398 12:46 03.09.2019
2585 Clear -1 1036 68 10000 2.26 286.398 12:28 03.09.2019
2586 Clear 0 1018 31 0 2.37 273.775 11:43 03.09.2019
2587 Clear 0 1018 31 0 2.37 273.775 11:25 03.09.2019
2588 Clear 0 1018 31 0 2.37 273.775 10:58 03.09.2019
2589 Clear 0 1018 31 0 2.37 273.775 10:40 03.09.2019
2590 Clear 0 1018 31 0 2.37 273.775 10:21 03.09.2019
2591 Clear 0 1018 31 0 2.37 273.775 09:50 03.09.2019
2592 Clear 0 1019 31 0 2.13 275.839 09:32 03.09.2019
2593 Clouds 2 1018 27 0 2.66 262.415 08:57 03.09.2019
2594 Clouds 2 1018 27 0 2.66 262.415 08:38 03.09.2019
2595 Clouds 2 1018 27 0 2.66 262.415 08:38 03.09.2019
2596 Clouds 2 1018 27 0 2.66 262.415 08:19 03.09.2019
2597 Clouds 2 1018 27 0 2.66 262.415 07:43 03.09.2019
2598 Clouds 2 1018 27 0 2.66 262.415 07:24 03.09.2019
2599 Clouds 2 1018 27 0 2.66 262.415 06:50 03.09.2019
2600 Clouds 2 1018 27 0 2.66 262.415 06:32 03.09.2019
2601 Clouds 4 1018 16 0 3.39 246.542 03:44 03.09.2019
2602 Clouds 6 1014 11 0 4.35 241.644 02:48 03.09.2019
2603 Clouds 6 1014 11 0 4.35 241.644 02:29 03.09.2019
2604 Clouds 6 1014 11 0 4.35 241.644 01:58 03.09.2019
2605 Clouds 6 1014 11 0 4.35 241.644 01:39 03.09.2019
2606 Clouds 6 1014 12 0 3.48 248.633 01:20 03.09.2019
2607 Clouds 6 1014 12 0 3.48 248.633 00:28 03.09.2019
2608 Clouds 11 1008 6 0 7.15 281.678 23:56 02.09.2019
2609 Clouds 11 1008 6 0 7.15 281.678 23:36 02.09.2019
2610 Clouds 11 1008 6 0 7.15 281.678 23:18 02.09.2019
2611 Clouds 11 1008 6 0 7.15 281.678 22:54 02.09.2019
2612 Clouds 11 1008 6 0 7.15 281.678 22:36 02.09.2019
2613 Clouds 11 1008 6 0 7.15 281.678 22:18 02.09.2019
2614 Clouds 11 1008 6 0 7.15 281.678 21:54 02.09.2019
2615 Clouds 11 1008 6 0 8 288.193 21:36 02.09.2019
2616 Clouds 12 1008 7 0 7.57 265.094 21:18 02.09.2019
2617 Clouds 12 1008 7 0 7.57 265.094 20:41 02.09.2019
2618 Clouds 15 1033 28 10000 2.6 210 20:21 02.09.2019
2619 Clouds 15 1033 28 10000 2.6 210 19:57 02.09.2019
2620 Clouds 15 1033 28 10000 2.6 210 19:39 02.09.2019
2621 Clouds 15 1033 28 10000 2.6 210 19:39 02.09.2019
2622 Clouds 14 1034 33 10000 7.57 265.094 19:21 02.09.2019
2623 Clouds 14 1034 33 10000 7.57 265.094 18:41 02.09.2019
2624 Clear 12 1034 27 10000 2.6 220 18:23 02.09.2019
2625 Clear 12 1034 27 10000 2.6 220 17:59 02.09.2019
2626 Clear 12 1034 27 10000 2.6 220 17:40 02.09.2019
2627 Clear 10 1034 29 10000 2.6 220 17:21 02.09.2019
2628 Clear 10 1034 29 10000 2.6 220 17:21 02.09.2019
2629 Clear 10 1034 29 10000 2.6 220 16:58 02.09.2019
2630 Clear 10 1034 29 10000 2.6 220 16:38 02.09.2019
2631 Clear 7 1034 30 10000 2.6 220 16:20 02.09.2019
2632 Clear 7 1034 30 10000 2.6 220 15:45 02.09.2019
2633 Clear 7 1034 30 10000 2.6 220 15:26 02.09.2019
2634 Clouds 4 1034 38 10000 2.6 220 14:57 02.09.2019
2635 Clouds 4 1034 38 10000 2.6 220 14:38 02.09.2019
2636 Clouds 0 1033 8 10000 1.5 210 14:20 02.09.2019
2637 Clouds 0 1033 8 10000 1.5 210 13:55 02.09.2019
2638 Clouds 0 1033 8 10000 1.5 210 13:36 02.09.2019
2639 Clouds 0 1033 9 10000 2.6 240 13:18 02.09.2019
2640 Clouds 0 1033 9 10000 2.6 240 12:43 02.09.2019
2641 Clouds 0 1033 10 10000 2.6 240 12:24 02.09.2019
2642 Clouds 0 1016 10 0 4.03 256.946 11:58 02.09.2019
2643 Clouds 0 1016 10 0 4.03 256.946 11:38 02.09.2019
2644 Clouds 0 1016 10 0 4.03 256.946 11:20 02.09.2019
2645 Clouds 0 1016 10 0 4.03 256.946 10:56 02.09.2019
2646 Clouds 0 1016 10 0 4.03 256.946 10:37 02.09.2019
2647 Clouds 0 1016 10 0 4.03 256.946 10:19 02.09.2019
2648 Clouds 0 1016 10 0 4.03 256.946 09:45 02.09.2019
2649 Clouds 0 1016 13 0 1.86 282.469 09:22 02.09.2019
2650 Clouds 0 1016 13 0 1.86 282.469 08:45 02.09.2019
2651 Clouds 0 1016 13 0 1.86 282.469 08:45 02.09.2019
2652 Clouds 0 1016 13 0 1.86 282.469 08:23 02.09.2019
2653 Clouds 0 1016 13 0 1.86 282.469 07:58 02.09.2019
2654 Clouds 0 1016 13 0 1.86 282.469 07:40 02.09.2019
2655 Clouds 0 1016 13 0 1.86 282.469 07:21 02.09.2019
2656 Clouds 0 1016 13 0 1.86 282.469 06:44 02.09.2019
2657 Clouds 4 1017 11 0 4.95 255.936 06:22 02.09.2019
2658 Clouds 4 1017 11 0 4.95 255.936 05:44 02.09.2019
2659 Clouds 4 1017 11 0 4.95 255.936 05:18 02.09.2019
2660 Clouds 6 1014 13 0 2.65 279.014 02:46 02.09.2019
2661 Clouds 6 1014 13 0 2.65 279.014 01:45 02.09.2019
2662 Clear 6 1014 13 0 2.79 275.676 00:47 02.09.2019
2663 Clear 6 1014 13 0 2.79 275.676 00:28 02.09.2019
2664 Clear 11 1009 7 0 8.15 265.363 23:43 01.09.2019
2665 Clear 11 1009 7 0 8.15 265.363 23:22 01.09.2019
2666 Clear 11 1009 7 0 8.15 265.363 22:57 01.09.2019
2667 Clear 11 1009 7 0 8.15 265.363 22:39 01.09.2019
2668 Clear 11 1009 7 0 8.15 265.363 22:19 01.09.2019
2669 Clear 11 1009 7 0 8.15 265.363 21:57 01.09.2019
2670 Clear 11 1009 7 0 7.89 274.143 21:37 01.09.2019
2671 Clouds 12 1010 12 0 9.48 267.642 21:19 01.09.2019
2672 Clouds 12 1010 12 0 9.48 267.642 20:56 01.09.2019
2673 Clouds 12 1010 12 0 9.48 267.642 20:36 01.09.2019
2674 Clouds 12 1010 12 0 9.48 267.642 20:18 01.09.2019
2675 Clouds 12 1010 12 0 9.48 267.642 19:56 01.09.2019
2676 Clouds 12 1010 12 0 9.48 267.642 19:37 01.09.2019
2677 Clouds 12 1010 12 0 9.48 267.642 19:18 01.09.2019
2678 Clouds 12 1010 12 0 9.48 267.642 18:41 01.09.2019
2679 Clouds 11 1016 6 0 9.2 275.49 18:23 01.09.2019
2680 Clouds 11 1016 6 0 9.2 275.49 18:23 01.09.2019
2681 Clouds 11 1016 6 0 9.2 275.49 17:55 01.09.2019
2682 Clouds 11 1016 6 0 9.2 275.49 17:37 01.09.2019
2683 Clouds 9 1035 34 10000 4.1 240 17:18 01.09.2019
2684 Clouds 9 1035 34 10000 4.1 240 17:18 01.09.2019
2685 Clouds 9 1035 34 10000 4.1 240 16:39 01.09.2019
2686 Clouds 9 1035 34 10000 4.1 240 16:39 01.09.2019
2687 Clouds 7 1036 36 10000 2.6 220 16:18 01.09.2019
2688 Clouds 7 1036 36 10000 2.6 220 15:47 01.09.2019
2689 Clouds 7 1036 36 10000 2.6 220 15:29 01.09.2019
2690 Clear 3 1035 55 10000 2.6 220 14:56 01.09.2019
2691 Clear 3 1035 55 10000 2.6 220 14:37 01.09.2019
2692 Clear 1 1035 50 10000 2.6 210 14:19 01.09.2019
2693 Clear 1 1035 50 10000 2.6 210 13:42 01.09.2019
2694 Clear 1 1035 50 10000 2.6 210 13:24 01.09.2019
2695 Clear 1 1035 55 10000 4.1 240 12:59 01.09.2019
2696 Clear 1 1035 55 10000 4.1 240 12:40 01.09.2019
2697 Clear 1 1035 55 10000 4.1 240 12:40 01.09.2019
2698 Clear 1 1018 8 0 5.33 265.749 12:21 01.09.2019
2699 Clear 1 1018 8 0 5.33 265.749 11:40 01.09.2019
2700 Clear 1 1018 8 0 5.33 265.749 11:20 01.09.2019
2701 Clear 1 1018 8 0 5.33 265.749 10:57 01.09.2019
2702 Clear 1 1018 8 0 5.33 265.749 10:39 01.09.2019
2703 Clear 1 1018 8 0 5.33 265.749 10:20 01.09.2019
2704 Clear 1 1018 7 0 5.84 258.186 09:42 01.09.2019
2705 Clear 2 1017 11 0 3.1 276.866 09:24 01.09.2019
2706 Clear 2 1017 11 0 3.1 276.866 08:44 01.09.2019
2707 Clear 2 1017 11 0 3.1 276.866 08:23 01.09.2019
2708 Clear 2 1017 11 0 3.1 276.866 07:49 01.09.2019
2709 Clear 2 1017 11 0 3.1 276.866 07:31 01.09.2019
2710 Clear 2 1017 11 0 3.1 276.866 06:42 01.09.2019
2711 Clear 4 1018 13 0 2.62 247.239 06:23 01.09.2019
2712 Clear 4 1018 13 0 2.62 247.239 05:39 01.09.2019
2713 Clear 4 1018 13 0 2.62 247.239 04:29 01.09.2019
2714 Clear 4 1018 13 0 2.62 247.239 03:41 01.09.2019
2715 Clear 6 1016 13 0 3.04 271.755 02:57 01.09.2019
2716 Clear 6 1016 13 0 3.04 271.755 02:26 01.09.2019
2717 Clear 6 1016 13 0 3.04 271.755 01:50 01.09.2019
2718 Clear 6 1016 13 0 3.04 271.755 01:50 01.09.2019
2719 Clear 6 1015 14 0 2.83 256.072 01:22 01.09.2019
2720 Clear 6 1015 14 0 2.83 256.072 00:45 01.09.2019
2721 Clear 11 1010 6 0 7.39 279.776 00:22 01.09.2019
2722 Clear 11 1010 6 0 7.39 279.776 23:48 31.08.2019
2723 Clear 11 1010 6 0 7.39 279.776 23:22 31.08.2019
2724 Clear 11 1010 6 0 7.39 279.776 22:58 31.08.2019
2725 Clear 11 1010 6 0 7.39 279.776 22:40 31.08.2019
2726 Clear 11 1010 6 0 7.39 279.776 22:22 31.08.2019
2727 Clear 11 1010 6 0 7.39 279.776 21:55 31.08.2019
2728 Clear 11 1010 6 0 7.39 279.776 21:55 31.08.2019
2729 Clear 12 1010 6 0 7.32 275.619 21:37 31.08.2019
2730 Clear 13 1011 5 0 7.7 263.64 21:19 31.08.2019
2731 Clear 13 1011 5 0 7.7 263.64 21:19 31.08.2019
2732 Clear 13 1011 5 0 7.7 263.64 20:46 31.08.2019
2733 Clear 13 1011 5 0 7.7 263.64 20:28 31.08.2019
2734 Clear 13 1011 5 0 7.7 263.64 19:55 31.08.2019
2735 Clear 13 1011 5 0 7.7 263.64 19:37 31.08.2019
2736 Clear 13 1011 5 0 7.7 263.64 19:19 31.08.2019
2737 Clear 13 1011 5 0 7.7 263.64 18:39 31.08.2019
2738 Clear 13 1011 5 0 7.7 263.64 18:39 31.08.2019
2739 Clear 11 1017 4 0 6.25 274.877 18:20 31.08.2019
2740 Clear 11 1017 4 0 6.25 274.877 17:55 31.08.2019
2741 Clear 11 1017 4 0 6.25 274.877 17:37 31.08.2019
2742 Clear 10 1038 34 10000 2.6 60 17:18 31.08.2019
2743 Clear 10 1038 34 10000 2.6 60 16:57 31.08.2019
2744 Clear 10 1038 34 10000 2.6 60 16:39 31.08.2019
2745 Clear 6 1037 38 10000 6.25 274.877 16:20 31.08.2019
2746 Clear 6 1037 38 10000 6.25 274.877 15:42 31.08.2019
2747 Clear 3 1037 59 10000 2.15 283.533 15:19 31.08.2019
2748 Clear 3 1037 59 10000 2.15 283.533 14:57 31.08.2019
2749 Clear 3 1037 59 10000 2.15 283.533 14:39 31.08.2019
2750 Clear 3 1037 59 10000 2.15 283.533 14:39 31.08.2019
2751 Clear -1 1035 63 10000 2.15 283.533 14:19 31.08.2019
2752 Clear -1 1035 63 10000 2.15 283.533 13:41 31.08.2019
2753 Clear -2 1035 68 10000 1.5 240 13:23 31.08.2019
2754 Clear -2 1035 68 10000 1.5 240 13:23 31.08.2019
2755 Clear -2 1035 68 10000 1.5 240 12:59 31.08.2019
2756 Clear -2 1035 68 10000 1.5 240 12:39 31.08.2019
2757 Clear 0 1018 18 0 1.22 302.45 12:20 31.08.2019
2758 Clear 0 1018 18 0 1.22 302.45 11:55 31.08.2019
2759 Clear 0 1018 18 0 1.22 302.45 11:36 31.08.2019
2760 Clear 0 1018 18 0 1.22 302.45 11:18 31.08.2019
2761 Clear 0 1018 18 0 1.22 302.45 11:18 31.08.2019
2762 Clear 0 1018 18 0 1.22 302.45 10:41 31.08.2019
2763 Clear 0 1018 18 0 1.22 302.45 10:19 31.08.2019
2764 Clear 0 1018 18 0 1.22 302.45 09:56 31.08.2019
2765 Clear 0 1018 19 0 0.87 324.195 09:37 31.08.2019
2766 Clear 2 1017 18 0 1.38 233.612 09:19 31.08.2019
2767 Clear 2 1017 18 0 1.38 233.612 08:42 31.08.2019
2768 Clear 2 1017 18 0 1.38 233.612 08:42 31.08.2019
2769 Clear 2 1017 18 0 1.38 233.612 08:23 31.08.2019
2770 Clear 2 1017 18 0 1.38 233.612 07:40 31.08.2019
2771 Clear 2 1017 18 0 1.38 233.612 07:22 31.08.2019
2772 Clear 2 1017 18 0 1.38 233.612 06:29 31.08.2019
2773 Clear 5 1017 12 0 3.45 265.943 05:59 31.08.2019
2774 Clear 5 1017 12 0 3.45 265.943 05:32 31.08.2019
2775 Clear 5 1017 12 0 3.45 265.943 04:34 31.08.2019
2776 Clear 5 1017 12 0 3.45 265.943 03:45 31.08.2019
2777 Clear 8 1014 13 0 3.85 243.981 02:37 31.08.2019
2778 Clear 8 1014 13 0 3.85 243.981 01:53 31.08.2019
2779 Clear 8 1014 15 0 3.57 243.765 01:33 31.08.2019
2780 Clear 8 1014 15 0 3.57 243.765 00:50 31.08.2019
2781 Clear 8 1014 15 0 3.57 243.765 00:30 31.08.2019
2782 Clear 13 1009 7 0 4.51 243.923 23:57 30.08.2019
2783 Clear 13 1009 7 0 4.51 243.923 23:57 30.08.2019
2784 Clear 13 1009 7 0 4.51 243.923 23:39 30.08.2019
2785 Clear 13 1009 7 0 4.51 243.923 23:18 30.08.2019
2786 Clear 13 1009 7 0 4.51 243.923 23:18 30.08.2019
2787 Clear 13 1009 7 0 4.51 243.923 22:42 30.08.2019
2788 Clear 13 1009 7 0 4.51 243.923 22:24 30.08.2019
2789 Clear 13 1009 7 0 4.51 243.923 21:58 30.08.2019
2790 Clear 13 1009 8 0 3.85 242.623 21:38 30.08.2019
2791 Clear 13 1009 8 0 3.85 242.623 21:38 30.08.2019
2792 Clear 14 1010 7 0 5.3 242.302 21:20 30.08.2019
2793 Clear 14 1010 7 0 5.3 242.302 20:59 30.08.2019
2794 Clear 14 1010 7 0 5.3 242.302 20:40 30.08.2019
2795 Clear 18 1035 25 10000 5.3 242.302 20:20 30.08.2019
2796 Clear 18 1035 25 10000 5.3 242.302 19:58 30.08.2019
2797 Clear 18 1035 25 10000 5.3 242.302 19:39 30.08.2019
2798 Clear 18 1035 25 10000 5.3 242.302 19:19 30.08.2019
2799 Clear 18 1035 25 10000 5.3 242.302 19:19 30.08.2019
2800 Clear 16 1036 29 10000 5.3 242.302 18:55 30.08.2019
2801 Clear 16 1036 29 10000 5.3 242.302 18:37 30.08.2019
2802 Clear 14 1038 28 10000 1.76 265.133 18:18 30.08.2019
2803 Clear 14 1038 28 10000 1.76 265.133 17:55 30.08.2019
2804 Clear 14 1038 28 10000 1.76 265.133 17:37 30.08.2019
2805 Clear 11 1038 34 10000 3.6 240 17:18 30.08.2019
2806 Clear 11 1038 34 10000 3.6 240 16:43 30.08.2019
2807 Clear 11 1038 34 10000 3.6 240 16:22 30.08.2019
2808 Clear 7 1038 45 10000 4.1 240 15:44 30.08.2019
2809 Clear 7 1038 45 10000 4.1 240 15:24 30.08.2019
2810 Clear 7 1038 45 10000 4.1 240 15:24 30.08.2019
2811 Clear 4 1038 64 10000 1.5 200 14:57 30.08.2019
2812 Clear 4 1038 64 10000 1.5 200 14:38 30.08.2019
2813 Clear 1 1039 74 10000 1.5 190 14:20 30.08.2019
2814 Clear 1 1039 74 10000 1.5 190 13:43 30.08.2019
2815 Clear 1 1038 80 10000 1.37 286.146 13:23 30.08.2019
2816 Clear 1 1038 80 10000 1.37 286.146 12:55 30.08.2019
2817 Clear 1 1038 80 10000 1.37 286.146 12:36 30.08.2019
2818 Clear 2 1018 46 0 1.29 275.87 12:18 30.08.2019
2819 Clear 2 1018 46 0 1.29 275.87 11:41 30.08.2019
2820 Clear 2 1018 46 0 1.29 275.87 11:23 30.08.2019
2821 Clear 2 1018 46 0 1.29 275.87 10:39 30.08.2019
2822 Clear 2 1018 46 0 1.29 275.87 10:21 30.08.2019
2823 Clear 2 1018 46 0 1.29 275.87 09:58 30.08.2019
2824 Clear 2 1018 46 0 1.29 275.87 09:38 30.08.2019
2825 Clear 3 1018 54 0 0.47 321.246 09:19 30.08.2019
2826 Clear 3 1018 54 0 0.47 321.246 08:44 30.08.2019
2827 Clear 3 1018 54 0 0.47 321.246 08:25 30.08.2019
2828 Clear 3 1018 54 0 0.47 321.246 07:59 30.08.2019
2829 Clear 3 1018 54 0 0.47 321.246 07:39 30.08.2019
2830 Clear 3 1018 54 0 0.47 321.246 07:21 30.08.2019
2831 Clear 3 1018 54 0 0.47 321.246 06:44 30.08.2019
2832 Clear 3 1018 54 0 0.47 321.246 06:26 30.08.2019
2833 Clear 6 1017 41 0 1.15 32.544 05:43 30.08.2019
2834 Clear 6 1017 41 0 1.15 32.544 03:58 30.08.2019
2835 Clear 6 1017 41 0 1.15 32.544 03:38 30.08.2019
2836 Clear 8 1016 22 0 1.95 43.897 02:49 30.08.2019
2837 Clear 8 1016 22 0 1.95 43.897 02:24 30.08.2019
2838 Clear 8 1016 26 0 2.48 43.612 01:28 30.08.2019
2839 Clear 8 1016 26 0 2.48 43.612 00:27 30.08.2019
2840 Clear 13 1011 8 0 4.15 137.981 23:57 29.08.2019
2841 Clear 13 1011 8 0 4.15 137.981 23:38 29.08.2019
2842 Clear 13 1011 8 0 4.15 137.981 23:20 29.08.2019
2843 Clear 13 1011 8 0 4.15 137.981 23:20 29.08.2019
2844 Clear 13 1011 8 0 4.15 137.981 22:43 29.08.2019
2845 Clear 13 1011 8 0 4.15 137.981 22:24 29.08.2019
2846 Clear 13 1011 9 0 4.94 127.313 21:56 29.08.2019
2847 Clear 13 1011 9 0 4.94 127.313 21:38 29.08.2019
2848 Clear 13 1013 8 0 3.23 162.828 21:20 29.08.2019
2849 Clear 13 1013 8 0 3.23 162.828 20:43 29.08.2019
2850 Clear 13 1013 8 0 3.23 162.828 20:20 29.08.2019
2851 Clear 13 1013 8 0 3.23 162.828 19:59 29.08.2019
2852 Clear 13 1013 8 0 3.23 162.828 19:40 29.08.2019
2853 Clear 13 1013 8 0 3.23 162.828 19:21 29.08.2019
2854 Clear 13 1013 8 0 3.23 162.828 18:43 29.08.2019
2855 Clear 11 1017 10 0 3.46 164.665 18:21 29.08.2019
2856 Clear 11 1017 10 0 3.46 164.665 17:57 29.08.2019
2857 Clear 11 1017 10 0 3.46 164.665 17:39 29.08.2019
2858 Clear 11 1017 10 0 3.46 164.665 17:19 29.08.2019
2859 Clear 11 1017 10 0 3.46 164.665 16:57 29.08.2019
2860 Clear 11 1017 10 0 3.46 164.665 16:39 29.08.2019
2861 Clear 11 1017 10 0 3.46 164.665 16:20 29.08.2019
2862 Clear 11 1017 10 0 3.46 164.665 15:39 29.08.2019
2863 Clear 6 1021 19 0 1.65 230.75 15:21 29.08.2019
2864 Clear 6 1021 19 0 1.65 230.75 14:50 29.08.2019
2865 Clear 6 1021 19 0 1.65 230.75 14:25 29.08.2019
2866 Clear 6 1021 19 0 1.65 230.75 13:59 29.08.2019
2867 Clear 6 1021 19 0 1.65 230.75 13:40 29.08.2019
2868 Clear 6 1021 18 0 1.56 230.945 13:21 29.08.2019
2869 Clear 6 1021 18 0 1.56 230.945 12:59 29.08.2019
2870 Clear 6 1021 18 0 1.56 230.945 12:40 29.08.2019
2871 Clear 2 1019 34 0 1.39 234.223 12:22 29.08.2019
2872 Clear 2 1019 34 0 1.39 234.223 11:59 29.08.2019
2873 Clear 2 1019 34 0 1.39 234.223 11:39 29.08.2019
2874 Clear 2 1019 34 0 1.39 234.223 11:20 29.08.2019
2875 Clear 2 1019 34 0 1.39 234.223 10:45 29.08.2019
2876 Clear 2 1019 34 0 1.39 234.223 10:25 29.08.2019
2877 Clear 2 1019 34 0 1.39 234.223 09:57 29.08.2019
2878 Clear 2 1019 34 0 1.5 231.137 09:39 29.08.2019
2879 Clear 3 1019 44 0 1.15 265.228 09:18 29.08.2019
2880 Clear 3 1019 44 0 1.15 265.228 08:41 29.08.2019
2881 Clear 3 1019 44 0 1.15 265.228 08:23 29.08.2019
2882 Clear 3 1019 44 0 1.15 265.228 07:53 29.08.2019
2883 Clear 3 1019 44 0 1.15 265.228 07:33 29.08.2019
2884 Clear 3 1019 44 0 1.15 265.228 06:56 29.08.2019
2885 Clear 3 1019 44 0 1.15 265.228 06:37 29.08.2019
2886 Clear 5 1020 46 0 1.21 325.059 05:51 29.08.2019
2887 Clear 5 1020 46 0 1.21 325.059 04:52 29.08.2019
2888 Clear 5 1020 46 0 1.21 325.059 04:30 29.08.2019
2889 Clear 5 1020 46 0 1.21 325.059 03:55 29.08.2019
2890 Clouds 8 1019 35 0 1.93 43.932 01:54 29.08.2019
2891 Clouds 8 1019 39 0 2.61 54.37 01:35 29.08.2019
2892 Clouds 8 1019 39 0 2.61 54.37 00:47 29.08.2019
2893 Clouds 11 1015 12 0 2.44 142.209 00:23 29.08.2019
2894 Clouds 11 1015 12 0 2.44 142.209 23:58 28.08.2019
2895 Clouds 11 1015 12 0 2.44 142.209 23:38 28.08.2019
2896 Clouds 11 1015 12 0 2.44 142.209 23:20 28.08.2019
2897 Clouds 11 1015 12 0 2.44 142.209 22:56 28.08.2019
2898 Clouds 11 1015 12 0 2.44 142.209 22:37 28.08.2019
2899 Clouds 11 1015 12 0 2.44 142.209 22:18 28.08.2019
2900 Clouds 11 1014 14 0 2.02 128.527 21:41 28.08.2019
2901 Clear 11 1017 11 0 3.24 182.55 21:23 28.08.2019
2902 Clear 11 1017 11 0 3.24 182.55 20:56 28.08.2019
2903 Clear 11 1017 11 0 3.24 182.55 20:38 28.08.2019
2904 Clear 11 1017 11 0 3.24 182.55 20:20 28.08.2019
2905 Clear 11 1017 11 0 3.24 182.55 19:42 28.08.2019
2906 Clear 11 1017 11 0 3.24 182.55 19:22 28.08.2019
2907 Clear 11 1017 11 0 3.24 182.55 18:58 28.08.2019
2908 Clear 11 1017 11 0 3.24 182.55 18:37 28.08.2019
2909 Clear 9 1022 16 0 2.8 154.488 18:19 28.08.2019
2910 Clear 9 1022 16 0 2.8 154.488 17:39 28.08.2019
2911 Clear 9 1022 16 0 2.8 154.488 17:19 28.08.2019
2912 Clear 9 1022 16 0 2.8 154.488 16:55 28.08.2019
2913 Clear 9 1022 16 0 2.8 154.488 16:37 28.08.2019
2914 Clear 9 1022 16 0 2.8 154.488 16:18 28.08.2019
2915 Clear 9 1022 16 0 2.8 154.488 15:38 28.08.2019
2916 Clear 4 1026 40 0 1.11 265.55 15:20 28.08.2019
2917 Clear 4 1026 40 0 1.11 265.55 14:57 28.08.2019
2918 Clear 4 1026 40 0 1.11 265.55 14:39 28.08.2019
2919 Clear 4 1026 40 0 1.11 265.55 14:20 28.08.2019
2920 Clear 4 1026 40 0 1.11 265.55 13:58 28.08.2019
2921 Clear 4 1026 40 0 1.11 265.55 13:38 28.08.2019
2922 Clear 4 1026 38 0 1.26 258.118 13:19 28.08.2019
2923 Clear 4 1026 38 0 1.26 258.118 12:42 28.08.2019
2924 Clear 0 1024 65 0 1.31 292.664 12:24 28.08.2019
2925 Clear 0 1024 65 0 1.31 292.664 11:57 28.08.2019
2926 Clear 0 1024 65 0 1.31 292.664 11:38 28.08.2019
2927 Clear 0 1024 65 0 1.31 292.664 11:20 28.08.2019
2928 Clear 0 1024 65 0 1.31 292.664 10:55 28.08.2019
2929 Clear 0 1024 65 0 1.31 292.664 10:37 28.08.2019
2930 Clear 0 1024 65 0 1.31 292.664 10:18 28.08.2019
2931 Clear 0 1024 65 0 1.31 292.664 09:41 28.08.2019
2932 Clear 1 1024 69 0 0.95 328.04 09:20 28.08.2019
2933 Clear 1 1024 69 0 0.95 328.04 08:40 28.08.2019
2934 Clear 1 1024 69 0 0.95 328.04 08:21 28.08.2019
2935 Clear 1 1024 69 0 0.95 328.04 07:57 28.08.2019
2936 Clear 1 1024 69 0 0.95 328.04 07:36 28.08.2019
2937 Clear 1 1024 69 0 0.95 328.04 07:18 28.08.2019
2938 Clear 1 1024 69 0 0.95 328.04 06:40 28.08.2019
2939 Clear 3 1024 64 0 1.05 12.068 05:47 28.08.2019
2940 Clear 3 1024 64 0 1.05 12.068 04:28 28.08.2019
2941 Clear 5 1022 52 0 4.86 53.468 01:56 28.08.2019
2942 Clouds 5 1022 59 0 4.72 57.796 01:30 28.08.2019
2943 Clouds 5 1022 59 0 4.72 57.796 00:43 28.08.2019
2944 Clouds 9 1018 27 0 7.77 61.299 00:21 28.08.2019
2945 Clouds 9 1018 27 0 7.77 61.299 23:43 27.08.2019
2946 Clouds 9 1018 27 0 7.77 61.299 23:22 27.08.2019
2947 Clouds 9 1018 27 0 7.77 61.299 22:59 27.08.2019
2948 Clouds 9 1018 27 0 7.77 61.299 22:39 27.08.2019
2949 Clouds 9 1018 27 0 7.77 61.299 22:39 27.08.2019
2950 Clouds 9 1018 27 0 7.77 61.299 22:20 27.08.2019
2951 Clouds 9 1018 25 0 7.51 66.158 21:56 27.08.2019
2952 Clouds 9 1018 25 0 7.51 66.158 21:38 27.08.2019
2953 Clouds 9 1018 25 0 7.51 66.158 21:38 27.08.2019
2954 Clear 10 1019 16 0 5.01 50.643 21:18 27.08.2019
2955 Clear 10 1019 16 0 5.01 50.643 20:56 27.08.2019
2956 Clear 10 1019 16 0 5.01 50.643 20:37 27.08.2019
2957 Clouds 14 1043 26 10000 5.1 60 20:19 27.08.2019
2958 Clouds 14 1043 26 10000 5.1 60 19:43 27.08.2019
2959 Clouds 13 1043 24 10000 4.1 60 19:24 27.08.2019
2960 Clouds 13 1043 24 10000 4.1 60 18:55 27.08.2019
2961 Clouds 13 1043 24 10000 4.1 60 18:36 27.08.2019
2962 Clear 12 1044 40 10000 4.1 60 18:18 27.08.2019
2963 Clear 12 1044 40 10000 4.1 60 17:43 27.08.2019
2964 Clear 12 1044 40 10000 4.1 60 17:24 27.08.2019
2965 Clear 9 1044 18 10000 1.5 210 16:57 27.08.2019
2966 Clear 9 1044 18 10000 1.5 210 16:36 27.08.2019
2967 Clear 6 1043 41 10000 2.6 210 16:18 27.08.2019
2968 Clear 6 1043 41 10000 2.6 210 15:41 27.08.2019
2969 Clear 6 1043 41 10000 2.6 210 15:23 27.08.2019
2970 Clear 2 1043 69 10000 1.3 282.495 14:59 27.08.2019
2971 Clear 2 1043 69 10000 1.3 282.495 14:41 27.08.2019
2972 Clear 2 1043 69 10000 1.3 282.495 14:41 27.08.2019
2973 Clear 2 1043 69 10000 1.3 282.495 14:23 27.08.2019
2974 Clear -1 1043 74 10000 1.3 282.495 13:43 27.08.2019
2975 Clear -1 1043 74 10000 0.96 271.844 13:24 27.08.2019
2976 Clear -1 1042 80 10000 0.96 271.844 12:56 27.08.2019
2977 Clear -1 1042 80 10000 0.96 271.844 12:37 27.08.2019
2978 Clear 0 1023 69 0 1.39 268.061 12:19 27.08.2019
2979 Clear 0 1023 69 0 1.39 268.061 11:45 27.08.2019
2980 Clear 0 1023 69 0 1.39 268.061 11:26 27.08.2019
2981 Clear 0 1023 69 0 1.39 268.061 10:46 27.08.2019
2982 Clear 0 1023 69 0 1.39 268.061 10:26 27.08.2019
2983 Clear 0 1023 69 0 1.39 268.061 09:59 27.08.2019
2984 Clear 0 1023 69 0 1.39 268.061 09:39 27.08.2019
2985 Clear 1 1024 79 0 0.91 346.713 09:20 27.08.2019
2986 Clear 1 1024 79 0 0.91 346.713 08:55 27.08.2019
2987 Clear 1 1024 79 0 0.91 346.713 08:37 27.08.2019
2988 Clear 1 1024 79 0 0.91 346.713 08:18 27.08.2019
2989 Clear 1 1024 79 0 0.91 346.713 07:40 27.08.2019
2990 Clear 1 1024 79 0 0.91 346.713 07:19 27.08.2019
2991 Clear 1 1024 79 0 0.91 346.713 06:54 27.08.2019
2992 Clear 1 1024 79 0 0.91 346.713 06:26 27.08.2019
2993 Clear 4 1024 54 0 2.05 57.754 05:42 27.08.2019
2994 Clear 4 1024 54 0 2.05 57.754 04:44 27.08.2019
2995 Clear 4 1024 54 0 2.05 57.754 03:39 27.08.2019
2996 Clear 6 1021 18 0 3.1 64.161 02:23 27.08.2019
2997 Clear 6 1021 18 0 3.1 64.161 01:40 27.08.2019
2998 Clear 6 1021 20 0 2.75 73.76 01:21 27.08.2019
2999 Clear 6 1021 20 0 2.75 73.76 00:43 27.08.2019
3000 Clear 10 1016 8 0 2.29 90.175 00:23 27.08.2019
3001 Clear 10 1016 8 0 2.29 90.175 23:39 26.08.2019
3002 Clear 10 1016 8 0 2.29 90.175 23:20 26.08.2019
3003 Clear 10 1016 8 0 2.29 90.175 22:40 26.08.2019
3004 Clear 10 1016 8 0 2.29 90.175 22:20 26.08.2019
3005 Clear 10 1016 8 0 2.33 88.795 21:59 26.08.2019
3006 Clear 10 1016 8 0 2.33 88.795 21:38 26.08.2019
3007 Clear 10 1017 8 0 2.55 85.477 21:20 26.08.2019
3008 Clear 10 1017 8 0 2.55 85.477 20:56 26.08.2019
3009 Clear 10 1017 8 0 2.55 85.477 20:38 26.08.2019
3010 Clear 14 1040 28 10000 5.1 60 20:19 26.08.2019
3011 Clear 14 1040 28 10000 5.1 60 19:43 26.08.2019
3012 Clear 14 1040 28 10000 5.1 60 19:20 26.08.2019
3013 Clear 15 1040 24 10000 4.1 60 18:59 26.08.2019
3014 Clear 15 1040 24 10000 4.1 60 18:38 26.08.2019
3015 Clear 15 1040 24 10000 4.1 60 18:38 26.08.2019
3016 Clear 15 1040 24 10000 4.1 60 18:19 26.08.2019
3017 Clear 15 1040 24 10000 4.1 60 18:19 26.08.2019
3018 Clear 11 1042 27 10000 2.6 60 17:44 26.08.2019
3019 Clear 11 1042 27 10000 2.6 60 17:20 26.08.2019
3020 Clear 9 1042 24 10000 2.6 210 16:58 26.08.2019
3021 Clear 9 1042 24 10000 2.6 210 16:40 26.08.2019
3022 Clear 9 1042 24 10000 2.6 210 16:40 26.08.2019
3023 Clear 9 1042 24 10000 2.6 210 16:19 26.08.2019
3024 Clear 5 1041 38 10000 4.1 210 15:59 26.08.2019
3025 Clear 5 1041 38 10000 4.1 210 15:41 26.08.2019
3026 Clear 5 1041 38 10000 4.1 210 15:20 26.08.2019
3027 Clear 3 1041 37 10000 1.89 223.668 14:44 26.08.2019
3028 Clear 3 1041 37 10000 1.89 223.668 14:23 26.08.2019
3029 Clear -1 1041 50 10000 1.89 223.668 13:57 26.08.2019
3030 Clear -1 1041 50 10000 1.89 223.668 13:38 26.08.2019
3031 Clear -1 1041 50 10000 1.89 223.668 13:38 26.08.2019
3032 Clear -1 1041 50 10000 1.78 222.901 13:19 26.08.2019
3033 Clear -1 1040 50 10000 1.5 240 12:43 26.08.2019
3034 Clear -1 1040 50 10000 1.5 240 12:23 26.08.2019
3035 Clear 0 1022 16 0 3.03 218.252 11:56 26.08.2019
3036 Clear 0 1022 16 0 3.03 218.252 11:36 26.08.2019
3037 Clear 0 1022 16 0 3.03 218.252 11:18 26.08.2019
3038 Clear 0 1022 16 0 3.03 218.252 10:42 26.08.2019
3039 Clear 0 1022 16 0 3.03 218.252 10:21 26.08.2019
3040 Clear 0 1022 16 0 3.03 218.252 09:57 26.08.2019
3041 Clear 0 1022 17 0 3.43 213.569 09:37 26.08.2019
3042 Clear 2 1022 18 0 4.14 227.379 09:19 26.08.2019
3043 Clear 2 1022 18 0 4.14 227.379 08:42 26.08.2019
3044 Clear 2 1022 18 0 4.14 227.379 08:22 26.08.2019
3045 Clear 2 1022 18 0 4.14 227.379 07:59 26.08.2019
3046 Clear 2 1022 18 0 4.14 227.379 07:40 26.08.2019
3047 Clear 2 1022 18 0 4.14 227.379 07:21 26.08.2019
3048 Clear 2 1022 18 0 4.14 227.379 06:41 26.08.2019
3049 Clear 4 1021 16 0 6.11 235.59 06:21 26.08.2019
3050 Clear 4 1021 16 0 6.11 235.59 05:49 26.08.2019
3051 Clear 4 1021 16 0 6.11 235.59 04:28 26.08.2019
3052 Clear 5 1018 15 0 4.27 238.817 02:53 26.08.2019
3053 Clear 5 1018 15 0 4.27 238.817 01:35 26.08.2019
3054 Clouds 6 1018 16 0 4.97 243.554 00:53 26.08.2019
3055 Clouds 6 1018 16 0 4.97 243.554 00:29 26.08.2019
3056 Clouds 10 1013 10 0 8.85 232.961 23:59 25.08.2019
3057 Clouds 10 1013 10 0 8.85 232.961 23:40 25.08.2019
3058 Clouds 10 1013 10 0 8.85 232.961 23:18 25.08.2019
3059 Clouds 10 1013 10 0 8.85 232.961 23:18 25.08.2019
3060 Clouds 10 1013 10 0 8.85 232.961 22:56 25.08.2019
3061 Clouds 10 1013 10 0 8.85 232.961 22:38 25.08.2019
3062 Clouds 10 1013 10 0 8.85 232.961 22:19 25.08.2019
3063 Clouds 10 1013 10 0 8.85 232.961 21:55 25.08.2019
3064 Clear 10 1013 10 0 6.92 240.67 21:37 25.08.2019
3065 Clear 11 1013 9 0 7.71 268.275 21:18 25.08.2019
3066 Clear 11 1013 9 0 7.71 268.275 20:40 25.08.2019
3067 Clear 11 1013 9 0 7.71 268.275 20:20 25.08.2019
3068 Clear 11 1013 9 0 7.71 268.275 19:56 25.08.2019
3069 Clear 11 1013 9 0 7.71 268.275 19:38 25.08.2019
3070 Clear 11 1013 9 0 7.71 268.275 19:18 25.08.2019
3071 Clear 11 1013 9 0 7.71 268.275 18:57 25.08.2019
3072 Clear 11 1013 9 0 7.71 268.275 18:39 25.08.2019
3073 Clear 9 1018 12 0 5.71 270.713 18:19 25.08.2019
3074 Clear 9 1018 12 0 5.71 270.713 17:42 25.08.2019
3075 Clear 9 1039 36 10000 2.6 210 17:24 25.08.2019
3076 Clear 9 1039 36 10000 2.6 210 16:45 25.08.2019
3077 Clear 9 1039 36 10000 2.6 210 16:25 25.08.2019
3078 Clear 17 1020 59 10000 5.71 270.713 15:59 25.08.2019
3079 Clear 17 1020 59 10000 5.71 270.713 15:41 25.08.2019
3080 Clouds 17 1020 59 10000 4.52 250.611 15:23 25.08.2019
3081 Clouds 3 1038 55 10000 2.6 210 14:42 25.08.2019
3082 Clouds 3 1038 55 10000 2.6 210 14:24 25.08.2019
3083 Clouds 0 1038 19 10000 4.52 250.611 13:56 25.08.2019
3084 Clouds 0 1038 19 10000 4.52 250.611 13:37 25.08.2019
3085 Clouds 0 1038 19 10000 3.92 253.021 13:18 25.08.2019
3086 Clouds 0 1038 19 10000 1.5 210 12:41 25.08.2019
3087 Clouds 0 1038 43 10000 1.5 210 12:23 25.08.2019
3088 Clouds 2 1019 43 0 1.44 282.386 11:57 25.08.2019
3089 Clouds 2 1019 43 0 1.44 282.386 11:38 25.08.2019
3090 Clouds 2 1019 43 0 1.44 282.386 11:20 25.08.2019
3091 Clouds 2 1019 43 0 1.44 282.386 10:56 25.08.2019
3092 Clouds 2 1019 43 0 1.44 282.386 10:37 25.08.2019
3093 Clouds 2 1019 43 0 1.44 282.386 10:19 25.08.2019
3094 Clouds 2 1019 43 0 1.44 282.386 09:43 25.08.2019
3095 Rain 3 1020 67 0 0.81 352.27 09:24 25.08.2019
3096 Rain 3 1020 67 0 0.81 352.27 08:47 25.08.2019
3097 Rain 3 1020 67 0 0.81 352.27 08:29 25.08.2019
3098 Rain 3 1020 67 0 0.81 352.27 07:54 25.08.2019
3099 Rain 3 1020 67 0 0.81 352.27 07:32 25.08.2019
3100 Rain 3 1020 67 0 0.81 352.27 07:32 25.08.2019
3101 Rain 3 1020 67 0 0.81 352.27 06:39 25.08.2019
3102 Rain 5 1019 62 0 1.49 27.133 05:27 25.08.2019
3103 Rain 5 1019 62 0 1.49 27.133 03:48 25.08.2019
3104 Rain 7 1017 43 0 1.9 3.796 02:44 25.08.2019
3105 Rain 7 1017 43 0 1.9 3.796 02:20 25.08.2019
3106 Rain 8 1017 46 0 1.72 52.389 00:56 25.08.2019
3107 Clouds 11 1012 19 0 2.6 255.798 00:24 25.08.2019
3108 Clouds 11 1012 19 0 2.6 255.798 23:59 24.08.2019
3109 Clouds 11 1012 19 0 2.6 255.798 23:40 24.08.2019
3110 Clouds 11 1012 19 0 2.6 255.798 23:22 24.08.2019
3111 Clouds 11 1012 19 0 2.6 255.798 22:54 24.08.2019
3112 Clouds 11 1012 19 0 2.6 255.798 22:36 24.08.2019
3113 Clouds 11 1012 19 0 2.6 255.798 22:18 24.08.2019
3114 Clouds 11 1012 19 0 2.6 255.798 21:42 24.08.2019
3115 Clouds 12 1012 15 0 3.19 246.504 21:24 24.08.2019
3116 Clouds 12 1012 15 0 3.19 246.504 21:24 24.08.2019
3117 Clouds 12 1012 15 0 3.19 246.504 20:59 24.08.2019
3118 Clouds 12 1012 15 0 3.19 246.504 20:40 24.08.2019
3119 Clouds 12 1012 15 0 3.19 246.504 20:20 24.08.2019
3120 Clouds 12 1012 15 0 3.19 246.504 19:59 24.08.2019
3121 Clouds 12 1012 15 0 3.19 246.504 19:40 24.08.2019
3122 Clouds 12 1012 15 0 3.19 246.504 19:22 24.08.2019
3123 Clouds 12 1012 15 0 3.19 246.504 18:56 24.08.2019
3124 Clouds 12 1012 15 0 3.19 246.504 18:36 24.08.2019
3125 Clear 10 1017 15 0 1.41 293.513 18:18 24.08.2019
3126 Clear 10 1017 15 0 1.41 293.513 17:42 24.08.2019
3127 Clear 10 1040 43 10000 2.6 220 17:23 24.08.2019
3128 Clear 10 1040 43 10000 2.6 220 16:42 24.08.2019
3129 Clear 10 1040 43 10000 2.6 220 16:19 24.08.2019
3130 Clear 7 1041 45 10000 4.1 220 15:55 24.08.2019
3131 Clear 7 1041 45 10000 4.1 220 15:37 24.08.2019
3132 Clear 7 1041 45 10000 4.1 220 15:19 24.08.2019
3133 Clear 3 1041 64 10000 2.6 210 14:42 24.08.2019
3134 Clear 3 1041 64 10000 2.6 210 14:20 24.08.2019
3135 Clear 1 1041 64 10000 2.6 200 13:55 24.08.2019
3136 Clear 1 1041 64 10000 2.6 200 13:37 24.08.2019
3137 Clear 1 1041 64 10000 2.6 200 13:18 24.08.2019
3138 Clear 1 1040 30 10000 4.1 240 12:42 24.08.2019
3139 Clear 1 1040 53 10000 4.1 240 12:24 24.08.2019
3140 Clear 2 1020 53 0 1.42 269.879 11:56 24.08.2019
3141 Clear 2 1020 53 0 1.42 269.879 11:38 24.08.2019
3142 Clear 2 1020 53 0 1.42 269.879 11:18 24.08.2019
3143 Clear 2 1020 53 0 1.42 269.879 10:43 24.08.2019
3144 Clear 2 1020 53 0 1.42 269.879 10:22 24.08.2019
3145 Clear 2 1020 53 0 1.42 269.879 09:44 24.08.2019
3146 Clear 3 1021 69 0 1.77 281.87 09:20 24.08.2019
3147 Clear 3 1021 69 0 1.77 281.87 08:56 24.08.2019
3148 Clear 3 1021 69 0 1.77 281.87 08:37 24.08.2019
3149 Clear 3 1021 69 0 1.77 281.87 08:18 24.08.2019
3150 Clear 3 1021 69 0 1.77 281.87 07:44 24.08.2019
3151 Clear 3 1021 69 0 1.77 281.87 07:24 24.08.2019
3152 Clear 4 1021 67 0 1.38 318.263 06:24 24.08.2019
3153 Clear 4 1021 67 0 1.38 318.263 05:40 24.08.2019
3154 Clear 4 1021 67 0 1.38 318.263 03:56 24.08.2019
3155 Clear 4 1021 67 0 1.38 318.263 03:35 24.08.2019
3156 Rain 5 1020 70 0 2.88 18.982 02:25 24.08.2019
3157 Rain 5 1020 70 0 2.88 18.982 02:25 24.08.2019
3158 Clouds 3 1020 86 0 2.58 73.154 01:30 24.08.2019
3159 Clouds 3 1020 86 0 2.58 73.154 00:52 24.08.2019
3160 Clouds 10 1016 32 0 3.15 54.782 00:25 24.08.2019
3161 Clouds 10 1016 32 0 3.15 54.782 23:57 23.08.2019
3162 Clouds 10 1016 32 0 3.15 54.782 23:37 23.08.2019
3163 Clouds 10 1016 32 0 3.15 54.782 23:18 23.08.2019
3164 Clouds 10 1016 32 0 3.15 54.782 22:41 23.08.2019
3165 Clouds 10 1016 32 0 3.15 54.782 22:23 23.08.2019
3166 Clouds 10 1016 33 0 3.27 49.53 21:39 23.08.2019
3167 Clear 11 1018 27 0 3.47 65.623 21:20 23.08.2019
3168 Clear 11 1018 27 0 3.47 65.623 20:56 23.08.2019
3169 Clear 11 1018 27 0 3.47 65.623 20:37 23.08.2019
3170 Clouds 13 1042 54 10000 2.6 60 20:19 23.08.2019
3171 Clouds 13 1042 54 10000 2.6 60 19:43 23.08.2019
3172 Clouds 13 1042 54 10000 2.6 60 19:18 23.08.2019
3173 Clouds 12 1043 58 10000 4.1 60 18:46 23.08.2019
3174 Clouds 12 1043 58 10000 4.1 60 18:28 23.08.2019
3175 Clouds 11 1044 57 10000 3.6 60 17:56 23.08.2019
3176 Clouds 11 1044 57 10000 3.6 60 17:38 23.08.2019
3177 Clouds 11 1044 57 10000 3.6 60 17:20 23.08.2019
3178 Clear 8 1023 43 0 2.4 45.371 16:47 23.08.2019
3179 Clouds 6 1044 70 8000 2.4 45.371 16:29 23.08.2019
3180 Clouds 6 1044 70 8000 2.4 45.371 15:56 23.08.2019
3181 Clouds 6 1044 70 8000 2.4 45.371 15:37 23.08.2019
3182 Smoke 5 1044 75 5000 1.5 80 15:19 23.08.2019
3183 Smoke 5 1044 75 5000 1.5 80 14:41 23.08.2019
3184 Smoke 5 1044 75 5000 1.5 80 14:21 23.08.2019
3185 Clouds 4 1043 69 5000 0.79 308.489 13:57 23.08.2019
3186 Clouds 4 1043 69 5000 0.79 308.489 13:39 23.08.2019
3187 Clouds 4 1043 69 5000 0.96 308.697 13:21 23.08.2019
3188 Clouds 3 1043 64 10000 0.96 308.697 12:57 23.08.2019
3189 Clouds 3 1043 64 10000 0.96 308.697 12:39 23.08.2019
3190 Clouds 3 1043 64 10000 1.37 28.855 12:20 23.08.2019
3191 Clear 1 1026 90 0 1.37 28.855 11:56 23.08.2019
3192 Clear 1 1026 90 0 1.37 28.855 11:37 23.08.2019
3193 Clear 1 1026 90 0 1.37 28.855 11:18 23.08.2019
3194 Clear 1 1026 90 0 1.37 28.855 10:43 23.08.2019
3195 Clear 1 1026 90 0 1.37 28.855 10:43 23.08.2019
3196 Clear 0 1026 93 0 0.88 336.157 10:22 23.08.2019
3197 Clear 0 1026 93 0 0.88 336.157 09:57 23.08.2019
3198 Clear 0 1026 93 0 0.88 336.157 09:39 23.08.2019
3199 Clouds 2 1027 76 0 1.93 22.177 09:20 23.08.2019
3200 Clouds 2 1027 76 0 1.93 22.177 08:43 23.08.2019
3201 Clouds 2 1027 76 0 1.93 22.177 08:19 23.08.2019
3202 Clouds 2 1027 76 0 1.93 22.177 07:43 23.08.2019
3203 Clouds 2 1027 76 0 1.93 22.177 07:24 23.08.2019
3204 Clouds 2 1027 76 0 1.93 22.177 07:24 23.08.2019
3205 Clouds 2 1027 76 0 1.93 22.177 07:24 23.08.2019
3206 Clouds 2 1027 76 0 1.93 22.177 06:58 23.08.2019
3207 Clouds 2 1027 76 0 1.93 22.177 06:39 23.08.2019
3208 Clouds 2 1026 78 0 2.67 33.738 06:20 23.08.2019
3209 Clouds 2 1026 78 0 2.67 33.738 05:43 23.08.2019
3210 Clouds 2 1026 78 0 2.67 33.738 05:22 23.08.2019
3211 Clouds 4 1024 77 0 4.64 43.245 03:23 23.08.2019
3212 Clouds 4 1024 77 0 4.64 43.245 02:24 23.08.2019
3213 Clouds 4 1024 77 0 4.64 43.245 01:52 23.08.2019
3214 Rain 4 1024 81 0 4.87 36 00:46 23.08.2019
3215 Rain 9 1017 42 0 7.27 53.824 00:22 23.08.2019
3216 Rain 9 1017 42 0 7.27 53.824 00:22 23.08.2019
3217 Rain 9 1017 42 0 7.27 53.824 23:50 22.08.2019
3218 Rain 9 1017 42 0 7.27 53.824 23:32 22.08.2019
3219 Rain 9 1017 42 0 7.27 53.824 22:58 22.08.2019
3220 Rain 9 1017 42 0 7.27 53.824 22:40 22.08.2019
3221 Rain 9 1017 42 0 7.27 53.824 22:22 22.08.2019
3222 Rain 9 1017 42 0 7.27 53.824 21:57 22.08.2019
3223 Rain 9 1017 42 0 6.92 53.296 21:39 22.08.2019
3224 Clear 13 1016 8 0 2.18 138.584 21:20 22.08.2019
3225 Clear 13 1016 8 0 2.18 138.584 20:57 22.08.2019
3226 Clear 13 1016 8 0 2.18 138.584 20:39 22.08.2019
3227 Clear 13 1016 8 0 2.18 138.584 20:19 22.08.2019
3228 Clear 13 1016 8 0 2.18 138.584 19:56 22.08.2019
3229 Clear 13 1016 8 0 2.18 138.584 19:55 22.08.2019
3230 Clear 13 1016 8 0 2.18 138.584 19:37 22.08.2019
3231 Clear 13 1016 8 0 2.18 138.584 19:19 22.08.2019
3232 Clear 13 1016 8 0 2.18 138.584 18:56 22.08.2019
3233 Clear 13 1016 8 0 2.18 138.584 18:37 22.08.2019
3234 Clear 11 1019 8 0 1.82 164.861 18:18 22.08.2019
3235 Clear 11 1019 8 0 1.82 164.861 17:42 22.08.2019
3236 Clear 11 1019 8 0 1.82 164.861 17:21 22.08.2019
3237 Clear 11 1019 8 0 1.82 164.861 17:21 22.08.2019
3238 Clear 11 1019 8 0 1.82 164.861 16:58 22.08.2019
3239 Clear 11 1019 8 0 1.82 164.861 16:39 22.08.2019
3240 Clear 11 1019 8 0 1.82 164.861 16:20 22.08.2019
3241 Clear 11 1019 8 0 1.82 164.861 15:57 22.08.2019
3242 Clear 11 1019 8 0 1.82 164.861 15:38 22.08.2019
3243 Clear 11 1019 8 0 1.82 164.861 15:38 22.08.2019
3244 Clear 6 1023 25 0 1.72 255.745 15:19 22.08.2019
3245 Clear 6 1023 25 0 1.72 255.745 15:19 22.08.2019
3246 Clear 6 1023 25 0 1.72 255.745 14:41 22.08.2019
3247 Clear 6 1023 25 0 1.72 255.745 14:22 22.08.2019
3248 Clear 6 1023 25 0 1.72 255.745 13:59 22.08.2019
3249 Clear 6 1023 25 0 1.72 255.745 13:41 22.08.2019
3250 Clear 6 1023 25 0 1.72 255.745 13:41 22.08.2019
3251 Clear 6 1022 23 0 1.75 259.101 13:21 22.08.2019
3252 Clear 6 1022 23 0 1.75 259.101 12:58 22.08.2019
3253 Clear 6 1022 23 0 1.75 259.101 12:39 22.08.2019
3254 Clear 2 1020 40 0 1.49 248.726 12:19 22.08.2019
3255 Clear 2 1020 40 0 1.49 248.726 11:42 22.08.2019
3256 Clear 2 1020 40 0 1.49 248.726 11:21 22.08.2019
3257 Clear 2 1020 40 0 1.49 248.726 10:59 22.08.2019
3258 Clear 2 1020 40 0 1.49 248.726 10:59 22.08.2019
3259 Clear 2 1020 40 0 1.49 248.726 10:41 22.08.2019
3260 Clear 2 1020 40 0 1.49 248.726 10:22 22.08.2019
3261 Clear 2 1021 41 0 1.41 249.039 09:58 22.08.2019
3262 Clear 2 1021 41 0 1.41 249.039 09:39 22.08.2019
3263 Clear 4 1021 72 0 0.9 276.65 09:21 22.08.2019
3264 Clear 4 1021 72 0 0.9 276.65 08:57 22.08.2019
3265 Clear 4 1021 72 0 0.9 276.65 08:38 22.08.2019
3266 Clear 4 1021 72 0 0.9 276.65 08:20 22.08.2019
3267 Clear 4 1021 72 0 0.9 276.65 07:41 22.08.2019
3268 Clear 4 1021 72 0 0.9 276.65 07:20 22.08.2019
3269 Clear 4 1021 72 0 0.9 276.65 06:55 22.08.2019
3270 Clear 6 1020 70 0 1.06 7.946 06:24 22.08.2019
3271 Clear 6 1020 70 0 1.06 7.946 05:58 22.08.2019
3272 Clear 6 1020 70 0 1.06 7.946 04:38 22.08.2019
3273 Clear 8 1019 50 0 1.97 36.852 02:51 22.08.2019
3274 Clear 8 1019 50 0 1.97 36.852 02:33 22.08.2019
3275 Rain 8 1019 55 0 1.87 54.872 01:25 22.08.2019
3276 Rain 8 1019 55 0 1.87 54.872 00:45 22.08.2019
3277 Rain 8 1019 55 0 1.87 54.872 00:27 22.08.2019
3278 Clear 13 1014 12 0 2.63 230.39 23:55 21.08.2019
3279 Clear 13 1014 12 0 2.63 230.39 23:37 21.08.2019
3280 Clear 13 1014 12 0 2.63 230.39 23:18 21.08.2019
3281 Clear 13 1014 12 0 2.63 230.39 22:55 21.08.2019
3282 Clear 13 1014 12 0 2.63 230.39 22:36 21.08.2019
3283 Clear 13 1014 12 0 2.63 230.39 22:18 21.08.2019
3284 Clear 13 1014 12 0 2.63 230.39 21:55 21.08.2019
3285 Clear 13 1014 12 0 3.54 232.826 21:36 21.08.2019
3286 Clear 13 1016 9 0 0.25 261.804 21:18 21.08.2019
3287 Clear 13 1016 9 0 0.25 261.804 20:42 21.08.2019
3288 Clear 13 1016 9 0 0.25 261.804 20:42 21.08.2019
3289 Clear 13 1016 9 0 0.25 261.804 20:23 21.08.2019
3290 Clear 13 1016 9 0 0.25 261.804 19:56 21.08.2019
3291 Clear 13 1016 9 0 0.25 261.804 19:38 21.08.2019
3292 Clear 13 1016 9 0 0.25 261.804 19:19 21.08.2019
3293 Clear 13 1016 9 0 0.25 261.804 18:43 21.08.2019
3294 Clear 10 1021 12 0 0.96 13.128 18:23 21.08.2019
3295 Clear 10 1021 12 0 0.96 13.128 17:56 21.08.2019
3296 Clear 10 1021 12 0 0.96 13.128 17:37 21.08.2019
3297 Clear 10 1021 12 0 0.96 13.128 17:19 21.08.2019
3298 Clear 10 1021 12 0 0.96 13.128 16:44 21.08.2019
3299 Clear 10 1021 12 0 0.96 13.128 16:24 21.08.2019
3300 Clear 10 1021 12 0 0.96 13.128 15:59 21.08.2019
3301 Clear 10 1021 12 0 0.96 13.128 15:41 21.08.2019
3302 Clear 10 1021 12 0 0.96 13.128 15:41 21.08.2019
3303 Clear 5 1024 33 0 1.54 275.463 15:22 21.08.2019
3304 Clear 5 1024 33 0 1.54 275.463 14:58 21.08.2019
3305 Clear 5 1024 33 0 1.54 275.463 14:39 21.08.2019
3306 Clear 5 1024 33 0 1.54 275.463 14:20 21.08.2019
3307 Clear 5 1024 33 0 1.54 275.463 13:56 21.08.2019
3308 Clear 5 1024 33 0 1.54 275.463 13:38 21.08.2019
3309 Clear 5 1024 35 0 1.49 277.772 13:18 21.08.2019
3310 Clear 5 1024 35 0 1.49 277.772 12:41 21.08.2019
3311 Clear 1 1022 65 0 1.54 264.812 12:23 21.08.2019
3312 Clear 1 1022 65 0 1.54 264.812 11:59 21.08.2019
3313 Clear 1 1022 65 0 1.54 264.812 11:41 21.08.2019
3314 Clear 1 1022 65 0 1.54 264.812 11:22 21.08.2019
3315 Clear 1 1022 65 0 1.54 264.812 10:57 21.08.2019
3316 Clear 1 1022 65 0 1.54 264.812 10:38 21.08.2019
3317 Clear 1 1022 65 0 1.54 264.812 10:19 21.08.2019
3318 Clear 1 1022 65 0 1.54 264.812 09:57 21.08.2019
3319 Clear 1 1022 65 0 1.54 264.812 09:37 21.08.2019
3320 Clear 1 1022 65 0 1.54 264.812 09:37 21.08.2019
3321 Clear 2 1022 73 0 1.08 329.337 09:18 21.08.2019
3322 Clear 2 1022 73 0 1.08 329.337 08:44 21.08.2019
3323 Clear 2 1022 73 0 1.08 329.337 08:44 21.08.2019
3324 Clear 2 1022 73 0 1.08 329.337 08:24 21.08.2019
3325 Clear 2 1022 73 0 1.08 329.337 07:43 21.08.2019
3326 Clear 2 1022 73 0 1.08 329.337 07:24 21.08.2019
3327 Clear 2 1022 73 0 1.08 329.337 06:50 21.08.2019
3328 Clear 2 1022 73 0 1.08 329.337 06:28 21.08.2019
3329 Clear 4 1021 65 0 0.97 359.941 05:47 21.08.2019
3330 Clear 4 1021 65 0 0.97 359.941 05:25 21.08.2019
3331 Clear 4 1021 65 0 0.97 359.941 03:56 21.08.2019
3332 Clear 7 1020 49 0 3.25 36.467 01:52 21.08.2019
3333 Clear 7 1020 48 0 3.3 42.986 01:23 21.08.2019
3334 Clear 7 1020 48 0 3.3 42.986 00:38 21.08.2019
3335 Clear 11 1014 16 0 5.06 37.767 00:18 21.08.2019
3336 Clear 11 1014 16 0 5.06 37.767 23:43 20.08.2019
3337 Clear 11 1014 16 0 5.06 37.767 23:19 20.08.2019
3338 Clear 11 1014 16 0 5.06 37.767 22:58 20.08.2019
3339 Clear 11 1014 16 0 5.06 37.767 22:39 20.08.2019
3340 Clear 11 1014 16 0 5.06 37.767 22:21 20.08.2019
3341 Clear 11 1014 16 0 5.06 37.767 21:57 20.08.2019
3342 Clear 11 1014 11 0 3.39 34.676 21:38 20.08.2019
3343 Clear 12 1015 6 0 2.11 50.055 21:19 20.08.2019
3344 Clear 12 1015 6 0 2.11 50.055 20:56 20.08.2019
3345 Clear 12 1015 6 0 2.11 50.055 20:36 20.08.2019
3346 Clear 15 1041 24 10000 2.11 50.055 20:18 20.08.2019
3347 Clear 15 1041 24 10000 2.11 50.055 19:39 20.08.2019
3348 Clear 15 1041 24 10000 2.11 50.055 19:20 20.08.2019
3349 Clear 14 1042 26 10000 4.1 60 18:55 20.08.2019
3350 Clear 12 1015 6 0 2.11 50.055 18:37 20.08.2019
3351 Clear 12 1042 32 10000 2.6 60 18:18 20.08.2019
3352 Clear 12 1042 32 10000 2.6 60 17:55 20.08.2019
3353 Clear 12 1042 32 10000 2.6 60 17:37 20.08.2019
3354 Clear 10 1043 37 10000 1.5 60 17:18 20.08.2019
3355 Clear 10 1043 37 10000 1.5 60 16:41 20.08.2019
3356 Clear 10 1043 37 10000 1.5 60 16:23 20.08.2019
3357 Clear 6 1042 56 10000 2.46 47.698 15:42 20.08.2019
3358 Clear 2 1042 55 9000 0.33 264.758 15:19 20.08.2019
3359 Clear 2 1042 55 9000 0.33 264.758 14:57 20.08.2019
3360 Clear 2 1042 55 9000 0.33 264.758 14:39 20.08.2019
3361 Clear 1 1042 50 10000 0.33 264.758 14:20 20.08.2019
3362 Clear 1 1042 50 10000 0.33 264.758 13:56 20.08.2019
3363 Clear 1 1042 50 10000 0.33 264.758 13:37 20.08.2019
3364 Clouds 0 1041 10 10000 1.5 210 13:19 20.08.2019
3365 Clouds 0 1041 10 10000 1.5 210 12:50 20.08.2019
3366 Clouds 0 1041 10 10000 1.5 210 12:25 20.08.2019
3367 Clouds 0 1041 10 10000 1.5 210 12:25 20.08.2019
3368 Clear 0 1020 15 0 1.23 226.85 11:56 20.08.2019
3369 Clear 0 1020 15 0 1.23 226.85 11:38 20.08.2019
3370 Clear 0 1020 15 0 1.23 226.85 11:18 20.08.2019
3371 Clear 0 1020 15 0 1.23 226.85 10:56 20.08.2019
3372 Clear 0 1020 15 0 1.23 226.85 10:37 20.08.2019
3373 Clear 0 1020 15 0 1.23 226.85 10:19 20.08.2019
3374 Clear 0 1020 15 0 1.23 226.85 09:43 20.08.2019
3375 Clear 1 1020 16 0 1.2 273.817 09:24 20.08.2019
3376 Clear 1 1020 16 0 1.2 273.817 08:43 20.08.2019
3377 Clear 1 1020 16 0 1.2 273.817 08:43 20.08.2019
3378 Clear 1 1020 16 0 1.2 273.817 08:25 20.08.2019
3379 Clear 1 1020 16 0 1.2 273.817 08:25 20.08.2019
3380 Clear 1 1020 16 0 1.2 273.817 07:59 20.08.2019
3381 Clear 1 1020 16 0 1.2 273.817 07:59 20.08.2019
3382 Clear 1 1020 16 0 1.2 273.817 07:41 20.08.2019
3383 Clear 1 1020 16 0 1.2 273.817 07:22 20.08.2019
3384 Clear 1 1020 16 0 1.2 273.817 06:59 20.08.2019
3385 Clear 3 1020 16 0 1.44 236.841 06:25 20.08.2019
3386 Clear 3 1020 16 0 1.44 236.841 05:49 20.08.2019
3387 Clear 3 1020 16 0 1.44 236.841 04:57 20.08.2019
3388 Clear 3 1020 16 0 1.44 236.841 03:52 20.08.2019
3389 Clear 6 1018 15 0 4.54 239.822 02:42 20.08.2019
3390 Clear 6 1018 15 0 4.54 239.822 01:38 20.08.2019
3391 Clear 6 1018 15 0 4.64 240.718 00:57 20.08.2019
3392 Clear 6 1018 15 0 4.64 240.718 00:39 20.08.2019
3393 Clear 11 1013 9 0 5.64 248.012 00:19 20.08.2019
3394 Clear 11 1013 9 0 5.64 248.012 23:40 19.08.2019
3395 Clear 11 1013 9 0 5.64 248.012 23:18 19.08.2019
3396 Clear 11 1013 9 0 5.64 248.012 22:54 19.08.2019
3397 Clear 11 1013 9 0 5.64 248.012 22:36 19.08.2019
3398 Clear 11 1013 9 0 5.64 248.012 22:18 19.08.2019
3399 Clear 11 1013 9 0 5.64 248.012 21:55 19.08.2019
3400 Clear 11 1013 9 0 5.69 248.105 21:36 19.08.2019
3401 Clear 12 1014 7 0 4.87 249.308 21:18 19.08.2019
3402 Clear 12 1014 7 0 4.87 249.308 20:39 19.08.2019
3403 Clear 12 1014 7 0 4.87 249.308 20:39 19.08.2019
3404 Clouds 15 1037 21 10000 2.6 60 20:20 19.08.2019
3405 Clouds 15 1037 21 10000 2.6 60 19:58 19.08.2019
3406 Clouds 15 1037 21 10000 2.6 60 19:39 19.08.2019
3407 Clouds 14 1039 22 10000 4.87 249.308 19:19 19.08.2019
3408 Clouds 14 1039 22 10000 4.87 249.308 18:46 19.08.2019
3409 Clouds 14 1039 22 10000 4.87 249.308 18:28 19.08.2019
3410 Clear 11 1040 23 10000 2.79 268.851 17:59 19.08.2019
3411 Clear 11 1040 23 10000 2.79 268.851 17:41 19.08.2019
3412 Clear 11 1040 23 10000 2.79 268.851 17:41 19.08.2019
3413 Clear 9 1041 31 10000 4.1 230 17:21 19.08.2019
3414 Clear 9 1041 31 10000 4.1 230 16:58 19.08.2019
3415 Clear 9 1041 31 10000 4.1 230 16:37 19.08.2019
3416 Clear 9 1041 31 10000 4.1 230 16:19 19.08.2019
3417 Clear 6 1040 45 10000 2.79 268.851 15:56 19.08.2019
3418 Clear 6 1040 45 10000 2.79 268.851 15:37 19.08.2019
3419 Clear 6 1040 45 10000 1.28 263.358 15:18 19.08.2019
3420 Clear 3 1039 55 10000 1.28 263.358 14:43 19.08.2019
3421 Clear 3 1039 55 10000 1.28 263.358 14:23 19.08.2019
3422 Clear 1 1039 55 10000 1.28 263.358 13:57 19.08.2019
3423 Clear 1 1039 55 10000 1.28 263.358 13:38 19.08.2019
3424 Clear 1 1039 55 10000 1.04 260.683 13:19 19.08.2019
3425 Clear 0 1038 32 10000 1.5 240 12:56 19.08.2019
3426 Clear 0 1038 32 10000 1.5 240 12:36 19.08.2019
3427 Clear 0 1038 60 10000 1.5 240 12:18 19.08.2019
3428 Clear 1 1020 60 0 0.98 341.528 11:39 19.08.2019
3429 Clear 1 1020 60 0 0.98 341.528 11:21 19.08.2019
3430 Clear 1 1020 60 0 0.98 341.528 10:58 19.08.2019
3431 Clear 1 1020 60 0 0.98 341.528 10:37 19.08.2019
3432 Clear 1 1020 60 0 0.98 341.528 10:18 19.08.2019
3433 Clear 1 1020 60 0 0.98 341.528 09:45 19.08.2019
3434 Clear 3 1021 65 0 1.56 333.056 09:24 19.08.2019
3435 Clear 3 1021 65 0 1.56 333.056 09:24 19.08.2019
3436 Clear 3 1021 65 0 1.56 333.056 08:57 19.08.2019
3437 Clear 3 1021 65 0 1.56 333.056 08:39 19.08.2019
3438 Clear 3 1021 65 0 1.56 333.056 08:20 19.08.2019
3439 Clear 3 1021 65 0 1.56 333.056 07:49 19.08.2019
3440 Clear 3 1021 65 0 1.56 333.056 07:31 19.08.2019
3441 Clear 3 1021 65 0 1.56 333.056 06:48 19.08.2019
3442 Clear 3 1021 65 0 1.56 333.056 06:27 19.08.2019
3443 Clear 4 1020 65 0 1.85 356.029 05:21 19.08.2019
3444 Clear 4 1020 65 0 1.85 356.029 04:27 19.08.2019
3445 Clear 4 1020 65 0 1.85 356.029 04:27 19.08.2019
3446 Clear 4 1020 65 0 1.85 356.029 04:27 19.08.2019
3447 Clouds 7 1017 48 0 1.35 62.694 03:23 19.08.2019
3448 Clouds 7 1017 48 0 1.35 62.694 02:29 19.08.2019
3449 Clouds 7 1017 48 0 1.35 62.694 01:35 19.08.2019
3450 Clouds 13 1034 47 10000 2.6 80 00:44 19.08.2019
3451 Clouds 13 1034 47 10000 2.6 80 00:23 19.08.2019
3452 Clouds 15 1033 38 10000 2.6 60 23:43 18.08.2019
3453 Clouds 15 1033 38 10000 2.6 60 23:22 18.08.2019
3454 Clouds 12 1012 12 0 5.96 262.174 22:57 18.08.2019
3455 Clouds 12 1012 12 0 5.96 262.174 22:38 18.08.2019
3456 Clouds 12 1012 12 0 5.96 262.174 22:20 18.08.2019
3457 Clouds 12 1012 12 0 5.96 262.174 21:56 18.08.2019
3458 Clouds 12 1012 12 0 5.96 262.174 21:37 18.08.2019
3459 Clouds 13 1012 9 0 6.17 258.548 21:19 18.08.2019
3460 Clouds 13 1012 9 0 6.17 258.548 20:44 18.08.2019
3461 Clouds 17 1036 9 10000 1.5 180 20:26 18.08.2019
3462 Clouds 17 1036 9 10000 1.5 180 19:56 18.08.2019
3463 Clouds 17 1036 9 10000 1.5 180 19:38 18.08.2019
3464 Clouds 17 1036 9 10000 1.5 180 19:19 18.08.2019
3465 Clouds 16 1037 9 10000 1.5 210 18:54 18.08.2019
3466 Clouds 16 1037 9 10000 1.5 210 18:36 18.08.2019
3467 Clear 16 1037 9 10000 1.5 210 18:18 18.08.2019
3468 Clear 14 1038 28 10000 1.5 210 17:42 18.08.2019
3469 Clear 14 1038 28 10000 1.5 210 17:19 18.08.2019
3470 Clear 10 1039 34 10000 1.5 210 16:58 18.08.2019
3471 Clear 10 1039 34 10000 1.5 210 16:38 18.08.2019
3472 Clear 10 1039 34 10000 1.5 210 16:20 18.08.2019
3473 Clear 7 1038 30 10000 2.6 220 15:58 18.08.2019
3474 Clear 7 1038 30 10000 2.6 220 15:38 18.08.2019
3475 Clear 7 1038 30 10000 2.6 220 15:20 18.08.2019
3476 Clear 7 1038 30 10000 2.6 220 15:20 18.08.2019
3477 Clear 4 1038 38 10000 2.6 230 14:56 18.08.2019
3478 Clear 4 1038 38 10000 2.6 230 14:37 18.08.2019
3479 Clear 4 1038 38 10000 2.6 230 14:18 18.08.2019
3480 Clear 2 1037 51 10000 1.5 220 13:43 18.08.2019
3481 Clear 2 1037 51 10000 1.5 220 13:24 18.08.2019
3482 Clear 1 1037 69 10000 2.6 240 12:59 18.08.2019
3483 Clear 1 1037 69 10000 2.6 240 12:39 18.08.2019
3484 Clear 1 1037 69 10000 2.6 240 12:21 18.08.2019
3485 Clear 2 1017 18 0 1.44 214.121 11:44 18.08.2019
3486 Clear 2 1017 18 0 1.44 214.121 11:23 18.08.2019
3487 Clear 2 1017 18 0 1.44 214.121 10:59 18.08.2019
3488 Clear 2 1017 18 0 1.44 214.121 10:40 18.08.2019
3489 Clear 2 1017 18 0 1.44 214.121 10:40 18.08.2019
3490 Clear 2 1017 18 0 1.44 214.121 10:19 18.08.2019
3491 Clear 2 1017 18 0 1.44 214.121 09:45 18.08.2019
3492 Clear 4 1017 14 0 2.25 267.452 09:21 18.08.2019
3493 Clear 4 1017 14 0 2.25 267.452 08:54 18.08.2019
3494 Clear 4 1017 14 0 2.25 267.452 08:36 18.08.2019
3495 Clear 4 1017 14 0 2.25 267.452 08:18 18.08.2019
3496 Clear 4 1017 14 0 2.25 267.452 07:41 18.08.2019
3497 Clear 4 1017 14 0 2.25 267.452 07:23 18.08.2019
3498 Clear 6 1016 16 0 2.01 262.402 05:46 18.08.2019
3499 Clear 6 1016 16 0 2.01 262.402 04:51 18.08.2019
3500 Clouds 8 1014 21 0 1.58 221.315 03:23 18.08.2019
3501 Clouds 8 1014 21 0 1.58 221.315 02:46 18.08.2019
3502 Clouds 8 1014 21 0 1.58 221.315 02:19 18.08.2019
3503 Clouds 8 1014 17 0 3.62 247.13 01:30 18.08.2019
3504 Clouds 8 1014 17 0 3.62 247.13 00:56 18.08.2019
3505 Clouds 8 1014 17 0 3.62 247.13 00:37 18.08.2019
3506 Clouds 13 1009 10 0 5.42 253.403 00:18 18.08.2019
3507 Clouds 13 1009 10 0 5.42 253.403 23:56 17.08.2019
3508 Clouds 13 1009 10 0 5.42 253.403 23:36 17.08.2019
3509 Clouds 13 1009 10 0 5.42 253.403 23:18 17.08.2019
3510 Clouds 13 1009 10 0 5.42 253.403 23:18 17.08.2019
3511 Clouds 13 1009 10 0 5.42 253.403 22:42 17.08.2019
3512 Clouds 13 1009 10 0 5.42 253.403 22:23 17.08.2019
3513 Clouds 13 1009 10 0 5.42 253.403 21:59 17.08.2019
3514 Clouds 13 1009 10 0 5.42 253.403 21:40 17.08.2019
3515 Clouds 15 1010 7 0 2.37 272.559 21:22 17.08.2019
3516 Clouds 15 1010 7 0 2.37 272.559 20:40 17.08.2019
3517 Clouds 15 1010 7 0 2.37 272.559 20:21 17.08.2019
3518 Clouds 15 1010 7 0 2.37 272.559 19:59 17.08.2019
3519 Clouds 15 1010 7 0 2.37 272.559 19:39 17.08.2019
3520 Clouds 15 1010 7 0 2.37 272.559 19:20 17.08.2019
3521 Clouds 15 1010 7 0 2.37 272.559 18:41 17.08.2019
3522 Clear 12 1015 7 0 0.54 260.851 18:20 17.08.2019
3523 Clear 12 1015 7 0 0.54 260.851 17:59 17.08.2019
3524 Clear 12 1015 7 0 0.54 260.851 17:41 17.08.2019
3525 Clear 12 1038 27 10000 5.1 240 17:21 17.08.2019
3526 Clear 12 1038 27 10000 5.1 240 16:55 17.08.2019
3527 Clear 12 1038 27 10000 5.1 240 16:36 17.08.2019
3528 Clear 12 1038 27 10000 5.1 240 16:18 17.08.2019
3529 Clear 7 1039 45 10000 4.1 240 15:41 17.08.2019
3530 Clear 7 1039 45 10000 4.1 240 15:21 17.08.2019
3531 Clear 5 1037 56 10000 3.6 240 14:57 17.08.2019
3532 Clear 5 1037 56 10000 3.6 240 14:36 17.08.2019
3533 Clear 5 1037 56 10000 3.6 240 14:18 17.08.2019
3534 Clear 3 1037 55 10000 3.6 240 13:42 17.08.2019
3535 Clear 3 1037 55 10000 3.6 240 13:19 17.08.2019
3536 Clear 2 1037 55 10000 2.6 240 12:42 17.08.2019
3537 Clear 2 1037 55 10000 2.6 240 12:20 17.08.2019
3538 Clear 2 1016 11 0 1.82 246.287 11:58 17.08.2019
3539 Clear 2 1016 11 0 1.82 246.287 11:38 17.08.2019
3540 Clear 2 1016 11 0 1.82 246.287 11:19 17.08.2019
3541 Clear 2 1016 11 0 1.82 246.287 10:40 17.08.2019
3542 Clear 2 1016 11 0 1.82 246.287 10:21 17.08.2019
3543 Clear 2 1016 11 0 1.82 246.287 09:55 17.08.2019
3544 Clear 2 1016 11 0 1.82 246.287 09:36 17.08.2019
3545 Clear 4 1016 14 0 1.59 256.778 09:18 17.08.2019
3546 Clear 4 1016 14 0 1.59 256.778 08:41 17.08.2019
3547 Clear 4 1016 14 0 1.59 256.778 08:20 17.08.2019
3548 Clear 4 1016 14 0 1.59 256.778 07:42 17.08.2019
3549 Clear 4 1016 14 0 1.59 256.778 07:19 17.08.2019
3550 Clear 6 1017 18 0 2.24 249.98 05:59 17.08.2019
3551 Clear 6 1017 18 0 2.24 249.98 04:32 17.08.2019
3552 Clear 6 1017 18 0 2.24 249.98 04:32 17.08.2019
3553 Clear 6 1017 18 0 2.24 249.98 03:51 17.08.2019
3554 Clear 9 1015 16 0 3.84 230.618 02:36 17.08.2019
3555 Clear 9 1015 16 0 3.84 230.618 02:36 17.08.2019
3556 Clear 9 1015 16 0 3.84 230.618 01:38 17.08.2019
3557 Clear 9 1015 17 0 3.87 238.831 01:19 17.08.2019
3558 Clear 9 1015 17 0 3.87 238.831 00:45 17.08.2019
3559 Clear 14 1011 10 0 3.98 233.372 00:18 17.08.2019
3560 Clear 14 1011 10 0 3.98 233.372 23:39 16.08.2019
3561 Clear 14 1011 10 0 3.98 233.372 23:21 16.08.2019
3562 Clear 14 1011 10 0 3.98 233.372 22:42 16.08.2019
3563 Clear 14 1011 10 0 3.98 233.372 22:20 16.08.2019
3564 Clear 14 1011 10 0 3.98 233.372 21:56 16.08.2019
3565 Clear 13 1011 10 0 4.56 245.859 21:38 16.08.2019
3566 Clouds 14 1013 8 0 2.88 232.334 21:18 16.08.2019
3567 Clouds 14 1013 8 0 2.88 232.334 20:42 16.08.2019
3568 Clouds 18 1039 27 10000 2.88 232.334 20:20 16.08.2019
3569 Clouds 18 1039 27 10000 2.88 232.334 19:56 16.08.2019
3570 Clouds 18 1039 27 10000 2.88 232.334 19:38 16.08.2019
3571 Clouds 18 1039 27 10000 2.88 232.334 19:19 16.08.2019
3572 Clouds 16 1040 29 10000 2.6 240 18:41 16.08.2019
3573 Clear 16 1040 29 10000 2.6 240 18:22 16.08.2019
3574 Clear 15 1041 28 10000 0.78 269.705 17:48 16.08.2019
3575 Clear 15 1041 28 10000 0.78 269.705 17:28 16.08.2019
3576 Clear 11 1041 40 10000 2.1 210 16:58 16.08.2019
3577 Clear 11 1041 40 10000 2.1 210 16:39 16.08.2019
3578 Clear 11 1041 40 10000 2.1 210 16:18 16.08.2019
3579 Clear 8 1041 42 10000 2.6 210 15:56 16.08.2019
3580 Clear 8 1041 42 10000 2.6 210 15:56 16.08.2019
3581 Clear 8 1041 42 10000 2.6 210 15:37 16.08.2019
3582 Clear 8 1041 42 10000 2.6 210 15:19 16.08.2019
3583 Clear 5 1041 52 10000 1.5 210 14:56 16.08.2019
3584 Clear 5 1041 52 10000 1.5 210 14:37 16.08.2019
3585 Clear 5 1041 52 10000 1.5 210 14:18 16.08.2019
3586 Clear 1 1041 69 10000 1.5 200 13:40 16.08.2019
3587 Clear 1 1041 69 10000 1.5 200 13:21 16.08.2019
3588 Clear 1 1040 80 10000 1.5 240 12:41 16.08.2019
3589 Clear 1 1040 80 10000 1.5 240 12:41 16.08.2019
3590 Clear 1 1040 80 10000 1.5 240 12:22 16.08.2019
3591 Clear 3 1019 34 0 1.85 258.301 11:58 16.08.2019
3592 Clear 3 1019 34 0 1.85 258.301 11:39 16.08.2019
3593 Clear 3 1019 34 0 1.85 258.301 11:21 16.08.2019
3594 Clear 3 1019 34 0 1.85 258.301 10:43 16.08.2019
3595 Clear 3 1019 34 0 1.85 258.301 10:21 16.08.2019
3596 Clear 3 1019 34 0 1.85 258.301 09:39 16.08.2019
3597 Clear 4 1019 55 0 1.4 269.098 09:20 16.08.2019
3598 Clear 4 1019 55 0 1.4 269.098 08:59 16.08.2019
3599 Clear 4 1019 55 0 1.4 269.098 08:39 16.08.2019
3600 Clear 4 1019 55 0 1.4 269.098 08:20 16.08.2019
3601 Clear 4 1019 55 0 1.4 269.098 07:49 16.08.2019
3602 Clear 4 1019 55 0 1.4 269.098 07:28 16.08.2019
3603 Clear 4 1019 55 0 1.4 269.098 06:55 16.08.2019
3604 Clear 5 1020 54 0 0.56 47.967 06:19 16.08.2019
3605 Clear 5 1020 54 0 0.56 47.967 05:34 16.08.2019
3606 Clear 7 1019 51 0 1.37 53.138 03:20 16.08.2019
3607 Clear 7 1019 51 0 1.37 53.138 01:54 16.08.2019
3608 Clear 8 1019 45 0 0.63 78.317 01:27 16.08.2019
3609 Clear 8 1019 45 0 0.63 78.317 00:55 16.08.2019
3610 Clear 8 1019 45 0 0.63 78.317 00:36 16.08.2019
3611 Clear 13 1014 12 0 4.26 213.462 00:18 16.08.2019
3612 Clear 13 1014 12 0 4.26 213.462 23:42 15.08.2019
3613 Clear 13 1014 12 0 4.26 213.462 23:19 15.08.2019
3614 Clear 13 1014 12 0 4.26 213.462 22:55 15.08.2019
3615 Clear 13 1014 12 0 4.26 213.462 22:36 15.08.2019
3616 Clear 13 1014 12 0 4.26 213.462 22:18 15.08.2019
3617 Clear 13 1014 12 0 4.5 214.417 21:40 15.08.2019
3618 Clear 13 1015 11 0 3.21 237.596 21:20 15.08.2019
3619 Clear 13 1015 11 0 3.21 237.596 20:59 15.08.2019
3620 Clear 13 1015 11 0 3.21 237.596 20:41 15.08.2019
3621 Clear 13 1015 11 0 3.21 237.596 20:21 15.08.2019
3622 Clear 13 1015 11 0 3.21 237.596 19:56 15.08.2019
3623 Clear 13 1015 11 0 3.21 237.596 19:38 15.08.2019
3624 Clear 13 1015 11 0 3.21 237.596 19:19 15.08.2019
3625 Clear 13 1015 11 0 3.21 237.596 18:45 15.08.2019
3626 Clear 11 1019 13 0 1.57 282.937 18:22 15.08.2019
3627 Clear 11 1019 13 0 1.57 282.937 17:56 15.08.2019
3628 Clear 11 1019 13 0 1.57 282.937 17:37 15.08.2019
3629 Clear 11 1019 13 0 1.57 282.937 17:19 15.08.2019
3630 Clear 11 1019 13 0 1.57 282.937 16:48 15.08.2019
3631 Clear 11 1019 13 0 1.57 282.937 16:27 15.08.2019
3632 Clear 11 1019 13 0 1.57 282.937 15:59 15.08.2019
3633 Clear 11 1019 13 0 1.57 282.937 15:38 15.08.2019
3634 Clear 6 1022 22 0 1.61 236.527 15:19 15.08.2019
3635 Clear 6 1022 22 0 1.61 236.527 14:42 15.08.2019
3636 Clear 6 1022 22 0 1.61 236.527 14:23 15.08.2019
3637 Clear 6 1022 22 0 1.61 236.527 13:58 15.08.2019
3638 Clear 6 1022 22 0 1.61 236.527 13:40 15.08.2019
3639 Clear 6 1022 23 0 1.87 248.546 13:21 15.08.2019
3640 Clear 6 1022 23 0 1.87 248.546 12:57 15.08.2019
3641 Clear 6 1022 23 0 1.87 248.546 12:39 15.08.2019
3642 Clear 3 1020 29 0 2.3 244.024 12:19 15.08.2019
3643 Clear 3 1020 29 0 2.3 244.024 11:57 15.08.2019
3644 Clear 3 1020 29 0 2.3 244.024 11:37 15.08.2019
3645 Clear 3 1020 29 0 2.3 244.024 11:18 15.08.2019
3646 Clear 3 1020 29 0 2.3 244.024 10:57 15.08.2019
3647 Clear 3 1020 29 0 2.3 244.024 10:36 15.08.2019
3648 Clear 3 1020 29 0 2.3 244.024 10:18 15.08.2019
3649 Clear 3 1020 29 0 2.3 244.024 10:18 15.08.2019
3650 Clear 3 1020 29 0 2.3 244.024 09:41 15.08.2019
3651 Clear 4 1019 53 0 1.41 270.488 09:22 15.08.2019
3652 Clear 4 1019 53 0 1.41 270.488 08:39 15.08.2019
3653 Clear 4 1019 53 0 1.41 270.488 08:20 15.08.2019
3654 Clear 4 1019 53 0 1.41 270.488 07:56 15.08.2019
3655 Clear 4 1019 53 0 1.41 270.488 07:37 15.08.2019
3656 Clear 4 1019 53 0 1.41 270.488 07:18 15.08.2019
3657 Clear 4 1019 53 0 1.41 270.488 06:43 15.08.2019
3658 Clear 5 1020 70 0 0.94 300.252 06:22 15.08.2019
3659 Clear 5 1020 70 0 0.94 300.252 05:29 15.08.2019
3660 Clear 5 1020 70 0 0.94 300.252 04:56 15.08.2019
3661 Clear 5 1020 70 0 0.94 300.252 03:51 15.08.2019
3662 Clouds 7 1019 59 0 1.91 25.091 02:53 15.08.2019
3663 Clouds 7 1019 59 0 1.91 25.091 02:25 15.08.2019
3664 Clouds 7 1019 59 0 1.91 25.091 01:39 15.08.2019
3665 Clouds 7 1019 60 0 1.78 30.462 00:55 15.08.2019
3666 Clouds 7 1019 60 0 1.78 30.462 00:36 15.08.2019
3667 Clouds 14 1037 26 10000 5.1 80 00:18 15.08.2019
3668 Clouds 14 1037 26 10000 5.1 80 23:54 14.08.2019
3669 Clouds 14 1037 26 10000 5.1 80 23:36 14.08.2019
3670 Clouds 14 1037 26 10000 5.1 80 23:18 14.08.2019
3671 Clouds 12 1015 23 0 2.51 231.512 22:40 14.08.2019
3672 Clouds 12 1015 23 0 2.51 231.512 22:22 14.08.2019
3673 Clouds 12 1015 23 0 2.51 231.512 21:57 14.08.2019
3674 Clouds 12 1015 23 0 2.51 231.512 21:38 14.08.2019
3675 Clear 13 1016 19 0 0.93 78.083 21:20 14.08.2019
3676 Clear 13 1016 19 0 0.93 78.083 20:56 14.08.2019
3677 Clear 13 1016 19 0 0.93 78.083 20:37 14.08.2019
3678 Clouds 16 1041 31 10000 3.6 60 20:18 14.08.2019
3679 Clouds 16 1041 31 10000 3.6 60 19:40 14.08.2019
3680 Clear 15 1042 33 10000 0.93 78.083 19:22 14.08.2019
3681 Clear 15 1042 33 10000 0.93 78.083 18:59 14.08.2019
3682 Clear 15 1042 33 10000 0.93 78.083 18:39 14.08.2019
3683 Clear 15 1042 33 10000 2.06 32.508 18:21 14.08.2019
3684 Clear 13 1042 43 10000 2.06 32.508 17:59 14.08.2019
3685 Clear 13 1042 43 10000 2.06 32.508 17:39 14.08.2019
3686 Clear 13 1042 43 10000 2.06 32.508 17:21 14.08.2019
3687 Clear 9 1043 61 10000 1.5 80 16:56 14.08.2019
3688 Clear 9 1043 61 10000 1.5 80 16:38 14.08.2019
3689 Clear 9 1043 61 10000 1.5 80 16:19 14.08.2019
3690 Clear 9 1043 61 10000 1.5 80 16:19 14.08.2019
3691 Clear 5 1042 65 10000 2.6 220 15:43 14.08.2019
3692 Clear 5 1042 65 10000 2.6 220 15:18 14.08.2019
3693 Clear 3 1042 74 10000 2.6 220 14:55 14.08.2019
3694 -273 0 0 0 0 0 14:55 14.08.2019
3695 Clear 3 1042 74 10000 2.6 220 14:36 14.08.2019
3696 Clear 3 1042 74 10000 2.6 220 14:36 14.08.2019
3697 Clear 3 1042 74 10000 2.6 220 14:18 14.08.2019
3698 Clear 1 1042 80 10000 1.07 291.562 13:43 14.08.2019
3699 Clear 1 1042 80 10000 1.25 284.716 13:24 14.08.2019
3700 Clouds 1 1041 80 10000 1.5 240 12:57 14.08.2019
3701 Clouds 1 1041 80 10000 1.5 240 12:39 14.08.2019
3702 Clouds 1 1041 80 10000 1.5 240 12:39 14.08.2019
3703 Clouds 1 1041 80 10000 1.5 240 12:21 14.08.2019
3704 Clear 1 1023 67 0 1.23 272.417 11:56 14.08.2019
3705 Clear 1 1023 67 0 1.23 272.417 11:38 14.08.2019
3706 Clear 1 1023 67 0 1.23 272.417 11:38 14.08.2019
3707 Clear 1 1023 67 0 1.23 272.417 11:19 14.08.2019
3708 Clear 1 1023 67 0 1.23 272.417 10:43 14.08.2019
3709 Clear 1 1023 67 0 1.23 272.417 10:24 14.08.2019
3710 Clear 1 1023 67 0 1.23 272.417 09:57 14.08.2019
3711 Clear 1 1023 67 0 1.23 272.417 09:38 14.08.2019
3712 Clear 3 1023 91 0 1.83 306.076 09:19 14.08.2019
3713 Clear 3 1023 91 0 1.83 306.076 08:40 14.08.2019
3714 Clear 3 1023 91 0 1.83 306.076 08:21 14.08.2019
3715 Clear 3 1023 91 0 1.83 306.076 07:51 14.08.2019
3716 Clear 3 1023 91 0 1.83 306.076 07:32 14.08.2019
3717 Clear 3 1023 91 0 1.83 306.076 06:46 14.08.2019
3718 Clear 3 1023 88 0 1.69 333.057 05:54 14.08.2019
3719 Clear 3 1023 88 0 1.69 333.057 05:25 14.08.2019
3720 Clear 3 1023 88 0 1.69 333.057 03:38 14.08.2019
3721 Clear 5 1021 76 0 2.24 31.764 02:33 14.08.2019
3722 Clear 5 1021 76 0 2.24 31.764 01:48 14.08.2019
3723 Clear 6 1021 70 0 1.91 26.296 01:18 14.08.2019
3724 Rain 11 1017 26 0 3.74 259.044 23:51 13.08.2019
3725 Rain 11 1017 26 0 3.74 259.044 23:27 13.08.2019
3726 Rain 11 1017 26 0 3.74 259.044 23:00 13.08.2019
3727 Rain 11 1017 26 0 3.74 259.044 22:40 13.08.2019
3728 Rain 11 1017 26 0 3.74 259.044 22:40 13.08.2019
3729 Rain 11 1017 26 0 3.74 259.044 22:21 13.08.2019
3730 Rain 11 1017 26 0 3.74 259.044 21:58 13.08.2019
3731 Rain 11 1017 26 0 3.74 259.044 21:39 13.08.2019
3732 Clear 13 1018 20 0 3.19 313.781 21:19 13.08.2019
3733 Clear 13 1018 20 0 3.19 313.781 20:57 13.08.2019
3734 Clear 13 1018 20 0 3.19 313.781 20:37 13.08.2019
3735 Clouds 12 1041 58 10000 3.19 313.781 20:18 13.08.2019
3736 Clouds 12 1041 58 10000 3.19 313.781 19:43 13.08.2019
3737 Clouds 12 1041 58 10000 3.19 313.781 19:22 13.08.2019
3738 Clouds 11 1042 57 10000 1.5 80 18:59 13.08.2019
3739 Clouds 11 1042 57 10000 1.5 80 18:41 13.08.2019
3740 Clouds 11 1042 57 10000 1.5 80 18:20 13.08.2019
3741 Clouds 8 1043 61 10000 2.64 13.273 17:43 13.08.2019
3742 Clouds 8 1043 61 10000 2.64 13.273 17:22 13.08.2019
3743 Clouds 7 1043 56 10000 2.64 13.273 16:58 13.08.2019
3744 Clouds 7 1043 56 10000 2.64 13.273 16:40 13.08.2019
3745 Clouds 7 1043 56 10000 2.64 13.273 16:21 13.08.2019
3746 Clear 7 1023 52 0 2.64 13.273 15:59 13.08.2019
3747 Clear 7 1023 52 0 2.64 13.273 15:38 13.08.2019
3748 Clear 7 1023 52 0 2.64 13.273 15:38 13.08.2019
3749 Clear 2 1025 83 0 1.54 338.89 15:19 13.08.2019
3750 Clear 2 1025 83 0 1.54 338.89 14:42 13.08.2019
3751 Clear 2 1025 83 0 1.54 338.89 14:20 13.08.2019
3752 Clear 2 1025 83 0 1.54 338.89 13:58 13.08.2019
3753 Clear 2 1025 83 0 1.54 338.89 13:39 13.08.2019
3754 Clouds 2 1025 89 0 1.8 330.825 13:18 13.08.2019
3755 Clouds 2 1025 89 0 1.8 330.825 12:56 13.08.2019
3756 Clouds 2 1025 89 0 1.8 330.825 12:38 13.08.2019
3757 Clear 1 1022 95 0 1.54 333.084 12:18 13.08.2019
3758 Clear 1 1022 95 0 1.54 333.084 11:42 13.08.2019
3759 Clear 1 1022 95 0 1.54 333.084 11:22 13.08.2019
3760 Clear 1 1022 95 0 1.54 333.084 10:57 13.08.2019
3761 Clear 1 1022 95 0 1.54 333.084 10:38 13.08.2019
3762 Clear 1 1022 95 0 1.54 333.084 10:19 13.08.2019
3763 Clear 1 1022 95 0 1.54 333.084 09:46 13.08.2019
3764 Clear 2 1022 93 0 1.34 359.233 09:25 13.08.2019
3765 Clear 2 1022 93 0 1.34 359.233 08:57 13.08.2019
3766 Clear 2 1022 93 0 1.34 359.233 08:39 13.08.2019
3767 Clear 2 1022 93 0 1.34 359.233 08:20 13.08.2019
3768 Clear 2 1022 93 0 1.34 359.233 07:46 13.08.2019
3769 Clear 2 1022 93 0 1.34 359.233 07:25 13.08.2019
3770 Clear 2 1022 93 0 1.34 359.233 06:44 13.08.2019
3771 Clear 4 1022 80 0 1.58 25.107 05:58 13.08.2019
3772 Clear 4 1022 80 0 1.58 25.107 05:20 13.08.2019
3773 Clouds 6 1020 56 0 2.5 56.392 02:22 13.08.2019
3774 Clouds 6 1020 56 0 2.5 56.392 01:41 13.08.2019
3775 Rain 6 1019 64 0 1.85 37.402 00:52 13.08.2019
3776 Clear 12 1014 18 0 3.87 344.307 00:22 13.08.2019
3777 Clear 12 1014 18 0 3.87 344.307 23:44 12.08.2019
3778 Clear 12 1014 18 0 3.87 344.307 23:21 12.08.2019
3779 Clear 12 1014 18 0 3.87 344.307 22:56 12.08.2019
3780 Clear 12 1014 18 0 3.87 344.307 22:38 12.08.2019
3781 Clear 12 1014 18 0 3.87 344.307 22:18 12.08.2019
3782 Clear 12 1014 18 0 3.87 344.307 21:54 12.08.2019
3783 Clear 12 1014 18 0 3.87 344.307 21:36 12.08.2019
3784 Clouds 12 1015 17 0 3.68 348.369 21:18 12.08.2019
3785 Clouds 12 1015 17 0 3.68 348.369 20:41 12.08.2019
3786 Clouds 15 1040 33 10000 3.68 348.369 20:21 12.08.2019
3787 Clouds 15 1040 33 10000 3.68 348.369 19:58 12.08.2019
3788 Clouds 15 1040 33 10000 3.68 348.369 19:39 12.08.2019
3789 Clouds 15 1040 33 10000 3.68 348.369 19:21 12.08.2019
3790 Clouds 12 1041 37 10000 2.6 300 18:59 12.08.2019
3791 Clouds 12 1041 37 10000 2.6 300 18:39 12.08.2019
3792 Clear 12 1041 37 10000 2.6 300 18:21 12.08.2019
3793 Clouds 11 1042 40 10000 2.6 60 17:56 12.08.2019
3794 Clouds 11 1042 40 10000 2.6 60 17:38 12.08.2019
3795 Clouds 11 1042 40 10000 2.6 60 17:20 12.08.2019
3796 Clouds 8 1042 39 10000 1.5 240 16:55 12.08.2019
3797 Clouds 8 1042 39 10000 1.5 240 16:36 12.08.2019
3798 -273 0 0 0 0 0 16:18 12.08.2019
3799 -273 0 0 0 0 0 15:42 12.08.2019
3800 Clear 6 1042 38 10000 1.5 210 15:41 12.08.2019
3801 Clear 6 1042 38 10000 1.5 210 15:21 12.08.2019
3802 Clear 2 1041 47 10000 1.5 210 14:56 12.08.2019
3803 Clear 2 1041 47 10000 1.5 210 14:56 12.08.2019
3804 Clear 2 1041 47 10000 1.5 210 14:38 12.08.2019
3805 -273 0 0 0 0 0 14:38 12.08.2019
3806 Clear 2 1041 47 10000 1.5 210 14:18 12.08.2019
3807 Clear 0 1040 37 10000 2.6 210 13:43 12.08.2019
3808 Clear 0 1040 38 10000 2.6 210 13:24 12.08.2019
3809 Clear 0 1039 38 10000 1.5 240 12:58 12.08.2019
3810 Clear 0 1039 38 10000 1.5 240 12:39 12.08.2019
3811 Clear 0 1039 47 10000 1.5 240 12:18 12.08.2019
3812 -273 0 0 0 0 0 11:41 12.08.2019
3813 Clear 1 1020 47 0 2.97 248.746 11:41 12.08.2019
3814 Clear 1 1020 47 0 2.97 248.746 11:23 12.08.2019
3815 Clear 1 1020 47 0 2.97 248.746 10:43 12.08.2019
3816 Clear 1 1020 47 0 2.97 248.746 10:23 12.08.2019
3817 Clear 1 1020 47 0 2.97 248.746 10:23 12.08.2019
3818 Clear 1 1020 47 0 2.97 248.746 09:56 12.08.2019
3819 Clear 1 1020 47 0 2.97 248.746 09:38 12.08.2019
3820 Clear 1 1020 47 0 2.97 248.746 09:38 12.08.2019
3821 Clear 2 1019 46 0 3.36 254.356 09:19 12.08.2019
3822 Clear 2 1019 46 0 3.36 254.356 09:19 12.08.2019
3823 Clear 2 1019 46 0 3.36 254.356 08:58 12.08.2019
3824 Clear 2 1019 46 0 3.36 254.356 08:38 12.08.2019
3825 Clear 2 1019 46 0 3.36 254.356 08:19 12.08.2019
3826 Clear 2 1019 46 0 3.36 254.356 07:52 12.08.2019
3827 Clear 2 1019 46 0 3.36 254.356 07:27 12.08.2019
3828 Clear 2 1019 46 0 3.36 254.356 06:50 12.08.2019
3829 Clear 4 1018 37 0 3.3 262.449 05:39 12.08.2019
3830 Clear 6 1016 28 0 3.85 269.242 02:44 12.08.2019
3831 Clear 6 1016 28 0 3.85 269.242 01:55 12.08.2019
3832 Clear 6 1016 28 0 3.85 269.242 01:21 12.08.2019
3833 Clear 6 1016 28 0 3.85 269.242 00:58 12.08.2019
3834 Clear 6 1016 28 0 3.85 269.242 00:39 12.08.2019
3835 Clear 10 1010 21 0 9.05 294.059 00:20 12.08.2019
3836 Clear 10 1010 21 0 9.05 294.059 23:56 11.08.2019
3837 Clear 10 1010 21 0 9.05 294.059 23:37 11.08.2019
3838 Clear 10 1010 21 0 9.05 294.059 23:18 11.08.2019
3839 Clear 10 1010 21 0 9.05 294.059 22:40 11.08.2019
3840 Clear 10 1010 21 0 9.05 294.059 22:20 11.08.2019
3841 Clear 10 1010 21 0 9.05 294.059 22:20 11.08.2019
3842 Clear 10 1010 21 0 9.05 294.059 21:59 11.08.2019
3843 Clear 10 1010 21 0 9.05 294.059 21:41 11.08.2019
3844 Clear 12 1012 18 0 10.3 302.677 21:22 11.08.2019
3845 Clear 12 1012 18 0 10.3 302.677 20:58 11.08.2019
3846 Clear 12 1012 18 0 10.3 302.677 20:40 11.08.2019
3847 Clear 12 1012 18 0 10.3 302.677 20:22 11.08.2019
3848 Clear 12 1012 18 0 10.3 302.677 19:45 11.08.2019
3849 Clear 12 1012 18 0 10.3 302.677 19:20 11.08.2019
3850 Clear 12 1012 18 0 10.3 302.677 18:56 11.08.2019
3851 Clear 12 1012 18 0 10.3 302.677 18:36 11.08.2019
3852 Clear 10 1017 23 0 7.09 308.886 18:18 11.08.2019
3853 Clear 10 1017 23 0 7.09 308.886 17:41 11.08.2019
3854 Clear 8 1038 39 10000 3.6 240 17:20 11.08.2019
3855 Clear 8 1038 39 10000 3.6 240 16:59 11.08.2019
3856 Clear 8 1038 39 10000 3.6 240 16:59 11.08.2019
3857 Clear 8 1038 39 10000 3.6 240 16:40 11.08.2019
3858 Clear 8 1038 39 10000 3.6 240 16:20 11.08.2019
3859 Clear 6 1033 41 10000 2.1 210 15:56 11.08.2019
3860 Clear 6 1033 41 10000 2.1 210 15:38 11.08.2019
3861 Clear 6 1033 41 10000 2.1 210 15:19 11.08.2019
3862 Clear 2 1038 40 10000 2.1 220 14:40 11.08.2019
3863 Clear 2 1038 40 10000 2.1 220 14:22 11.08.2019
3864 Clear 0 1038 22 10000 2.6 210 13:46 11.08.2019
3865 Clear 0 1038 22 10000 2.6 210 13:26 11.08.2019
3866 Clear 0 1037 22 10000 1.5 240 12:58 11.08.2019
3867 Clear 0 1037 22 10000 1.5 240 12:38 11.08.2019
3868 Clear 0 1037 25 10000 1.5 240 12:20 11.08.2019
3869 Clear 1 1019 25 0 3.47 255.92 11:40 11.08.2019
3870 Clear 1 1019 25 0 3.47 255.92 11:40 11.08.2019
3871 Clear 1 1019 25 0 3.47 255.92 11:22 11.08.2019
3872 Clear 1 1019 25 0 3.47 255.92 10:56 11.08.2019
3873 Clear 1 1019 25 0 3.47 255.92 10:38 11.08.2019
3874 Clear 1 1019 25 0 3.47 255.92 10:19 11.08.2019
3875 Clear 1 1019 25 0 3.47 255.92 10:19 11.08.2019
3876 Clear 1 1019 25 0 3.47 255.92 09:54 11.08.2019
3877 Clear 1 1019 25 0 3.47 255.92 09:36 11.08.2019
3878 Clear 1 1019 25 0 3.47 255.92 09:36 11.08.2019
3879 Clear 2 1019 32 0 3.26 258.049 09:18 11.08.2019
3880 Clouds 2 1019 31 0 2.83 265.137 08:40 11.08.2019
3881 Clouds 2 1019 31 0 2.83 265.137 08:21 11.08.2019
3882 Clouds 2 1019 31 0 2.83 265.137 07:46 11.08.2019
3883 Clouds 2 1019 31 0 2.83 265.137 07:19 11.08.2019
3884 Clouds 2 1019 31 0 2.83 265.137 06:38 11.08.2019
3885 Clear 3 1019 48 0 1.71 292.082 05:28 11.08.2019
3886 Clear 5 1017 35 0 4.36 261.314 02:54 11.08.2019
3887 Clear 5 1017 35 0 4.36 261.314 02:25 11.08.2019
3888 Clear 5 1017 35 0 4.36 261.314 01:33 11.08.2019
3889 Clear 5 1017 36 0 4.77 257.626 00:56 11.08.2019
3890 Clear 5 1017 36 0 4.77 257.626 00:36 11.08.2019
3891 Clear 5 1017 36 0 4.77 257.626 00:36 11.08.2019
3892 Clear 9 1013 22 0 8.49 289.414 00:18 11.08.2019
3893 Clear 9 1013 22 0 8.49 289.414 23:39 10.08.2019
3894 Clear 9 1013 22 0 8.49 289.414 23:20 10.08.2019
3895 Clear 9 1013 22 0 8.49 289.414 22:42 10.08.2019
3896 Clear 9 1013 22 0 8.49 289.414 22:23 10.08.2019
3897 Clear 9 1013 22 0 8.49 289.414 21:57 10.08.2019
3898 Clear 9 1013 22 0 8.49 289.414 21:36 10.08.2019
3899 Clear 11 1014 12 0 8.15 293.923 21:18 10.08.2019
3900 Clear 11 1014 12 0 8.15 293.923 20:42 10.08.2019
3901 Clear 11 1014 12 0 8.15 293.923 20:21 10.08.2019
3902 Clear 11 1014 12 0 8.15 293.923 19:57 10.08.2019
3903 Clear 11 1014 12 0 8.15 293.923 19:38 10.08.2019
3904 Clear 11 1014 12 0 8.15 293.923 19:19 10.08.2019
3905 Clear 11 1014 12 0 8.15 293.923 18:39 10.08.2019
3906 Clear 7 1020 13 0 3.97 318.536 18:21 10.08.2019
3907 Clear 7 1020 13 0 3.97 318.536 17:44 10.08.2019
3908 Clear 5 1041 25 10000 1.5 90 17:25 10.08.2019
3909 Clear 5 1041 25 10000 1.5 90 16:47 10.08.2019
3910 Clear 5 1041 25 10000 1.5 90 16:28 10.08.2019
3911 Clear 2 1041 21 10000 2.6 220 15:55 10.08.2019
3912 -273 0 0 0 0 0 15:26 10.08.2019
3913 Clear 1 1041 15 10000 1.5 210 14:45 10.08.2019
3914 Clear 1 1041 15 10000 1.5 210 14:23 10.08.2019
3915 Clear -4 1041 32 10000 2.41 288.998 13:57 10.08.2019
3916 Clear -4 1041 32 10000 2.41 288.998 13:39 10.08.2019
3917 Clear -4 1041 32 10000 2.31 293.597 13:18 10.08.2019
3918 Clear -4 1040 35 10000 2.31 293.597 12:42 10.08.2019
3919 Clear -4 1040 35 10000 1.9 285.387 12:22 10.08.2019
3920 Clear -1 1022 24 0 1.9 285.387 11:57 10.08.2019
3921 Clear -1 1022 24 0 1.9 285.387 11:38 10.08.2019
3922 Clear -1 1022 24 0 1.9 285.387 11:20 10.08.2019
3923 Clear -1 1022 24 0 1.9 285.387 10:39 10.08.2019
3924 Clear -1 1022 24 0 1.9 285.387 10:20 10.08.2019
3925 Clear -1 1022 24 0 1.9 285.387 09:59 10.08.2019
3926 Clear -1 1022 24 0 1.9 285.387 09:38 10.08.2019
3927 Clouds 0 1022 24 0 2.39 283.92 09:20 10.08.2019
3928 Clouds 0 1022 22 0 2.25 281.704 08:39 10.08.2019
3929 Clouds 0 1022 22 0 2.25 281.704 08:19 10.08.2019
3930 Clouds 0 1022 22 0 2.25 281.704 07:52 10.08.2019
3931 Clouds 0 1022 22 0 2.25 281.704 07:27 10.08.2019
3932 Clouds 0 1022 22 0 2.25 281.704 06:48 10.08.2019
3933 Clouds 1 1022 22 0 2.75 257.224 06:21 10.08.2019
3934 Clouds 1 1022 22 0 2.75 257.224 05:24 10.08.2019
3935 Clouds 1 1022 22 0 2.75 257.224 04:21 10.08.2019
3936 Clouds 3 1019 23 0 5.47 247.281 02:54 10.08.2019
3937 Clouds 3 1019 23 0 5.47 247.281 02:23 10.08.2019
3938 Clouds 3 1019 23 0 5.47 247.281 01:41 10.08.2019
3939 Clouds 3 1018 23 0 5.76 250.064 01:21 10.08.2019
3940 Clouds 3 1018 23 0 5.76 250.064 00:46 10.08.2019
3941 Clouds 8 1011 16 0 8.93 283.717 00:22 10.08.2019
3942 Clouds 8 1011 16 0 8.93 283.717 23:44 09.08.2019
3943 Clouds 8 1011 16 0 8.93 283.717 23:24 09.08.2019
3944 Clouds 8 1011 16 0 8.93 283.717 22:57 09.08.2019
3945 Clouds 8 1011 16 0 8.93 283.717 22:38 09.08.2019
3946 Clouds 8 1011 16 0 8.93 283.717 22:20 09.08.2019
3947 Clouds 8 1011 16 0 8.93 283.717 21:43 09.08.2019
3948 Clouds 10 1012 17 0 11.78 287.015 21:24 09.08.2019
3949 Clouds 10 1012 17 0 11.78 287.015 20:59 09.08.2019
3950 Clouds 10 1012 17 0 11.78 287.015 20:59 09.08.2019
3951 Clouds 10 1012 17 0 11.83 285.897 20:40 09.08.2019
3952 Clouds 13 1033 19 10000 6.7 240 20:21 09.08.2019
3953 Clouds 13 1033 19 10000 6.7 240 19:59 09.08.2019
3954 Clouds 13 1033 19 10000 6.7 240 19:41 09.08.2019
3955 Clouds 13 1033 19 10000 6.7 240 19:18 09.08.2019
3956 Clouds 10 1012 17 0 11.83 285.897 18:41 09.08.2019
3957 Clouds 9 1016 17 0 13.01 283.655 18:22 09.08.2019
3958 Clouds 9 1016 17 0 13.01 283.655 17:58 09.08.2019
3959 Clouds 9 1016 17 0 13.01 283.655 17:39 09.08.2019
3960 Clouds 9 1034 24 10000 7.7 240 17:21 09.08.2019
3961 Clouds 9 1034 24 10000 7.7 240 16:42 09.08.2019
3962 Clouds 9 1034 24 10000 7.7 240 16:41 09.08.2019
3963 Clouds 9 1034 24 10000 7.7 240 16:41 09.08.2019
3964 Clouds 9 1034 24 10000 7.7 240 16:22 09.08.2019
3965 Clouds 7 1035 30 10000 5.1 240 15:57 09.08.2019
3966 Clouds 7 1035 30 10000 5.1 240 15:38 09.08.2019
3967 Clouds 7 1035 30 10000 5.1 240 15:19 09.08.2019
3968 Clouds 5 1035 52 10000 4.6 220 14:44 09.08.2019
3969 Clouds 5 1035 52 10000 4.6 220 14:23 09.08.2019
3970 Clouds 3 1035 69 10000 5.94 292.744 13:59 09.08.2019
3971 Clouds 3 1035 69 10000 5.94 292.744 13:40 09.08.2019
3972 Clouds 3 1034 64 10000 4.1 240 13:20 09.08.2019
3973 Clouds 3 1034 64 10000 4.1 240 12:46 09.08.2019
3974 Clouds 3 1034 64 10000 4.1 240 12:24 09.08.2019
3975 Clouds 1 1019 25 0 5.49 270.585 11:58 09.08.2019
3976 Clouds 1 1019 25 0 5.49 270.585 11:37 09.08.2019
3977 Clouds 1 1019 25 0 5.49 270.585 11:18 09.08.2019
3978 Clouds 1 1019 25 0 5.49 270.585 10:40 09.08.2019
3979 Clouds 1 1019 25 0 5.49 270.585 10:21 09.08.2019
3980 Clouds 1 1019 25 0 5.49 270.585 09:46 09.08.2019
3981 Clouds 2 1019 30 0 3.51 262.61 09:20 09.08.2019
3982 Clouds 2 1019 30 0 3.51 262.61 08:58 09.08.2019
3983 Clouds 2 1019 28 0 3.52 269.544 08:39 09.08.2019
3984 Clouds 2 1019 28 0 3.52 269.544 08:19 09.08.2019
3985 Clouds 2 1019 28 0 3.52 269.544 07:43 09.08.2019
3986 Clouds 2 1019 28 0 3.52 269.544 07:23 09.08.2019
3987 Clouds 2 1019 28 0 3.52 269.544 06:56 09.08.2019
3988 Clouds 2 1019 28 0 3.52 269.544 06:56 09.08.2019
3989 Clouds 2 1019 28 0 3.52 269.544 06:30 09.08.2019
3990 Clouds 3 1019 51 0 1.95 317.367 05:57 09.08.2019
3991 Clouds 3 1019 51 0 1.95 317.367 04:21 09.08.2019
3992 Clouds 6 1015 33 0 2.46 299.297 01:58 09.08.2019
3993 Clouds 6 1015 36 0 3.56 274.512 00:48 09.08.2019
3994 Clouds 6 1015 36 0 3.56 274.512 00:26 09.08.2019
3995 Clouds 11 1011 20 0 8.88 294.363 23:59 08.08.2019
3996 Clouds 11 1011 20 0 8.88 294.363 23:38 08.08.2019
3997 Clouds 11 1011 20 0 8.88 294.363 23:19 08.08.2019
3998 Clouds 11 1011 20 0 8.88 294.363 22:58 08.08.2019
3999 Clouds 11 1011 20 0 8.88 294.363 22:37 08.08.2019
4000 Clouds 11 1011 20 0 8.88 294.363 22:18 08.08.2019
4001 Clouds 11 1011 20 0 8.88 294.363 21:57 08.08.2019
4002 Clouds 11 1011 20 0 8.88 294.363 21:39 08.08.2019
4003 Clouds 13 1013 15 0 8.53 301.218 21:20 08.08.2019
4004 Clouds 13 1012 15 0 8.03 299.732 20:42 08.08.2019
4005 Clouds 13 1012 15 0 8.03 299.732 20:22 08.08.2019
4006 Clouds 13 1012 15 0 8.03 299.732 19:59 08.08.2019
4007 Clouds 13 1012 15 0 8.03 299.732 19:41 08.08.2019
4008 Clouds 13 1012 15 0 8.03 299.732 19:20 08.08.2019
4009 Clouds 13 1012 15 0 8.03 299.732 18:43 08.08.2019
4010 Clouds 10 1018 14 0 4.37 319.504 18:23 08.08.2019
4011 -273 0 0 0 0 0 17:56 08.08.2019
4012 Clouds 10 1018 14 0 4.37 319.504 17:37 08.08.2019
4013 Clouds 10 1018 14 0 4.37 319.504 17:19 08.08.2019
4014 Clouds 10 1018 14 0 4.37 319.504 17:19 08.08.2019
4015 Clouds 10 1018 14 0 4.37 319.504 16:42 08.08.2019
4016 Clouds 10 1018 14 0 4.37 319.504 16:24 08.08.2019
4017 Clouds 10 1018 14 0 4.37 319.504 15:59 08.08.2019
4018 Clouds 10 1018 14 0 4.37 319.504 15:40 08.08.2019
4019 Clouds 5 1021 21 0 2.57 258.533 15:22 08.08.2019
4020 Clouds 5 1021 21 0 2.57 258.533 14:42 08.08.2019
4021 Clouds 5 1021 21 0 2.57 258.533 14:23 08.08.2019
4022 Clouds 5 1021 21 0 2.57 258.533 13:59 08.08.2019
4023 Clouds 5 1021 21 0 2.57 258.533 13:39 08.08.2019
4024 Clouds 5 1021 21 0 2.6 257.674 13:18 08.08.2019
4025 Clouds 5 1021 21 0 2.6 257.674 12:40 08.08.2019
4026 Clear 1 1019 23 0 1.85 284.748 12:21 08.08.2019
4027 Clear 1 1019 23 0 1.85 284.748 11:58 08.08.2019
4028 Clear 1 1019 23 0 1.85 284.748 11:39 08.08.2019
4029 Clear 1 1019 23 0 1.85 284.748 11:20 08.08.2019
4030 Clear 1 1019 23 0 1.85 284.748 10:41 08.08.2019
4031 Clear 1 1019 23 0 1.85 284.748 10:21 08.08.2019
4032 Clear 1 1019 23 0 1.85 284.748 09:49 08.08.2019
4033 Clear 1 1019 23 0 1.85 284.748 09:30 08.08.2019
4034 Clear 1 1019 23 0 1.85 284.748 09:30 08.08.2019
4035 Clouds 2 1018 27 0 1.52 278.949 08:57 08.08.2019
4036 Clouds 2 1018 31 0 1.13 296.246 08:38 08.08.2019
4037 Clouds 2 1018 31 0 1.13 296.246 08:19 08.08.2019
4038 Clouds 2 1018 31 0 1.13 296.246 07:40 08.08.2019
4039 Clouds 2 1018 31 0 1.13 296.246 07:20 08.08.2019
4040 Clouds 2 1018 31 0 1.13 296.246 06:48 08.08.2019
4041 Clouds 2 1018 31 0 1.13 296.246 06:27 08.08.2019
4042 Clouds 4 1018 29 0 1.6 304.268 05:53 08.08.2019
4043 Clouds 4 1018 29 0 1.6 304.268 05:18 08.08.2019
4044 Clouds 4 1018 29 0 1.6 304.268 03:53 08.08.2019
4045 Clouds 6 1016 23 0 2.25 255.06 02:30 08.08.2019
4046 Clouds 6 1016 23 0 2.25 255.06 01:37 08.08.2019
4047 Clouds 6 1016 25 0 2.36 258.481 00:26 08.08.2019
4048 Clouds 12 1012 13 0 4.78 247.326 23:51 07.08.2019
4049 Clouds 12 1012 13 0 4.78 247.326 23:20 07.08.2019
4050 Clouds 12 1012 13 0 4.78 247.326 22:57 07.08.2019
4051 Clouds 12 1012 13 0 4.78 247.326 22:39 07.08.2019
4052 Clouds 12 1012 13 0 4.78 247.326 22:20 07.08.2019
4053 -273 0 0 0 0 0 21:56 07.08.2019
4054 Clouds 12 1012 13 0 4.78 247.326 21:37 07.08.2019
4055 Clouds 12 1012 13 0 4.78 247.326 21:37 07.08.2019
4056 Clear 13 1013 7 0 1.39 5.731 21:18 07.08.2019
4057 Clear 13 1013 7 0 1.33 352.035 20:43 07.08.2019
4058 Clear 17 1040 27 10000 1.5 90 20:24 07.08.2019
4059 Clear 17 1040 27 10000 1.5 90 19:59 07.08.2019
4060 Clear 17 1040 27 10000 1.5 90 19:39 07.08.2019
4061 Clear 17 1040 27 10000 1.5 90 19:21 07.08.2019
4062 Clear 13 1013 7 0 1.33 352.035 18:44 07.08.2019
4063 Clear 11 1017 7 0 0.83 358.476 18:22 07.08.2019
4064 Clear 11 1017 7 0 0.83 358.476 17:59 07.08.2019
4065 Clear 11 1017 7 0 0.83 358.476 17:41 07.08.2019
4066 Clear 10 1042 31 10000 2.6 210 17:22 07.08.2019
4067 Clear 10 1042 31 10000 2.6 210 16:58 07.08.2019
4068 Clear 10 1042 31 10000 2.6 210 16:57 07.08.2019
4069 Clear 10 1042 31 10000 2.6 210 16:39 07.08.2019
4070 Clear 10 1042 31 10000 2.6 210 16:21 07.08.2019
4071 Clear 7 1042 36 10000 4.1 240 15:58 07.08.2019
4072 Clear 7 1042 36 10000 4.1 240 15:40 07.08.2019
4073 Clear 7 1042 36 10000 4.1 240 15:19 07.08.2019
4074 Clear 3 1042 44 10000 3.6 220 14:49 07.08.2019
4075 Clear 3 1042 44 10000 3.6 220 14:29 07.08.2019
4076 Clear 1 1041 43 10000 1.5 230 13:57 07.08.2019
4077 Clear 1 1041 43 10000 1.5 230 13:38 07.08.2019
4078 Clear 1 1041 43 10000 1.5 230 13:18 07.08.2019
4079 Clear 0 1041 17 10000 1.8 242.85 12:56 07.08.2019
4080 Clear 0 1041 17 10000 1.8 242.85 12:36 07.08.2019
4081 Clear 0 1041 15 10000 2.24 238.268 12:18 07.08.2019
4082 Clear 1 1018 15 0 2.24 238.268 11:43 07.08.2019
4083 Clear 1 1018 15 0 2.24 238.268 11:21 07.08.2019
4084 Clear 1 1018 15 0 2.24 238.268 10:58 07.08.2019
4085 Clear 1 1018 15 0 2.24 238.268 10:39 07.08.2019
4086 Clear 1 1018 15 0 2.24 238.268 10:19 07.08.2019
4087 Clear 1 1018 15 0 2.24 238.268 09:46 07.08.2019
4088 Clear 2 1017 18 0 2.31 246.183 09:23 07.08.2019
4089 Clear 2 1017 18 0 2.31 246.183 08:59 07.08.2019
4090 Clouds 2 1017 19 0 2.37 245.494 08:41 07.08.2019
4091 Clouds 2 1017 19 0 2.37 245.494 08:23 07.08.2019
4092 Clouds 2 1017 19 0 2.37 245.494 07:43 07.08.2019
4093 Clouds 2 1017 19 0 2.37 245.494 07:21 07.08.2019
4094 Clouds 2 1017 19 0 2.37 245.494 06:40 07.08.2019
4095 Clouds 4 1018 20 0 3.34 245.512 05:59 07.08.2019
4096 Clouds 4 1018 20 0 3.34 245.512 04:58 07.08.2019
4097 Clouds 5 1016 19 0 3.68 241.274 03:23 07.08.2019
4098 Clouds 5 1016 19 0 3.68 241.274 02:51 07.08.2019
4099 Clouds 5 1016 19 0 3.68 241.274 02:26 07.08.2019
4100 Clouds 5 1016 19 0 3.68 241.274 01:45 07.08.2019
4101 Clear 5 1016 20 0 4.07 244.904 00:53 07.08.2019
4102 Clear 10 1012 18 0 3.92 231.916 00:23 07.08.2019
4103 Clear 10 1012 18 0 3.92 231.916 23:47 06.08.2019
4104 Clear 10 1012 18 0 3.92 231.916 23:23 06.08.2019
4105 Clear 10 1012 18 0 3.92 231.916 22:59 06.08.2019
4106 Clear 10 1012 18 0 3.92 231.916 22:40 06.08.2019
4107 Clear 10 1012 18 0 3.92 231.916 22:20 06.08.2019
4108 Clear 10 1012 18 0 3.92 231.916 21:56 06.08.2019
4109 Clear 10 1012 18 0 3.92 231.916 21:38 06.08.2019
4110 Clear 12 1013 10 0 2.57 229.343 21:18 06.08.2019
4111 Clear 12 1013 11 0 3.45 232.179 20:42 06.08.2019
4112 Clear 16 1039 11 10000 3.45 232.179 20:23 06.08.2019
4113 Clear 16 1039 11 10000 3.45 232.179 19:48 06.08.2019
4114 Clear 16 1039 11 10000 3.45 232.179 19:29 06.08.2019
4115 Clear 14 1040 28 10000 3.6 260 18:57 06.08.2019
4116 Clear 14 1040 28 10000 3.6 260 18:38 06.08.2019
4117 Clear 14 1040 28 10000 3.6 260 18:19 06.08.2019
4118 Clear 11 1041 34 10000 2.1 270 17:56 06.08.2019
4119 Clear 11 1041 34 10000 2.1 270 17:37 06.08.2019
4120 Clear 11 1041 34 10000 2.1 270 17:19 06.08.2019
4121 Clear 8 1041 28 10000 4.1 280 16:43 06.08.2019
4122 Clear 8 1041 28 10000 4.1 280 16:25 06.08.2019
4123 -273 0 0 0 0 0 16:25 06.08.2019
4124 Clear 6 1041 26 10000 4.1 250 15:58 06.08.2019
4125 Clear 6 1041 26 10000 4.1 250 15:40 06.08.2019
4126 Clear 6 1041 26 10000 4.1 250 15:21 06.08.2019
4127 Clear 2 1040 51 10000 3.6 270 14:54 06.08.2019
4128 Clear 2 1040 51 10000 3.6 270 14:36 06.08.2019
4129 Clear 2 1040 51 10000 3.6 270 14:18 06.08.2019
4130 Clear 3 1020 19 0 2.56 245.928 13:45 06.08.2019
4131 Clear 0 1040 19 10000 2.6 250 13:26 06.08.2019
4132 Clear 0 1040 19 10000 2.6 250 12:59 06.08.2019
4133 Clear 0 1040 19 10000 2.6 250 12:40 06.08.2019
4134 Clear 0 1040 19 10000 2.6 250 12:21 06.08.2019
4135 Clear 1 1019 19 0 2.9 244.584 11:45 06.08.2019
4136 Clear 1 1019 19 0 2.9 244.584 11:20 06.08.2019
4137 Clear 1 1019 19 0 2.9 244.584 10:59 06.08.2019
4138 -273 0 0 0 0 0 10:39 06.08.2019
4139 Clear 1 1019 19 0 2.9 244.584 10:21 06.08.2019
4140 Clear 1 1019 19 0 2.9 244.584 09:43 06.08.2019
4141 Clear 1 1020 23 0 2.61 239.635 09:21 06.08.2019
4142 Clear 1 1020 23 0 2.61 239.635 08:51 06.08.2019
4143 Clear 1 1019 24 0 1.82 242.647 08:29 06.08.2019
4144 Clear 1 1019 24 0 1.82 242.647 07:59 06.08.2019
4145 Clear 1 1019 24 0 1.82 242.647 07:30 06.08.2019
4146 Clear 1 1019 24 0 1.82 242.647 06:45 06.08.2019
4147 Clear 2 1020 30 0 1.13 239.857 06:23 06.08.2019
4148 Clear 2 1020 30 0 1.13 239.857 05:46 06.08.2019
4149 Clear 4 1019 26 0 1.11 233.522 02:50 06.08.2019
4150 Clear 4 1018 26 0 1.1 234.383 01:26 06.08.2019
4151 Clear 4 1018 26 0 1.1 234.383 00:52 06.08.2019
4152 Clear 10 1015 16 0 3.31 228.079 00:19 06.08.2019
4153 Clear 10 1015 16 0 3.31 228.079 23:21 05.08.2019
4154 Clear 10 1015 16 0 3.31 228.079 22:58 05.08.2019
4155 Clear 10 1015 16 0 3.31 228.079 22:39 05.08.2019
4156 Clear 10 1015 16 0 3.31 228.079 22:20 05.08.2019
4157 Clear 10 1015 16 0 3.31 228.079 21:42 05.08.2019
4158 Clouds 11 1017 9 0 0.68 169.53 21:21 05.08.2019
4159 Clouds 11 1016 10 0 0.66 173.996 20:58 05.08.2019
4160 Clouds 11 1016 10 0 0.66 173.996 20:39 05.08.2019
4161 Clouds 11 1016 10 0 0.66 173.996 20:21 05.08.2019
4162 Clouds 11 1016 10 0 0.66 173.996 19:57 05.08.2019
4163 Clouds 11 1016 10 0 0.66 173.996 19:38 05.08.2019
4164 Clouds 11 1042 37 10000 2.6 100 19:19 05.08.2019
4165 Clouds 11 1042 37 10000 2.6 100 18:41 05.08.2019
4166 Clouds 11 1042 37 10000 2.6 100 18:20 05.08.2019
4167 Clouds 11 1042 37 10000 2.6 100 18:20 05.08.2019
4168 Clouds 8 1044 7 10000 0.38 67.921 17:50 05.08.2019
4169 Clouds 8 1044 7 10000 0.38 67.921 17:30 05.08.2019
4170 Clouds 5 1043 52 10000 2.1 250 16:59 05.08.2019
4171 Clouds 5 1043 52 10000 2.1 250 16:41 05.08.2019
4172 Clouds 5 1043 52 10000 2.1 250 16:23 05.08.2019
4173 Clouds 8 1022 7 0 0.38 67.921 15:41 05.08.2019
4174 Clouds -1 1042 74 10000 2.6 220 15:20 05.08.2019
4175 Clouds -1 1042 74 10000 2.6 220 14:42 05.08.2019
4176 Clouds -1 1042 74 10000 2.6 220 14:22 05.08.2019
4177 Clouds -2 1045 79 10000 1.79 224.229 13:50 05.08.2019
4178 Clouds -2 1045 79 10000 1.79 229.977 13:24 05.08.2019
4179 Clouds -3 1044 86 10000 1.79 229.977 12:59 05.08.2019
4180 Clouds -3 1044 86 10000 1.79 229.977 12:41 05.08.2019
4181 Clouds -3 1044 86 10000 1.62 239.914 12:18 05.08.2019
4182 Clouds -1 1022 21 0 1.62 239.914 11:43 05.08.2019
4183 Clouds -1 1022 21 0 1.62 239.914 11:25 05.08.2019
4184 Clouds -1 1022 21 0 1.62 239.914 10:47 05.08.2019
4185 Clouds -1 1022 21 0 1.62 239.914 10:28 05.08.2019
4186 Clouds -1 1022 21 0 1.62 239.914 09:56 05.08.2019
4187 Clouds -1 1022 21 0 1.62 239.914 09:56 05.08.2019
4188 Clouds -1 1022 21 0 1.62 239.914 09:37 05.08.2019
4189 Clouds 0 1023 29 0 1.59 246.443 09:19 05.08.2019
4190 Clear -1 1023 37 0 0.71 262.267 08:44 05.08.2019
4191 Clear -1 1023 37 0 0.71 262.267 08:24 05.08.2019
4192 Clear -1 1023 37 0 0.71 262.267 07:47 05.08.2019
4193 Clear -1 1023 37 0 0.71 262.267 07:28 05.08.2019
4194 Clear -1 1023 37 0 0.71 262.267 06:56 05.08.2019
4195 Clear 0 1024 44 0 0.59 311.213 06:21 05.08.2019
4196 Clear 0 1024 44 0 0.59 311.213 05:28 05.08.2019
4197 Clear 0 1024 44 0 0.59 311.213 04:50 05.08.2019
4198 Clear 0 1024 44 0 0.59 311.213 03:50 05.08.2019
4199 Clear 2 1022 45 0 1.04 11.71 02:38 05.08.2019
4200 Clear 2 1022 45 0 1.04 11.71 01:47 05.08.2019
4201 Clear 2 1022 43 0 0.72 346.196 01:19 05.08.2019
4202 Clear 2 1022 43 0 0.72 346.196 00:39 05.08.2019
4203 Clear 9 1018 21 0 0.69 178.166 00:19 05.08.2019
4204 Clear 9 1018 21 0 0.69 178.166 23:43 04.08.2019
4205 Clear 9 1018 21 0 0.69 178.166 23:23 04.08.2019
4206 Clear 9 1018 21 0 0.69 178.166 22:57 04.08.2019
4207 Clear 9 1018 21 0 0.69 178.166 22:38 04.08.2019
4208 Clear 9 1018 21 0 0.69 178.166 22:19 04.08.2019
4209 Clear 9 1018 21 0 0.69 178.166 21:45 04.08.2019
4210 Clear 10 1020 11 0 0.96 87.602 21:24 04.08.2019
4211 Clear 10 1020 11 0 1.15 66.351 20:59 04.08.2019
4212 Clear 10 1020 11 0 1.15 66.351 20:41 04.08.2019
4213 Clear 10 1020 11 0 1.15 66.351 20:41 04.08.2019
4214 Clear 10 1020 11 0 1.15 66.351 20:18 04.08.2019
4215 Clear 10 1020 11 0 1.15 66.351 19:48 04.08.2019
4216 Clear 10 1020 11 0 1.15 66.351 19:28 04.08.2019
4217 Clear 10 1020 11 0 1.15 66.351 18:58 04.08.2019
4218 Clear 10 1020 11 0 1.15 66.351 18:40 04.08.2019
4219 Clear 7 1024 9 0 1.74 45.326 18:20 04.08.2019
4220 Clear 7 1024 9 0 1.74 45.326 17:43 04.08.2019
4221 Clear 5 1042 44 10000 2.6 240 17:24 04.08.2019
4222 Clear 5 1042 44 10000 2.6 240 16:46 04.08.2019
4223 Clear 5 1042 44 10000 2.6 240 16:27 04.08.2019
4224 Clear 2 1041 51 10000 3.6 220 15:56 04.08.2019
4225 Clear 2 1041 51 10000 3.6 220 15:37 04.08.2019
4226 Clear 2 1041 51 10000 3.6 220 15:37 04.08.2019
4227 Clear 2 1041 51 10000 3.6 220 15:37 04.08.2019
4228 Clear 2 1041 51 10000 3.6 220 15:18 04.08.2019
4229 Clear 0 1040 19 10000 2.6 220 14:42 04.08.2019
4230 Clear 0 1040 19 10000 2.6 220 14:21 04.08.2019
4231 Clear -1 1040 74 10000 5.1 240 13:44 04.08.2019
4232 Clear -1 1040 74 10000 5.1 240 13:24 04.08.2019
4233 Clear -2 1040 86 10000 3.6 240 12:57 04.08.2019
4234 Clear -2 1040 86 10000 3.6 240 12:39 04.08.2019
4235 Clear -2 1040 86 10000 3.6 240 12:21 04.08.2019
4236 Clear -2 1024 17 0 2.34 247.871 11:41 04.08.2019
4237 Clear -2 1024 17 0 2.34 247.871 11:22 04.08.2019
4238 Clear -2 1024 17 0 2.34 247.871 10:47 04.08.2019
4239 Clear -2 1024 17 0 2.34 247.871 10:22 04.08.2019
4240 Clear -2 1024 17 0 2.34 247.871 09:46 04.08.2019
4241 Clear -2 1024 17 0 2.34 247.871 09:26 04.08.2019
4242 Clear -2 1025 17 0 1.47 272.686 08:58 04.08.2019
4243 Clear -2 1025 17 0 1.47 272.686 08:34 04.08.2019
4244 Clear -2 1025 17 0 1.47 272.686 07:55 04.08.2019
4245 Clear -2 1025 17 0 1.47 272.686 07:29 04.08.2019
4246 Clear -2 1025 17 0 1.47 272.686 06:42 04.08.2019
4247 Clear -1 1026 23 0 1.04 307.88 06:19 04.08.2019
4248 Clear -1 1026 23 0 1.04 307.88 03:37 04.08.2019
4249 Clear 0 1025 24 0 0.43 281.622 01:55 04.08.2019
4250 Clear 0 1024 23 0 0.92 261.571 01:32 04.08.2019
4251 Clear 0 1024 23 0 0.92 261.571 00:42 04.08.2019
4252 Clear 5 1021 10 0 2 208.537 00:24 04.08.2019
4253 Clear 5 1021 10 0 2 208.537 23:56 03.08.2019
4254 Clear 5 1021 10 0 2 208.537 23:37 03.08.2019
4255 Clear 5 1021 10 0 2 208.537 23:18 03.08.2019
4256 Clear 5 1021 10 0 2 208.537 22:40 03.08.2019
4257 Clear 5 1021 10 0 2 208.537 22:19 03.08.2019
4258 Clear 5 1021 10 0 2 208.537 21:39 03.08.2019
4259 Clear 6 1023 8 0 3.62 156.668 21:21 03.08.2019
4260 Clear 6 1023 8 0 3.45 153.554 20:45 03.08.2019
4261 Clear 6 1023 8 0 3.45 153.554 20:24 03.08.2019
4262 Clear 6 1023 8 0 3.45 153.554 19:55 03.08.2019
4263 Clear 6 1023 8 0 3.45 153.554 19:37 03.08.2019
4264 Clear 6 1023 8 0 3.45 153.554 19:19 03.08.2019
4265 Clear 6 1023 8 0 3.45 153.554 18:40 03.08.2019
4266 Clear 4 1028 8 0 4.54 176.138 18:22 03.08.2019
4267 Clear 4 1028 8 0 4.54 176.138 17:43 03.08.2019
4268 Clear 2 1043 47 10000 6.2 230 17:20 03.08.2019
4269 Clear 2 1043 47 10000 6.2 230 16:39 03.08.2019
4270 Clear 2 1043 47 10000 6.2 230 16:21 03.08.2019
4271 Clear -2 1042 54 10000 5.1 220 15:55 03.08.2019
4272 Clear -2 1042 54 10000 5.1 220 15:37 03.08.2019
4273 Clear -2 1042 54 10000 5.1 220 15:18 03.08.2019
4274 Clear -4 1041 62 10000 6.2 240 14:36 03.08.2019
4275 Clear -4 1041 62 10000 6.2 240 14:18 03.08.2019
4276 Clear -5 1041 67 10000 2.6 240 13:43 03.08.2019
4277 Clear -5 1041 67 10000 2.6 240 13:23 03.08.2019
4278 Clear -5 1041 73 10000 2.6 240 12:56 03.08.2019
4279 Clear -5 1041 73 10000 2.6 240 12:37 03.08.2019
4280 Clear -5 1041 73 10000 2.6 240 12:19 03.08.2019
4281 Clear -5 1030 32 0 4.28 211.218 11:39 03.08.2019
4282 Clear -5 1030 32 0 4.28 211.218 11:20 03.08.2019
4283 Clear -5 1030 32 0 4.28 211.218 10:38 03.08.2019
4284 Clear -5 1030 32 0 4.28 211.218 10:19 03.08.2019
4285 Clear -5 1030 32 0 4.28 211.218 09:38 03.08.2019
4286 Clear -5 1030 32 0 4.28 211.218 09:38 03.08.2019
4287 Clear -3 1028 46 0 2.61 189.22 09:18 03.08.2019
4288 Clear -3 1028 45 0 2.22 164.371 08:43 03.08.2019
4289 Clear -3 1028 45 0 2.22 164.371 07:40 03.08.2019
4290 Clear -3 1028 45 0 2.22 164.371 06:58 03.08.2019
4291 Clear 0 1025 21 0 6.2 252.267 06:20 03.08.2019
4292 Clear 0 1025 21 0 6.2 252.267 03:35 03.08.2019
4293 Clear 2 1021 19 0 9.12 252.516 02:27 03.08.2019
4294 Clear 2 1022 22 0 6.71 247.151 00:59 03.08.2019
4295 Clear 10 1033 27 10000 6.2 240 00:32 03.08.2019
4296 Clear 10 1033 27 10000 6.2 240 00:32 03.08.2019
4297 Clear 10 1033 27 10000 6.2 240 23:55 02.08.2019
4298 Clear 7 1015 19 0 8.44 268.236 23:37 02.08.2019
4299 Clear 11 1032 23 10000 6.2 240 23:18 02.08.2019
4300 Clear 11 1032 23 10000 6.2 240 22:40 02.08.2019
4301 Clear 11 1032 23 10000 6.2 240 22:22 02.08.2019
4302 Clear 12 1032 22 10000 6.2 240 21:57 02.08.2019
4303 Clear 12 1032 22 10000 6.2 240 21:39 02.08.2019
4304 Clear 12 1032 22 10000 6.2 240 21:21 02.08.2019
4305 Clear 12 1033 25 10000 6.2 240 20:44 02.08.2019
4306 Clear 12 1033 25 10000 6.2 240 20:26 02.08.2019
4307 Clear 13 1033 28 10000 5.1 240 19:55 02.08.2019
4308 Clear 13 1033 28 10000 5.1 240 19:33 02.08.2019
4309 Clear 11 1035 34 10000 3.1 240 18:57 02.08.2019
4310 Clear 11 1035 34 10000 3.1 240 18:38 02.08.2019
4311 Clear 11 1035 34 10000 3.1 240 18:18 02.08.2019
4312 Clear 8 1036 39 10000 7.32 282.893 17:41 02.08.2019
4313 Clear 8 1036 39 10000 7.32 282.893 17:22 02.08.2019
4314 Clear 6 1037 48 10000 2.6 220 16:40 02.08.2019
4315 Clear 6 1037 48 10000 2.6 220 16:21 02.08.2019
4316 Clear 4 1037 51 10000 7.32 282.893 15:57 02.08.2019
4317 Clear 4 1037 51 10000 7.32 282.893 15:37 02.08.2019
4318 Clear 4 1037 51 10000 2.63 299.347 15:18 02.08.2019
4319 Clear 2 1037 55 10000 2.63 299.347 14:44 02.08.2019
4320 Clear 2 1037 55 10000 2.63 299.347 14:18 02.08.2019
4321 Clear 0 1037 35 10000 2.63 299.347 13:46 02.08.2019
4322 Clear 0 1037 34 10000 2.56 292.475 13:23 02.08.2019
4323 Clear -1 1036 68 10000 2.56 292.475 12:44 02.08.2019
4324 Clear -1 1036 68 10000 2.89 272.519 12:21 02.08.2019
4325 Clear 0 1019 35 0 2.89 272.519 11:42 02.08.2019
4326 Clear 0 1019 35 0 2.89 272.519 11:24 02.08.2019
4327 Clear 0 1019 35 0 2.89 272.519 10:49 02.08.2019
4328 Clear 0 1019 35 0 2.89 272.519 10:24 02.08.2019
4329 Clear 0 1019 35 0 2.89 272.519 09:59 02.08.2019
4330 Clear 0 1019 35 0 2.89 272.519 09:41 02.08.2019
4331 Clouds 0 1018 35 0 3.35 275.221 09:23 02.08.2019
4332 Clouds 1 1018 31 0 3.15 286.548 08:42 02.08.2019
4333 Clouds 1 1018 31 0 3.15 286.548 08:20 02.08.2019
4334 Clouds 1 1018 31 0 3.15 286.548 07:46 02.08.2019
4335 Clouds 1 1018 31 0 3.15 286.548 07:28 02.08.2019
4336 Clouds 1 1018 31 0 3.15 286.548 06:41 02.08.2019
4337 Clear 3 1018 31 0 3.01 262.873 05:50 02.08.2019
4338 Clear 3 1018 31 0 3.01 262.873 03:54 02.08.2019
4339 Clear 4 1016 32 0 2.13 275.794 03:24 02.08.2019
4340 Clear 4 1016 32 0 2.13 275.794 01:44 02.08.2019
4341 Clear 4 1015 33 0 1.79 281.455 00:35 02.08.2019
4342 Clear 9 1010 21 0 4.77 240.752 23:46 01.08.2019
4343 Clear 9 1010 21 0 4.77 240.752 23:27 01.08.2019
4344 Clear 9 1010 21 0 4.77 240.752 22:46 01.08.2019
4345 Clear 9 1010 21 0 4.77 240.752 22:26 01.08.2019
4346 Clear 9 1010 21 0 4.77 240.752 22:00 01.08.2019
4347 Clear 9 1010 21 0 4.77 240.752 21:41 01.08.2019
4348 Clear 10 1011 20 0 6.73 245.969 21:23 01.08.2019
4349 Clear 10 1011 20 0 6.64 247.668 20:47 01.08.2019
4350 Clear 10 1011 20 0 6.64 247.668 20:24 01.08.2019
4351 Clear 10 1011 20 0 6.64 247.668 20:00 01.08.2019
4352 Clear 10 1011 20 0 6.64 247.668 20:00 01.08.2019
4353 Clear 10 1011 20 0 6.64 247.668 19:38 01.08.2019
4354 Clear 10 1011 20 0 6.64 247.668 19:19 01.08.2019
4355 Clear 10 1011 20 0 6.64 247.668 18:43 01.08.2019
4356 Clear 9 1016 22 0 7.74 249.783 18:24 01.08.2019
4357 Clear 9 1016 22 0 7.74 249.783 17:51 01.08.2019
4358 Clear 9 1016 22 0 7.74 249.783 17:32 01.08.2019
4359 Clear 9 1016 22 0 7.74 249.783 16:45 01.08.2019
4360 Clear 9 1016 22 0 7.74 249.783 16:23 01.08.2019
4361 Clear 9 1016 22 0 7.74 249.783 15:59 01.08.2019
4362 Clear 9 1016 22 0 7.74 249.783 15:41 01.08.2019
4363 Clouds 3 1019 30 0 4.4 250.647 15:19 01.08.2019
4364 Clouds 3 1019 30 0 4.4 250.647 14:42 01.08.2019
4365 Clouds 3 1019 30 0 4.4 250.647 14:19 01.08.2019
4366 Clouds 3 1019 30 0 4.4 250.647 13:58 01.08.2019
4367 Clouds 3 1019 30 0 4.4 250.647 13:39 01.08.2019
4368 Clouds 3 1019 33 0 4.34 251.936 13:20 01.08.2019
4369 Clouds 3 1019 33 0 4.34 251.936 12:45 01.08.2019
4370 Clouds 3 1019 33 0 4.34 251.936 12:26 01.08.2019
4371 Clear 1 1017 34 0 5.68 244.88 11:43 01.08.2019
4372 Clear 1 1017 34 0 5.68 244.88 11:24 01.08.2019
4373 Clear 1 1017 34 0 5.68 244.88 10:56 01.08.2019
4374 Clear 1 1017 34 0 5.68 244.88 10:56 01.08.2019
4375 Clear 1 1017 34 0 5.68 244.88 10:38 01.08.2019
4376 Clear 1 1017 34 0 5.68 244.88 10:20 01.08.2019
4377 Clear 1 1017 34 0 5.68 244.88 09:44 01.08.2019
4378 Clear 2 1017 27 0 5.23 248.018 09:23 01.08.2019
4379 Clear 2 1017 28 0 5 245.535 08:47 01.08.2019
4380 Clear 2 1017 28 0 5 245.535 08:21 01.08.2019
4381 Clear 2 1017 28 0 5 245.535 08:21 01.08.2019
4382 Clear 2 1017 28 0 5 245.535 07:51 01.08.2019
4383 Clear 2 1017 28 0 5 245.535 07:28 01.08.2019
4384 Clear 2 1017 28 0 5 245.535 06:49 01.08.2019
4385 Clear 2 1017 28 0 5 245.535 06:49 01.08.2019
4386 Clear 2 1017 28 0 5 245.535 06:29 01.08.2019
4387 Clear 3 1018 25 0 4.02 250.452 05:30 01.08.2019
4388 Clear 4 1016 23 0 4.6 250.647 02:35 01.08.2019
4389 Clear 4 1016 24 0 4.87 251.892 00:51 01.08.2019
4390 Clear 9 1013 21 0 4.28 240.882 00:25 01.08.2019
4391 Clear 9 1013 21 0 4.28 240.882 23:44 31.07.2019
4392 Clear 9 1013 21 0 4.28 240.882 23:21 31.07.2019
4393 Clear 9 1013 21 0 4.28 240.882 23:21 31.07.2019
4394 Clear 9 1013 21 0 4.28 240.882 22:59 31.07.2019
4395 Clear 9 1013 21 0 4.28 240.882 22:41 31.07.2019
4396 Clear 9 1013 21 0 4.28 240.882 22:23 31.07.2019
4397 Clear 9 1013 21 0 4.28 240.882 21:39 31.07.2019
4398 Clear 11 1016 13 0 2.67 265.624 21:21 31.07.2019
4399 Clear 11 1016 13 0 3.03 265.345 20:48 31.07.2019
4400 Clear 15 1040 28 10000 3.1 220 20:22 31.07.2019
4401 Clear 15 1040 28 10000 3.1 220 19:48 31.07.2019
4402 Clear 15 1040 28 10000 3.1 220 19:28 31.07.2019
4403 Clear 14 1041 30 10000 1.5 240 18:55 31.07.2019
4404 Clear 14 1041 30 10000 1.5 240 18:37 31.07.2019
4405 Clear 14 1041 30 10000 1.5 240 18:18 31.07.2019
4406 Clear 11 1041 34 10000 2.6 240 17:43 31.07.2019
4407 Clear 11 1041 34 10000 2.6 240 17:20 31.07.2019
4408 Clear 7 1042 45 10000 2.1 240 16:47 31.07.2019
4409 Clear 7 1042 45 10000 2.1 240 16:21 31.07.2019
4410 Clear 4 1042 55 10000 3.6 240 15:54 31.07.2019
4411 Clear 4 1042 55 10000 3.6 240 15:36 31.07.2019
4412 Clear 4 1042 55 10000 3.6 240 15:18 31.07.2019
4413 Clear 2 1042 59 10000 2.6 240 14:42 31.07.2019
4414 Clear 2 1042 59 10000 2.6 240 14:42 31.07.2019
4415 Clear 2 1042 59 10000 2.6 240 14:19 31.07.2019
4416 Clear 0 1041 28 10000 2.6 240 13:45 31.07.2019
4417 -273 0 0 0 0 0 13:27 31.07.2019
4418 Clear -1 1041 74 10000 2.1 240 12:58 31.07.2019
4419 Clear -1 1041 74 10000 2.1 240 12:40 31.07.2019
4420 Clear -1 1041 74 10000 2.1 240 12:21 31.07.2019
4421 Clear 0 1021 28 0 2.68 252.841 11:39 31.07.2019
4422 Clear 0 1021 28 0 2.68 252.841 11:20 31.07.2019
4423 Clear 0 1021 28 0 2.68 252.841 10:46 31.07.2019
4424 Clear 0 1021 28 0 2.68 252.841 10:21 31.07.2019
4425 Clear 0 1021 28 0 2.68 252.841 09:59 31.07.2019
4426 Clear 0 1021 28 0 2.68 252.841 09:41 31.07.2019
4427 Clear 1 1021 30 0 2.28 254.279 09:23 31.07.2019
4428 Clear 1 1022 37 0 1.53 268.235 08:42 31.07.2019
4429 Clear 1 1022 37 0 1.53 268.235 08:22 31.07.2019
4430 Clear 1 1022 37 0 1.53 268.235 07:42 31.07.2019
4431 Clear 1 1022 37 0 1.53 268.235 07:22 31.07.2019
4432 Clear 1 1023 41 0 0.62 342.178 04:56 31.07.2019
4433 Clear 1 1023 41 0 0.62 342.178 03:33 31.07.2019
4434 Clear 2 1021 31 0 0.89 52.95 00:30 31.07.2019
4435 Clear 9 1017 18 0 0.65 163.536 23:42 30.07.2019
4436 Clear 9 1017 18 0 0.65 163.536 23:20 30.07.2019
4437 Clear 9 1017 18 0 0.65 163.536 22:48 30.07.2019
4438 Clear 9 1017 18 0 0.65 163.536 22:26 30.07.2019
4439 Clear 9 1017 18 0 0.65 163.536 21:57 30.07.2019
4440 Clear 9 1017 18 0 0.65 163.536 21:37 30.07.2019
4441 Clear 9 1018 11 0 0.81 11.101 21:19 30.07.2019
4442 Clear 9 1018 11 0 0.84 12.729 20:44 30.07.2019
4443 Clear 13 1042 28 10000 2.6 60 20:24 30.07.2019
4444 Clear 13 1042 28 10000 2.6 60 19:59 30.07.2019
4445 Clear 13 1042 28 10000 2.6 60 19:40 30.07.2019
4446 Clear 13 1042 28 10000 2.6 60 19:21 30.07.2019
4447 Clear 12 1042 30 10000 0.84 12.729 18:44 30.07.2019
4448 Clear 12 1042 30 10000 1.31 351.95 18:20 30.07.2019
4449 Clear 10 1043 31 10000 1.5 240 17:42 30.07.2019
4450 Clear 10 1043 31 10000 1.5 240 17:20 30.07.2019
4451 Clear 7 1043 39 10000 3.6 240 16:53 30.07.2019
4452 Clear 7 1043 39 10000 3.6 240 16:22 30.07.2019
4453 Clear 7 1043 39 10000 3.6 240 16:22 30.07.2019
4454 Clear 4 1043 51 10000 2.6 240 15:59 30.07.2019
4455 Clear 4 1043 51 10000 2.6 240 15:38 30.07.2019
4456 Clear 4 1043 51 10000 2.6 240 15:19 30.07.2019
4457 Clear 2 1042 55 10000 2.1 220 14:43 30.07.2019
4458 Clear 2 1042 55 10000 2.1 220 14:22 30.07.2019
4459 Clear -1 1042 58 10000 0.76 249.286 13:55 30.07.2019
4460 Clear -1 1042 58 10000 0.76 249.286 13:36 30.07.2019
4461 Clear -1 1042 58 10000 0.55 250.353 13:18 30.07.2019
4462 Clear -2 1042 63 10000 0.55 250.353 12:43 30.07.2019
4463 Clear -2 1042 63 10000 0.98 271.457 12:24 30.07.2019
4464 Clear -2 1023 20 0 0.98 271.457 11:44 30.07.2019
4465 Clear -2 1023 20 0 0.98 271.457 11:23 30.07.2019
4466 Clear -1 1023 20 0 1.93 248.364 10:55 30.07.2019
4467 Clear -1 1023 20 0 1.93 248.364 10:37 30.07.2019
4468 Clear -1 1023 20 0 1.93 248.364 10:37 30.07.2019
4469 Clear -1 1023 20 0 1.93 248.364 10:19 30.07.2019
4470 Clear -1 1023 20 0 1.93 248.364 09:46 30.07.2019
4471 Clear -1 1023 20 0 1.93 248.364 09:27 30.07.2019
4472 Clear -1 1022 23 0 2.18 244.446 08:39 30.07.2019
4473 Clear -1 1022 23 0 2.18 244.446 08:18 30.07.2019
4474 Clear -1 1022 23 0 2.18 244.446 07:40 30.07.2019
4475 Clear -1 1022 23 0 2.18 244.446 07:22 30.07.2019
4476 Clear -1 1022 23 0 2.18 244.446 06:43 30.07.2019
4477 Clear 0 1023 25 0 2.52 256.317 05:35 30.07.2019
4478 Clear 0 1023 25 0 2.52 256.317 04:29 30.07.2019
4479 Clear 1 1021 27 0 3.2 252.685 01:23 30.07.2019
4480 Clear 1 1021 27 0 3.2 252.685 00:27 30.07.2019
4481 Clear 1 1021 27 0 3.2 252.685 00:27 30.07.2019
4482 Clear 1 1021 27 0 3.2 252.685 00:27 30.07.2019
4483 Clear 4 1016 34 0 2.48 247.538 23:59 29.07.2019
4484 Clear 4 1016 34 0 2.48 247.538 23:40 29.07.2019
4485 Clear 4 1016 34 0 2.48 247.538 23:21 29.07.2019
4486 Clear 4 1016 34 0 2.48 247.538 22:55 29.07.2019
4487 Clear 4 1016 34 0 2.48 247.538 22:37 29.07.2019
4488 Clear 4 1016 34 0 2.48 247.538 22:18 29.07.2019
4489 Clear 4 1016 34 0 2.48 247.538 21:41 29.07.2019
4490 Clear 6 1017 24 0 3.9 256.142 21:23 29.07.2019
4491 Clear 6 1017 24 0 3.9 256.142 20:57 29.07.2019
4492 Clear 6 1017 24 0 3.9 256.142 20:57 29.07.2019
4493 Clear 6 1017 24 0 3.9 256.142 20:38 29.07.2019
4494 Clear 12 1038 23 10000 3.1 240 20:19 29.07.2019
4495 Clear 12 1038 23 10000 3.1 240 19:45 29.07.2019
4496 Clear 12 1038 23 10000 3.1 240 19:23 29.07.2019
4497 Clear 11 1040 27 10000 4.1 240 18:58 29.07.2019
4498 Clear 11 1040 27 10000 4.1 240 18:38 29.07.2019
4499 Clear 11 1040 27 10000 4.1 240 18:19 29.07.2019
4500 Clear 9 1041 31 10000 3.1 240 17:47 29.07.2019
4501 Clear 9 1041 31 10000 3.1 240 17:28 29.07.2019
4502 Clear 6 1040 38 10000 2.6 240 16:55 29.07.2019
4503 Clear 6 1040 38 10000 2.6 240 16:36 29.07.2019
4504 Clear 6 1040 38 10000 2.6 240 16:36 29.07.2019
4505 Clear 6 1040 38 10000 2.6 240 16:18 29.07.2019
4506 Clear 3 1040 47 10000 3.1 200 15:43 29.07.2019
4507 Clear 3 1040 47 10000 3.1 200 15:24 29.07.2019
4508 Clear 2 1039 51 10000 2.6 240 14:42 29.07.2019
4509 Clear 2 1039 51 10000 2.6 240 14:21 29.07.2019
4510 Clear 0 1039 29 10000 1.5 240 13:46 29.07.2019
4511 Clear 0 1039 30 10000 1.5 240 13:24 29.07.2019
4512 Clear -1 1037 63 10000 2.1 240 12:57 29.07.2019
4513 Clear -1 1037 63 10000 2.1 240 12:38 29.07.2019
4514 Clear -1 1037 63 10000 2.1 240 12:20 29.07.2019
4515 Clear -3 1021 23 0 8.02 262.58 11:41 29.07.2019
4516 Clear -3 1021 23 0 8.02 262.58 11:19 29.07.2019
4517 Clear -3 1021 23 0 8.02 262.58 10:43 29.07.2019
4518 Clear -3 1021 23 0 8.02 262.58 10:21 29.07.2019
4519 Clear -3 1021 23 0 8.02 262.58 10:21 29.07.2019
4520 Clear -3 1021 23 0 8.02 262.58 09:44 29.07.2019
4521 Clear -4 1022 27 0 6.6 252.793 09:21 29.07.2019
4522 Clear -2 1021 24 0 6.35 252.147 08:47 29.07.2019
4523 Clear -2 1021 24 0 6.35 252.147 08:26 29.07.2019
4524 Clear -2 1021 24 0 6.35 252.147 07:46 29.07.2019
4525 Clear -2 1021 24 0 6.35 252.147 07:27 29.07.2019
4526 Clear -2 1021 24 0 6.35 252.147 06:40 29.07.2019
4527 Clear -1 1021 27 0 5.88 250.446 05:36 29.07.2019
4528 Clouds 0 1019 33 0 4.94 254.709 02:54 29.07.2019
4529 Clouds 0 1019 33 0 4.94 254.709 01:50 29.07.2019
4530 Clear 1 1018 31 0 6.15 258.299 01:31 29.07.2019
4531 Clear 1 1018 31 0 6.15 258.299 00:57 29.07.2019
4532 Clear 5 1013 33 0 6.17 276.602 00:24 29.07.2019
4533 Clear 5 1013 33 0 6.17 276.602 23:43 28.07.2019
4534 Clear 5 1013 33 0 6.17 276.602 23:24 28.07.2019
4535 Clear 5 1013 33 0 6.17 276.602 22:44 28.07.2019
4536 Clear 5 1013 33 0 6.17 276.602 22:26 28.07.2019
4537 Clear 5 1013 33 0 6.17 276.602 21:52 28.07.2019
4538 Clouds 7 1015 26 0 8.05 277.617 21:20 28.07.2019
4539 Clouds 7 1015 26 0 8.05 277.617 20:57 28.07.2019
4540 Clouds 8 1014 26 0 8.45 279.952 20:39 28.07.2019
4541 Clouds 8 1014 26 0 8.45 279.952 20:21 28.07.2019
4542 Clouds 8 1014 26 0 8.45 279.952 19:40 28.07.2019
4543 Clouds 8 1014 26 0 8.45 279.952 19:20 28.07.2019
4544 Clouds 8 1014 26 0 8.45 279.952 18:46 28.07.2019
4545 Clouds 8 1014 26 0 8.45 279.952 18:27 28.07.2019
4546 Clouds 6 1020 38 0 2.79 307.227 17:56 28.07.2019
4547 Clouds 6 1020 38 0 2.79 307.227 17:38 28.07.2019
4548 Clouds 5 1040 52 10000 2.79 307.227 17:19 28.07.2019
4549 Clouds 5 1040 52 10000 2.79 307.227 16:42 28.07.2019
4550 Clouds 5 1040 52 10000 2.79 307.227 16:23 28.07.2019
4551 Clouds 3 1041 55 10000 1.5 240 15:46 28.07.2019
4552 Clouds 3 1041 55 10000 1.5 240 15:26 28.07.2019
4553 Clouds 1 1040 64 10000 3.09 255.415 14:40 28.07.2019
4554 Clouds 1 1040 64 10000 3.09 255.415 14:21 28.07.2019
4555 Clouds -1 1040 68 10000 3.09 255.415 13:59 28.07.2019
4556 Clouds -1 1040 68 10000 3.09 255.415 13:39 28.07.2019
4557 Clouds -1 1040 68 10000 2.89 259.344 13:19 28.07.2019
4558 Clouds -2 1039 74 10000 2.89 259.344 12:43 28.07.2019
4559 Clear -2 1039 74 10000 2.92 258.948 12:25 28.07.2019
4560 Clear -2 1021 30 0 2.92 258.948 11:50 28.07.2019
4561 Clear -2 1021 30 0 2.92 258.948 11:29 28.07.2019
4562 Clear -2 1021 30 0 2.92 258.948 10:59 28.07.2019
4563 Clear -2 1021 30 0 2.92 258.948 10:38 28.07.2019
4564 Clear -2 1021 30 0 2.92 258.948 10:18 28.07.2019
4565 Clear -2 1021 30 0 2.92 258.948 09:40 28.07.2019
4566 Clear -2 1022 29 0 2.73 258.533 09:21 28.07.2019
4567 Clear -1 1022 32 0 2.1 263.422 08:42 28.07.2019
4568 Clear -1 1022 32 0 2.1 263.422 08:22 28.07.2019
4569 Clear -1 1022 32 0 2.1 263.422 07:42 28.07.2019
4570 Clear -1 1022 32 0 2.1 263.422 07:24 28.07.2019
4571 Clear -1 1022 32 0 2.1 263.422 06:35 28.07.2019
4572 Clear 0 1022 33 0 2.17 264.896 05:21 28.07.2019
4573 Clear 1 1021 32 0 3.4 252.998 02:39 28.07.2019
4574 Clear 1 1021 32 0 3.4 252.998 01:43 28.07.2019
4575 Clear 1 1021 31 0 3.83 256.729 01:18 28.07.2019
4576 Clear 1 1021 31 0 3.83 256.729 00:42 28.07.2019
4577 Clear 5 1017 34 0 4.59 233.475 23:54 27.07.2019
4578 Clear 5 1017 34 0 4.59 233.475 23:28 27.07.2019
4579 Clear 5 1017 34 0 4.59 233.475 22:47 27.07.2019
4580 Clear 5 1017 34 0 4.59 233.475 22:47 27.07.2019
4581 Clear 5 1017 34 0 4.59 233.475 22:28 27.07.2019
4582 Clear 5 1017 34 0 4.59 233.475 21:59 27.07.2019
4583 Clear 5 1017 34 0 4.59 233.475 21:38 27.07.2019
4584 Clear 7 1019 13 0 1.16 317.836 21:19 27.07.2019
4585 Clear 7 1019 14 0 1.09 292.826 20:45 27.07.2019
4586 Clear 7 1019 14 0 1.09 292.826 20:22 27.07.2019
4587 Clear 7 1019 14 0 1.09 292.826 19:41 27.07.2019
4588 Clear 7 1019 14 0 1.09 292.826 19:22 27.07.2019
4589 Clear 7 1019 14 0 1.09 292.826 18:49 27.07.2019
4590 Clear 7 1019 14 0 1.09 292.826 18:30 27.07.2019
4591 Clear 4 1024 24 0 1.26 314.003 17:52 27.07.2019
4592 Clear 4 1043 48 10000 1.26 314.003 17:32 27.07.2019
4593 Clear 4 1043 48 10000 1.26 314.003 16:57 27.07.2019
4594 Clear 4 1043 48 10000 1.26 314.003 16:38 27.07.2019
4595 Clear 4 1043 48 10000 1.26 314.003 16:18 27.07.2019
4596 Clear 3 1043 51 10000 1.5 240 15:43 27.07.2019
4597 Clear 3 1043 51 10000 1.5 240 15:19 27.07.2019
4598 Clear 2 1042 51 10000 2.74 257.093 14:46 27.07.2019
4599 Clear 2 1042 51 10000 2.74 257.093 14:27 27.07.2019
4600 Clear -2 1042 63 10000 2.74 257.093 13:51 27.07.2019
4601 Clear -2 1042 63 10000 2.75 255.489 13:25 27.07.2019
4602 Clear -3 1042 68 10000 2.1 240 12:54 27.07.2019
4603 Clear -3 1042 68 10000 2.1 240 12:36 27.07.2019
4604 Clear -3 1042 68 10000 2.1 240 12:18 27.07.2019
4605 Clear -4 1025 14 0 2.94 251.861 11:39 27.07.2019
4606 Clear -4 1025 14 0 2.94 251.861 11:20 27.07.2019
4607 Clear -4 1025 14 0 2.94 251.861 10:41 27.07.2019
4608 Clear -4 1025 14 0 2.94 251.861 10:22 27.07.2019
4609 Clear -4 1025 14 0 2.94 251.861 09:41 27.07.2019
4610 Clear -4 1024 16 0 2.46 246.563 09:23 27.07.2019
4611 Clear -2 1024 22 0 1.79 249.706 08:49 27.07.2019
4612 Clear -2 1024 22 0 1.79 249.706 08:49 27.07.2019
4613 Clear -2 1024 22 0 1.79 249.706 08:30 27.07.2019
4614 Clear -2 1024 22 0 1.79 249.706 07:55 27.07.2019
4615 Clear -2 1024 22 0 1.79 249.706 07:33 27.07.2019
4616 Clear -2 1024 22 0 1.79 249.706 06:57 27.07.2019
4617 Clear -2 1024 22 0 1.79 249.706 06:32 27.07.2019
4618 Clear -1 1025 24 0 1.89 243.408 05:54 27.07.2019
4619 Clear -1 1025 24 0 1.89 243.408 05:32 27.07.2019
4620 Clear -1 1025 24 0 1.89 243.408 04:35 27.07.2019
4621 Clear -1 1025 24 0 1.89 243.408 03:37 27.07.2019
4622 Clear -1 1023 31 0 3.62 245.264 02:42 27.07.2019
4623 Clear -1 1023 31 0 3.62 245.264 01:52 27.07.2019
4624 Clear -1 1023 30 0 3.55 245.764 01:28 27.07.2019
4625 Clear -1 1023 30 0 3.55 245.764 00:33 27.07.2019
4626 Clear 4 1018 31 0 2.4 244.16 23:58 26.07.2019
4627 Clear 4 1018 31 0 2.4 244.16 23:38 26.07.2019
4628 Clear 4 1018 31 0 2.4 244.16 23:20 26.07.2019
4629 Clear 4 1018 31 0 2.4 244.16 22:42 26.07.2019
4630 Clear 4 1018 31 0 2.4 244.16 22:23 26.07.2019
4631 Clear 4 1018 31 0 2.4 244.16 21:49 26.07.2019
4632 Clear 5 1018 22 0 3.2 248.238 21:20 26.07.2019
4633 Clear 5 1019 22 0 2.99 250.861 20:45 26.07.2019
4634 Clear 9 1040 36 10000 2.99 250.861 20:27 26.07.2019
4635 Clear 9 1040 36 10000 2.99 250.861 19:44 26.07.2019
4636 Clear 9 1040 36 10000 2.99 250.861 19:26 26.07.2019
4637 Clear 7 1040 39 10000 2.1 240 18:59 26.07.2019
4638 Clear 7 1040 39 10000 2.1 240 18:40 26.07.2019
4639 Clear 7 1040 39 10000 2.1 240 18:20 26.07.2019
4640 Clear 6 1041 45 10000 3.6 240 17:48 26.07.2019
4641 Clear 6 1041 45 10000 3.6 240 17:20 26.07.2019
4642 Clear 5 1041 48 10000 4.1 240 16:59 26.07.2019
4643 Clear 5 1041 48 10000 4.1 240 16:41 26.07.2019
4644 Clear 5 1041 48 10000 4.1 240 16:41 26.07.2019
4645 Clear 5 1041 48 10000 4.1 240 16:21 26.07.2019
4646 Clear 3 1040 55 10000 3.1 240 15:59 26.07.2019
4647 Clear 3 1023 24 0 2.33 268.894 15:40 26.07.2019
4648 Clear 1 1040 59 10000 2.6 240 15:20 26.07.2019
4649 Clear 1 1040 59 10000 2.6 240 14:44 26.07.2019
4650 Clear 1 1040 59 10000 2.6 240 14:23 26.07.2019
4651 Clear -2 1039 68 10000 4.21 279.256 13:47 26.07.2019
4652 Clear -2 1039 68 10000 3.93 274.859 13:28 26.07.2019
4653 Clear -3 1038 73 10000 3.1 240 12:49 26.07.2019
4654 Clear -3 1038 73 10000 3.1 240 12:23 26.07.2019
4655 Clear -6 1023 27 0 4.63 263.282 11:56 26.07.2019
4656 Clear -6 1023 27 0 4.63 263.282 11:37 26.07.2019
4657 Clear -6 1023 27 0 4.63 263.282 11:18 26.07.2019
4658 Clear -6 1023 27 0 4.63 263.282 10:39 26.07.2019
4659 Clear -6 1023 27 0 4.63 263.282 10:20 26.07.2019
4660 Clear -6 1023 27 0 4.63 263.282 09:50 26.07.2019
4661 Clear -6 1023 27 0 4.63 263.282 09:28 26.07.2019
4662 Clear -3 1023 22 0 6.88 281.093 08:41 26.07.2019
4663 Clear -3 1023 22 0 6.88 281.093 08:21 26.07.2019
4664 Clear -3 1023 22 0 6.88 281.093 07:40 26.07.2019
4665 Clear -3 1023 22 0 6.88 281.093 07:22 26.07.2019
4666 Clear -3 1023 22 0 6.88 281.093 06:30 26.07.2019
4667 Clear -2 1023 21 0 8.53 274.953 04:30 26.07.2019
4668 Clear -2 1023 21 0 8.53 274.953 03:54 26.07.2019
4669 Clear -1 1020 21 0 10.35 268.421 01:50 26.07.2019
4670 Clear 0 1020 19 0 13.68 264.254 01:24 26.07.2019
4671 Clear 0 1020 19 0 13.68 264.254 00:32 26.07.2019
4672 Clear 3 1013 23 0 15.36 270.407 23:48 25.07.2019
4673 Clear 3 1013 23 0 15.36 270.407 23:23 25.07.2019
4674 Clear 3 1013 23 0 15.36 270.407 22:42 25.07.2019
4675 Clear 3 1013 23 0 15.36 270.407 22:23 25.07.2019
4676 Clear 3 1013 23 0 15.36 270.407 21:58 25.07.2019
4677 Clear 3 1013 23 0 15.36 270.407 21:40 25.07.2019
4678 Clear 4 1013 23 0 17.66 281.905 21:20 25.07.2019
4679 Clear 4 1013 23 0 17.68 284.151 20:41 25.07.2019
4680 Clear 4 1013 23 0 17.68 284.151 20:21 25.07.2019
4681 Clear 4 1013 23 0 17.68 284.151 19:41 25.07.2019
4682 Clear 4 1013 23 0 17.68 284.151 19:23 25.07.2019
4683 Clear 4 1013 23 0 17.68 284.151 18:45 25.07.2019
4684 Clear 4 1013 23 0 17.68 284.151 18:27 25.07.2019
4685 Clear 3 1017 25 0 16.97 292.041 17:52 25.07.2019
4686 Clear 3 1017 25 0 16.97 292.041 17:34 25.07.2019
4687 Clear 3 1017 25 0 16.97 292.041 16:59 25.07.2019
4688 Clear 3 1017 25 0 16.97 292.041 16:41 25.07.2019
4689 Clear 3 1017 25 0 16.97 292.041 16:22 25.07.2019
4690 Clear 3 1017 25 0 16.97 292.041 15:51 25.07.2019
4691 Clear -2 1021 38 0 9.86 295.132 15:21 25.07.2019
4692 Clear -2 1021 38 0 9.86 295.132 14:43 25.07.2019
4693 Clear -2 1021 38 0 9.86 295.132 14:25 25.07.2019
4694 Clear -2 1021 38 0 9.86 295.132 13:59 25.07.2019
4695 Clear -2 1021 38 0 9.86 295.132 13:37 25.07.2019
4696 Clear -2 1021 37 0 10.06 297.245 13:19 25.07.2019
4697 Clear -2 1021 37 0 10.06 297.245 12:34 25.07.2019
4698 Clear -4 1019 50 0 7.18 303.599 11:58 25.07.2019
4699 Clear -4 1019 50 0 7.18 303.599 11:40 25.07.2019
4700 Clear -4 1019 50 0 7.18 303.599 11:21 25.07.2019
4701 Clear -4 1019 50 0 7.18 303.599 10:43 25.07.2019
4702 Clear -4 1019 50 0 7.18 303.599 10:23 25.07.2019
4703 Clear -4 1019 50 0 7.18 303.599 09:45 25.07.2019
4704 Clear -4 1019 50 0 7.18 303.599 09:45 25.07.2019
4705 Clear -4 1019 50 0 7.18 303.599 09:27 25.07.2019
4706 Clear -5 1020 57 0 6.21 301.051 08:48 25.07.2019
4707 Clear -5 1020 57 0 6.21 301.051 08:29 25.07.2019
4708 Clear -5 1020 57 0 6.21 301.051 07:40 25.07.2019
4709 Clear -5 1020 57 0 6.21 301.051 06:46 25.07.2019
4710 Clear -3 1020 67 0 7.2 305.057 06:19 25.07.2019
4711 Clear -3 1020 67 0 7.2 305.057 05:34 25.07.2019
4712 Clear -3 1020 67 0 7.2 305.057 04:45 25.07.2019
4713 Clouds -1 1017 80 0 4.44 296.906 02:26 25.07.2019
4714 Clouds -1 1018 91 0 5.5 311.209 01:21 25.07.2019
4715 Clouds -1 1018 91 0 5.5 311.209 00:31 25.07.2019
4716 Clouds 0 1014 93 0 4.08 271.616 23:56 24.07.2019
4717 Clouds 0 1014 93 0 4.08 271.616 23:38 24.07.2019
4718 Clouds 0 1014 93 0 4.08 271.616 23:19 24.07.2019
4719 Clouds 0 1014 93 0 4.08 271.616 22:44 24.07.2019
4720 Clouds 0 1014 93 0 4.08 271.616 22:22 24.07.2019
4721 Clouds 0 1014 93 0 4.08 271.616 21:55 24.07.2019
4722 Clouds 0 1014 93 0 4.08 271.616 21:37 24.07.2019
4723 Clouds 6 1012 61 0 12.3 353.881 21:18 24.07.2019
4724 Clouds 5 1012 70 0 10.68 353.903 20:40 24.07.2019
4725 Clouds 6 1031 75 10000 3.1 60 20:22 24.07.2019
4726 Clouds 6 1031 75 10000 3.1 60 19:57 24.07.2019
4727 Clouds 6 1031 75 10000 3.1 60 19:39 24.07.2019
4728 Clouds 6 1031 75 10000 3.1 60 19:19 24.07.2019
4729 Clouds 5 1032 80 10000 3.1 100 18:42 24.07.2019
4730 Clouds 5 1032 80 10000 3.1 100 18:23 24.07.2019
4731 Clouds 4 1033 86 10000 8.59 6.188 17:46 24.07.2019
4732 Clouds 4 1033 86 10000 8.59 6.188 17:20 24.07.2019
4733 Clouds 3 1033 86 10000 8.59 6.188 16:43 24.07.2019
4734 Clouds 3 1033 86 10000 8.59 6.188 16:23 24.07.2019
4735 Clouds 2 1033 93 10000 8.59 6.188 15:59 24.07.2019
4736 Clouds 2 1033 93 10000 8.59 6.188 15:36 24.07.2019
4737 Clouds 2 1033 93 10000 4.16 7.253 15:18 24.07.2019
4738 Rain 1 1033 100 7000 4.16 7.253 14:43 24.07.2019
4739 Rain 1 1033 100 7000 4.16 7.253 14:19 24.07.2019
4740 Rain 1 1032 100 3000 2.6 240 13:39 24.07.2019
4741 Rain 1 1032 100 3000 2.6 240 13:19 24.07.2019
4742 Rain 2 1032 100 6000 4.22 350.337 12:51 24.07.2019
4743 Rain 2 1032 100 6000 4.22 350.337 12:51 24.07.2019
4744 Rain 2 1032 100 6000 4.22 350.337 12:33 24.07.2019
4745 Clouds 1 1016 89 0 4.56 23.483 11:41 24.07.2019
4746 Clouds 1 1016 89 0 4.56 23.483 11:21 24.07.2019
4747 Clouds 1 1016 89 0 4.56 23.483 10:49 24.07.2019
4748 Clouds 1 1016 89 0 4.56 23.483 10:27 24.07.2019
4749 Clouds 1 1016 89 0 4.56 23.483 09:59 24.07.2019
4750 Clouds 1 1016 89 0 4.56 23.483 09:41 24.07.2019
4751 Clouds 1 1017 95 0 4.02 6.335 09:21 24.07.2019
4752 Clouds 1 1016 97 0 3.57 0.289 08:42 24.07.2019
4753 Clouds 1 1016 97 0 3.57 0.289 07:52 24.07.2019
4754 Clouds 1 1016 97 0 3.57 0.289 07:31 24.07.2019
4755 Clouds 1 1016 97 0 3.57 0.289 06:51 24.07.2019
4756 Clouds 1 1016 97 0 3.57 0.289 06:27 24.07.2019
4757 Clouds 1 1017 96 0 2.53 345.015 04:45 24.07.2019
4758 Clouds 2 1015 90 0 3 310.336 01:48 24.07.2019
4759 Clouds 2 1015 91 0 2.16 340.405 00:57 24.07.2019
4760 Clouds 2 1015 91 0 2.16 340.405 00:30 24.07.2019
4761 Clouds 5 1010 62 0 8.06 356.927 23:52 23.07.2019
4762 Clouds 5 1010 62 0 8.06 356.927 23:26 23.07.2019
4763 Clouds 5 1010 62 0 8.06 356.927 22:58 23.07.2019
4764 Clouds 5 1010 62 0 8.06 356.927 22:37 23.07.2019
4765 Clouds 5 1010 62 0 8.06 356.927 22:18 23.07.2019
4766 Clouds 5 1010 62 0 8.06 356.927 22:18 23.07.2019
4767 Clouds 5 1010 62 0 8.06 356.927 21:44 23.07.2019
4768 Clouds 5 1010 62 0 8.06 356.927 21:44 23.07.2019
4769 Clouds 8 1011 50 0 9.88 335.371 21:26 23.07.2019
4770 Clouds 8 1011 46 0 11 332.671 20:49 23.07.2019
4771 Rain 2 1035 93 4000 11 332.671 20:29 23.07.2019
4772 Rain 2 1035 93 4000 11 332.671 19:44 23.07.2019
4773 Rain 2 1035 93 4000 11 332.671 19:44 23.07.2019
4774 Rain 2 1035 93 4000 11 332.671 19:24 23.07.2019
4775 Snow 1 1038 100 500 1.5 100 18:58 23.07.2019
4776 Snow 1 1038 100 500 1.5 100 18:39 23.07.2019
4777 Snow 1 1038 100 500 1.5 100 18:20 23.07.2019
4778 Snow 1 1038 42 500 8.39 342.833 17:43 23.07.2019
4779 Snow 1 1038 42 500 8.39 342.833 17:22 23.07.2019
4780 Snow 2 1038 42 500 8.39 342.833 16:44 23.07.2019
4781 Snow 2 1038 42 500 8.39 342.833 16:26 23.07.2019
4782 Clouds 7 1016 42 0 8.39 342.833 15:52 23.07.2019
4783 Clouds 7 1016 42 0 8.39 342.833 15:34 23.07.2019
4784 Clouds 2 1019 48 0 2.9 320.887 14:56 23.07.2019
4785 Clouds 2 1019 48 0 2.9 320.887 14:36 23.07.2019
4786 Clouds 2 1019 48 0 2.9 320.887 14:18 23.07.2019
4787 Clouds 2 1019 48 0 2.9 320.887 14:18 23.07.2019
4788 Clouds 2 1019 48 0 2.9 320.887 13:55 23.07.2019
4789 Clouds 2 1019 48 0 2.9 320.887 13:36 23.07.2019
4790 Clouds 1 1019 53 0 2.91 305.508 13:18 23.07.2019
4791 Clouds 1 1019 53 0 2.91 305.508 12:42 23.07.2019
4792 Clear 0 1018 42 0 3.04 275.102 12:22 23.07.2019
4793 Clear 0 1018 42 0 3.04 275.102 11:41 23.07.2019
4794 Clear 0 1018 42 0 3.04 275.102 11:21 23.07.2019
4795 Clear 0 1018 42 0 3.04 275.102 10:49 23.07.2019
4796 Clear 0 1018 42 0 3.04 275.102 10:23 23.07.2019
4797 Clear 0 1018 42 0 3.04 275.102 09:43 23.07.2019
4798 Clear 0 1018 42 0 3.04 275.102 09:43 23.07.2019
4799 Clear 0 1017 53 0 1.02 276.053 09:22 23.07.2019
4800 Clear 0 1017 53 0 1.02 276.053 08:54 23.07.2019
4801 Clouds 0 1018 50 0 1.16 265.703 08:36 23.07.2019
4802 Clouds 0 1018 50 0 1.16 265.703 08:36 23.07.2019
4803 Clouds 0 1018 50 0 1.16 265.703 08:18 23.07.2019
4804 Clouds 0 1018 50 0 1.16 265.703 07:38 23.07.2019
4805 Clouds 0 1018 50 0 1.16 265.703 06:57 23.07.2019
4806 Clouds 0 1018 50 0 1.16 265.703 06:36 23.07.2019
4807 Clouds 2 1017 46 0 1.88 312.82 04:27 23.07.2019
4808 Clear 5 1015 32 0 4.4 294.437 01:46 23.07.2019
4809 Clear 5 1015 35 0 3.61 305.615 00:46 23.07.2019
4810 Clear 9 1010 27 0 8.98 309.478 00:19 23.07.2019
4811 Clear 9 1010 27 0 8.98 309.478 23:39 22.07.2019
4812 Clear 9 1010 27 0 8.98 309.478 23:20 22.07.2019
4813 Clear 9 1010 27 0 8.98 309.478 22:45 22.07.2019
4814 Clear 9 1010 27 0 8.98 309.478 22:24 22.07.2019
4815 Clear 9 1010 27 0 8.98 309.478 21:56 22.07.2019
4816 Clear 9 1010 27 0 8.98 309.478 21:36 22.07.2019
4817 Clear 11 1011 22 0 10.56 308.359 21:18 22.07.2019
4818 Clear 11 1011 22 0 10.56 308.359 21:18 22.07.2019
4819 Clear 10 1011 23 0 10.8 309.253 20:41 22.07.2019
4820 Clear 13 1033 24 10000 4.1 270 20:22 22.07.2019
4821 Clear 13 1033 24 10000 4.1 270 19:42 22.07.2019
4822 Clear 13 1033 24 10000 4.1 270 19:23 22.07.2019
4823 Clear 11 1033 29 10000 6.2 240 18:48 22.07.2019
4824 Clear 11 1033 29 10000 6.2 240 18:28 22.07.2019
4825 Clear 9 1033 36 10000 9.49 313.194 17:59 22.07.2019
4826 Clear 9 1033 36 10000 9.49 313.194 17:38 22.07.2019
4827 Clear 9 1033 36 10000 9.49 313.194 17:20 22.07.2019
4828 Clear 8 1034 39 10000 2.6 240 16:41 22.07.2019
4829 Clear 8 1034 39 10000 2.6 240 16:21 22.07.2019
4830 Clear 6 1035 48 10000 9.49 313.194 15:46 22.07.2019
4831 Clear 6 1035 48 10000 2.65 308.114 15:22 22.07.2019
4832 Clear 5 1034 56 10000 2.65 308.114 14:59 22.07.2019
4833 Clear 5 1034 56 10000 2.65 308.114 14:41 22.07.2019
4834 Clear 5 1034 56 10000 2.65 308.114 14:19 22.07.2019
4835 Clear 1 1034 64 10000 3.1 230 13:45 22.07.2019
4836 Clear 1 1034 64 10000 3.1 230 13:22 22.07.2019
4837 Clear 0 1034 48 10000 2.65 308.114 12:44 22.07.2019
4838 Clear 0 1034 52 10000 2.38 279.986 12:23 22.07.2019
4839 Clear -2 1018 52 0 2.12 287.143 11:44 22.07.2019
4840 Clear -2 1018 52 0 2.12 287.143 11:20 22.07.2019
4841 Clear -2 1018 52 0 2.12 287.143 10:43 22.07.2019
4842 Clear -2 1018 52 0 2.12 287.143 10:25 22.07.2019
4843 Clear -2 1018 52 0 2.12 287.143 09:43 22.07.2019
4844 Clear -1 1019 46 0 2.83 273.732 09:24 22.07.2019
4845 Clear -1 1019 46 0 2.83 273.732 08:44 22.07.2019
4846 Clear -1 1019 46 0 2.83 273.732 08:25 22.07.2019
4847 Clear -1 1019 46 0 2.83 273.732 08:25 22.07.2019
4848 Clear -1 1019 46 0 2.83 273.732 07:55 22.07.2019
4849 Clear -1 1019 46 0 2.83 273.732 07:32 22.07.2019
4850 Clear -1 1019 46 0 2.83 273.732 06:44 22.07.2019
4851 Clear 1 1018 42 0 4.28 261.603 03:57 22.07.2019
4852 Clear 3 1015 37 0 6.1 257.241 02:24 22.07.2019
4853 Clear 3 1015 39 0 5.8 258.161 00:56 22.07.2019
4854 Clear 7 1009 29 0 12.96 278.655 00:25 22.07.2019
4855 Clear 7 1009 29 0 12.96 278.655 23:55 21.07.2019
4856 Clear 7 1009 29 0 12.96 278.655 23:55 21.07.2019
4857 Clear 7 1009 29 0 12.96 278.655 23:28 21.07.2019
4858 Clear 7 1009 29 0 12.96 278.655 22:42 21.07.2019
4859 Clear 7 1009 29 0 12.96 278.655 22:22 21.07.2019
4860 Clear 7 1009 29 0 12.96 278.655 21:57 21.07.2019
4861 Clear 7 1009 29 0 12.96 278.655 21:37 21.07.2019
4862 Clear 9 1011 22 0 14.81 280.525 21:19 21.07.2019
4863 Clear 9 1011 21 0 14.33 280.532 20:44 21.07.2019
4864 Clear 9 1011 21 0 14.33 280.532 20:26 21.07.2019
4865 Clear 9 1011 21 0 14.33 280.532 19:55 21.07.2019
4866 Clear 9 1011 21 0 14.33 280.532 19:36 21.07.2019
4867 Clear 10 1033 25 10000 7.7 240 19:18 21.07.2019
4868 Clear 10 1033 25 10000 7.7 240 18:44 21.07.2019
4869 Clear 10 1033 25 10000 7.7 240 18:25 21.07.2019
4870 Clear 9 1033 26 10000 7.7 240 17:42 21.07.2019
4871 Clear 9 1033 26 10000 7.7 240 17:20 21.07.2019
4872 Dust 7 1034 33 5000 7.7 240 16:47 21.07.2019
4873 Dust 7 1034 33 5000 7.7 240 16:25 21.07.2019
4874 Clear 5 1034 38 10000 4.1 240 15:57 21.07.2019
4875 Clear 5 1034 38 10000 4.1 240 15:37 21.07.2019
4876 Clear 5 1034 38 10000 4.1 240 15:18 21.07.2019
4877 Clear 4 1033 44 10000 5.1 240 14:41 21.07.2019
4878 Clear 4 1033 44 10000 5.1 240 14:22 21.07.2019
4879 Clear 3 1033 51 10000 5.1 240 13:49 21.07.2019
4880 Clear 3 1033 51 10000 5.1 240 13:29 21.07.2019
4881 Clear 1 1033 64 10000 2.6 240 12:43 21.07.2019
4882 Clear 1 1033 64 10000 2.6 240 12:24 21.07.2019
4883 Clear 0 1017 43 0 6.36 288.298 11:49 21.07.2019
4884 Clear 0 1017 43 0 6.36 288.298 11:29 21.07.2019
4885 Clear 0 1017 43 0 6.36 288.298 10:57 21.07.2019
4886 Clear 0 1017 43 0 6.36 288.298 10:39 21.07.2019
4887 Clear 0 1017 43 0 6.36 288.298 10:20 21.07.2019
4888 Clear 0 1017 43 0 6.36 288.298 09:38 21.07.2019
4889 Clear 0 1017 43 0 6.36 288.298 09:38 21.07.2019
4890 Clear 1 1018 47 0 5.7 265.539 09:19 21.07.2019
4891 Clouds 1 1018 50 0 5.1 266.715 08:41 21.07.2019
4892 Clouds 1 1018 50 0 5.1 266.715 08:23 21.07.2019
4893 Clouds 1 1018 50 0 5.1 266.715 07:36 21.07.2019
4894 Clouds 1 1018 50 0 5.1 266.715 06:45 21.07.2019
4895 Clear 2 1018 48 0 3.8 257.398 05:28 21.07.2019
4896 Clear 4 1015 43 0 4.97 267.047 02:27 21.07.2019
4897 Clouds 4 1016 45 0 4.4 254.5 00:58 21.07.2019
4898 Clouds 8 1012 33 0 8.55 261.42 00:24 21.07.2019
4899 Clouds 8 1012 33 0 8.55 261.42 23:59 20.07.2019
4900 Clouds 8 1012 33 0 8.55 261.42 23:39 20.07.2019
4901 Clouds 8 1012 33 0 8.55 261.42 23:19 20.07.2019
4902 Clouds 8 1012 33 0 8.55 261.42 22:43 20.07.2019
4903 Clouds 8 1012 33 0 8.55 261.42 22:21 20.07.2019
4904 Clouds 8 1012 33 0 8.55 261.42 21:45 20.07.2019
4905 Clouds 11 1013 17 0 6.27 286.213 21:26 20.07.2019
4906 Clouds 11 1013 17 0 6.27 286.213 20:57 20.07.2019
4907 Clouds 11 1013 17 0 7.02 286.059 20:38 20.07.2019
4908 Clouds 11 1013 17 0 7.02 286.059 20:18 20.07.2019
4909 Clouds 11 1013 17 0 7.02 286.059 20:18 20.07.2019
4910 Clouds 11 1013 17 0 7.02 286.059 19:44 20.07.2019
4911 Clouds 11 1013 17 0 7.02 286.059 19:19 20.07.2019
4912 Clouds 11 1013 17 0 7.02 286.059 18:41 20.07.2019
4913 Clouds 8 1018 24 0 2.7 313.307 18:20 20.07.2019
4914 Clouds 8 1018 24 0 2.7 313.307 17:51 20.07.2019
4915 Clouds 5 1039 56 10000 1.5 240 17:23 20.07.2019
4916 Clouds 5 1039 56 10000 1.5 240 16:44 20.07.2019
4917 Clouds 5 1039 56 10000 1.5 240 16:26 20.07.2019
4918 Clouds 3 1039 64 10000 2.7 313.307 15:58 20.07.2019
4919 Clouds 3 1039 64 10000 2.7 313.307 15:38 20.07.2019
4920 Clouds 3 1039 64 10000 2.35 271.951 15:20 20.07.2019
4921 Clouds 1 1038 74 10000 1.5 240 14:47 20.07.2019
4922 Clouds 1 1038 74 10000 1.5 240 14:24 20.07.2019
4923 Clouds 1 1037 74 10000 1.5 240 13:39 20.07.2019
4924 Clouds 1 1037 74 10000 1.5 240 13:20 20.07.2019
4925 Clouds 1 1037 74 10000 1.5 240 13:20 20.07.2019
4926 Clouds 0 1037 37 10000 2.46 273.313 12:54 20.07.2019
4927 Clouds 0 1037 39 10000 2.27 252.981 12:24 20.07.2019
4928 Clouds 0 1019 39 0 2.27 252.981 11:57 20.07.2019
4929 Clouds 0 1019 39 0 2.27 252.981 11:24 20.07.2019
4930 Clouds 0 1019 39 0 2.27 252.981 10:55 20.07.2019
4931 Clouds 0 1019 39 0 2.27 252.981 10:36 20.07.2019
4932 Clouds 0 1019 39 0 2.27 252.981 10:18 20.07.2019
4933 Clouds 0 1019 39 0 2.27 252.981 10:18 20.07.2019
4934 Clouds 0 1019 39 0 2.27 252.981 09:45 20.07.2019
4935 Clouds 1 1019 46 0 1.78 295.169 09:22 20.07.2019
4936 Clouds 1 1019 48 0 1.55 300.793 08:45 20.07.2019
4937 Clouds 1 1019 48 0 1.55 300.793 08:20 20.07.2019
4938 Clouds 1 1019 48 0 1.55 300.793 07:21 20.07.2019
4939 Clouds 1 1019 48 0 1.55 300.793 06:41 20.07.2019
4940 Clear 2 1020 51 0 0.5 344.482 04:57 20.07.2019
4941 Clear 2 1020 51 0 0.5 344.482 04:29 20.07.2019
4942 Clear 5 1018 38 0 2.59 240.428 01:21 20.07.2019
4943 Clear 5 1018 38 0 2.59 240.428 00:47 20.07.2019
4944 Clear 8 1014 24 0 5.71 262.24 00:23 20.07.2019
4945 Clear 8 1014 24 0 5.71 262.24 23:45 19.07.2019
4946 Clear 8 1014 24 0 5.71 262.24 23:26 19.07.2019
4947 Clear 8 1014 24 0 5.71 262.24 22:51 19.07.2019
4948 Clear 8 1014 24 0 5.71 262.24 22:26 19.07.2019
4949 Clear 8 1014 24 0 5.71 262.24 21:59 19.07.2019
4950 Clear 8 1014 24 0 5.71 262.24 21:39 19.07.2019
4951 Clear 10 1016 16 0 7.71 289.776 21:21 19.07.2019
4952 Clear 10 1016 16 0 7.71 289.776 20:42 19.07.2019
4953 Clear 11 1038 34 10000 7.71 289.776 20:23 19.07.2019
4954 Clear 11 1038 34 10000 7.71 289.776 19:37 19.07.2019
4955 Clear 10 1040 37 10000 7.71 289.776 18:55 19.07.2019
4956 Clear 10 1040 37 10000 7.71 289.776 18:36 19.07.2019
4957 Clear 10 1040 37 10000 3.21 332.429 18:18 19.07.2019
4958 Clear 9 1041 39 10000 3.21 332.429 17:41 19.07.2019
4959 Clear 9 1041 39 10000 3.21 332.429 17:23 19.07.2019
4960 Clear 7 1041 42 10000 3.21 332.429 16:47 19.07.2019
4961 Clear 7 1041 42 10000 3.21 332.429 16:24 19.07.2019
4962 Clear 4 1042 48 10000 1.5 240 15:47 19.07.2019
4963 Clear 4 1042 48 10000 1.5 240 15:29 19.07.2019
4964 Clear 4 1042 48 10000 1.5 240 15:29 19.07.2019
4965 Clear 1 1042 55 10000 1.43 306.589 14:55 19.07.2019
4966 Clear 1 1042 55 10000 1.43 306.589 14:37 19.07.2019
4967 Clear 1 1042 55 10000 1.43 306.589 14:19 19.07.2019
4968 Clear -2 1042 63 10000 1.43 306.589 13:43 19.07.2019
4969 Clear -2 1042 63 10000 1.25 310.806 13:22 19.07.2019
4970 Clear -3 1041 73 10000 1.25 310.806 12:49 19.07.2019
4971 Clear -3 1041 73 10000 1.25 310.806 12:29 19.07.2019
4972 Clear -1 1022 43 0 0.31 262.082 11:47 19.07.2019
4973 Clear -1 1022 43 0 0.31 262.082 11:20 19.07.2019
4974 Clear -1 1022 43 0 0.31 262.082 10:58 19.07.2019
4975 Clear -1 1022 43 0 0.31 262.082 10:39 19.07.2019
4976 Clear -1 1022 43 0 0.31 262.082 10:18 19.07.2019
4977 Clear -1 1022 43 0 0.31 262.082 09:43 19.07.2019
4978 Clear 0 1022 44 0 0.55 218.401 09:22 19.07.2019
4979 Clear 0 1022 44 0 0.14 29.249 08:50 19.07.2019
4980 Clear 0 1022 44 0 0.14 29.249 08:28 19.07.2019
4981 Clear 0 1022 44 0 0.14 29.249 07:33 19.07.2019
4982 Clear 0 1022 44 0 0.14 29.249 06:47 19.07.2019
4983 Clear 2 1022 36 0 2.25 263.477 05:26 19.07.2019
4984 Clouds 4 1020 39 0 2.88 254.623 01:45 19.07.2019
4985 Clouds 4 1020 46 0 2.59 260.752 00:58 19.07.2019
4986 Clouds 7 1016 32 0 5 255.2 00:21 19.07.2019
4987 Clouds 7 1016 32 0 5 255.2 23:41 18.07.2019
4988 Clouds 7 1016 32 0 5 255.2 23:23 18.07.2019
4989 Clouds 7 1016 32 0 5 255.2 22:57 18.07.2019
4990 Clouds 7 1016 32 0 5 255.2 22:39 18.07.2019
4991 Clouds 7 1016 32 0 5 255.2 22:18 18.07.2019
4992 Clouds 7 1016 32 0 5 255.2 21:39 18.07.2019
4993 Clouds 9 1017 23 0 5.62 245.87 21:20 18.07.2019
4994 Clouds 8 1016 23 0 5.59 245.517 20:48 18.07.2019
4995 Clouds 8 1016 23 0 5.59 245.517 20:27 18.07.2019
4996 Clouds 8 1016 23 0 5.59 245.517 19:51 18.07.2019
4997 Clouds 8 1016 23 0 5.59 245.517 19:28 18.07.2019
4998 Clouds 8 1016 23 0 5.59 245.517 18:52 18.07.2019
4999 Clouds 6 1021 37 0 1.27 312.822 18:23 18.07.2019
5000 Clouds 6 1021 37 0 1.27 312.822 17:57 18.07.2019
5001 Clouds 6 1021 37 0 1.27 312.822 17:38 18.07.2019
5002 Clouds 6 1021 37 0 1.27 312.822 17:38 18.07.2019
5003 Clouds 6 1021 37 0 1.27 312.822 17:19 18.07.2019
5004 Clouds 6 1021 37 0 1.27 312.822 16:53 18.07.2019
5005 Clouds 6 1021 37 0 1.27 312.822 16:26 18.07.2019
5006 Clouds 6 1021 37 0 1.27 312.822 15:58 18.07.2019
5007 Clouds 6 1021 37 0 1.27 312.822 15:36 18.07.2019
5008 -273 0 0 0 0 0 14:56 18.07.2019
5009 Clouds 2 1023 55 0 1.88 347.332 14:38 18.07.2019
5010 Clouds 2 1023 55 0 1.88 347.332 14:20 18.07.2019
5011 Clouds 2 1023 55 0 1.88 347.332 13:43 18.07.2019
5012 Clouds 1 1023 75 0 2.08 342.088 13:22 18.07.2019
5013 Clouds 1 1023 75 0 2.08 342.088 12:48 18.07.2019
5014 Clouds 1 1021 74 0 2.16 284.441 12:21 18.07.2019
5015 Clouds 1 1021 74 0 2.16 284.441 12:21 18.07.2019
5016 Clouds 1 1021 74 0 2.16 284.441 11:52 18.07.2019
5017 Clouds 1 1021 74 0 2.16 284.441 11:33 18.07.2019
5018 Clouds 1 1021 74 0 2.16 284.441 11:33 18.07.2019
5019 Clouds 1 1021 74 0 2.16 284.441 10:53 18.07.2019
5020 Clouds 1 1021 74 0 2.16 284.441 10:35 18.07.2019
5021 Clouds 1 1021 74 0 2.16 284.441 09:47 18.07.2019
5022 Clouds 3 1021 58 0 1.5 352.312 09:24 18.07.2019
5023 Clouds 4 1021 49 0 0.82 267.634 08:50 18.07.2019
5024 Clouds 4 1021 49 0 0.82 267.634 08:20 18.07.2019
5025 Clouds 4 1021 49 0 0.82 267.634 07:44 18.07.2019
5026 Clouds 4 1021 49 0 0.82 267.634 07:26 18.07.2019
5027 Clouds 4 1021 49 0 0.82 267.634 06:38 18.07.2019
5028 Clouds 4 1021 46 0 0.81 317.655 05:36 18.07.2019
5029 Clouds 6 1020 30 0 4.33 239.172 03:23 18.07.2019
5030 Clouds 5 1020 37 0 2.8 242.228 01:52 18.07.2019
5031 Clouds 5 1020 37 0 2.8 242.228 01:18 18.07.2019
5032 Clouds 8 1016 23 0 5.35 239.461 23:55 17.07.2019
5033 Clouds 8 1016 23 0 5.35 239.461 23:20 17.07.2019
5034 Clouds 8 1016 23 0 5.35 239.461 22:58 17.07.2019
5035 Clouds 8 1016 23 0 5.35 239.461 22:39 17.07.2019
5036 Clouds 8 1016 23 0 5.35 239.461 22:20 17.07.2019
5037 Clouds 8 1016 23 0 5.35 239.461 21:45 17.07.2019
5038 Clouds 8 1016 23 0 5.35 239.461 21:27 17.07.2019
5039 Clouds 10 1016 17 0 4.12 251.345 20:58 17.07.2019
5040 Clouds 10 1016 17 0 4.12 251.345 20:40 17.07.2019
5041 Clouds 12 1038 34 10000 4.12 251.345 20:21 17.07.2019
5042 Clouds 12 1038 34 10000 4.12 251.345 19:57 17.07.2019
5043 Clouds 12 1038 34 10000 4.12 251.345 19:39 17.07.2019
5044 Clouds 13 1039 30 10000 2.1 240 19:18 17.07.2019
5045 Clouds 13 1039 30 10000 2.1 240 18:41 17.07.2019
5046 Clouds 11 1040 32 10000 1.5 240 18:20 17.07.2019
5047 Clouds 11 1040 32 10000 1.5 240 17:50 17.07.2019
5048 Clouds 11 1040 32 10000 1.5 240 17:27 17.07.2019
5049 Clouds 8 1041 33 10000 2.1 240 16:58 17.07.2019
5050 Clouds 8 1041 33 10000 2.1 240 16:38 17.07.2019
5051 Clouds 8 1021 16 0 3.13 250.145 16:18 17.07.2019
5052 Clouds 8 1021 16 0 3.13 250.145 15:51 17.07.2019
5053 Clouds 3 1041 51 10000 3.13 250.145 15:29 17.07.2019
5054 Clouds 3 1041 51 10000 3.13 250.145 15:29 17.07.2019
5055 Clouds 3 1041 51 10000 2.07 269.64 14:55 17.07.2019
5056 Clouds 3 1041 51 10000 2.07 269.64 14:37 17.07.2019
5057 Clouds 0 1040 26 10000 2.07 269.64 14:19 17.07.2019
5058 Clouds 0 1040 26 10000 2.07 269.64 13:45 17.07.2019
5059 Clouds 0 1040 26 10000 1.97 279.51 13:25 17.07.2019
5060 Clouds -1 1039 68 10000 1.97 279.51 12:43 17.07.2019
5061 Clouds 1 1021 29 0 2.18 256.48 12:21 17.07.2019
5062 Clouds 1 1021 29 0 2.18 256.48 11:56 17.07.2019
5063 Clouds 1 1021 29 0 2.18 256.48 11:56 17.07.2019
5064 Clouds 1 1021 29 0 2.18 256.48 11:37 17.07.2019
5065 Clouds 1 1021 29 0 2.18 256.48 11:18 17.07.2019
5066 Clouds 1 1021 29 0 2.18 256.48 10:42 17.07.2019
5067 Clouds 1 1021 29 0 2.18 256.48 10:18 17.07.2019
5068 Clouds 1 1021 29 0 2.18 256.48 09:44 17.07.2019
5069 Clouds 0 1022 34 0 1.42 267.408 09:26 17.07.2019
5070 Clouds 0 1021 34 0 1.54 267.141 08:44 17.07.2019
5071 Clouds 0 1021 34 0 1.54 267.141 08:22 17.07.2019
5072 Clouds 0 1021 34 0 1.54 267.141 07:51 17.07.2019
5073 Clouds 0 1021 34 0 1.54 267.141 07:27 17.07.2019
5074 Clouds 0 1021 34 0 1.54 267.141 06:59 17.07.2019
5075 Clouds 0 1021 34 0 1.54 267.141 06:37 17.07.2019
5076 Clear 2 1021 31 0 2.6 245.83 06:18 17.07.2019
5077 Clear 2 1021 31 0 2.6 245.83 05:32 17.07.2019
5078 Clear 2 1021 31 0 2.6 245.83 04:49 17.07.2019
5079 Clear 2 1021 31 0 2.6 245.83 03:46 17.07.2019
5080 Clear 4 1018 37 0 3.55 261.106 02:31 17.07.2019
5081 Clear 4 1018 37 0 3.55 261.106 01:41 17.07.2019
5082 Clear 5 1018 37 0 3.69 253.142 01:20 17.07.2019
5083 Clear 5 1018 37 0 3.69 253.142 00:38 17.07.2019
5084 Clear 9 1014 28 0 6.35 270.839 00:19 17.07.2019
5085 Clear 9 1014 28 0 6.35 270.839 23:42 16.07.2019
5086 Clear 9 1014 28 0 6.35 270.839 23:22 16.07.2019
5087 Clear 9 1014 28 0 6.35 270.839 22:43 16.07.2019
5088 Clear 9 1014 28 0 6.35 270.839 22:25 16.07.2019
5089 Clear 9 1014 28 0 6.35 270.839 21:57 16.07.2019
5090 Clear 9 1014 28 0 6.35 270.839 21:39 16.07.2019
5091 Clear 11 1016 16 0 7.6 285.493 21:19 16.07.2019
5092 Clouds 11 1015 17 0 7.02 283.539 20:41 16.07.2019
5093 Clouds 12 1036 32 10000 7.02 283.539 20:22 16.07.2019
5094 Clouds 12 1036 32 10000 7.02 283.539 19:54 16.07.2019
5095 Clouds 12 1036 32 10000 7.02 283.539 19:30 16.07.2019
5096 Clouds 11 1037 40 10000 7.02 283.539 18:59 16.07.2019
5097 Clouds 11 1037 40 10000 7.02 283.539 18:41 16.07.2019
5098 Clouds 9 1039 49 10000 4.04 312.093 18:21 16.07.2019
5099 Clouds 9 1039 49 10000 4.04 312.093 17:49 16.07.2019
5100 Clouds 9 1039 49 10000 4.04 312.093 17:28 16.07.2019
5101 Clouds 7 1040 56 10000 1.5 240 16:51 16.07.2019
5102 Clouds 7 1040 56 10000 1.5 240 16:27 16.07.2019
5103 Clouds 5 1040 26 10000 4.04 312.093 15:57 16.07.2019
5104 Clouds 5 1040 26 10000 4.04 312.093 15:39 16.07.2019
5105 Clouds 1 1040 80 10000 2.06 283.652 15:19 16.07.2019
5106 Clouds 1 1040 80 10000 2.06 283.652 14:55 16.07.2019
5107 Clouds 1 1040 80 10000 2.06 283.652 14:37 16.07.2019
5108 Clouds 0 1039 79 10000 2.06 283.652 14:18 16.07.2019
5109 Clouds 0 1039 79 10000 2.06 283.652 13:43 16.07.2019
5110 Clouds -1 1038 92 10000 2.05 287.226 13:18 16.07.2019
5111 Clouds -1 1038 92 10000 2.05 287.226 12:44 16.07.2019
5112 Clouds 0 1021 93 0 1.72 311.324 12:20 16.07.2019
5113 Clouds 0 1021 93 0 1.72 311.324 11:55 16.07.2019
5114 Clouds 0 1021 93 0 1.72 311.324 11:36 16.07.2019
5115 Clouds 0 1021 93 0 1.72 311.324 11:18 16.07.2019
5116 Clouds 0 1021 93 0 1.72 311.324 10:44 16.07.2019
5117 Clouds 0 1021 93 0 1.72 311.324 10:20 16.07.2019
5118 Clouds 0 1021 93 0 1.72 311.324 09:44 16.07.2019
5119 Clear 0 1020 90 0 1.38 10.62 09:21 16.07.2019
5120 Clear 0 1020 90 0 1.38 10.62 08:58 16.07.2019
5121 Clear 0 1021 84 0 1.24 6.091 08:40 16.07.2019
5122 Clear 0 1021 84 0 1.24 6.091 08:18 16.07.2019
5123 Clear 0 1021 84 0 1.24 6.091 07:40 16.07.2019
5124 Clear 0 1021 84 0 1.24 6.091 07:18 16.07.2019
5125 Clear 0 1021 84 0 1.24 6.091 06:43 16.07.2019
5126 Clear 2 1020 45 0 1.22 19.581 05:59 16.07.2019
5127 Clear 2 1020 45 0 1.22 19.581 05:32 16.07.2019
5128 Clear 2 1020 45 0 1.22 19.581 04:54 16.07.2019
5129 Clear 2 1020 45 0 1.22 19.581 03:52 16.07.2019
5130 Clouds 4 1018 28 0 3.39 262.556 02:55 16.07.2019
5131 Clouds 4 1018 28 0 3.39 262.556 02:30 16.07.2019
5132 Clouds 4 1018 28 0 3.39 262.556 01:41 16.07.2019
5133 Clouds 4 1018 28 0 3.39 262.556 00:42 16.07.2019
5134 Clouds 9 1014 18 0 6.46 274.357 00:20 16.07.2019
5135 Clouds 9 1014 18 0 6.46 274.357 23:45 15.07.2019
5136 Clouds 9 1014 18 0 6.46 274.357 23:27 15.07.2019
5137 Clouds 9 1014 18 0 6.46 274.357 22:47 15.07.2019
5138 Clouds 9 1014 18 0 6.46 274.357 22:22 15.07.2019
5139 Clouds 9 1014 18 0 6.46 274.357 21:58 15.07.2019
5140 Clouds 9 1014 18 0 6.46 274.357 21:40 15.07.2019
5141 Clouds 11 1014 13 0 7.45 275.889 21:20 15.07.2019
5142 Clouds 11 1014 13 0 7.45 275.889 20:56 15.07.2019
5143 Clouds 11 1014 13 0 7.45 275.889 20:37 15.07.2019
5144 Clouds 13 1035 28 10000 3.1 240 20:19 15.07.2019
5145 Clouds 13 1035 28 10000 3.1 240 19:39 15.07.2019
5146 Clouds 12 1036 27 10000 2.6 240 19:20 15.07.2019
5147 Clouds 12 1036 27 10000 2.6 240 18:54 15.07.2019
5148 Clouds 12 1036 27 10000 2.6 240 18:36 15.07.2019
5149 Clouds 10 1037 31 10000 1.5 240 18:18 15.07.2019
5150 Clouds 10 1037 31 10000 1.5 240 17:42 15.07.2019
5151 Clouds 10 1037 31 10000 1.5 240 17:23 15.07.2019
5152 Clouds 8 1037 36 10000 1.5 240 16:59 15.07.2019
5153 Clouds 8 1037 36 10000 1.5 240 16:38 15.07.2019
5154 Clouds 5 1037 48 10000 2.1 270.491 16:20 15.07.2019
5155 Clouds 5 1037 48 10000 2.1 270.491 15:55 15.07.2019
5156 Clouds 5 1037 48 10000 2.1 270.491 15:36 15.07.2019
5157 Clouds 1 1037 55 10000 2.05 283.704 15:18 15.07.2019
5158 Clouds 1 1037 55 10000 2.05 283.704 14:41 15.07.2019
5159 Clouds 1 1037 55 10000 2.05 283.704 14:23 15.07.2019
5160 Clouds 0 1036 29 10000 2.05 283.704 13:50 15.07.2019
5161 Clouds 0 1036 30 10000 2.12 286.894 13:22 15.07.2019
5162 Clouds -1 1035 63 10000 1.5 240 12:58 15.07.2019
5163 Clouds -1 1035 63 10000 1.5 240 12:39 15.07.2019
5164 Clear -1 1018 35 0 1.77 266.883 12:20 15.07.2019
5165 Clear -1 1018 35 0 1.77 266.883 11:41 15.07.2019
5166 Clear -1 1018 35 0 1.77 266.883 11:22 15.07.2019
5167 Clear -1 1018 35 0 1.77 266.883 10:45 15.07.2019
5168 Clear -1 1018 35 0 1.77 266.883 10:26 15.07.2019
5169 Clear -1 1018 35 0 1.77 266.883 09:47 15.07.2019
5170 Clear -1 1018 35 0 1.77 266.883 09:26 15.07.2019
5171 Clear 1 1018 28 0 2.06 266.715 08:58 15.07.2019
5172 Clear 1 1018 28 0 2.06 266.715 08:40 15.07.2019
5173 Clear 1 1018 28 0 2.06 266.715 08:22 15.07.2019
5174 Clear 1 1018 28 0 2.06 266.715 07:37 15.07.2019
5175 Clear 1 1018 28 0 2.06 266.715 06:55 15.07.2019
5176 Clear 1 1018 28 0 2.06 266.715 06:33 15.07.2019
5177 Clear 3 1018 27 0 2.19 247.066 05:44 15.07.2019
5178 Clear 3 1018 27 0 2.19 247.066 05:22 15.07.2019
5179 Clear 3 1018 27 0 2.19 247.066 04:41 15.07.2019
5180 Clear 3 1018 27 0 2.19 247.066 03:35 15.07.2019
5181 Clouds 5 1015 25 0 2.09 276.638 02:37 15.07.2019
5182 Clouds 5 1015 25 0 2.09 276.638 01:41 15.07.2019
5183 Clouds 5 1015 25 0 2.21 252.666 01:23 15.07.2019
5184 Clouds 5 1015 25 0 2.21 252.666 00:48 15.07.2019
5185 Clear 10 1010 16 0 7.65 277.734 00:19 15.07.2019
5186 Clear 10 1010 16 0 7.65 277.734 23:54 14.07.2019
5187 Clear 10 1010 16 0 7.65 277.734 23:36 14.07.2019
5188 Clear 10 1010 16 0 7.65 277.734 23:18 14.07.2019
5189 Clear 10 1010 16 0 7.65 277.734 22:40 14.07.2019
5190 Clear 10 1010 16 0 7.65 277.734 22:22 14.07.2019
5191 Clear 10 1010 16 0 7.65 277.734 21:58 14.07.2019
5192 Clear 10 1010 16 0 7.65 277.734 21:39 14.07.2019
5193 Clouds 11 1011 13 0 7.33 257.989 21:18 14.07.2019
5194 Clouds 11 1011 13 0 7.33 257.989 21:18 14.07.2019
5195 Clouds 11 1011 13 0 7.33 257.989 20:54 14.07.2019
5196 Clouds 11 1011 13 0 7.33 257.989 20:36 14.07.2019
5197 Clouds 11 1011 13 0 7.33 257.989 20:18 14.07.2019
5198 Clouds 11 1011 13 0 7.33 257.989 19:42 14.07.2019
5199 Clouds 11 1011 13 0 7.33 257.989 19:24 14.07.2019
5200 Clouds 11 1011 13 0 7.33 257.989 18:56 14.07.2019
5201 Clouds 11 1011 13 0 7.33 257.989 18:37 14.07.2019
5202 Clouds 10 1016 13 0 5.87 269.688 18:18 14.07.2019
5203 Clouds 10 1016 13 0 5.87 269.688 17:42 14.07.2019
5204 Clouds 7 1037 33 10000 2.1 240 17:19 14.07.2019
5205 Clouds 7 1037 33 10000 2.1 240 16:46 14.07.2019
5206 Clouds 7 1037 33 10000 2.1 240 16:23 14.07.2019
5207 Clouds 4 1037 41 10000 2.6 240 15:50 14.07.2019
5208 Clouds 4 1037 41 10000 2.6 240 15:27 14.07.2019
5209 Clear 1 1037 55 10000 2.82 253.46 14:48 14.07.2019
5210 Clear 1 1037 55 10000 2.82 253.46 14:21 14.07.2019
5211 Clear -1 1036 63 10000 2.82 253.46 13:49 14.07.2019
5212 Clear -1 1036 63 10000 2.21 255.895 13:25 14.07.2019
5213 Clear -2 1036 68 10000 2.21 255.895 12:59 14.07.2019
5214 Clear -2 1036 68 10000 2.21 255.895 12:40 14.07.2019
5215 Clear 1 1017 22 0 2.4 256.508 12:21 14.07.2019
5216 Clear 1 1017 22 0 2.4 256.508 11:52 14.07.2019
5217 Clear 1 1017 22 0 2.4 256.508 11:24 14.07.2019
5218 Clear 1 1017 22 0 2.4 256.508 10:50 14.07.2019
5219 Clear 1 1017 22 0 2.4 256.508 10:25 14.07.2019
5220 Clear 1 1017 22 0 2.4 256.508 09:56 14.07.2019
5221 Clear 1 1017 22 0 2.4 256.508 09:37 14.07.2019
5222 Clear 2 1017 20 0 2.33 253.849 09:19 14.07.2019
5223 Clear 2 1017 19 0 2.12 265.001 08:41 14.07.2019
5224 Clear 2 1017 19 0 2.12 265.001 07:56 14.07.2019
5225 Clear 2 1017 19 0 2.12 265.001 07:35 14.07.2019
5226 Clear 2 1017 19 0 2.12 265.001 06:40 14.07.2019
5227 Clear 3 1016 22 0 2.14 259.938 05:44 14.07.2019
5228 Clear 3 1016 22 0 2.14 259.938 03:46 14.07.2019
5229 Clear 3 1016 22 0 2.14 259.938 03:28 14.07.2019
5230 Clear 5 1015 21 0 4.5 253.757 02:39 14.07.2019
5231 Clear 5 1015 21 0 4.5 253.757 02:20 14.07.2019
5232 Clear 12 1033 32 10000 1.5 240 01:31 14.07.2019
5233 Clear 12 1033 32 10000 1.5 240 00:56 14.07.2019
5234 Clear 12 1033 32 10000 1.5 240 00:37 14.07.2019
5235 Clear 15 1032 21 10000 4.1 240 00:19 14.07.2019
5236 Clear 15 1032 21 10000 4.1 240 23:43 13.07.2019
5237 Clear 15 1032 21 10000 4.1 240 23:23 13.07.2019
5238 Clear 16 1032 21 10000 4.1 240 22:47 13.07.2019
5239 Clear 16 1032 21 10000 4.1 240 22:23 13.07.2019
5240 Clear 17 1032 23 10000 5.38 259.764 21:55 13.07.2019
5241 Clear 17 1032 23 10000 6.39 267.175 21:23 13.07.2019
5242 Clear 16 1033 26 10000 3.1 240 20:59 13.07.2019
5243 Clear 16 1033 26 10000 3.1 240 20:40 13.07.2019
5244 Clear 16 1033 26 10000 3.1 240 20:21 13.07.2019
5245 Clear 13 1012 12 0 5.47 271.908 19:43 13.07.2019
5246 Clear 13 1012 12 0 5.47 271.908 19:23 13.07.2019
5247 Clear 13 1012 12 0 5.47 271.908 18:41 13.07.2019
5248 Clear 10 1017 14 0 2.55 317.507 18:20 13.07.2019
5249 Clear 10 1017 14 0 2.55 317.507 17:38 13.07.2019
5250 Clear 9 1036 34 10000 3.1 240 17:19 13.07.2019
5251 Clear 9 1036 34 10000 3.1 240 16:46 13.07.2019
5252 Clear 9 1036 34 10000 3.1 240 16:26 13.07.2019
5253 Clear 9 1036 34 10000 3.1 240 16:26 13.07.2019
5254 Clear 6 1036 41 10000 3.6 240 15:59 13.07.2019
5255 Clear 6 1036 41 10000 3.6 240 15:40 13.07.2019
5256 Clear 3 1036 47 10000 2.6 240 15:20 13.07.2019
5257 Clear 3 1036 47 10000 2.6 240 14:41 13.07.2019
5258 Clear 3 1036 47 10000 2.6 240 14:21 13.07.2019
5259 Clear 0 1036 24 10000 2.6 240 13:45 13.07.2019
5260 Clear 0 1036 24 10000 2.6 240 13:24 13.07.2019
5261 Clear -1 1035 63 10000 1.5 240 12:56 13.07.2019
5262 Clear -1 1035 63 10000 1.5 240 12:36 13.07.2019
5263 Clear 0 1018 24 0 1.6 286.929 12:18 13.07.2019
5264 Clear 0 1018 24 0 1.6 286.929 11:39 13.07.2019
5265 Clear 0 1018 24 0 1.6 286.929 11:19 13.07.2019
5266 Clear 0 1018 24 0 1.6 286.929 10:42 13.07.2019
5267 Clear 0 1018 24 0 1.6 286.929 10:23 13.07.2019
5268 Clear 0 1018 24 0 1.6 286.929 09:52 13.07.2019
5269 Clear 0 1018 24 0 1.6 286.929 09:30 13.07.2019
5270 Clear 1 1018 25 0 1.61 272.39 08:57 13.07.2019
5271 Clear 1 1018 25 0 1.61 272.39 08:29 13.07.2019
5272 Clear 1 1018 25 0 1.61 272.39 07:55 13.07.2019
5273 Clear 1 1018 25 0 1.61 272.39 07:29 13.07.2019
5274 Clear 1 1018 25 0 1.61 272.39 06:37 13.07.2019
5275 Clear 3 1017 25 0 2.02 270.283 05:51 13.07.2019
5276 Clear 3 1017 25 0 2.02 270.283 04:42 13.07.2019
5277 Clear 3 1017 25 0 2.02 270.283 04:21 13.07.2019
5278 Clear 3 1017 25 0 2.02 270.283 03:55 13.07.2019
5279 Clear 3 1017 25 0 2.02 270.283 03:37 13.07.2019
5280 Clear 6 1016 21 0 5.15 257.462 01:54 13.07.2019
5281 Clear 6 1016 22 0 5.44 253.027 01:36 13.07.2019
5282 Clear 6 1016 22 0 5.44 253.027 01:18 13.07.2019
5283 Clear 6 1016 22 0 5.44 253.027 00:50 13.07.2019
5284 Clear 11 1011 13 0 4.6 272.38 00:18 13.07.2019
5285 Clear 11 1011 13 0 4.6 272.38 23:43 12.07.2019
5286 Clear 11 1011 13 0 4.6 272.38 23:24 12.07.2019
5287 Clear 11 1011 13 0 4.6 272.38 22:43 12.07.2019
5288 Clear 11 1011 13 0 4.6 272.38 22:24 12.07.2019
5289 Clear 11 1011 13 0 4.6 272.38 21:42 12.07.2019
5290 Clouds 12 1012 11 0 5.02 292.891 21:22 12.07.2019
5291 Clouds 12 1012 11 0 5.02 292.891 20:54 12.07.2019
5292 Clouds 14 1035 26 10000 5.02 292.891 20:24 12.07.2019
5293 Clouds 14 1035 26 10000 5.02 292.891 19:59 12.07.2019
5294 Clouds 14 1035 26 10000 5.02 292.891 19:41 12.07.2019
5295 Clouds 14 1035 26 10000 5.02 292.891 19:23 12.07.2019
5296 Clouds 12 1036 27 10000 1.5 220 18:41 12.07.2019
5297 Clouds 9 1038 34 10000 2.1 240 18:21 12.07.2019
5298 Clouds 9 1038 34 10000 2.1 240 17:49 12.07.2019
5299 Clouds 9 1038 34 10000 2.1 240 17:28 12.07.2019
5300 Clouds 6 1038 38 10000 4.1 240 16:45 12.07.2019
5301 Clouds 6 1038 38 10000 4.1 240 16:21 12.07.2019
5302 Clouds 3 1039 44 10000 3.6 240 15:42 12.07.2019
5303 Clouds 3 1039 44 10000 3.6 240 15:22 12.07.2019
5304 Clouds 3 1019 25 0 2.98 259.413 14:58 12.07.2019
5305 Clouds 3 1019 25 0 2.98 259.413 14:39 12.07.2019
5306 Clouds 0 1038 25 10000 2.98 259.413 14:20 12.07.2019
5307 Clouds 0 1038 25 10000 2.98 259.413 13:42 12.07.2019
5308 Clouds 0 1036 25 10000 2.1 240 13:20 12.07.2019
5309 Clouds 0 1036 25 10000 2.1 240 12:40 12.07.2019
5310 Clouds 1 1016 29 0 2.94 257.869 12:21 12.07.2019
5311 Clouds 1 1016 29 0 2.94 257.869 11:45 12.07.2019
5312 Clouds 1 1016 29 0 2.94 257.869 11:23 12.07.2019
5313 Clouds 1 1016 29 0 2.94 257.869 10:44 12.07.2019
5314 Clouds 1 1016 29 0 2.94 257.869 10:25 12.07.2019
5315 Clouds 1 1016 29 0 2.94 257.869 09:55 12.07.2019
5316 Clouds 1 1016 29 0 2.94 257.869 09:36 12.07.2019
5317 Clouds 3 1016 31 0 3.25 249.033 09:18 12.07.2019
5318 Clouds 3 1016 32 0 3 253.483 08:42 12.07.2019
5319 Clouds 3 1016 32 0 3 253.483 08:42 12.07.2019
5320 Clouds 3 1016 32 0 3 253.483 08:20 12.07.2019
5321 Clouds 3 1016 32 0 3 253.483 07:47 12.07.2019
5322 Clouds 3 1016 32 0 3 253.483 07:27 12.07.2019
5323 Clouds 3 1016 32 0 3 253.483 06:29 12.07.2019
5324 Clouds 5 1016 29 0 4.43 254.661 05:50 12.07.2019
5325 Clouds 5 1016 29 0 4.43 254.661 03:46 12.07.2019
5326 Clear 7 1013 26 0 5.02 265.547 01:48 12.07.2019
5327 Clear 7 1013 26 0 5.72 263.464 01:28 12.07.2019
5328 Clear 7 1013 26 0 5.72 263.464 00:34 12.07.2019
5329 Clear 11 1009 16 0 5.63 270.763 23:54 11.07.2019
5330 Clear 11 1009 16 0 5.63 270.763 23:36 11.07.2019
5331 Clear 11 1009 16 0 5.63 270.763 23:36 11.07.2019
5332 Clear 11 1009 16 0 5.63 270.763 23:18 11.07.2019
5333 Clear 11 1009 16 0 5.63 270.763 22:41 11.07.2019
5334 Clear 11 1009 16 0 5.63 270.763 22:22 11.07.2019
5335 Clear 11 1009 16 0 5.63 270.763 21:43 11.07.2019
5336 Clear 13 1010 14 0 4.56 294.345 21:20 11.07.2019
5337 Clear 13 1010 14 0 4.56 294.345 21:20 11.07.2019
5338 Clear 13 1010 14 0 4.56 294.345 21:20 11.07.2019
5339 Clear 13 1010 14 0 4.56 294.345 21:20 11.07.2019
5340 Clear 13 1010 14 0 4.56 294.345 20:58 11.07.2019
5341 Clear 13 1010 14 0 4.56 294.345 20:40 11.07.2019
5342 Clear 13 1010 14 0 4.56 294.345 20:22 11.07.2019
5343 Clear 13 1010 14 0 4.56 294.345 19:48 11.07.2019
5344 Clear 13 1010 14 0 4.56 294.345 19:30 11.07.2019
5345 Clear 13 1010 14 0 4.56 294.345 18:57 11.07.2019
5346 Clear 13 1010 14 0 4.56 294.345 18:38 11.07.2019
5347 -273 0 0 0 0 0 18:20 11.07.2019
5348 Clear 10 1015 19 0 2.29 333.726 17:43 11.07.2019
5349 Clear 10 1015 19 0 2.29 333.726 17:25 11.07.2019
5350 Clear 10 1015 19 0 2.29 333.726 16:52 11.07.2019
5351 Clear 10 1015 19 0 2.29 333.726 16:24 11.07.2019
5352 Clear 10 1015 19 0 2.29 333.726 15:55 11.07.2019
5353 Clear 10 1015 19 0 2.29 333.726 15:36 11.07.2019
5354 Clear 5 1017 33 0 1.05 266.403 15:18 11.07.2019
5355 Clear 5 1017 33 0 1.05 266.403 14:43 11.07.2019
5356 Clear 5 1017 33 0 1.05 266.403 14:21 11.07.2019
5357 Clear 5 1017 33 0 1.05 266.403 13:47 11.07.2019
5358 Clear 4 1017 32 0 1.28 265.028 13:28 11.07.2019
5359 Clear 4 1017 32 0 1.28 265.028 12:46 11.07.2019
5360 Clear 4 1017 32 0 1.28 265.028 12:28 11.07.2019
5361 Clear 1 1016 37 0 1.26 251.392 11:59 11.07.2019
5362 Clear 1 1016 37 0 1.26 251.392 11:41 11.07.2019
5363 Clear 1 1016 37 0 1.26 251.392 11:22 11.07.2019
5364 Clear 1 1016 37 0 1.26 251.392 10:46 11.07.2019
5365 Clear 1 1016 37 0 1.26 251.392 10:19 11.07.2019
5366 Clear 1 1016 37 0 1.26 251.392 09:47 11.07.2019
5367 Clear 1 1016 37 0 1.26 251.392 09:28 11.07.2019
5368 Clear 3 1016 41 0 1.02 293.272 08:52 11.07.2019
5369 Clear 3 1016 41 0 1.02 293.272 08:26 11.07.2019
5370 Clear 3 1016 41 0 1.02 293.272 07:55 11.07.2019
5371 Clear 3 1016 41 0 1.02 293.272 07:36 11.07.2019
5372 Clear 3 1016 41 0 1.02 293.272 06:41 11.07.2019
5373 Clear 4 1017 41 0 0.82 308.605 05:53 11.07.2019
5374 Clear 4 1017 41 0 0.82 308.605 05:30 11.07.2019
5375 Clear 4 1017 41 0 0.82 308.605 04:55 11.07.2019
5376 Clear 7 1015 32 0 1.09 6.299 02:41 11.07.2019
5377 Clear 7 1015 32 0 1.09 6.299 01:41 11.07.2019
5378 Clear 7 1015 32 0 0.91 357.15 00:30 11.07.2019
5379 Clear 12 1012 14 0 2.13 238.768 23:49 10.07.2019
5380 Clear 12 1012 14 0 2.13 238.768 23:20 10.07.2019
5381 Clear 12 1012 14 0 2.13 238.768 22:52 10.07.2019
5382 Clear 12 1012 14 0 2.13 238.768 22:22 10.07.2019
5383 Clear 12 1012 14 0 2.13 238.768 21:48 10.07.2019
5384 Clear 12 1012 14 0 2.13 238.768 21:28 10.07.2019
5385 Clear 12 1013 13 0 0.81 246.217 20:58 10.07.2019
5386 Clear 12 1013 13 0 0.81 246.217 20:39 10.07.2019
5387 Clear 16 1040 23 10000 2.1 50 20:19 10.07.2019
5388 Clear 16 1040 23 10000 2.1 50 19:54 10.07.2019
5389 Clear 15 1041 24 10000 0.81 246.217 19:22 10.07.2019
5390 Clear 15 1041 24 10000 0.81 246.217 18:59 10.07.2019
5391 Clear 15 1041 24 10000 0.81 246.217 18:41 10.07.2019
5392 Clear 12 1042 32 10000 0.35 299.26 18:22 10.07.2019
5393 Clear 12 1042 32 10000 0.35 299.26 17:42 10.07.2019
5394 Clear 12 1042 32 10000 0.35 299.26 17:22 10.07.2019
5395 Clear 9 1042 36 10000 1.5 240 16:39 10.07.2019
5396 Clear 6 1043 48 10000 2.6 240 16:19 10.07.2019
5397 Clear 6 1043 48 10000 2.6 240 15:47 10.07.2019
5398 Clear 6 1043 48 10000 2.6 240 15:23 10.07.2019
5399 Clear 4 1043 51 10000 1.28 234.16 14:43 10.07.2019
5400 Clear 4 1043 51 10000 1.28 234.16 14:24 10.07.2019
5401 Clear 1 1042 55 10000 1.28 234.16 13:53 10.07.2019
5402 Clear 0 1042 30 10000 1.2 242.093 13:19 10.07.2019
5403 Clear 0 1042 30 10000 1.2 242.093 12:58 10.07.2019
5404 Clear 0 1042 30 10000 1.2 242.093 12:39 10.07.2019
5405 Clear 2 1019 26 0 1.99 246.522 12:19 10.07.2019
5406 Clear 2 1019 26 0 1.99 246.522 11:47 10.07.2019
5407 Clear 2 1019 26 0 1.99 246.522 11:21 10.07.2019
5408 Clear 2 1019 26 0 1.99 246.522 10:52 10.07.2019
5409 Clear 2 1019 26 0 1.99 246.522 10:23 10.07.2019
5410 Clear 2 1019 26 0 1.99 246.522 09:44 10.07.2019
5411 Clear 2 1019 31 0 1.57 252.315 09:21 10.07.2019
5412 Clear 3 1019 31 0 1.62 264.69 08:55 10.07.2019
5413 Clear 3 1019 31 0 1.62 264.69 08:37 10.07.2019
5414 Clear 3 1019 31 0 1.62 264.69 08:18 10.07.2019
5415 Clear 3 1019 31 0 1.62 264.69 07:42 10.07.2019
5416 Clear 3 1019 31 0 1.62 264.69 07:21 10.07.2019
5417 Clear 4 1019 33 0 0.99 230.763 06:21 10.07.2019
5418 Clear 4 1019 33 0 0.99 230.763 05:39 10.07.2019
5419 Clear 4 1019 33 0 0.99 230.763 04:30 10.07.2019
5420 Clear 6 1018 31 0 0.99 268.73 01:25 10.07.2019
5421 Clear 6 1018 31 0 0.99 268.73 00:42 10.07.2019
5422 Clear 12 1014 10 0 2.46 10.194 23:42 09.07.2019
5423 Clear 12 1014 10 0 2.46 10.194 23:22 09.07.2019
5424 Clear 12 1014 10 0 2.46 10.194 22:54 09.07.2019
5425 Clear 12 1014 10 0 2.46 10.194 22:36 09.07.2019
5426 Clear 12 1014 10 0 2.46 10.194 22:18 09.07.2019
5427 Clear 12 1014 10 0 2.46 10.194 21:43 09.07.2019
5428 Clear 12 1015 10 0 2.43 17.676 21:24 09.07.2019
5429 Clear 12 1015 10 0 2.43 15.359 20:44 09.07.2019
5430 Clear 16 1042 26 10000 2.43 15.359 20:25 09.07.2019
5431 Clear 16 1042 26 10000 2.43 15.359 19:43 09.07.2019
5432 Clear 16 1042 26 10000 2.43 15.359 19:24 09.07.2019
5433 Clear 15 1042 26 10000 3.1 240 18:49 09.07.2019
5434 Clear 15 1042 26 10000 3.1 240 18:49 09.07.2019
5435 Clear 15 1042 26 10000 3.1 240 18:27 09.07.2019
5436 Clear 15 1042 26 10000 3.1 240 18:27 09.07.2019
5437 Clear 10 1019 13 0 1.39 4.791 17:58 09.07.2019
5438 Clear 10 1019 13 0 1.39 4.791 17:40 09.07.2019
5439 Clear 9 1043 31 10000 2.6 240 17:20 09.07.2019
5440 Clear 9 1043 31 10000 2.6 240 16:50 09.07.2019
5441 Clear 9 1043 31 10000 2.6 240 16:25 09.07.2019
5442 Clear 7 1043 36 10000 2.1 240 15:56 09.07.2019
5443 Clear 7 1043 36 10000 2.1 240 15:36 09.07.2019
5444 Clear 5 1043 41 10000 3.1 240 14:59 09.07.2019
5445 Clear 5 1043 41 10000 3.1 240 14:40 09.07.2019
5446 Clear 3 1043 47 10000 3.1 240 14:20 09.07.2019
5447 Clear 3 1043 47 10000 3.1 240 13:45 09.07.2019
5448 Clear 3 1043 47 10000 3.1 240 13:27 09.07.2019
5449 Clear 2 1042 55 10000 2.6 240 12:42 09.07.2019
5450 Clear 2 1042 55 10000 2.6 240 12:24 09.07.2019
5451 Clear 1 1020 27 0 1.3 236.616 11:59 09.07.2019
5452 Clear 1 1020 27 0 1.3 236.616 11:41 09.07.2019
5453 Clear 1 1020 27 0 1.3 236.616 11:22 09.07.2019
5454 Clear 1 1020 27 0 1.3 236.616 10:58 09.07.2019
5455 Clear 1 1020 27 0 1.3 236.616 10:34 09.07.2019
5456 Clear 1 1020 27 0 1.3 236.616 09:56 09.07.2019
5457 Clear 1 1020 27 0 1.3 236.616 09:37 09.07.2019
5458 Clear 3 1020 26 0 1.66 255.437 09:19 09.07.2019
5459 Clear 3 1020 26 0 1.66 255.437 08:41 09.07.2019
5460 Clouds 2 1018 18 0 2.43 243.319 04:19 05.07.2019
5461 Clouds 2 1018 18 0 2.43 243.319 03:39 05.07.2019
5462 Clouds 3 1015 20 0 2.56 267.334 03:20 05.07.2019
5463 Clouds 3 1015 20 0 2.56 267.334 02:52 05.07.2019
5464 Clouds 3 1015 20 0 2.56 267.334 01:56 05.07.2019
5465 Clouds 3 1015 22 0 2.8 265.204 01:28 05.07.2019
5466 Clouds 3 1015 22 0 2.8 265.204 00:51 05.07.2019
5467 Clouds 3 1015 22 0 2.8 265.204 00:29 05.07.2019
5468 Clouds 9 1010 13 0 5.24 260.171 23:40 04.07.2019
5469 Clouds 9 1010 13 0 5.24 260.171 23:19 04.07.2019
5470 Clouds 9 1010 13 0 5.24 260.171 22:42 04.07.2019
5471 Clouds 9 1010 13 0 5.24 260.171 22:23 04.07.2019
5472 Clouds 9 1010 13 0 5.24 260.171 21:45 04.07.2019
5473 Clouds 12 1010 8 0 5.95 251.812 21:26 04.07.2019
5474 Clouds 11 1010 7 0 5.39 251.774 20:59 04.07.2019
5475 Clouds 11 1010 7 0 5.39 251.774 20:38 04.07.2019
5476 Clouds 11 1010 7 0 5.39 251.774 20:20 04.07.2019
5477 Clouds 11 1010 7 0 5.39 251.774 19:42 04.07.2019
5478 Clouds 11 1010 7 0 5.39 251.774 19:22 04.07.2019
5479 Clouds 11 1010 7 0 5.39 251.774 18:56 04.07.2019
5480 Clouds 11 1010 7 0 5.39 251.774 18:36 04.07.2019
5481 Clouds 10 1015 6 0 3.46 279.936 18:18 04.07.2019
5482 Clouds 10 1015 6 0 3.46 279.936 17:43 04.07.2019
5483 Clouds 10 1015 6 0 3.46 279.936 17:19 04.07.2019
5484 Clouds 10 1015 6 0 3.46 279.936 15:57 04.07.2019
5485 Clouds 10 1015 6 0 3.46 279.936 15:39 04.07.2019
5486 Clear 1 1018 19 0 2.91 280.275 15:18 04.07.2019
5487 Clear 1 1018 19 0 2.91 280.275 15:18 04.07.2019
5488 Clear 1 1018 19 0 2.91 280.275 14:41 04.07.2019
5489 Clear 1 1018 19 0 2.91 280.275 14:22 04.07.2019
5490 Clear 1 1018 19 0 2.91 280.275 13:58 04.07.2019
5491 Clear 1 1018 19 0 2.91 280.275 13:39 04.07.2019
5492 Clear 1 1018 19 0 2.9 281.229 13:21 04.07.2019
5493 Clear 1 1018 19 0 2.9 281.229 12:40 04.07.2019
5494 Clear -1 1016 18 0 3.42 266.34 12:21 04.07.2019
5495 Clear -1 1016 18 0 3.42 266.34 11:57 04.07.2019
5496 Clear -1 1016 18 0 3.42 266.34 11:37 04.07.2019
5497 Clear -1 1016 18 0 3.42 266.34 11:19 04.07.2019
5498 Clear -1 1016 18 0 3.42 266.34 10:40 04.07.2019
5499 Clear -1 1016 18 0 3.42 266.34 10:20 04.07.2019
5500 Clear -1 1016 18 0 3.42 266.34 09:41 04.07.2019
5501 Clouds 1 1015 21 0 3.53 267.349 09:23 04.07.2019
5502 Clouds 1 1015 21 0 3.65 261.315 08:56 04.07.2019
5503 Clouds 1 1015 21 0 3.65 261.315 08:23 04.07.2019
5504 Clouds 1 1015 21 0 3.65 261.315 07:44 04.07.2019
5505 Clouds 1 1015 21 0 3.65 261.315 07:22 04.07.2019
5506 Clouds 1 1015 21 0 3.65 261.315 06:45 04.07.2019
5507 Clouds 2 1015 25 0 3.41 278.322 05:52 04.07.2019
5508 Clouds 2 1015 25 0 3.41 278.322 05:33 04.07.2019
5509 Clouds 4 1012 28 0 3.77 269.666 02:43 04.07.2019
5510 Clouds 4 1012 28 0 3.77 269.666 01:42 04.07.2019
5511 Clouds 3 1012 27 0 4.13 263.07 01:21 04.07.2019
5512 Clouds 9 1008 17 0 7.67 294.858 23:58 03.07.2019
5513 Clouds 9 1008 17 0 7.67 294.858 23:40 03.07.2019
5514 Clouds 15 1029 21 10000 6.2 240 23:20 03.07.2019
5515 Clouds 15 1029 21 10000 6.2 240 22:42 03.07.2019
5516 Clouds 15 1029 21 10000 6.2 240 22:24 03.07.2019
5517 Clouds 8 1008 17 0 7.22 282.604 21:59 03.07.2019
5518 Clouds 8 1008 17 0 7.22 282.604 21:41 03.07.2019
5519 Clouds 10 1009 14 0 8.68 266.566 21:23 03.07.2019
5520 Clouds 10 1009 14 0 8.68 266.566 20:46 03.07.2019
5521 Clouds 14 1031 24 10000 1.5 240 20:24 03.07.2019
5522 Clouds 14 1031 24 10000 1.5 240 19:51 03.07.2019
5523 Clouds 14 1031 24 10000 1.5 240 19:32 03.07.2019
5524 Clouds 13 1032 28 10000 8.68 266.566 18:49 03.07.2019
5525 Clouds 13 1032 28 10000 8.68 266.566 18:30 03.07.2019
5526 Clouds 12 1033 30 10000 6.33 269.801 17:57 03.07.2019
5527 Clouds 12 1033 30 10000 6.33 269.801 17:37 03.07.2019
5528 Clouds 10 1033 37 10000 2.6 360 17:18 03.07.2019
5529 Clouds 10 1033 37 10000 2.6 360 16:43 03.07.2019
5530 Clouds 10 1033 37 10000 2.6 360 16:22 03.07.2019
5531 Clouds 6 1033 45 10000 2.6 60 15:49 03.07.2019
5532 Clouds 6 1033 45 10000 2.6 60 15:31 03.07.2019
5533 Clouds 3 1033 51 10000 2.17 304.875 14:57 03.07.2019
5534 Clouds 3 1033 51 10000 2.17 304.875 14:38 03.07.2019
5535 Clouds 1 1033 59 10000 2.17 304.875 14:18 03.07.2019
5536 Clouds 1 1033 59 10000 2.17 304.875 13:40 03.07.2019
5537 Clouds 0 1033 37 10000 1.78 296.78 13:18 03.07.2019
5538 Clouds 0 1033 37 10000 1.78 296.78 12:43 03.07.2019
5539 Clouds 0 1015 37 0 2.49 257.986 12:18 03.07.2019
5540 Clouds 0 1015 37 0 2.49 257.986 11:42 03.07.2019
5541 Clouds 0 1015 37 0 2.49 257.986 11:21 03.07.2019
5542 Clouds 0 1015 37 0 2.49 257.986 10:43 03.07.2019
5543 Clouds 0 1015 37 0 2.49 257.986 10:24 03.07.2019
5544 Clouds 0 1015 37 0 2.49 257.986 09:56 03.07.2019
5545 Clouds 0 1015 37 0 2.49 257.986 09:38 03.07.2019
5546 Clouds 2 1013 29 0 5.07 253.644 09:19 03.07.2019
5547 Clouds 2 1013 29 0 5.07 253.644 08:46 03.07.2019
5548 Clouds 2 1014 30 0 4.95 254.746 08:25 03.07.2019
5549 Clouds 2 1014 30 0 4.95 254.746 07:39 03.07.2019
5550 Clouds 2 1014 30 0 4.95 254.746 07:18 03.07.2019
5551 Clouds 4 1013 26 0 5.35 282.384 06:19 03.07.2019
5552 Clouds 4 1013 26 0 5.35 282.384 05:29 03.07.2019
5553 Clouds 4 1013 26 0 5.35 282.384 04:28 03.07.2019
5554 Clouds 6 1011 26 0 7.43 271.072 03:22 03.07.2019
5555 Clouds 6 1010 25 0 6.86 272.422 01:42 03.07.2019
5556 Clouds 6 1010 25 0 6.86 272.422 01:21 03.07.2019
5557 Clouds 6 1010 25 0 6.86 272.422 00:42 03.07.2019
5558 Clouds 10 1006 24 0 11.98 273.203 23:59 02.07.2019
5559 Clouds 10 1006 24 0 11.98 273.203 23:37 02.07.2019
5560 Clouds 10 1006 24 0 11.98 273.203 23:19 02.07.2019
5561 Clouds 10 1006 24 0 11.98 273.203 22:55 02.07.2019
5562 Clouds 10 1006 24 0 11.98 273.203 22:37 02.07.2019
5563 Clouds 10 1006 24 0 11.98 273.203 22:18 02.07.2019
5564 Clouds 10 1006 24 0 11.98 273.203 21:42 02.07.2019
5565 Clear 12 1008 18 0 13.83 280.801 21:21 02.07.2019
5566 Clear 12 1008 17 0 13.94 281.909 20:57 02.07.2019
5567 Clear 12 1008 17 0 13.94 281.909 20:39 02.07.2019
5568 Clear 12 1008 17 0 13.94 281.909 20:20 02.07.2019
5569 Clear 12 1008 17 0 13.94 281.909 19:42 02.07.2019
5570 Clear 14 1034 22 10000 5.1 240 19:23 02.07.2019
5571 Clear 14 1034 22 10000 5.1 240 18:48 02.07.2019
5572 Clear 14 1034 22 10000 5.1 240 18:19 02.07.2019
5573 Clear 12 1035 27 10000 6.2 240 17:44 02.07.2019
5574 Clear 10 1036 31 10000 5.1 240 17:23 02.07.2019
5575 Clear 10 1036 31 10000 5.1 240 16:54 02.07.2019
5576 Clear 10 1036 31 10000 5.1 240 16:35 02.07.2019
5577 Clear 7 1036 42 10000 6.2 240 15:48 02.07.2019
5578 Clear 7 1036 42 10000 6.2 240 15:27 02.07.2019
5579 Clear 4 1036 51 10000 5.1 240 14:59 02.07.2019
5580 Clear 4 1036 51 10000 5.1 240 14:40 02.07.2019
5581 Clear 3 1035 55 10000 2.6 240 14:20 02.07.2019
5582 Clear 3 1035 55 10000 2.6 240 13:42 02.07.2019
5583 Clouds 3 1035 55 10000 2.6 240 13:19 02.07.2019
5584 Clouds 3 1035 55 10000 2.6 240 13:19 02.07.2019
5585 Clouds 3 1035 55 10000 2.6 240 13:19 02.07.2019
5586 Clouds 2 1035 64 10000 3.6 240 12:44 02.07.2019
5587 Clouds 2 1016 52 0 4.86 265.61 12:22 02.07.2019
5588 Clouds 2 1016 52 0 4.86 265.61 11:44 02.07.2019
5589 Clouds 2 1016 52 0 4.86 265.61 11:23 02.07.2019
5590 Clouds 2 1016 52 0 4.86 265.61 10:58 02.07.2019
5591 Clouds 2 1016 52 0 4.86 265.61 10:32 02.07.2019
5592 Clouds 2 1016 52 0 4.86 265.61 09:57 02.07.2019
5593 Clouds 3 1016 52 0 3.96 271.865 09:22 02.07.2019
5594 Clouds 3 1016 52 0 3.96 271.865 08:59 02.07.2019
5595 Clear 3 1016 53 0 3.75 274.142 08:38 02.07.2019
5596 Clear 3 1016 53 0 3.75 274.142 08:19 02.07.2019
5597 Clear 3 1016 53 0 3.75 274.142 07:43 02.07.2019
5598 Clear 3 1016 53 0 3.75 274.142 07:20 02.07.2019
5599 Clear 3 1016 53 0 3.75 274.142 06:38 02.07.2019
5600 Clouds 5 1016 48 0 3.9 297.906 05:46 02.07.2019
5601 Clouds 6 1015 39 0 3.81 290.531 02:43 02.07.2019
5602 Clear 6 1015 41 0 4.91 283.055 00:41 02.07.2019
5603 Clear 11 1011 22 0 7.35 301.427 23:40 01.07.2019
5604 Clear 11 1011 22 0 7.35 301.427 23:19 01.07.2019
5605 Clear 11 1011 22 0 7.35 301.427 22:44 01.07.2019
5606 Clear 11 1011 22 0 7.35 301.427 22:26 01.07.2019
5607 Clear 11 1011 22 0 7.35 301.427 21:46 01.07.2019
5608 Clear 13 1014 22 0 8.49 299.047 21:25 01.07.2019
5609 Clear 13 1014 21 0 8.63 299.295 20:51 01.07.2019
5610 Clouds 15 1037 38 10000 1.5 240 20:21 01.07.2019
5611 Clouds 15 1037 38 10000 1.5 240 19:57 01.07.2019
5612 Clouds 15 1037 38 10000 1.5 240 19:39 01.07.2019
5613 Clear 14 1040 44 10000 1.5 240 19:21 01.07.2019
5614 Clear 14 1040 44 10000 1.5 240 18:50 01.07.2019
5615 Clear 14 1040 44 10000 1.5 240 18:28 01.07.2019
5616 Clear 12 1041 36 10000 2.6 240 17:57 01.07.2019
5617 Clear 12 1041 36 10000 2.6 240 17:39 01.07.2019
5618 Clear 12 1041 36 10000 2.6 240 17:19 01.07.2019
5619 Clear 9 1042 49 10000 2.1 240 16:44 01.07.2019
5620 Clear 9 1042 49 10000 2.1 240 16:24 01.07.2019
5621 Clear 7 1042 52 10000 3.1 240 15:46 01.07.2019
5622 Clear 7 1042 52 10000 3.1 240 15:26 01.07.2019
5623 Clear 4 1042 64 10000 1.5 240 14:57 01.07.2019
5624 Clear 4 1042 64 10000 1.5 240 14:37 01.07.2019
5625 Clear 3 1041 69 10000 1.5 240 14:18 01.07.2019
5626 Clear 3 1041 69 10000 1.5 240 13:39 01.07.2019
5627 Clouds 3 1041 69 10000 1.5 240 13:20 01.07.2019
5628 Clouds 2 1039 74 10000 1.5 240 12:42 01.07.2019
5629 Clouds 2 1039 74 10000 1.5 240 12:23 01.07.2019
5630 Clouds 2 1020 60 0 1.62 278.91 11:57 01.07.2019
5631 Clouds 2 1020 60 0 1.62 278.91 11:38 01.07.2019
5632 Clouds 2 1020 60 0 1.62 278.91 11:18 01.07.2019
5633 Clouds 2 1020 60 0 1.62 278.91 10:42 01.07.2019
5634 Clouds 2 1020 60 0 1.62 278.91 10:21 01.07.2019
5635 Clouds 2 1020 60 0 1.62 278.91 09:45 01.07.2019
5636 Clouds 2 1020 60 0 1.62 278.91 09:26 01.07.2019
5637 Clear 3 1019 52 0 1.53 305.772 08:58 01.07.2019
5638 Clear 3 1019 53 0 1.41 309.515 08:35 01.07.2019
5639 Clear 3 1019 53 0 1.41 309.515 07:35 01.07.2019
5640 Clear 3 1019 53 0 1.41 309.515 06:51 01.07.2019
5641 Clear 4 1018 48 0 2.06 294.495 05:23 01.07.2019
5642 Clouds 6 1016 44 0 4.39 264.697 01:22 01.07.2019
5643 Clouds 6 1016 44 0 4.39 264.697 00:43 01.07.2019
5644 Clouds 12 1012 27 0 4.27 314.924 00:21 01.07.2019
5645 Clouds 16 1033 31 10000 4.1 360 23:27 30.06.2019
5646 Clouds 16 1033 31 10000 4.1 360 22:58 30.06.2019
5647 Clouds 16 1033 31 10000 4.1 360 22:39 30.06.2019
5648 Clouds 16 1033 31 10000 4.1 360 22:19 30.06.2019
5649 Clouds 16 1033 27 10000 3.6 300 21:41 30.06.2019
5650 Clouds 16 1033 27 10000 3.6 300 21:41 30.06.2019
5651 Clear 12 1013 24 0 5.49 348.995 21:19 30.06.2019
5652 Clear 12 1013 24 0 5.49 348.995 20:55 30.06.2019
5653 Clear 12 1013 23 0 5.85 352.972 20:36 30.06.2019
5654 Clear 12 1013 23 0 5.85 352.972 20:18 30.06.2019
5655 Clear 12 1013 23 0 5.85 352.972 19:43 30.06.2019
5656 Clear 12 1013 23 0 5.85 352.972 19:24 30.06.2019
5657 Clear 9 1019 23 0 2.94 348.77 18:26 30.06.2019
5658 Clear 9 1019 23 0 2.94 348.77 17:57 30.06.2019
5659 Clear 9 1019 23 0 2.94 348.77 17:38 30.06.2019
5660 Clear 9 1040 42 10000 1.5 240 17:18 30.06.2019
5661 Clear 9 1040 42 10000 1.5 240 16:45 30.06.2019
5662 Clear 9 1040 42 10000 1.5 240 16:25 30.06.2019
5663 Clear 5 1041 52 10000 3.6 240 15:38 30.06.2019
5664 Clear 2 1041 59 10000 2.1 240 15:19 30.06.2019
5665 Clear 2 1041 59 10000 2.1 240 14:50 30.06.2019
5666 Clear 2 1041 59 10000 2.1 240 14:50 30.06.2019
5667 Clear 2 1041 59 10000 2.1 240 14:30 30.06.2019
5668 Clear 0 1040 39 10000 1.5 240 13:48 30.06.2019
5669 Clouds 0 1040 39 10000 1.5 240 13:29 30.06.2019
5670 Clouds -1 1039 74 10000 1.5 240 12:53 30.06.2019
5671 Clouds -1 1039 74 10000 1.5 240 12:29 30.06.2019
5672 Clear 1 1019 44 0 2.42 289.363 11:58 30.06.2019
5673 Clear 1 1019 44 0 2.42 289.363 11:39 30.06.2019
5674 Clear 1 1019 44 0 2.42 289.363 11:20 30.06.2019
5675 Clear 1 1019 44 0 2.42 289.363 11:20 30.06.2019
5676 Clear 1 1019 44 0 2.42 289.363 10:54 30.06.2019
5677 Clear 1 1019 44 0 2.42 289.363 10:36 30.06.2019
5678 Clear 1 1019 44 0 2.42 289.363 10:18 30.06.2019
5679 Clear 1 1019 44 0 2.42 289.363 09:41 30.06.2019
5680 Clear 2 1019 47 0 2.78 264.987 09:19 30.06.2019
5681 Clear 2 1019 47 0 3.08 270.966 08:40 30.06.2019
5682 Clear 2 1019 47 0 3.08 270.966 08:21 30.06.2019
5683 Clear 2 1019 47 0 3.08 270.966 07:47 30.06.2019
5684 Clear 2 1019 47 0 3.08 270.966 07:24 30.06.2019
5685 Clear 2 1019 47 0 3.08 270.966 06:37 30.06.2019
5686 Clear 3 1018 49 0 3 285 03:33 30.06.2019
5687 Clear 4 1016 47 0 2.73 290.923 01:53 30.06.2019
5688 Clear 4 1016 52 0 2.72 293.337 00:48 30.06.2019
5689 Clear 9 1012 33 0 7.63 285.383 00:24 30.06.2019
5690 Clear 9 1012 33 0 7.63 285.383 23:53 29.06.2019
5691 Clear 9 1012 33 0 7.63 285.383 23:23 29.06.2019
5692 Clear 9 1012 33 0 7.63 285.383 22:48 29.06.2019
5693 Clear 9 1012 33 0 7.63 285.383 22:25 29.06.2019
5694 Clear 9 1012 32 0 7.56 288.854 21:56 29.06.2019
5695 Clear 9 1012 32 0 7.56 288.854 21:38 29.06.2019
5696 Clear 11 1014 26 0 9.65 297.261 21:19 29.06.2019
5697 Clear 11 1014 26 0 9.65 297.261 20:36 29.06.2019
5698 Clear 11 1014 26 0 9.65 297.261 20:18 29.06.2019
5699 Clear 11 1014 26 0 9.65 297.261 19:43 29.06.2019
5700 Clear 11 1014 26 0 9.65 297.261 19:22 29.06.2019
5701 Clear 11 1014 26 0 9.65 297.261 18:48 29.06.2019
5702 Clear 9 1019 36 0 6.64 318.535 18:25 29.06.2019
5703 Clear 9 1019 36 0 6.64 318.535 17:40 29.06.2019
5704 Clear 7 1040 56 10000 3.1 240 17:22 29.06.2019
5705 Clear 9 1019 36 0 6.64 318.535 16:51 29.06.2019
5706 Clear 5 1040 56 10000 2.6 240 16:28 29.06.2019
5707 Clear 5 1040 56 10000 2.6 240 15:42 29.06.2019
5708 Clouds 5 1040 56 10000 2.6 240 15:23 29.06.2019
5709 Clouds 3 1039 64 10000 2.1 240 14:43 29.06.2019
5710 Clouds 3 1039 64 10000 2.1 240 14:25 29.06.2019
5711 Clouds 1 1038 69 10000 1.5 240 13:46 29.06.2019
5712 Clear 1 1038 69 10000 1.5 240 13:26 29.06.2019
5713 Clear 0 1037 66 10000 2.1 240 12:49 29.06.2019
5714 Clear 0 1037 66 10000 2.1 240 12:31 29.06.2019
5715 Clear 0 1020 75 0 2.57 289.345 11:53 29.06.2019
5716 Clear 0 1020 75 0 2.57 289.345 11:31 29.06.2019
5717 Clear 0 1020 75 0 2.57 289.345 10:53 29.06.2019
5718 Clear 0 1020 75 0 2.57 289.345 10:32 29.06.2019
5719 Clear 0 1020 75 0 2.57 289.345 09:59 29.06.2019
5720 Clear 0 1020 75 0 2.57 289.345 09:36 29.06.2019
5721 Clear 1 1020 65 0 2.73 277.409 08:42 29.06.2019
5722 Clear 1 1020 64 0 2.62 272.979 07:46 29.06.2019
5723 Clear 1 1020 64 0 2.62 272.979 07:21 29.06.2019
5724 Clear 1 1020 64 0 2.62 272.979 06:44 29.06.2019
5725 Clear 2 1019 60 0 2.22 266.567 06:21 29.06.2019
5726 Clear 4 1016 55 0 3.47 264.855 02:37 29.06.2019
5727 Clouds 4 1016 56 0 2.32 257.847 00:57 29.06.2019
5728 Clouds 8 1011 36 0 9.1 292.77 00:23 29.06.2019
5729 Clouds 8 1011 36 0 9.1 292.77 23:27 28.06.2019
5730 Clouds 8 1011 36 0 9.1 292.77 22:57 28.06.2019
5731 Clouds 8 1011 36 0 9.1 292.77 22:37 28.06.2019
5732 Clouds 8 1011 36 0 9.1 292.77 21:52 28.06.2019
5733 Clouds 10 1012 31 0 11.19 303.582 21:25 28.06.2019
5734 Clouds 10 1012 30 0 11.3 301.649 20:49 28.06.2019
5735 Clouds 14 1034 30 10000 5.1 240 20:28 28.06.2019
5736 Clouds 14 1034 30 10000 5.1 240 19:54 28.06.2019
5737 Clouds 14 1034 30 10000 5.1 240 19:30 28.06.2019
5738 Clouds 12 1034 34 10000 3.1 240 18:59 28.06.2019
5739 Clouds 12 1034 34 10000 3.1 240 18:38 28.06.2019
5740 Clouds 10 1035 39 10000 3.6 240 18:20 28.06.2019
5741 -273 0 0 0 0 0 17:33 28.06.2019
5742 Clouds 8 1035 42 10000 2.6 240 16:54 28.06.2019
5743 Clouds 8 1035 42 10000 2.6 240 16:29 28.06.2019
5744 Clouds 4 1036 48 10000 2.1 240 15:49 28.06.2019
5745 Clouds 4 1036 48 10000 2.1 240 15:26 28.06.2019
5746 Clouds 3 1035 51 10000 1.5 240 14:59 28.06.2019
5747 Clouds 3 1035 51 10000 1.5 240 14:39 28.06.2019
5748 Clouds 3 1035 51 10000 1.5 240 14:20 28.06.2019
5749 Clouds 2 1035 55 10000 1.5 240 13:45 28.06.2019
5750 Clouds 1 1034 64 10000 3.1 240 13:22 28.06.2019
5751 Clouds 1 1034 64 10000 3.1 240 12:50 28.06.2019
5752 Clouds 1 1034 64 10000 3.1 240 12:25 28.06.2019
5753 Clouds -1 1018 31 0 3.34 282.317 11:29 28.06.2019
5754 Clouds -1 1018 31 0 3.34 282.317 10:47 28.06.2019
5755 Clouds -1 1018 31 0 3.34 282.317 10:23 28.06.2019
5756 Clouds -1 1018 31 0 3.34 282.317 10:00 28.06.2019
5757 Clouds -1 1018 31 0 3.34 282.317 09:41 28.06.2019
5758 Clouds 0 1017 26 0 5.53 268.498 09:22 28.06.2019
5759 Clouds 1 1017 26 0 6.12 274.247 08:42 28.06.2019
5760 Clouds 1 1017 26 0 6.12 274.247 08:23 28.06.2019
5761 Clouds 1 1017 26 0 6.12 274.247 07:42 28.06.2019
5762 Clouds 1 1017 26 0 6.12 274.247 06:49 28.06.2019
5763 Clouds 2 1016 22 0 7.79 260.957 03:35 28.06.2019
5764 Clouds 3 1014 21 0 7.84 264.028 00:46 28.06.2019
5765 Clouds 7 1009 17 0 7.85 268.613 00:19 28.06.2019
5766 Clouds 7 1009 17 0 7.85 268.613 23:43 27.06.2019
5767 Clouds 7 1009 17 0 7.85 268.613 23:22 27.06.2019
5768 Clouds 7 1009 17 0 7.85 268.613 22:43 27.06.2019
5769 Clouds 7 1009 17 0 7.85 268.613 22:25 27.06.2019
5770 Clouds 7 1009 17 0 7.85 268.613 21:57 27.06.2019
5771 Clouds 7 1009 17 0 7.85 268.613 21:38 27.06.2019
5772 Clouds 9 1011 10 0 6.86 276.447 21:19 27.06.2019
5773 Clear 9 1011 10 0 7.04 271.286 20:46 27.06.2019
5774 Clear 9 1011 10 0 7.04 271.286 20:28 27.06.2019
5775 Clear 9 1011 10 0 7.04 271.286 19:49 27.06.2019
5776 Clear 9 1011 10 0 7.04 271.286 19:29 27.06.2019
5777 Clear 9 1011 10 0 7.04 271.286 18:52 27.06.2019
5778 Clear 9 1011 10 0 7.04 271.286 18:30 27.06.2019
5779 Clear 7 1016 10 0 4.64 287.725 17:55 27.06.2019
5780 Clear 7 1016 10 0 4.64 287.725 17:36 27.06.2019
5781 Clear 7 1016 10 0 4.64 287.725 17:18 27.06.2019
5782 Clear 7 1016 10 0 4.64 287.725 16:38 27.06.2019
5783 Clear 7 1016 10 0 4.64 287.725 16:19 27.06.2019
5784 Clear 7 1016 10 0 4.64 287.725 15:45 27.06.2019
5785 Clouds 0 1019 17 0 3.05 271.557 15:24 27.06.2019
5786 Clouds 0 1019 17 0 3.05 271.557 14:48 27.06.2019
5787 Clouds 0 1019 17 0 3.05 271.557 14:29 27.06.2019
5788 Clouds 0 1019 17 0 3.05 271.557 13:50 27.06.2019
5789 Clouds 0 1019 19 0 2.56 270.961 13:31 27.06.2019
5790 Clouds 0 1019 19 0 2.56 270.961 12:58 27.06.2019
5791 Clouds 0 1019 19 0 2.56 270.961 12:38 27.06.2019
5792 Clouds -1 1017 21 0 3.88 273.794 12:19 27.06.2019
5793 Clouds -1 1017 21 0 3.88 273.794 11:42 27.06.2019
5794 Clouds -1 1017 21 0 3.88 273.794 11:21 27.06.2019
5795 Clouds -1 1017 21 0 3.88 273.794 10:55 27.06.2019
5796 Clouds -1 1017 21 0 3.88 273.794 10:36 27.06.2019
5797 Clouds -1 1017 21 0 3.88 273.794 10:18 27.06.2019
5798 Clouds -1 1017 21 0 3.88 273.794 09:37 27.06.2019
5799 Clear 0 1016 23 0 3.94 256.799 09:19 27.06.2019
5800 Clear 0 1016 24 0 4.08 261.349 08:44 27.06.2019
5801 Clear 0 1016 24 0 4.08 261.349 08:22 27.06.2019
5802 Clear 0 1016 24 0 4.08 261.349 07:39 27.06.2019
5803 Clear 0 1016 24 0 4.08 261.349 06:54 27.06.2019
5804 Clear 0 1016 24 0 4.08 261.349 06:28 27.06.2019
5805 Clear 1 1014 31 0 2.41 266.089 03:22 27.06.2019
5806 Clear 1 1014 31 0 2.41 266.089 02:39 27.06.2019
5807 Clear 1 1014 32 0 2.34 265.496 01:18 27.06.2019
5808 Clear 1 1014 32 0 2.34 265.496 00:45 27.06.2019
5809 Clear 6 1010 19 0 7.48 277.971 00:24 27.06.2019
5810 Clear 6 1010 19 0 7.48 277.971 23:42 26.06.2019
5811 Clear 6 1010 19 0 7.48 277.971 23:22 26.06.2019
5812 Clear 6 1010 19 0 7.48 277.971 22:55 26.06.2019
5813 Clear 6 1010 19 0 7.48 277.971 22:37 26.06.2019
5814 Clear 12 1030 27 10000 5.1 240 22:18 26.06.2019
5815 Clear 12 1030 27 10000 5.1 240 21:39 26.06.2019
5816 Clear 12 1030 27 10000 5.1 240 21:19 26.06.2019
5817 Clear 12 1031 27 10000 3.1 240 20:50 26.06.2019
5818 Clear 12 1031 27 10000 3.1 240 20:30 26.06.2019
5819 Clear 11 1031 29 10000 4.1 240 19:57 26.06.2019
5820 Clear 11 1031 29 10000 4.1 240 19:38 26.06.2019
5821 Clear 8 1032 33 10000 5.1 240 19:19 26.06.2019
5822 Clear 8 1032 33 10000 5.1 240 18:44 26.06.2019
5823 Clear 8 1032 33 10000 5.1 240 18:22 26.06.2019
5824 Clear 7 1032 36 10000 3.6 240 17:53 26.06.2019
5825 Clear 7 1032 36 10000 3.6 240 17:27 26.06.2019
5826 Clear 4 1033 41 10000 4.1 220 16:52 26.06.2019
5827 Clear 4 1033 41 10000 4.1 220 16:30 26.06.2019
5828 Clear 3 1033 44 10000 5.1 240 15:58 26.06.2019
5829 Clear 3 1033 44 10000 5.1 240 15:29 26.06.2019
5830 Clear 1 1033 50 10000 6.2 210 14:58 26.06.2019
5831 Clear 1 1033 50 10000 6.2 210 14:37 26.06.2019
5832 Clear 0 1033 30 10000 5.1 220 14:18 26.06.2019
5833 Clear 0 1033 30 10000 5.1 220 13:39 26.06.2019
5834 Clear 0 1032 31 10000 3.6 240 13:19 26.06.2019
5835 Clear 0 1032 31 10000 3.6 240 12:41 26.06.2019
5836 Clear 0 1032 31 10000 3.6 240 12:41 26.06.2019
5837 Clear 0 1032 33 10000 3.6 240 12:21 26.06.2019
5838 Clear -2 1018 33 0 4.79 272.849 11:42 26.06.2019
5839 Clear -2 1018 33 0 4.79 272.849 11:19 26.06.2019
5840 Clear -2 1018 33 0 4.79 272.849 10:41 26.06.2019
5841 Clear -2 1018 33 0 4.79 272.849 10:21 26.06.2019
5842 Clear -2 1018 33 0 4.79 272.849 09:41 26.06.2019
5843 Clear -1 1018 29 0 8.26 289.113 09:18 26.06.2019
5844 Clear -1 1018 29 0 8.26 289.113 08:39 26.06.2019
5845 Clear -1 1018 31 0 5.47 277.975 08:19 26.06.2019
5846 Clear -1 1018 31 0 5.47 277.975 07:45 26.06.2019
5847 Clear -1 1018 31 0 5.47 277.975 06:34 26.06.2019
5848 Clear 0 1019 35 0 6.96 264.788 05:55 26.06.2019
5849 Clouds 2 1016 31 0 6.82 261.968 00:57 26.06.2019
5850 Clouds 7 1009 16 0 8.39 303.563 00:20 26.06.2019
5851 Clouds 7 1009 16 0 8.39 303.563 23:43 25.06.2019
5852 Clouds 7 1009 16 0 8.39 303.563 23:24 25.06.2019
5853 Clouds 7 1009 16 0 8.39 303.563 22:56 25.06.2019
5854 Clouds 7 1009 16 0 8.39 303.563 22:37 25.06.2019
5855 Clouds 7 1009 16 0 8.39 303.563 22:19 25.06.2019
5856 Clouds 7 1009 16 0 8.39 303.563 21:40 25.06.2019
5857 Clouds 10 1009 13 0 9.52 281.75 21:21 25.06.2019
5858 Clouds 9 1009 14 0 9.61 276.99 20:43 25.06.2019
5859 Clouds 9 1009 14 0 9.61 276.99 20:43 25.06.2019
5860 Clouds 13 1030 24 10000 4.1 240 20:20 25.06.2019
5861 Clouds 13 1030 24 10000 4.1 240 20:20 25.06.2019
5862 Clouds 13 1030 24 10000 4.1 240 19:45 25.06.2019
5863 Clouds 13 1030 24 10000 4.1 240 19:23 25.06.2019
5864 Clouds 11 1031 32 10000 3.1 240 18:44 25.06.2019
5865 Clouds 11 1031 32 10000 3.1 240 18:44 25.06.2019
5866 Clouds 11 1031 32 10000 3.1 240 18:26 25.06.2019
5867 -273 0 0 0 0 0 17:54 25.06.2019
5868 -273 0 0 0 0 0 17:54 25.06.2019
5869 -273 0 0 0 0 0 17:53 25.06.2019
5870 -273 0 0 0 0 0 17:53 25.06.2019
5871 Clouds 10 1031 37 10000 4.1 240 17:29 25.06.2019
5872 Clouds 8 1031 42 10000 2.6 240 16:57 25.06.2019
5873 Clouds 8 1031 42 10000 2.6 240 16:38 25.06.2019
5874 Clouds 8 1031 42 10000 2.6 240 16:19 25.06.2019
5875 Clouds 4 1032 48 10000 2.6 240 15:41 25.06.2019
5876 Clouds 4 1032 48 10000 2.6 240 15:21 25.06.2019
5877 Clouds 2 1032 51 10000 5.1 240 14:54 25.06.2019
5878 Clouds 2 1032 51 10000 5.1 240 14:35 25.06.2019
5879 Clouds 1 1032 55 10000 5.1 240 13:46 25.06.2019
5880 Clouds 1 1032 55 10000 5.1 240 13:27 25.06.2019
5881 Clouds 0 1031 17 10000 4.1 240 12:44 25.06.2019
5882 Clouds 0 1031 17 10000 4.1 240 12:44 25.06.2019
5883 Clouds 0 1031 21 10000 4.1 240 12:25 25.06.2019
5884 Clouds 0 1014 21 0 3.94 252.094 11:55 25.06.2019
5885 Clouds 0 1014 21 0 3.94 252.094 11:37 25.06.2019
5886 Clouds 0 1014 21 0 3.94 252.094 11:18 25.06.2019
5887 Clouds 0 1014 21 0 3.94 252.094 10:42 25.06.2019
5888 Clouds 0 1014 21 0 3.94 252.094 10:22 25.06.2019
5889 Clouds 0 1014 21 0 3.94 252.094 09:55 25.06.2019
5890 Clouds 0 1014 21 0 3.94 252.094 09:37 25.06.2019
5891 Clear 1 1013 22 0 5.4 260.361 09:18 25.06.2019
5892 Clear 1 1013 22 0 5.4 260.361 08:37 25.06.2019
5893 Clouds 1 1013 23 0 6.23 257.681 08:19 25.06.2019
5894 Clouds 1 1013 23 0 6.23 257.681 07:39 25.06.2019
5895 Clouds 1 1013 23 0 6.23 257.681 06:52 25.06.2019
5896 Clouds 1 1013 23 0 6.23 257.681 06:28 25.06.2019
5897 Clear 4 1011 17 0 4.15 268.398 02:45 25.06.2019
5898 Clear 4 1011 17 0 4.15 268.398 01:40 25.06.2019
5899 Clear 4 1011 18 0 4.23 265.42 00:36 25.06.2019
5900 Clear 11 1008 13 0 5.43 271.825 23:56 24.06.2019
5901 Clear 11 1008 13 0 5.43 271.825 23:37 24.06.2019
5902 Clear 11 1008 13 0 5.43 271.825 23:19 24.06.2019
5903 Clear 11 1008 13 0 5.43 271.825 22:40 24.06.2019
5904 Clear 11 1008 13 0 5.43 271.825 22:19 24.06.2019
5905 Clear 11 1008 13 0 5.43 271.825 21:39 24.06.2019
5906 Clear 13 1011 6 0 4.16 331.957 21:19 24.06.2019
5907 Clear 13 1011 6 0 4.16 331.957 20:56 24.06.2019
5908 Clear 13 1010 6 0 4.9 332.802 20:37 24.06.2019
5909 Clear 16 1034 19 10000 1.5 60 20:19 24.06.2019
5910 Clear 16 1034 19 10000 1.5 60 19:43 24.06.2019
5911 Clear 14 1035 26 10000 1.5 240 19:21 24.06.2019
5912 Clear 14 1035 26 10000 1.5 240 18:44 24.06.2019
5913 Clear 14 1035 26 10000 1.5 240 18:25 24.06.2019
5914 Clear 8 1036 39 10000 2.6 240 17:47 24.06.2019
5915 Clear 8 1036 39 10000 2.6 240 17:25 24.06.2019
5916 Clear 5 1038 48 10000 4.1 240 16:48 24.06.2019
5917 Clear 4 1039 55 10000 3.1 240 16:20 24.06.2019
5918 Clear 4 1039 55 10000 3.1 240 15:49 24.06.2019
5919 Clear 4 1039 55 10000 3.1 240 15:30 24.06.2019
5920 Clear 2 1039 69 10000 2.1 240 14:55 24.06.2019
5921 Clear 2 1039 69 10000 2.1 240 14:31 24.06.2019
5922 Clear 0 1040 13 10000 2.1 240 13:49 24.06.2019
5923 Clear 0 1040 14 10000 2.1 240 13:24 24.06.2019
5924 Clear -1 1040 74 10000 0.62 292.435 12:44 24.06.2019
5925 Clear -1 1040 74 10000 1.1 212.603 12:21 24.06.2019
5926 Clear -1 1017 12 0 1.1 212.603 11:47 24.06.2019
5927 Clear -1 1017 12 0 1.1 212.603 11:28 24.06.2019
5928 Clear -1 1017 12 0 1.1 212.603 10:58 24.06.2019
5929 Clear -1 1017 12 0 1.1 212.603 10:39 24.06.2019
5930 Clear -1 1017 12 0 1.1 212.603 10:20 24.06.2019
5931 Clear -1 1017 12 0 1.1 212.603 09:44 24.06.2019
5932 Clear 0 1018 10 0 1.07 230.332 09:19 24.06.2019
5933 Clear 0 1018 10 0 1.07 230.332 08:51 24.06.2019
5934 Clear 0 1018 10 0 0.87 238.092 08:20 24.06.2019
5935 Clear 0 1018 10 0 0.87 238.092 07:42 24.06.2019
5936 Clear 0 1018 10 0 0.87 238.092 07:23 24.06.2019
5937 Clear 1 1019 14 0 0.65 237.27 06:25 24.06.2019
5938 Clear 1 1019 14 0 0.65 237.27 05:52 24.06.2019
5939 Clear 1 1019 14 0 0.65 237.27 04:58 24.06.2019
5940 Clear 1 1019 14 0 0.65 237.27 03:57 24.06.2019
5941 Clear 3 1018 18 0 0.42 185.562 02:52 24.06.2019
5942 Clear 3 1018 18 0 0.42 185.562 01:55 24.06.2019
5943 Clear 3 1018 18 0 0.42 185.562 01:36 24.06.2019
5944 Clear 3 1018 18 0 0.43 155.225 00:55 24.06.2019
5945 Clear 3 1018 18 0 0.43 155.225 00:37 24.06.2019
5946 Clear 11 1015 9 0 2.75 71.881 00:18 24.06.2019
5947 Clear 11 1015 9 0 2.75 71.881 23:41 23.06.2019
5948 Clear 11 1015 9 0 2.75 71.881 23:20 23.06.2019
5949 Clear 11 1015 9 0 2.75 71.881 22:42 23.06.2019
5950 Clear 11 1015 9 0 2.75 71.881 22:20 23.06.2019
5951 Clear 11 1015 9 0 2.75 71.881 21:43 23.06.2019
5952 Clear 13 1017 4 0 2.68 46.695 21:25 23.06.2019
5953 -273 0 0 0 0 0 20:57 23.06.2019
5954 Clear 13 1017 4 0 2.68 46.695 20:38 23.06.2019
5955 Clear 13 1017 5 0 3.04 44.52 20:19 23.06.2019
5956 Clear 13 1017 5 0 3.04 44.52 19:43 23.06.2019
5957 Clear 13 1017 5 0 3.04 44.52 19:20 23.06.2019
5958 Clear 13 1017 5 0 3.04 44.52 18:47 23.06.2019
5959 Clear 11 1022 4 0 1.48 57.381 18:20 23.06.2019
5960 Clear 11 1022 4 0 1.48 57.381 17:45 23.06.2019
5961 Clear 6 1044 41 10000 4.1 240 17:25 23.06.2019
5962 Clear 6 1044 41 10000 4.1 240 16:47 23.06.2019
5963 Clear 6 1044 41 10000 4.1 240 16:26 23.06.2019
5964 Clear 4 1044 44 10000 3.6 240 15:59 23.06.2019
5965 Clear 11 1022 4 0 1.48 57.381 15:40 23.06.2019
5966 Clear 1 1045 50 10000 3.6 240 15:19 23.06.2019
5967 Clear 1 1045 50 10000 3.6 240 14:39 23.06.2019
5968 Clear 1 1045 50 10000 3.6 240 14:21 23.06.2019
5969 Clear 0 1044 13 10000 3.1 240 13:56 23.06.2019
5970 Clear 0 1044 13 10000 3.1 240 13:36 23.06.2019
5971 Clear -1 1043 63 10000 2.6 240 13:18 23.06.2019
5972 Clear -1 1043 63 10000 2.6 240 12:42 23.06.2019
5973 Clear -1 1043 63 10000 2.6 240 12:20 23.06.2019
5974 Clear -1 1023 8 0 0.72 214.394 11:49 23.06.2019
5975 Clear -1 1023 8 0 0.72 214.394 11:29 23.06.2019
5976 Clear -1 1023 8 0 0.72 214.394 10:53 23.06.2019
5977 Clear -1 1023 8 0 0.72 214.394 10:22 23.06.2019
5978 Clear -1 1023 8 0 0.72 214.394 10:22 23.06.2019
5979 Clear -1 1023 8 0 0.72 214.394 09:59 23.06.2019
5980 Clear 0 1024 12 0 1.1 236.252 09:25 23.06.2019
5981 Clear 0 1024 12 0 1.1 236.252 08:56 23.06.2019
5982 Clear 0 1024 12 0 1.1 236.252 08:37 23.06.2019
5983 Clear 0 1024 11 0 1.22 234.812 08:19 23.06.2019
5984 Clear 0 1024 11 0 1.22 234.812 07:51 23.06.2019
5985 Clear 0 1024 11 0 1.22 234.812 07:20 23.06.2019
5986 Clear 0 1024 11 0 1.22 234.812 06:53 23.06.2019
5987 Clear 1 1024 18 0 1.1 244.646 05:54 23.06.2019
5988 Clear 3 1023 23 0 0.59 70.372 03:30 23.06.2019
5989 Clear 3 1023 23 0 0.59 70.372 01:52 23.06.2019
5990 Clear 3 1023 23 0 0.59 70.372 01:33 23.06.2019
5991 Clear 3 1023 22 0 0.49 73.111 00:34 23.06.2019
5992 Clear 10 1019 9 0 3.03 46.056 23:53 22.06.2019
5993 Clear 10 1019 9 0 3.03 46.056 23:27 22.06.2019
5994 Clear 10 1019 9 0 3.03 46.056 22:49 22.06.2019
5995 Clear 10 1019 9 0 3.03 46.056 22:29 22.06.2019
5996 Clear 10 1019 9 0 3.03 46.056 21:59 22.06.2019
5997 Clear 10 1019 9 0 3.03 46.056 21:37 22.06.2019
5998 Clear 12 1020 7 0 3.79 48.576 21:19 22.06.2019
5999 Clear 12 1020 7 0 3.79 48.576 20:50 22.06.2019
6000 Clear 12 1020 7 0 3.79 48.576 20:50 22.06.2019
6001 Clear 12 1020 7 0 3.91 47.979 20:25 22.06.2019
6002 Clear 12 1020 7 0 3.91 47.979 19:47 22.06.2019
6003 Clear 12 1020 7 0 3.91 47.979 19:23 22.06.2019
6004 Clear 12 1020 7 0 3.91 47.979 18:48 22.06.2019
6005 Clear 12 1020 7 0 3.91 47.979 18:30 22.06.2019
6006 Clear 10 1024 8 0 2.37 72.168 17:56 22.06.2019
6007 Clear 8 1045 39 10000 2.6 240 17:34 22.06.2019
6008 Clear 8 1045 39 10000 2.6 240 16:50 22.06.2019
6009 Clear 8 1045 39 10000 2.6 240 16:24 22.06.2019
6010 Clear 4 1045 55 10000 2.1 240 15:56 22.06.2019
6011 Clear 4 1045 55 10000 2.1 240 15:37 22.06.2019
6012 Clear 2 1045 55 10000 2.01 214.735 15:19 22.06.2019
6013 Clear 2 1045 55 10000 2.01 214.735 14:35 22.06.2019
6014 Clear 0 1045 18 10000 2.01 214.735 14:00 22.06.2019
6015 Clear 0 1045 18 10000 2.01 214.735 13:41 22.06.2019
6016 Clear 0 1045 18 10000 2.08 214.278 13:21 22.06.2019
6017 Clear -1 1044 74 10000 1.5 240 12:50 22.06.2019
6018 Clear -1 1044 74 10000 1.5 240 12:32 22.06.2019
6019 Clear 0 1024 14 0 2.2 213.032 11:58 22.06.2019
6020 Clear 0 1024 14 0 2.2 213.032 11:33 22.06.2019
6021 Clear 0 1024 14 0 2.2 213.032 10:50 22.06.2019
6022 Clear 0 1024 14 0 2.2 213.032 10:21 22.06.2019
6023 Clear 0 1024 14 0 2.2 213.032 09:49 22.06.2019
6024 Clear 1 1024 14 0 1.42 210.597 09:22 22.06.2019
6025 Clear 1 1024 17 0 1.48 207.221 08:43 22.06.2019
6026 Clear 1 1024 17 0 1.48 207.221 08:22 22.06.2019
6027 Clear 1 1024 17 0 1.48 207.221 07:33 22.06.2019
6028 Clear 1 1024 17 0 1.48 207.221 06:55 22.06.2019
6029 Clear 2 1024 22 0 0.94 214.28 05:22 22.06.2019
6030 Clear 4 1022 25 0 0.61 63.435 02:33 22.06.2019
6031 Clear 4 1022 23 0 0.59 55.032 01:22 22.06.2019
6032 Clear 4 1022 23 0 0.59 55.032 00:41 22.06.2019
6033 Clear 11 1018 9 0 2.63 51.84 00:22 22.06.2019
6034 Clear 11 1018 9 0 2.63 51.84 23:44 21.06.2019
6035 Clear 11 1018 9 0 2.63 51.84 23:22 21.06.2019
6036 Clear 11 1018 9 0 2.63 51.84 22:52 21.06.2019
6037 Clear 11 1018 9 0 2.63 51.84 22:24 21.06.2019
6038 Clear 11 1018 9 0 2.63 51.84 21:55 21.06.2019
6039 Clear 11 1018 9 0 2.63 51.84 21:36 21.06.2019
6040 Clear 12 1019 6 0 3.16 55.011 21:18 21.06.2019
6041 Clear 12 1019 6 0 3.13 57.179 20:44 21.06.2019
6042 Clear 16 1043 23 10000 1.5 360 20:22 21.06.2019
6043 Clear 16 1043 23 10000 1.5 360 19:35 21.06.2019
6044 Clear 14 1044 30 10000 3.13 57.179 18:50 21.06.2019
6045 Clear 14 1044 30 10000 3.13 57.179 18:30 21.06.2019
6046 Clear 11 1044 34 10000 3.1 240 17:47 21.06.2019
6047 Clear 11 1044 34 10000 3.1 240 17:29 21.06.2019
6048 Clear 7 1044 45 10000 3.6 240 16:42 21.06.2019
6049 Clear 7 1044 45 10000 3.6 240 16:22 21.06.2019
6050 Clear 5 1045 48 10000 3.6 240 15:43 21.06.2019
6051 Clear 5 1045 48 10000 3.6 240 15:23 21.06.2019
6052 Clear 2 1045 51 10000 2.6 240 14:52 21.06.2019
6053 Clear 2 1045 51 10000 2.6 240 14:31 21.06.2019
6054 Clear 1 1044 55 10000 2.6 240 13:58 21.06.2019
6055 Clear 1 1044 55 10000 2.6 240 13:36 21.06.2019
6056 Clear 4 1025 17 0 2.05 226.52 13:18 21.06.2019
6057 Clear 4 1025 17 0 2.05 226.52 12:40 21.06.2019
6058 Clear 1 1022 21 0 1.63 235.034 12:18 21.06.2019
6059 Clear 1 1022 21 0 1.63 235.034 11:47 21.06.2019
6060 Clear 1 1022 21 0 1.63 235.034 11:26 21.06.2019
6061 Clear 1 1022 21 0 1.63 235.034 10:56 21.06.2019
6062 Clear 1 1022 21 0 1.63 235.034 10:38 21.06.2019
6063 Clear 1 1022 21 0 1.63 235.034 10:19 21.06.2019
6064 Clear 1 1022 21 0 1.63 235.034 09:41 21.06.2019
6065 Clear 2 1023 30 0 1.29 239.808 09:21 21.06.2019
6066 Clear 2 1023 30 0 1.29 239.808 08:44 21.06.2019
6067 Clear 2 1023 29 0 1.43 238.906 08:24 21.06.2019
6068 Clear 2 1023 29 0 1.43 238.906 07:54 21.06.2019
6069 Clear 2 1023 29 0 1.43 238.906 07:36 21.06.2019
6070 Clear 2 1023 29 0 1.43 238.906 06:54 21.06.2019
6071 Clear 3 1023 42 0 0.86 251.144 06:23 21.06.2019
6072 Clear 3 1023 42 0 0.86 251.144 05:30 21.06.2019
6073 Clear 3 1023 42 0 0.86 251.144 04:31 21.06.2019
6074 Clear 3 1023 42 0 0.86 251.144 03:35 21.06.2019
6075 Clear 5 1022 42 0 0.86 32.783 02:53 21.06.2019
6076 Clear 5 1022 42 0 0.86 32.783 01:58 21.06.2019
6077 Clear 5 1022 44 0 0.87 34.62 00:58 21.06.2019
6078 Clear 5 1022 44 0 0.87 34.62 00:27 21.06.2019
6079 Clear 11 1017 13 0 2.77 48.42 23:53 20.06.2019
6080 Clear 11 1017 13 0 2.77 48.42 23:24 20.06.2019
6081 Clear 11 1017 13 0 2.77 48.42 22:59 20.06.2019
6082 Clear 11 1017 13 0 2.77 48.42 22:40 20.06.2019
6083 Clear 11 1017 13 0 2.77 48.42 22:21 20.06.2019
6084 Clear 11 1017 13 0 2.77 48.42 21:52 20.06.2019
6085 Clear 12 1018 11 0 2.84 52.961 21:20 20.06.2019
6086 Clear 12 1018 11 0 2.84 52.961 20:59 20.06.2019
6087 Clear 12 1018 11 0 2.82 53.776 20:40 20.06.2019
6088 Clear 12 1018 11 0 2.82 53.776 20:21 20.06.2019
6089 Clear 12 1018 11 0 2.82 53.776 19:43 20.06.2019
6090 Clear 12 1018 11 0 2.82 53.776 19:19 20.06.2019
6091 Clear 12 1018 11 0 2.82 53.776 18:56 20.06.2019
6092 Clear 12 1018 11 0 2.82 53.776 18:38 20.06.2019
6093 Clear 10 1023 16 0 2.13 55.085 18:20 20.06.2019
6094 Clear 10 1023 16 0 2.13 55.085 17:45 20.06.2019
6095 Clear 10 1023 16 0 2.13 55.085 17:22 20.06.2019
6096 Clear 10 1023 16 0 2.13 55.085 16:42 20.06.2019
6097 Clear 10 1023 16 0 2.13 55.085 16:19 20.06.2019
6098 Clear 10 1023 16 0 2.13 55.085 15:44 20.06.2019
6099 Clear 4 1024 29 0 1.21 233.083 15:24 20.06.2019
6100 Clear 4 1024 29 0 1.21 233.083 14:58 20.06.2019
6101 Clear 4 1024 29 0 1.21 233.083 14:39 20.06.2019
6102 Clear 4 1024 29 0 1.21 233.083 14:19 20.06.2019
6103 Clear 4 1024 29 0 1.21 233.083 13:39 20.06.2019
6104 Clear 4 1025 28 0 1.22 229.251 13:19 20.06.2019
6105 Clear 4 1025 28 0 1.22 229.251 12:43 20.06.2019
6106 Clear 1 1022 31 0 1.71 245.847 12:22 20.06.2019
6107 Clear 1 1022 31 0 1.71 245.847 11:44 20.06.2019
6108 Clear 1 1022 31 0 1.71 245.847 11:23 20.06.2019
6109 Clear 1 1022 31 0 1.71 245.847 10:45 20.06.2019
6110 Clear 1 1022 31 0 1.71 245.847 10:45 20.06.2019
6111 Clear 1 1022 31 0 1.71 245.847 10:25 20.06.2019
6112 Clear 1 1022 31 0 1.71 245.847 09:58 20.06.2019
6113 Clear 1 1022 31 0 1.71 245.847 09:38 20.06.2019
6114 Clear 1 1023 47 0 1.16 257.674 09:20 20.06.2019
6115 Clear 1 1022 41 0 1.28 258.734 08:45 20.06.2019
6116 Clear 1 1022 41 0 1.28 258.734 08:26 20.06.2019
6117 Clear 1 1022 41 0 1.28 258.734 07:51 20.06.2019
6118 Clear 1 1022 41 0 1.28 258.734 07:27 20.06.2019
6119 Clear 2 1022 49 0 0.83 3.546 06:25 20.06.2019
6120 Clear 2 1022 49 0 0.83 3.546 04:53 20.06.2019
6121 Clear 5 1020 29 0 0.52 206.172 02:29 20.06.2019
6122 Clear 5 1020 27 0 1.09 221.28 00:34 20.06.2019
6123 Clear 11 1016 12 0 1.6 203.161 23:49 19.06.2019
6124 Clear 11 1016 12 0 1.6 203.161 23:30 19.06.2019
6125 Clear 11 1016 12 0 1.6 203.161 22:57 19.06.2019
6126 Clear 11 1016 12 0 1.6 203.161 22:39 19.06.2019
6127 Clear 11 1016 12 0 1.6 203.161 22:18 19.06.2019
6128 Clear 11 1016 12 0 1.6 203.161 22:18 19.06.2019
6129 Clear 11 1016 12 0 1.6 203.161 21:42 19.06.2019
6130 Clear 15 1040 18 10000 3.1 40 21:23 19.06.2019
6131 Clear 15 1040 18 10000 3.1 40 20:42 19.06.2019
6132 Clear 15 1040 18 10000 3.1 40 20:22 19.06.2019
6133 Clear 15 1041 21 10000 2.6 360 19:51 19.06.2019
6134 Clear 15 1041 21 10000 2.6 360 19:29 19.06.2019
6135 Clear 12 1042 27 10000 2.6 60 18:57 19.06.2019
6136 Clear 12 1042 27 10000 2.6 60 18:28 19.06.2019
6137 Clear 10 1042 27 10000 2.1 70 17:53 19.06.2019
6138 Clear 10 1042 27 10000 2.1 70 17:53 19.06.2019
6139 Clear 10 1042 27 10000 2.1 70 17:33 19.06.2019
6140 Clear 7 1043 36 10000 2.1 240 16:57 19.06.2019
6141 Clear 7 1043 36 10000 2.1 240 16:38 19.06.2019
6142 Clear 7 1043 36 10000 2.1 240 16:20 19.06.2019
6143 Clear 4 1043 41 10000 3.1 240 15:48 19.06.2019
6144 Clear 4 1043 41 10000 3.1 240 15:25 19.06.2019
6145 Clear 2 1042 43 10000 3.6 240 14:50 19.06.2019
6146 Clear 2 1042 43 10000 3.6 240 14:30 19.06.2019
6147 Clear 1 1042 55 10000 3.6 240 13:59 19.06.2019
6148 Clear 1 1042 55 10000 3.6 240 13:40 19.06.2019
6149 Clear 1 1042 55 10000 3.6 240 13:21 19.06.2019
6150 Clear 0 1042 21 10000 2.6 240 12:43 19.06.2019
6151 Clear 0 1042 22 10000 2.6 240 12:21 19.06.2019
6152 Clear 1 1021 22 0 3.33 253.856 11:45 19.06.2019
6153 Clear 1 1021 22 0 3.33 253.856 11:25 19.06.2019
6154 Clear 1 1021 22 0 3.33 253.856 10:57 19.06.2019
6155 Clear 1 1021 22 0 3.33 253.856 10:38 19.06.2019
6156 Clear 1 1021 22 0 3.33 253.856 10:19 19.06.2019
6157 Clear 1 1021 22 0 3.33 253.856 09:39 19.06.2019
6158 Clear 1 1021 22 0 3.79 262.199 09:19 19.06.2019
6159 Clear 1 1021 22 0 3.98 260.545 08:49 19.06.2019
6160 Clear 1 1021 22 0 3.98 260.545 08:28 19.06.2019
6161 Clear 1 1021 22 0 3.98 260.545 07:47 19.06.2019
6162 Clear 1 1021 22 0 3.98 260.545 07:25 19.06.2019
6163 Clear 1 1021 22 0 3.98 260.545 06:52 19.06.2019
6164 Clear 1 1021 22 0 3.98 260.545 06:28 19.06.2019
6165 Clear 2 1021 26 0 4.1 261.949 05:49 19.06.2019
6166 Clear 2 1021 26 0 4.1 261.949 04:34 19.06.2019
6167 Clear 2 1021 26 0 4.1 261.949 03:30 19.06.2019
6168 Clear 3 1019 29 0 3.61 258.516 02:26 19.06.2019
6169 Clear 3 1018 31 0 3.62 260.001 01:23 19.06.2019
6170 Clear 3 1018 31 0 3.62 260.001 00:43 19.06.2019
6171 Clear 3 1018 31 0 3.62 260.001 00:43 19.06.2019
6172 Clear 8 1014 22 0 5.73 272.3 00:20 19.06.2019
6173 Clear 8 1014 22 0 5.73 272.3 23:52 18.06.2019
6174 Clear 15 1035 21 10000 3.6 240 23:28 18.06.2019
6175 Clear 15 1035 21 10000 3.6 240 22:49 18.06.2019
6176 Clear 15 1035 21 10000 3.6 240 22:25 18.06.2019
6177 Clear 15 1035 21 10000 3.6 240 21:57 18.06.2019
6178 Clear 15 1035 21 10000 3.6 240 21:39 18.06.2019
6179 Clear 15 1035 21 10000 3.6 240 21:20 18.06.2019
6180 Clear 16 1036 17 10000 4.1 270 20:43 18.06.2019
6181 Clear 16 1036 17 10000 4.1 270 20:25 18.06.2019
6182 Clear 14 1038 17 10000 4.1 240 19:42 18.06.2019
6183 Clear 14 1038 17 10000 4.1 240 19:24 18.06.2019
6184 Clear 13 1040 22 10000 3.1 240 18:59 18.06.2019
6185 Clear 13 1040 22 10000 3.1 240 18:39 18.06.2019
6186 Clear 11 1041 27 10000 2.1 240 18:21 18.06.2019
6187 Clear 11 1041 27 10000 2.1 240 17:39 18.06.2019
6188 Clear 11 1041 27 10000 2.1 240 17:20 18.06.2019
6189 Clear 8 1041 33 10000 2.6 240 16:46 18.06.2019
6190 -273 0 0 0 0 0 16:27 18.06.2019
6191 Clear 6 1042 35 10000 3.1 240 15:55 18.06.2019
6192 Clear 6 1042 35 10000 3.1 240 15:55 18.06.2019
6193 Clear 6 1042 35 10000 3.1 240 15:36 18.06.2019
6194 Clear 6 1042 35 10000 3.1 240 15:36 18.06.2019
6195 Clear 3 1042 44 10000 3.6 240 15:18 18.06.2019
6196 Clear 3 1042 44 10000 3.6 240 14:42 18.06.2019
6197 Clear 3 1042 44 10000 3.6 240 14:22 18.06.2019
6198 Clear 1 1041 64 10000 3.1 240 13:53 18.06.2019
6199 Clear 1 1041 64 10000 3.1 240 13:32 18.06.2019
6200 Clear 0 1040 27 10000 4 268.266 12:59 18.06.2019
6201 Clear 0 1040 27 10000 4 268.266 12:41 18.06.2019
6202 Clear 0 1040 33 10000 4.66 263.941 12:23 18.06.2019
6203 Clear 0 1022 33 0 4.66 263.941 11:42 18.06.2019
6204 Clear 0 1022 33 0 4.66 263.941 11:21 18.06.2019
6205 Clear 0 1022 33 0 4.66 263.941 10:57 18.06.2019
6206 Clear 0 1022 33 0 4.66 263.941 10:37 18.06.2019
6207 Clear 0 1022 33 0 4.66 263.941 10:18 18.06.2019
6208 Clear 0 1022 33 0 4.66 263.941 09:39 18.06.2019
6209 Clear 1 1022 32 0 7.04 262.675 09:18 18.06.2019
6210 Clear 1 1022 32 0 7.04 262.675 08:43 18.06.2019
6211 Clear 1 1022 32 0 7.04 262.675 08:43 18.06.2019
6212 Clear 1 1022 34 0 5.19 263.527 08:21 18.06.2019
6213 Clear 1 1022 34 0 5.19 263.527 07:40 18.06.2019
6214 Clear 1 1022 34 0 5.19 263.527 07:19 18.06.2019
6215 Clear 2 1021 32 0 4.77 247.643 05:39 18.06.2019
6216 Clear 2 1021 32 0 4.77 247.643 05:19 18.06.2019
6217 Clear 4 1019 47 0 3.68 259.977 02:52 18.06.2019
6218 Clear 4 1019 47 0 3.68 259.977 01:55 18.06.2019
6219 Clear 4 1018 48 0 3.35 258.186 01:24 18.06.2019
6220 Clear 4 1018 48 0 3.35 258.186 00:55 18.06.2019
6221 Clear 4 1018 48 0 3.35 258.186 00:27 18.06.2019
6222 Clear 8 1014 37 0 9.1 299.312 23:41 17.06.2019
6223 Clear 8 1014 37 0 9.1 299.312 23:20 17.06.2019
6224 Clear 8 1014 37 0 9.1 299.312 22:56 17.06.2019
6225 Clear 8 1014 37 0 9.1 299.312 22:37 17.06.2019
6226 Clear 8 1014 37 0 9.1 299.312 22:18 17.06.2019
6227 Clear 8 1014 37 0 9.1 299.312 21:42 17.06.2019
6228 Clear 9 1015 31 0 10.57 303.765 21:21 17.06.2019
6229 Clear 9 1015 31 0 10.57 303.765 20:37 17.06.2019
6230 Clear 14 1038 30 10000 4.1 240 20:19 17.06.2019
6231 Clear 14 1038 30 10000 4.1 240 19:42 17.06.2019
6232 Clear 14 1038 30 10000 4.1 240 19:24 17.06.2019
6233 Clear 12 1040 40 10000 3.1 240 18:58 17.06.2019
6234 Clear 12 1040 40 10000 3.1 240 18:38 17.06.2019
6235 Clear 11 1041 40 10000 2.6 360 18:18 17.06.2019
6236 Clear 11 1041 40 10000 2.6 360 17:47 17.06.2019
6237 Clear 11 1041 40 10000 2.6 360 17:28 17.06.2019
6238 Clouds 8 1041 61 10000 3.1 240 16:55 17.06.2019
6239 Clouds 8 1041 61 10000 3.1 240 16:36 17.06.2019
6240 Clouds 7 1042 70 10000 1.5 240 16:18 17.06.2019
6241 Clouds 7 1042 70 10000 1.5 240 15:40 17.06.2019
6242 Clouds 5 1042 75 10000 2.16 317.979 15:20 17.06.2019
6243 Clouds 5 1042 75 10000 2.16 317.979 14:55 17.06.2019
6244 Clouds 5 1042 75 10000 2.16 317.979 14:34 17.06.2019
6245 Clouds 4 1042 80 10000 1.5 240 13:58 17.06.2019
6246 Clouds 4 1042 80 10000 1.5 240 13:39 17.06.2019
6247 Clouds 4 1042 80 10000 1.5 240 13:20 17.06.2019
6248 Clouds 4 1042 80 10000 1.5 240 12:38 17.06.2019
6249 Clouds 1 1022 86 0 2.65 322.455 12:18 17.06.2019
6250 Clouds 1 1022 86 0 2.65 322.455 11:39 17.06.2019
6251 Clouds 1 1022 86 0 2.65 322.455 11:20 17.06.2019
6252 Clouds 1 1022 86 0 2.65 322.455 10:46 17.06.2019
6253 Clouds 1 1022 86 0 2.65 322.455 10:46 17.06.2019
6254 Clouds 1 1022 86 0 2.65 322.455 10:28 17.06.2019
6255 Clouds 1 1022 86 0 2.65 322.455 09:56 17.06.2019
6256 Clouds 1 1022 86 0 2.65 322.455 09:33 17.06.2019
6257 Clouds 1 1022 90 0 2.77 344.763 08:48 17.06.2019
6258 Clouds 1 1022 90 0 2.77 344.763 08:25 17.06.2019
6259 Clouds 1 1022 90 0 2.77 344.763 07:58 17.06.2019
6260 Clouds 1 1022 90 0 2.77 344.763 07:38 17.06.2019
6261 Clouds 1 1022 90 0 2.77 344.763 07:18 17.06.2019
6262 Clouds 2 1022 87 0 4.51 251.003 06:22 17.06.2019
6263 Clouds 2 1022 87 0 4.51 251.003 05:29 17.06.2019
6264 Clouds 2 1022 87 0 4.51 251.003 04:30 17.06.2019
6265 Clouds 2 1022 87 0 4.51 251.003 03:32 17.06.2019
6266 Rain 5 1019 74 0 1.28 46.997 02:46 17.06.2019
6267 Rain 5 1019 74 0 1.28 46.997 02:28 17.06.2019
6268 Rain 5 1019 74 0 1.28 46.997 01:36 17.06.2019
6269 Rain 4 1019 88 0 1.34 64.522 00:58 17.06.2019
6270 Rain 4 1019 88 0 1.34 64.522 00:38 17.06.2019
6271 Rain 7 1015 55 0 2.79 28.625 00:19 17.06.2019
6272 Rain 7 1015 55 0 2.79 28.625 23:40 16.06.2019
6273 Rain 7 1015 55 0 2.79 28.625 23:20 16.06.2019
6274 Rain 7 1015 55 0 2.79 28.625 22:45 16.06.2019
6275 Rain 7 1015 55 0 2.79 28.625 22:21 16.06.2019
6276 Rain 7 1015 55 0 2.79 28.625 21:59 16.06.2019
6277 Rain 7 1015 55 0 2.79 28.625 21:40 16.06.2019
6278 Rain 9 1014 42 0 3.93 334.015 21:21 16.06.2019
6279 Clouds 9 1015 40 0 4.5 332.262 20:54 16.06.2019
6280 Clouds 9 1015 40 0 4.5 332.262 20:54 16.06.2019
6281 Clouds 9 1015 40 0 4.5 332.262 20:36 16.06.2019
6282 Clouds 9 1015 40 0 4.5 332.262 20:18 16.06.2019
6283 Clouds 9 1015 40 0 4.5 332.262 19:39 16.06.2019
6284 Clouds 9 1015 40 0 4.5 332.262 19:21 16.06.2019
6285 Clouds 9 1015 40 0 4.5 332.262 18:57 16.06.2019
6286 Clouds 9 1015 40 0 4.5 332.262 18:57 16.06.2019
6287 Clouds 9 1015 40 0 4.5 332.262 18:38 16.06.2019
6288 Clouds 7 1020 48 0 3.47 349.509 18:19 16.06.2019
6289 Clouds 7 1020 48 0 3.47 349.509 17:42 16.06.2019
6290 Clouds 9 1041 70 10000 3.47 349.509 17:22 16.06.2019
6291 Clouds 9 1041 70 10000 3.47 349.509 17:22 16.06.2019
6292 Clouds 9 1041 70 10000 3.47 349.509 16:56 16.06.2019
6293 Clouds 9 1041 70 10000 3.47 349.509 16:56 16.06.2019
6294 Clouds 9 1041 70 10000 3.47 349.509 16:56 16.06.2019
6295 Clouds 9 1041 70 10000 3.47 349.509 16:38 16.06.2019
6296 Clouds 5 1041 86 10000 1.5 240 16:19 16.06.2019
6297 Clouds 5 1041 86 10000 1.5 240 15:41 16.06.2019
6298 Clouds 5 1041 86 10000 1.5 240 15:23 16.06.2019
6299 Clouds 2 1041 93 10000 1.5 240 14:43 16.06.2019
6300 Clouds 2 1039 93 10000 1.86 321.446 14:23 16.06.2019
6301 Clouds 2 1039 93 10000 1.86 321.446 13:52 16.06.2019
6302 Clouds 2 1039 93 10000 1.86 321.446 13:27 16.06.2019
6303 Clouds 1 1039 100 6000 1.94 334.267 12:57 16.06.2019
6304 Clouds 1 1039 100 6000 1.94 334.267 12:38 16.06.2019
6305 Clouds 2 1020 73 0 3.05 303.867 12:19 16.06.2019
6306 Clouds 2 1020 73 0 3.05 303.867 11:45 16.06.2019
6307 Clouds 2 1020 73 0 3.05 303.867 11:20 16.06.2019
6308 Clouds 2 1020 73 0 3.05 303.867 10:45 16.06.2019
6309 Clouds 2 1020 73 0 3.05 303.867 10:22 16.06.2019
6310 Clouds 2 1020 73 0 3.05 303.867 09:56 16.06.2019
6311 Clouds 2 1020 73 0 3.05 303.867 09:36 16.06.2019
6312 Clouds 3 1020 75 0 4.21 242.978 09:18 16.06.2019
6313 Clouds 3 1020 75 0 4.21 242.978 08:40 16.06.2019
6314 Clouds 3 1020 75 0 4.21 242.978 08:19 16.06.2019
6315 Clouds 3 1020 75 0 4.21 242.978 07:44 16.06.2019
6316 Clouds 3 1020 75 0 4.21 242.978 06:59 16.06.2019
6317 Clouds 3 1020 75 0 4.21 242.978 06:39 16.06.2019
6318 Clouds 5 1019 63 0 3.28 228.365 05:50 16.06.2019
6319 Clouds 5 1019 63 0 3.28 228.365 04:54 16.06.2019
6320 Clouds 5 1019 63 0 3.28 228.365 03:57 16.06.2019
6321 Clouds 5 1019 63 0 3.28 228.365 03:32 16.06.2019
6322 Clouds 6 1015 54 0 2.8 267.519 02:33 16.06.2019
6323 Clouds 6 1015 54 0 2.8 267.519 01:47 16.06.2019
6324 Clouds 6 1015 54 0 2.8 267.519 01:27 16.06.2019
6325 Clouds 7 1016 53 0 2.87 264.516 00:40 16.06.2019
6326 Clouds 10 1011 34 0 6.95 308.664 00:21 16.06.2019
6327 Clouds 10 1011 34 0 6.95 308.664 23:45 15.06.2019
6328 Clouds 10 1011 34 0 6.95 308.664 23:25 15.06.2019
6329 Clouds 10 1011 34 0 6.95 308.664 22:50 15.06.2019
6330 Clouds 10 1011 34 0 6.95 308.664 22:27 15.06.2019
6331 Clouds 10 1011 34 0 6.95 308.664 21:57 15.06.2019
6332 Clouds 10 1011 34 0 6.95 308.664 21:39 15.06.2019
6333 Clouds 12 1011 30 0 7.65 311.464 21:18 15.06.2019
6334 Clouds 12 1011 30 0 6.93 315.339 20:42 15.06.2019
6335 Clouds 12 1011 30 0 6.93 315.339 20:22 15.06.2019
6336 Clouds 12 1011 30 0 6.93 315.339 19:43 15.06.2019
6337 Clouds 12 1011 30 0 6.93 315.339 19:24 15.06.2019
6338 Clouds 12 1011 30 0 6.93 315.339 18:41 15.06.2019
6339 Clouds 9 1017 40 0 2.88 324.169 18:21 15.06.2019
6340 Clouds 9 1017 40 0 2.88 324.169 17:43 15.06.2019
6341 Clouds 10 1038 46 10000 1.5 240 17:25 15.06.2019
6342 Clouds 10 1038 46 10000 1.5 240 16:48 15.06.2019
6343 Clouds 8 1039 49 10000 3.6 240 16:20 15.06.2019
6344 Clouds 8 1039 49 10000 3.6 240 15:44 15.06.2019
6345 Clouds 8 1039 49 10000 3.6 240 15:44 15.06.2019
6346 Clouds 8 1039 49 10000 3.6 240 15:24 15.06.2019
6347 Clouds 6 1038 56 10000 2.1 240 14:54 15.06.2019
6348 Clouds 6 1038 56 10000 2.1 240 14:36 15.06.2019
6349 Clouds 5 1037 60 10000 3.1 240 14:18 15.06.2019
6350 Clouds 5 1037 60 10000 3.1 240 13:42 15.06.2019
6351 Clouds 4 1037 64 10000 2.6 240 13:19 15.06.2019
6352 Clouds 4 1037 64 10000 2.6 240 12:52 15.06.2019
6353 Clouds 4 1037 64 10000 2.6 240 12:26 15.06.2019
6354 -273 0 0 0 0 0 11:54 15.06.2019
6355 Clouds 4 1018 58 0 2.47 255.187 11:34 15.06.2019
6356 Clouds 4 1017 58 0 2.54 261.266 10:55 15.06.2019
6357 Clouds 4 1017 58 0 2.54 261.266 10:37 15.06.2019
6358 Clouds 4 1017 58 0 2.54 261.266 10:19 15.06.2019
6359 Clouds 4 1017 58 0 2.54 261.266 09:43 15.06.2019
6360 Clouds 4 1017 66 0 1.01 288.922 09:23 15.06.2019
6361 Clouds 4 1017 66 0 1.01 288.922 08:53 15.06.2019
6362 Clouds 4 1017 66 0 1.01 288.922 08:32 15.06.2019
6363 Clouds 4 1017 66 0 1.01 288.922 07:50 15.06.2019
6364 Clouds 4 1017 66 0 1.01 288.922 07:24 15.06.2019
6365 Clouds 4 1017 66 0 1.01 288.922 06:41 15.06.2019
6366 Clouds 5 1017 66 0 0.67 327.922 06:18 15.06.2019
6367 Clouds 5 1017 66 0 0.67 327.922 05:27 15.06.2019
6368 Clouds 5 1017 66 0 0.67 327.922 04:44 15.06.2019
6369 Clouds 5 1017 66 0 0.67 327.922 04:44 15.06.2019
6370 Clouds 5 1017 66 0 0.67 327.922 04:44 15.06.2019
6371 Clouds 5 1017 66 0 0.67 327.922 04:44 15.06.2019
6372 Clouds 5 1017 66 0 0.67 327.922 04:44 15.06.2019
6373 Clouds 5 1017 66 0 0.67 327.922 03:44 15.06.2019
6374 Clouds 7 1015 55 0 1.7 82.445 02:56 15.06.2019
6375 Clouds 7 1015 55 0 1.7 82.445 02:22 15.06.2019
6376 Clouds 7 1015 55 0 1.7 82.445 01:45 15.06.2019
6377 Clouds 7 1015 55 0 1.7 82.445 00:57 15.06.2019
6378 Clouds 7 1015 55 0 1.7 82.445 00:39 15.06.2019
6379 Clouds 12 1012 30 0 4.77 30.568 23:55 14.06.2019
6380 Clouds 11 1012 30 0 6.15 29.506 23:26 14.06.2019
6381 Clouds 11 1012 30 0 6.15 29.506 22:55 14.06.2019
6382 Clouds 11 1012 30 0 6.15 29.506 22:37 14.06.2019
6383 Clouds 11 1012 30 0 6.15 29.506 22:19 14.06.2019
6384 Clouds 11 1012 30 0 6.15 29.506 21:40 14.06.2019
6385 Clouds 13 1013 27 0 4.35 19.578 21:22 14.06.2019
6386 Clouds 13 1013 27 0 4.35 19.578 20:43 14.06.2019
6387 Clouds 13 1013 27 0 4.35 19.578 20:43 14.06.2019
6388 Clouds 16 1040 31 10000 2.1 60 20:19 14.06.2019
6389 Clouds 16 1040 31 10000 2.1 60 19:56 14.06.2019
6390 Clouds 16 1040 31 10000 2.1 60 19:36 14.06.2019
6391 Clouds 15 1041 27 10000 2.1 60 19:18 14.06.2019
6392 Clouds 15 1041 27 10000 2.1 60 18:42 14.06.2019
6393 Clouds 13 1041 37 10000 2.76 32.942 18:24 14.06.2019
6394 Clouds 13 1041 37 10000 2.76 32.942 18:24 14.06.2019
6395 Clouds 13 1041 37 10000 2.76 32.942 17:55 14.06.2019
6396 Clouds 13 1041 37 10000 2.76 32.942 17:37 14.06.2019
6397 Clouds 9 1042 45 10000 3.1 240 17:19 14.06.2019
6398 Clouds 9 1042 45 10000 3.1 240 16:45 14.06.2019
6399 Clouds 7 1043 52 10000 2.6 240 16:20 14.06.2019
6400 Clouds 7 1043 52 10000 2.6 240 16:20 14.06.2019
6401 Clouds 7 1043 52 10000 2.6 240 15:57 14.06.2019
6402 Clouds 7 1043 52 10000 2.6 240 15:38 14.06.2019
6403 Clouds 5 1042 56 10000 1.21 243.944 15:18 14.06.2019
6404 Clouds 5 1042 56 10000 1.21 243.944 14:40 14.06.2019
6405 Clouds 2 1042 64 10000 2.6 240 14:21 14.06.2019
6406 Clouds 2 1042 64 10000 2.6 240 13:44 14.06.2019
6407 Clouds 2 1042 64 10000 2.6 240 13:24 14.06.2019
6408 Clouds 1 1042 74 10000 1.5 240 12:44 14.06.2019
6409 Clouds 1 1042 74 10000 1.5 240 12:26 14.06.2019
6410 Clouds 2 1019 53 0 0.82 258.226 11:58 14.06.2019
6411 Clouds 2 1019 53 0 0.82 258.226 11:39 14.06.2019
6412 Clouds 2 1019 53 0 0.82 258.226 11:20 14.06.2019
6413 Clouds 2 1019 53 0 0.82 258.226 10:44 14.06.2019
6414 Clouds 2 1019 53 0 0.82 258.226 10:20 14.06.2019
6415 Clouds 2 1019 53 0 0.82 258.226 09:48 14.06.2019
6416 Clouds 4 1019 29 0 1.9 231.866 09:25 14.06.2019
6417 Clouds 4 1019 29 0 1.9 231.866 09:25 14.06.2019
6418 Clouds 4 1019 29 0 1.9 231.866 08:47 14.06.2019
6419 Clouds 4 1019 29 0 1.9 231.866 08:19 14.06.2019
6420 Clouds 4 1019 29 0 1.9 231.866 07:51 14.06.2019
6421 Clouds 4 1019 29 0 1.9 231.866 07:22 14.06.2019
6422 Clouds 4 1019 29 0 1.9 231.866 06:48 14.06.2019
6423 Clear 6 1020 28 0 1.72 207.058 05:58 14.06.2019
6424 Clear 6 1020 28 0 1.72 207.058 05:33 14.06.2019
6425 Clear 6 1020 28 0 1.72 207.058 04:51 14.06.2019
6426 Clear 6 1020 28 0 1.72 207.058 03:59 14.06.2019
6427 Clouds 8 1017 27 0 2.82 237.773 03:26 14.06.2019
6428 Clouds 8 1017 27 0 2.82 237.773 02:58 14.06.2019
6429 Clouds 8 1017 27 0 2.82 237.773 02:28 14.06.2019
6430 Clouds 8 1017 27 0 2.82 237.773 02:28 14.06.2019
6431 Clouds 8 1017 27 0 2.82 237.773 01:35 14.06.2019
6432 Clouds 8 1017 27 0 2.82 237.773 00:36 14.06.2019
6433 Clouds 13 1012 20 0 6.25 287.463 00:18 14.06.2019
6434 Clouds 13 1012 20 0 6.25 287.463 23:48 13.06.2019
6435 Clouds 13 1012 20 0 6.25 287.463 23:24 13.06.2019
6436 Clouds 13 1012 20 0 6.25 287.463 22:40 13.06.2019
6437 Clouds 13 1012 20 0 6.25 287.463 22:22 13.06.2019
6438 Clouds 13 1012 20 0 6.25 287.463 21:58 13.06.2019
6439 Clouds 13 1012 20 0 6.25 287.463 21:36 13.06.2019
6440 Clear 14 1014 17 0 4.55 307.225 21:18 13.06.2019
6441 Clear 14 1014 17 0 4.55 307.225 20:44 13.06.2019
6442 Clear 14 1014 17 0 4.55 307.225 20:20 13.06.2019
6443 Clear 14 1014 17 0 4.55 307.225 20:20 13.06.2019
6444 Clear 14 1014 17 0 4.55 307.225 19:43 13.06.2019
6445 Clear 14 1014 17 0 4.55 307.225 19:25 13.06.2019
6446 Clear 14 1014 17 0 4.55 307.225 18:58 13.06.2019
6447 Clear 14 1014 17 0 4.55 307.225 18:40 13.06.2019
6448 Clear 11 1018 16 0 1.38 288.042 18:22 13.06.2019
6449 Clear 11 1018 16 0 1.38 288.042 17:44 13.06.2019
6450 Clear 11 1018 16 0 1.38 288.042 17:21 13.06.2019
6451 Clear 11 1018 16 0 1.38 288.042 16:58 13.06.2019
6452 Clear 11 1018 16 0 1.38 288.042 16:38 13.06.2019
6453 Clear 11 1018 16 0 1.38 288.042 16:18 13.06.2019
6454 Clear 11 1018 16 0 1.38 288.042 15:41 13.06.2019
6455 Clouds 5 1021 23 0 3.13 235.487 15:22 13.06.2019
6456 Clouds 5 1021 23 0 3.13 235.487 14:50 13.06.2019
6457 Clouds 5 1021 23 0 3.13 235.487 14:31 13.06.2019
6458 Clouds 5 1021 23 0 3.13 235.487 13:55 13.06.2019
6459 Clouds 5 1021 23 0 3.13 235.487 13:37 13.06.2019
6460 Clouds 5 1021 23 0 3.13 235.487 13:19 13.06.2019
6461 Clouds 5 1021 23 0 3.13 235.487 12:40 13.06.2019
6462 Clouds 3 1019 24 0 3.14 232.085 12:21 13.06.2019
6463 Clouds 3 1019 24 0 3.14 232.085 11:45 13.06.2019
6464 Clouds 3 1019 24 0 3.14 232.085 11:26 13.06.2019
6465 Clouds 3 1019 24 0 3.14 232.085 10:51 13.06.2019
6466 Clouds 3 1019 24 0 3.14 232.085 10:31 13.06.2019
6467 Clouds 3 1019 24 0 3.14 232.085 09:56 13.06.2019
6468 Clouds 3 1019 24 0 3.14 232.085 09:38 13.06.2019
6469 Clouds 4 1019 24 0 1.63 238.151 09:20 13.06.2019
6470 Clouds 4 1019 24 0 1.63 238.151 08:43 13.06.2019
6471 Clouds 4 1019 24 0 1.63 238.151 08:22 13.06.2019
6472 Clouds 4 1019 24 0 1.63 238.151 07:42 13.06.2019
6473 Clouds 4 1019 24 0 1.63 238.151 07:24 13.06.2019
6474 Clouds 4 1019 24 0 1.63 238.151 06:45 13.06.2019
6475 Clouds 5 1019 25 0 0.9 268.029 06:22 13.06.2019
6476 Clouds 5 1019 25 0 0.9 268.029 05:54 13.06.2019
6477 Clouds 5 1019 25 0 0.9 268.029 05:36 13.06.2019
6478 Clouds 5 1019 25 0 0.9 268.029 04:55 13.06.2019
6479 Clouds 7 1016 23 0 0.96 267.97 02:23 13.06.2019
6480 Clouds 7 1016 23 0 0.96 267.97 00:47 13.06.2019
6481 Clouds 13 1013 13 0 3.42 299.305 23:52 12.06.2019
6482 Clouds 13 1013 13 0 3.42 299.305 23:23 12.06.2019
6483 Clouds 13 1013 13 0 3.42 299.305 22:44 12.06.2019
6484 Clouds 13 1013 13 0 3.42 299.305 22:25 12.06.2019
6485 Clouds 13 1013 13 0 3.42 299.305 21:56 12.06.2019
6486 Clouds 13 1013 13 0 3.42 299.305 21:37 12.06.2019
6487 Clouds 13 1014 12 0 4.39 310.145 21:18 12.06.2019
6488 Clouds 13 1014 12 0 4.39 310.145 21:18 12.06.2019
6489 Clouds 13 1014 12 0 4.39 310.145 20:38 12.06.2019
6490 Clouds 14 1039 30 10000 2.1 240 20:20 12.06.2019
6491 Clouds 14 1039 30 10000 2.1 240 19:42 12.06.2019
6492 Clouds 14 1039 30 10000 2.1 240 19:23 12.06.2019
6493 Clouds 13 1040 35 10000 3.1 240 18:57 12.06.2019
6494 Clouds 13 1040 35 10000 3.1 240 18:39 12.06.2019
6495 Clouds 11 1041 40 10000 1.5 240 18:19 12.06.2019
6496 Clouds 11 1041 40 10000 1.5 240 17:44 12.06.2019
6497 Clouds 8 1042 45 10000 2.1 240 17:21 12.06.2019
6498 Clouds 8 1042 45 10000 2.1 240 16:42 12.06.2019
6499 Clouds 8 1042 45 10000 2.1 240 16:23 12.06.2019
6500 Clouds 4 1042 55 10000 2.6 240 15:54 12.06.2019
6501 Clouds 4 1042 55 10000 2.6 240 15:32 12.06.2019
6502 Clouds 2 1042 64 10000 1.5 240 14:50 12.06.2019
6503 Clouds 2 1042 64 10000 1.5 240 14:29 12.06.2019
6504 Clouds 1 1041 69 10000 1.5 240 13:55 12.06.2019
6505 Clouds 1 1041 69 10000 1.5 240 13:36 12.06.2019
6506 Clouds 0 1040 18 10000 2.1 240 13:18 12.06.2019
6507 Clouds 0 1040 18 10000 2.1 240 12:39 12.06.2019
6508 Clear 1 1020 18 0 2.37 255.711 12:19 12.06.2019
6509 Clear 1 1020 18 0 2.37 255.711 11:47 12.06.2019
6510 Clear 1 1020 18 0 2.37 255.711 11:29 12.06.2019
6511 Clear 1 1020 18 0 2.37 255.711 10:55 12.06.2019
6512 Clear 1 1020 18 0 2.37 255.711 10:36 12.06.2019
6513 Clear 1 1020 18 0 2.37 255.711 09:59 12.06.2019
6514 Clear 1 1020 18 0 2.37 255.711 09:40 12.06.2019
6515 Clear 3 1020 14 0 2.56 241.132 09:18 12.06.2019
6516 Clear 3 1020 14 0 2.56 241.132 08:27 12.06.2019
6517 Clear 3 1020 14 0 2.56 241.132 07:56 12.06.2019
6518 Clear 3 1020 14 0 2.56 241.132 07:18 12.06.2019
6519 Clear 3 1020 14 0 2.56 241.132 06:33 12.06.2019
6520 Clear 4 1019 14 0 2.13 253.911 05:25 12.06.2019
6521 Clear 6 1017 14 0 3.66 254.549 02:22 12.06.2019
6522 Clear 6 1017 14 0 3.62 255.83 00:46 12.06.2019
6523 Clear 12 1013 9 0 6.73 272.649 23:57 11.06.2019
6524 Clear 12 1013 9 0 6.73 272.649 23:39 11.06.2019
6525 Clear 12 1013 9 0 6.73 272.649 23:20 11.06.2019
6526 Clear 12 1012 9 0 6.79 273.908 22:41 11.06.2019
6527 Clear 12 1012 9 0 6.79 273.908 22:18 11.06.2019
6528 Clear 12 1012 9 0 6.79 273.908 21:55 11.06.2019
6529 Clear 12 1012 9 0 6.79 273.908 21:36 11.06.2019
6530 Clouds 13 1014 6 0 4.61 288.124 21:18 11.06.2019
6531 Clouds 13 1014 6 0 4.61 288.124 20:42 11.06.2019
6532 Clouds 14 1038 19 10000 3.6 240 20:22 11.06.2019
6533 Clouds 14 1038 19 10000 3.6 240 19:51 11.06.2019
6534 Clouds 13 1039 24 10000 2.6 240 19:29 11.06.2019
6535 -273 0 0 0 0 0 18:49 11.06.2019
6536 Clouds 9 1041 34 10000 3.1 240 18:20 11.06.2019
6537 Clouds 9 1041 34 10000 3.1 240 17:42 11.06.2019
6538 Clouds 7 1041 42 10000 3.6 240 17:22 11.06.2019
6539 Clouds 7 1041 42 10000 3.6 240 16:46 11.06.2019
6540 Clouds 4 1042 55 10000 3.1 240 16:24 11.06.2019
6541 Clouds 4 1042 55 10000 3.1 240 15:59 11.06.2019
6542 Clouds 4 1042 55 10000 3.1 240 15:41 11.06.2019
6543 Clouds 1 1041 74 10000 2.6 240 15:19 11.06.2019
6544 Clouds 1 1041 74 10000 2.6 240 14:41 11.06.2019
6545 Clouds 0 1040 18 10000 2.1 240 14:20 11.06.2019
6546 Clouds 0 1040 18 10000 2.1 240 13:50 11.06.2019
6547 Clouds 0 1040 18 10000 2.6 240 13:23 11.06.2019
6548 Clouds 0 1040 20 10000 2.6 240 12:43 11.06.2019
6549 Clouds 0 1040 20 10000 2.6 240 12:43 11.06.2019
6550 Clear 0 1020 24 0 2.33 262.246 12:22 11.06.2019
6551 Clear 0 1020 24 0 2.33 262.246 11:58 11.06.2019
6552 Clear 0 1020 24 0 2.33 262.246 11:36 11.06.2019
6553 Clear 0 1020 24 0 2.33 262.246 11:18 11.06.2019
6554 Clear 0 1020 24 0 2.33 262.246 10:43 11.06.2019
6555 Clear 0 1020 24 0 2.33 262.246 10:24 11.06.2019
6556 Clear 0 1020 24 0 2.33 262.246 09:46 11.06.2019
6557 Clear 2 1019 23 0 2.38 257.108 09:23 11.06.2019
6558 Clear 2 1019 23 0 2.38 257.108 08:42 11.06.2019
6559 Clear 2 1019 23 0 2.38 257.108 08:23 11.06.2019
6560 Clear 2 1019 23 0 2.38 257.108 07:37 11.06.2019
6561 Clear 2 1020 22 0 1.72 260.384 06:54 11.06.2019
6562 Clear 4 1019 20 0 2.16 239.982 06:24 11.06.2019
6563 Clear 4 1019 20 0 2.16 239.982 04:49 11.06.2019
6564 Clouds 6 1018 19 0 2.95 247.135 02:44 11.06.2019
6565 Clouds 6 1018 19 0 3.07 249.726 01:23 11.06.2019
6566 Clouds 6 1018 19 0 3.07 249.726 00:45 11.06.2019
6567 Clouds 11 1013 12 0 6.03 274.649 23:47 10.06.2019
6568 Clouds 11 1013 12 0 5.52 275.529 23:21 10.06.2019
6569 Clouds 11 1013 12 0 5.52 275.529 22:49 10.06.2019
6570 Clouds 11 1013 12 0 5.52 275.529 22:31 10.06.2019
6571 Clouds 11 1013 12 0 5.52 275.529 21:59 10.06.2019
6572 Clouds 11 1013 12 0 5.52 275.529 21:39 10.06.2019
6573 Clouds 13 1014 9 0 6.96 270.016 21:21 10.06.2019
6574 Clouds 13 1014 9 0 6.96 270.016 20:44 10.06.2019
6575 Clouds 13 1014 9 0 6.96 270.016 20:23 10.06.2019
6576 Clouds 13 1014 9 0 6.96 270.016 19:53 10.06.2019
6577 Clouds 13 1037 32 10000 2.6 240 19:27 10.06.2019
6578 Clouds 13 1037 32 10000 2.6 240 18:59 10.06.2019
6579 Clouds 13 1037 32 10000 2.6 240 18:40 10.06.2019
6580 Clouds 10 1039 39 10000 2.1 240 18:20 10.06.2019
6581 Clouds 10 1039 39 10000 2.1 240 17:58 10.06.2019
6582 Clouds 10 1039 39 10000 2.1 240 17:37 10.06.2019
6583 Clouds 7 1039 52 10000 3.1 240 17:19 10.06.2019
6584 Clouds 7 1039 52 10000 3.1 240 16:42 10.06.2019
6585 Clouds 5 1040 56 10000 2.6 240 16:22 10.06.2019
6586 Clouds 5 1040 56 10000 2.6 240 15:42 10.06.2019
6587 Clear 5 1040 56 10000 2.6 240 15:24 10.06.2019
6588 Clear 3 1039 64 10000 2.1 240 14:49 10.06.2019
6589 Clear 3 1039 64 10000 2.1 240 14:31 10.06.2019
6590 Clear 1 1038 74 10000 1.5 240 13:59 10.06.2019
6591 Clear 1 1038 74 10000 1.5 240 13:40 10.06.2019
6592 Clear 0 1038 25 10000 1.5 240 13:21 10.06.2019
6593 Clear 0 1038 26 10000 1.5 240 12:42 10.06.2019
6594 Clear 1 1019 29 0 2.9 261.105 12:23 10.06.2019
6595 Clear 1 1019 29 0 2.9 261.105 11:44 10.06.2019
6596 Clear 1 1019 29 0 2.9 261.105 11:24 10.06.2019
6597 Clear 1 1019 29 0 2.9 261.105 10:43 10.06.2019
6598 Clear 1 1019 29 0 2.9 261.105 10:21 10.06.2019
6599 Clear 1 1019 29 0 2.9 261.105 09:57 10.06.2019
6600 Clear 1 1019 29 0 2.9 261.105 09:38 10.06.2019
6601 Clear 2 1019 25 0 2.74 253.793 09:19 10.06.2019
6602 Clear 2 1019 25 0 2.74 253.793 08:45 10.06.2019
6603 Clear 2 1019 25 0 2.74 253.793 08:25 10.06.2019
6604 Clear 2 1019 25 0 2.74 253.793 07:20 10.06.2019
6605 Clear 4 1019 22 0 2.87 245.853 04:30 10.06.2019
6606 Clear 6 1016 19 0 3.59 261.193 01:59 10.06.2019
6607 Clear 6 1016 19 0 3.59 261.193 01:26 10.06.2019
6608 Clear 6 1016 19 0 3.59 261.193 00:58 10.06.2019
6609 Clear 12 1012 16 0 8.05 269.239 00:23 10.06.2019
6610 Clear 12 1012 16 0 8.05 269.239 23:44 09.06.2019
6611 Clear 12 1012 16 0 8.05 269.239 23:20 09.06.2019
6612 Clear 12 1012 16 0 8.05 269.239 22:45 09.06.2019
6613 Clear 12 1012 16 0 8.05 269.239 22:25 09.06.2019
6614 Clear 12 1012 16 0 8.05 269.239 21:46 09.06.2019
6615 Clear 12 1012 16 0 8.05 269.239 21:27 09.06.2019
6616 Clear 14 1013 9 0 7.15 276.614 20:45 09.06.2019
6617 Clear 14 1013 9 0 7.15 276.614 20:24 09.06.2019
6618 Clear 14 1013 9 0 7.15 276.614 19:58 09.06.2019
6619 Clear 14 1013 9 0 7.15 276.614 19:39 09.06.2019
6620 Clear 14 1013 10 0 7.43 274.127 19:18 09.06.2019
6621 Clear 14 1013 10 0 7.43 274.127 18:42 09.06.2019
6622 Clear 11 1018 14 0 3.74 292.438 18:24 09.06.2019
6623 Clear 11 1018 14 0 3.74 292.438 17:48 09.06.2019
6624 Clear 8 1039 42 10000 1.5 240 17:28 09.06.2019
6625 Clear 8 1039 42 10000 1.5 240 16:55 09.06.2019
6626 Clear 8 1039 42 10000 1.5 240 16:37 09.06.2019
6627 Clear 6 1040 56 10000 2.1 240 16:19 09.06.2019
6628 Clear 6 1040 56 10000 2.1 240 15:47 09.06.2019
6629 Clear 6 1040 56 10000 2.1 240 15:28 09.06.2019
6630 Clear 3 1040 74 10000 2.6 240 14:46 09.06.2019
6631 Clear 3 1040 74 10000 2.6 240 14:46 09.06.2019
6632 Clear 3 1040 74 10000 2.6 240 14:26 09.06.2019
6633 Clear 0 1039 26 10000 3.1 240 13:56 09.06.2019
6634 Clear 0 1039 26 10000 3.1 240 13:36 09.06.2019
6635 Clear -1 1038 86 10000 2.6 240 12:44 09.06.2019
6636 Clear -1 1038 86 10000 2.6 240 12:26 09.06.2019
6637 Clear 1 1020 22 0 2.12 281.703 11:48 09.06.2019
6638 Clear 1 1020 22 0 2.12 281.703 11:29 09.06.2019
6639 Clear 0 1020 36 0 1.91 297.331 10:47 09.06.2019
6640 Clear 0 1020 36 0 1.91 297.331 10:25 09.06.2019
6641 Clear 0 1020 36 0 1.91 297.331 09:56 09.06.2019
6642 Clear 0 1020 36 0 1.91 297.331 09:37 09.06.2019
6643 Clear 1 1020 42 0 1.33 317.004 09:18 09.06.2019
6644 Clear 2 1020 30 0 1.4 297.483 08:42 09.06.2019
6645 Clear 2 1020 30 0 1.4 297.483 07:50 09.06.2019
6646 Clear 2 1020 30 0 1.4 297.483 06:33 09.06.2019
6647 Clear 3 1020 36 0 1.3 331.241 05:52 09.06.2019
6648 Clear 6 1018 30 0 1.8 53.461 02:55 09.06.2019
6649 Clear 6 1018 30 0 1.8 53.461 01:37 09.06.2019
6650 Clear 6 1018 30 0 1.8 53.461 01:37 09.06.2019
6651 Clear 6 1018 34 0 2.5 49.921 01:18 09.06.2019
6652 Clear 12 1013 11 0 3.53 66.985 00:22 09.06.2019
6653 Clear 12 1013 11 0 3.53 66.985 23:40 08.06.2019
6654 Clear 12 1013 11 0 3.53 66.985 23:22 08.06.2019
6655 Clear 12 1013 11 0 3.53 66.985 22:45 08.06.2019
6656 Clear 12 1013 11 0 3.53 66.985 22:26 08.06.2019
6657 Clear 12 1013 11 0 3.53 66.985 21:58 08.06.2019
6658 Clear 12 1013 11 0 3.53 66.985 21:39 08.06.2019
6659 Clear 13 1014 6 0 1.07 73.907 21:20 08.06.2019
6660 Clear 13 1014 6 0 1.07 73.907 20:43 08.06.2019
6661 Clear 13 1014 6 0 1.07 73.907 20:24 08.06.2019
6662 Clear 13 1014 6 0 1.07 73.907 19:55 08.06.2019
6663 Clear 13 1014 6 0 1.07 73.907 19:36 08.06.2019
6664 Clear 13 1014 6 0 1.55 49.515 19:18 08.06.2019
6665 Clear 13 1014 6 0 1.55 49.515 18:40 08.06.2019
6666 Clear 11 1018 7 0 0.59 289.667 18:20 08.06.2019
6667 Clear 11 1018 7 0 0.59 289.667 17:43 08.06.2019